<?xml version="1.0" encoding="UTF-8" standalone="no" ?>
<gpx xmlns="http://www.topografix.com/GPX/1/1" xmlns:xsi="http://www.w3.org/2001/XMLSchema-instance" xsi:schemaLocation="http://www.topografix.com/GPX/1/1 http://www.topografix.com/GPX/1/1/gpx.xsd" version="1.1" creator="VisuGPX - https://www.visugpx.com">
  <metadata>
    <name>dugas,font de barda</name>
    <desc><![CDATA[terrain de l\'amitié, ft de barda, supprimer le trajet routier à l\'aller pernes-dugas]]></desc>
  </metadata>
  <trk>
    <name><![CDATA[DUGASFONTBARDA]]></name>
    <trkseg>
      <trkpt lat="43.99677" lon="5.06144">
        <ele>114.53</ele>
        <time>2012-04-08T14:57:56Z</time>
      </trkpt>
      <trkpt lat="43.99677" lon="5.06144">
        <ele>115.01</ele>
        <time>2012-04-08T14:57:58Z</time>
      </trkpt>
      <trkpt lat="43.99673" lon="5.06144">
        <ele>113.57</ele>
        <time>2012-04-08T14:58:04Z</time>
      </trkpt>
      <trkpt lat="43.99669" lon="5.06139">
        <ele>115.5</ele>
        <time>2012-04-08T14:58:10Z</time>
      </trkpt>
      <trkpt lat="43.99663" lon="5.06137">
        <ele>111.65</ele>
        <time>2012-04-08T14:58:34Z</time>
      </trkpt>
      <trkpt lat="43.99663" lon="5.06137">
        <ele>110.21</ele>
        <time>2012-04-08T14:58:36Z</time>
      </trkpt>
      <trkpt lat="43.99661" lon="5.06134">
        <ele>113.57</ele>
        <time>2012-04-08T14:58:40Z</time>
      </trkpt>
      <trkpt lat="43.9966" lon="5.06127">
        <ele>113.57</ele>
        <time>2012-04-08T14:58:46Z</time>
      </trkpt>
      <trkpt lat="43.99661" lon="5.06125">
        <ele>114.53</ele>
        <time>2012-04-08T14:58:52Z</time>
      </trkpt>
      <trkpt lat="43.99667" lon="5.06115">
        <ele>114.53</ele>
        <time>2012-04-08T14:59:18Z</time>
      </trkpt>
      <trkpt lat="43.99669" lon="5.06117">
        <ele>113.57</ele>
        <time>2012-04-08T14:59:45Z</time>
      </trkpt>
      <trkpt lat="43.99669" lon="5.06117">
        <ele>114.53</ele>
        <time>2012-04-08T15:00:06Z</time>
      </trkpt>
      <trkpt lat="43.99669" lon="5.06117">
        <ele>114.53</ele>
        <time>2012-04-08T15:00:27Z</time>
      </trkpt>
      <trkpt lat="43.99669" lon="5.06117">
        <ele>115.5</ele>
        <time>2012-04-08T15:00:50Z</time>
      </trkpt>
      <trkpt lat="43.9967" lon="5.06118">
        <ele>115.01</ele>
        <time>2012-04-08T15:01:12Z</time>
      </trkpt>
      <trkpt lat="43.9967" lon="5.06118">
        <ele>114.05</ele>
        <time>2012-04-08T15:01:36Z</time>
      </trkpt>
      <trkpt lat="43.9967" lon="5.06118">
        <ele>113.57</ele>
        <time>2012-04-08T15:01:59Z</time>
      </trkpt>
      <trkpt lat="43.99667" lon="5.06125">
        <ele>113.57</ele>
        <time>2012-04-08T15:02:04Z</time>
      </trkpt>
      <trkpt lat="43.99669" lon="5.06136">
        <ele>114.05</ele>
        <time>2012-04-08T15:02:20Z</time>
      </trkpt>
      <trkpt lat="43.99666" lon="5.06129">
        <ele>112.61</ele>
        <time>2012-04-08T15:02:41Z</time>
      </trkpt>
      <trkpt lat="43.99666" lon="5.06129">
        <ele>114.05</ele>
        <time>2012-04-08T15:02:45Z</time>
      </trkpt>
      <trkpt lat="43.99666" lon="5.06129">
        <ele>111.17</ele>
        <time>2012-04-08T15:02:49Z</time>
      </trkpt>
      <trkpt lat="43.99666" lon="5.06129">
        <ele>109.73</ele>
        <time>2012-04-08T15:02:51Z</time>
      </trkpt>
      <trkpt lat="43.99666" lon="5.06129">
        <ele>113.09</ele>
        <time>2012-04-08T15:02:53Z</time>
      </trkpt>
      <trkpt lat="43.99666" lon="5.06129">
        <ele>113.09</ele>
        <time>2012-04-08T15:02:54Z</time>
      </trkpt>
      <trkpt lat="43.99666" lon="5.06129">
        <ele>111.65</ele>
        <time>2012-04-08T15:03:11Z</time>
      </trkpt>
      <trkpt lat="43.99665" lon="5.06128">
        <ele>112.61</ele>
        <time>2012-04-08T15:03:20Z</time>
      </trkpt>
      <trkpt lat="43.99665" lon="5.06128">
        <ele>111.65</ele>
        <time>2012-04-08T15:03:30Z</time>
      </trkpt>
      <trkpt lat="43.99665" lon="5.06128">
        <ele>114.53</ele>
        <time>2012-04-08T15:03:34Z</time>
      </trkpt>
      <trkpt lat="43.99665" lon="5.06128">
        <ele>114.05</ele>
        <time>2012-04-08T15:04:03Z</time>
      </trkpt>
      <trkpt lat="43.99665" lon="5.06128">
        <ele>113.57</ele>
        <time>2012-04-08T15:04:23Z</time>
      </trkpt>
      <trkpt lat="43.99664" lon="5.06126">
        <ele>114.53</ele>
        <time>2012-04-08T15:04:41Z</time>
      </trkpt>
      <trkpt lat="43.99664" lon="5.06126">
        <ele>114.53</ele>
        <time>2012-04-08T15:05:04Z</time>
      </trkpt>
      <trkpt lat="43.99663" lon="5.06125">
        <ele>113.09</ele>
        <time>2012-04-08T15:05:34Z</time>
      </trkpt>
      <trkpt lat="43.99663" lon="5.06125">
        <ele>111.65</ele>
        <time>2012-04-08T15:05:40Z</time>
      </trkpt>
      <trkpt lat="43.99662" lon="5.06126">
        <ele>114.05</ele>
        <time>2012-04-08T15:06:05Z</time>
      </trkpt>
      <trkpt lat="43.99662" lon="5.06126">
        <ele>113.09</ele>
        <time>2012-04-08T15:06:32Z</time>
      </trkpt>
      <trkpt lat="43.99662" lon="5.06126">
        <ele>114.53</ele>
        <time>2012-04-08T15:06:54Z</time>
      </trkpt>
      <trkpt lat="43.99662" lon="5.06126">
        <ele>112.61</ele>
        <time>2012-04-08T15:07:16Z</time>
      </trkpt>
      <trkpt lat="43.99662" lon="5.06126">
        <ele>112.61</ele>
        <time>2012-04-08T15:07:41Z</time>
      </trkpt>
      <trkpt lat="43.99663" lon="5.06126">
        <ele>115.01</ele>
        <time>2012-04-08T15:08:07Z</time>
      </trkpt>
      <trkpt lat="43.99663" lon="5.06125">
        <ele>113.57</ele>
        <time>2012-04-08T15:08:29Z</time>
      </trkpt>
      <trkpt lat="43.99665" lon="5.06114">
        <ele>114.05</ele>
        <time>2012-04-08T15:08:50Z</time>
      </trkpt>
      <trkpt lat="43.99665" lon="5.06114">
        <ele>114.53</ele>
        <time>2012-04-08T15:09:11Z</time>
      </trkpt>
      <trkpt lat="43.99667" lon="5.06112">
        <ele>113.57</ele>
        <time>2012-04-08T15:09:34Z</time>
      </trkpt>
      <trkpt lat="43.99667" lon="5.0611">
        <ele>112.61</ele>
        <time>2012-04-08T15:09:58Z</time>
      </trkpt>
      <trkpt lat="43.99659" lon="5.06111">
        <ele>114.05</ele>
        <time>2012-04-08T15:10:14Z</time>
      </trkpt>
      <trkpt lat="43.99658" lon="5.06112">
        <ele>114.53</ele>
        <time>2012-04-08T15:10:36Z</time>
      </trkpt>
      <trkpt lat="43.99659" lon="5.06103">
        <ele>114.05</ele>
        <time>2012-04-08T15:11:00Z</time>
      </trkpt>
      <trkpt lat="43.99665" lon="5.06102">
        <ele>114.05</ele>
        <time>2012-04-08T15:11:29Z</time>
      </trkpt>
      <trkpt lat="43.99664" lon="5.06101">
        <ele>113.57</ele>
        <time>2012-04-08T15:11:54Z</time>
      </trkpt>
      <trkpt lat="43.99664" lon="5.06101">
        <ele>115.01</ele>
        <time>2012-04-08T15:12:20Z</time>
      </trkpt>
      <trkpt lat="43.99665" lon="5.06101">
        <ele>113.57</ele>
        <time>2012-04-08T15:12:45Z</time>
      </trkpt>
      <trkpt lat="43.99664" lon="5.06101">
        <ele>113.57</ele>
        <time>2012-04-08T15:13:12Z</time>
      </trkpt>
      <trkpt lat="43.99664" lon="5.06101">
        <ele>115.01</ele>
        <time>2012-04-08T15:13:21Z</time>
      </trkpt>
      <trkpt lat="43.99664" lon="5.06101">
        <ele>113.09</ele>
        <time>2012-04-08T15:13:24Z</time>
      </trkpt>
      <trkpt lat="43.99665" lon="5.06095">
        <ele>115.5</ele>
        <time>2012-04-08T15:13:44Z</time>
      </trkpt>
      <trkpt lat="43.99665" lon="5.06095">
        <ele>113.09</ele>
        <time>2012-04-08T15:13:51Z</time>
      </trkpt>
      <trkpt lat="43.99665" lon="5.06095">
        <ele>113.57</ele>
        <time>2012-04-08T15:14:14Z</time>
      </trkpt>
      <trkpt lat="43.99665" lon="5.06095">
        <ele>114.05</ele>
        <time>2012-04-08T15:14:40Z</time>
      </trkpt>
      <trkpt lat="43.99665" lon="5.06095">
        <ele>114.53</ele>
        <time>2012-04-08T15:15:04Z</time>
      </trkpt>
      <trkpt lat="43.99665" lon="5.06095">
        <ele>114.53</ele>
        <time>2012-04-08T15:15:29Z</time>
      </trkpt>
      <trkpt lat="43.99665" lon="5.06095">
        <ele>114.53</ele>
        <time>2012-04-08T15:15:51Z</time>
      </trkpt>
      <trkpt lat="43.99665" lon="5.06095">
        <ele>114.05</ele>
        <time>2012-04-08T15:15:53Z</time>
      </trkpt>
      <trkpt lat="43.99664" lon="5.06095">
        <ele>113.57</ele>
        <time>2012-04-08T15:16:17Z</time>
      </trkpt>
      <trkpt lat="43.99663" lon="5.06098">
        <ele>114.53</ele>
        <time>2012-04-08T15:16:40Z</time>
      </trkpt>
      <trkpt lat="43.99664" lon="5.06107">
        <ele>115.98</ele>
        <time>2012-04-08T15:16:48Z</time>
      </trkpt>
      <trkpt lat="43.99664" lon="5.06107">
        <ele>114.05</ele>
        <time>2012-04-08T15:17:10Z</time>
      </trkpt>
      <trkpt lat="43.99671" lon="5.06099">
        <ele>114.05</ele>
        <time>2012-04-08T15:17:35Z</time>
      </trkpt>
      <trkpt lat="43.99671" lon="5.06099">
        <ele>114.05</ele>
        <time>2012-04-08T15:18:01Z</time>
      </trkpt>
      <trkpt lat="43.9967" lon="5.06099">
        <ele>115.5</ele>
        <time>2012-04-08T15:18:22Z</time>
      </trkpt>
      <trkpt lat="43.9967" lon="5.06099">
        <ele>114.05</ele>
        <time>2012-04-08T15:18:43Z</time>
      </trkpt>
      <trkpt lat="43.9967" lon="5.06099">
        <ele>114.05</ele>
        <time>2012-04-08T15:19:03Z</time>
      </trkpt>
      <trkpt lat="43.99671" lon="5.06099">
        <ele>114.05</ele>
        <time>2012-04-08T15:19:28Z</time>
      </trkpt>
      <trkpt lat="43.99673" lon="5.06095">
        <ele>114.05</ele>
        <time>2012-04-08T15:19:48Z</time>
      </trkpt>
      <trkpt lat="43.99673" lon="5.06095">
        <ele>114.53</ele>
        <time>2012-04-08T15:20:13Z</time>
      </trkpt>
      <trkpt lat="43.99673" lon="5.06096">
        <ele>114.53</ele>
        <time>2012-04-08T15:20:40Z</time>
      </trkpt>
      <trkpt lat="43.99678" lon="5.06097">
        <ele>115.01</ele>
        <time>2012-04-08T15:20:52Z</time>
      </trkpt>
      <trkpt lat="43.99683" lon="5.06101">
        <ele>115.01</ele>
        <time>2012-04-08T15:21:12Z</time>
      </trkpt>
      <trkpt lat="43.99683" lon="5.06101">
        <ele>111.65</ele>
        <time>2012-04-08T15:21:25Z</time>
      </trkpt>
      <trkpt lat="43.99683" lon="5.06101">
        <ele>114.53</ele>
        <time>2012-04-08T15:21:32Z</time>
      </trkpt>
      <trkpt lat="43.99683" lon="5.06101">
        <ele>114.53</ele>
        <time>2012-04-08T15:21:58Z</time>
      </trkpt>
      <trkpt lat="43.99683" lon="5.06101">
        <ele>112.61</ele>
        <time>2012-04-08T15:22:19Z</time>
      </trkpt>
      <trkpt lat="43.99683" lon="5.061">
        <ele>114.53</ele>
        <time>2012-04-08T15:22:25Z</time>
      </trkpt>
      <trkpt lat="43.99683" lon="5.061">
        <ele>113.09</ele>
        <time>2012-04-08T15:22:28Z</time>
      </trkpt>
      <trkpt lat="43.99673" lon="5.06093">
        <ele>113.57</ele>
        <time>2012-04-08T15:22:42Z</time>
      </trkpt>
      <trkpt lat="43.99672" lon="5.06087">
        <ele>113.57</ele>
        <time>2012-04-08T15:22:57Z</time>
      </trkpt>
      <trkpt lat="43.99667" lon="5.06088">
        <ele>114.05</ele>
        <time>2012-04-08T15:23:15Z</time>
      </trkpt>
      <trkpt lat="43.99667" lon="5.06088">
        <ele>114.05</ele>
        <time>2012-04-08T15:23:40Z</time>
      </trkpt>
      <trkpt lat="43.99666" lon="5.06088">
        <ele>112.61</ele>
        <time>2012-04-08T15:24:03Z</time>
      </trkpt>
      <trkpt lat="43.99667" lon="5.06093">
        <ele>114.05</ele>
        <time>2012-04-08T15:24:27Z</time>
      </trkpt>
      <trkpt lat="43.99666" lon="5.06093">
        <ele>113.09</ele>
        <time>2012-04-08T15:24:50Z</time>
      </trkpt>
      <trkpt lat="43.99666" lon="5.06093">
        <ele>115.01</ele>
        <time>2012-04-08T15:25:00Z</time>
      </trkpt>
      <trkpt lat="43.99669" lon="5.06097">
        <ele>113.09</ele>
        <time>2012-04-08T15:25:23Z</time>
      </trkpt>
      <trkpt lat="43.99669" lon="5.06097">
        <ele>112.61</ele>
        <time>2012-04-08T15:25:48Z</time>
      </trkpt>
      <trkpt lat="43.99669" lon="5.06097">
        <ele>111.17</ele>
        <time>2012-04-08T15:26:14Z</time>
      </trkpt>
      <trkpt lat="43.99668" lon="5.06093">
        <ele>109.73</ele>
        <time>2012-04-08T15:26:25Z</time>
      </trkpt>
      <trkpt lat="43.9967" lon="5.06093">
        <ele>112.61</ele>
        <time>2012-04-08T15:26:38Z</time>
      </trkpt>
      <trkpt lat="43.9967" lon="5.06093">
        <ele>113.09</ele>
        <time>2012-04-08T15:27:03Z</time>
      </trkpt>
      <trkpt lat="43.99669" lon="5.0609">
        <ele>112.61</ele>
        <time>2012-04-08T15:27:26Z</time>
      </trkpt>
      <trkpt lat="43.99664" lon="5.06089">
        <ele>111.65</ele>
        <time>2012-04-08T15:27:52Z</time>
      </trkpt>
      <trkpt lat="43.99664" lon="5.0609">
        <ele>110.21</ele>
        <time>2012-04-08T15:28:15Z</time>
      </trkpt>
      <trkpt lat="43.99663" lon="5.06091">
        <ele>110.21</ele>
        <time>2012-04-08T15:28:18Z</time>
      </trkpt>
      <trkpt lat="43.99656" lon="5.06098">
        <ele>112.13</ele>
        <time>2012-04-08T15:28:40Z</time>
      </trkpt>
      <trkpt lat="43.99658" lon="5.06103">
        <ele>110.21</ele>
        <time>2012-04-08T15:29:04Z</time>
      </trkpt>
      <trkpt lat="43.99658" lon="5.06103">
        <ele>110.21</ele>
        <time>2012-04-08T15:29:25Z</time>
      </trkpt>
      <trkpt lat="43.99658" lon="5.06103">
        <ele>111.65</ele>
        <time>2012-04-08T15:29:30Z</time>
      </trkpt>
      <trkpt lat="43.99657" lon="5.06103">
        <ele>111.65</ele>
        <time>2012-04-08T15:29:55Z</time>
      </trkpt>
      <trkpt lat="43.99661" lon="5.061">
        <ele>111.65</ele>
        <time>2012-04-08T15:30:27Z</time>
      </trkpt>
      <trkpt lat="43.99658" lon="5.06099">
        <ele>110.21</ele>
        <time>2012-04-08T15:30:51Z</time>
      </trkpt>
      <trkpt lat="43.99655" lon="5.06096">
        <ele>111.17</ele>
        <time>2012-04-08T15:31:11Z</time>
      </trkpt>
      <trkpt lat="43.99651" lon="5.06092">
        <ele>111.17</ele>
        <time>2012-04-08T15:31:34Z</time>
      </trkpt>
      <trkpt lat="43.99653" lon="5.06094">
        <ele>111.17</ele>
        <time>2012-04-08T15:31:51Z</time>
      </trkpt>
      <trkpt lat="43.99657" lon="5.06097">
        <ele>110.21</ele>
        <time>2012-04-08T15:32:12Z</time>
      </trkpt>
      <trkpt lat="43.99656" lon="5.06087">
        <ele>110.69</ele>
        <time>2012-04-08T15:32:30Z</time>
      </trkpt>
      <trkpt lat="43.99656" lon="5.06087">
        <ele>109.73</ele>
        <time>2012-04-08T15:32:33Z</time>
      </trkpt>
      <trkpt lat="43.99657" lon="5.06086">
        <ele>109.73</ele>
        <time>2012-04-08T15:32:54Z</time>
      </trkpt>
      <trkpt lat="43.99662" lon="5.06088">
        <ele>109.25</ele>
        <time>2012-04-08T15:33:15Z</time>
      </trkpt>
      <trkpt lat="43.99662" lon="5.0609">
        <ele>108.29</ele>
        <time>2012-04-08T15:33:25Z</time>
      </trkpt>
      <trkpt lat="43.99662" lon="5.06089">
        <ele>107.32</ele>
        <time>2012-04-08T15:33:28Z</time>
      </trkpt>
      <trkpt lat="43.99661" lon="5.06084">
        <ele>109.73</ele>
        <time>2012-04-08T15:33:33Z</time>
      </trkpt>
      <trkpt lat="43.99661" lon="5.06083">
        <ele>109.25</ele>
        <time>2012-04-08T15:33:54Z</time>
      </trkpt>
      <trkpt lat="43.99662" lon="5.06083">
        <ele>108.77</ele>
        <time>2012-04-08T15:34:16Z</time>
      </trkpt>
      <trkpt lat="43.99658" lon="5.06088">
        <ele>108.29</ele>
        <time>2012-04-08T15:34:38Z</time>
      </trkpt>
      <trkpt lat="43.99657" lon="5.06088">
        <ele>108.77</ele>
        <time>2012-04-08T15:35:03Z</time>
      </trkpt>
      <trkpt lat="43.99657" lon="5.06088">
        <ele>105.4</ele>
        <time>2012-04-08T15:35:14Z</time>
      </trkpt>
      <trkpt lat="43.99657" lon="5.06088">
        <ele>109.25</ele>
        <time>2012-04-08T15:35:18Z</time>
      </trkpt>
      <trkpt lat="43.99657" lon="5.06088">
        <ele>109.25</ele>
        <time>2012-04-08T15:35:19Z</time>
      </trkpt>
      <trkpt lat="43.99679" lon="5.06098">
        <ele>108.29</ele>
        <time>2012-04-08T15:35:39Z</time>
      </trkpt>
      <trkpt lat="43.99683" lon="5.061">
        <ele>108.77</ele>
        <time>2012-04-08T15:35:55Z</time>
      </trkpt>
      <trkpt lat="43.99664" lon="5.06082">
        <ele>105.88</ele>
        <time>2012-04-08T15:36:12Z</time>
      </trkpt>
      <trkpt lat="43.99659" lon="5.06083">
        <ele>106.36</ele>
        <time>2012-04-08T15:36:33Z</time>
      </trkpt>
      <trkpt lat="43.99668" lon="5.06094">
        <ele>106.84</ele>
        <time>2012-04-08T15:36:55Z</time>
      </trkpt>
      <trkpt lat="43.99675" lon="5.06089">
        <ele>105.88</ele>
        <time>2012-04-08T15:37:14Z</time>
      </trkpt>
      <trkpt lat="43.99677" lon="5.06087">
        <ele>105.4</ele>
        <time>2012-04-08T15:37:35Z</time>
      </trkpt>
      <trkpt lat="43.99684" lon="5.06095">
        <ele>105.88</ele>
        <time>2012-04-08T15:37:56Z</time>
      </trkpt>
      <trkpt lat="43.99683" lon="5.06092">
        <ele>106.36</ele>
        <time>2012-04-08T15:38:18Z</time>
      </trkpt>
      <trkpt lat="43.9968" lon="5.06095">
        <ele>106.36</ele>
        <time>2012-04-08T15:38:40Z</time>
      </trkpt>
      <trkpt lat="43.99678" lon="5.06094">
        <ele>106.84</ele>
        <time>2012-04-08T15:39:01Z</time>
      </trkpt>
      <trkpt lat="43.99676" lon="5.06099">
        <ele>105.88</ele>
        <time>2012-04-08T15:39:32Z</time>
      </trkpt>
      <trkpt lat="43.99673" lon="5.061">
        <ele>107.32</ele>
        <time>2012-04-08T15:39:42Z</time>
      </trkpt>
      <trkpt lat="43.99672" lon="5.06093">
        <ele>106.36</ele>
        <time>2012-04-08T15:40:03Z</time>
      </trkpt>
      <trkpt lat="43.99663" lon="5.06088">
        <ele>105.4</ele>
        <time>2012-04-08T15:40:23Z</time>
      </trkpt>
      <trkpt lat="43.99663" lon="5.06088">
        <ele>105.4</ele>
        <time>2012-04-08T15:40:46Z</time>
      </trkpt>
      <trkpt lat="43.99662" lon="5.0609">
        <ele>105.88</ele>
        <time>2012-04-08T15:41:08Z</time>
      </trkpt>
      <trkpt lat="43.99663" lon="5.06091">
        <ele>103.96</ele>
        <time>2012-04-08T15:41:33Z</time>
      </trkpt>
      <trkpt lat="43.99663" lon="5.0609">
        <ele>106.36</ele>
        <time>2012-04-08T15:41:42Z</time>
      </trkpt>
      <trkpt lat="43.99677" lon="5.06089">
        <ele>104.92</ele>
        <time>2012-04-08T15:42:04Z</time>
      </trkpt>
      <trkpt lat="43.99677" lon="5.06098">
        <ele>104.44</ele>
        <time>2012-04-08T15:42:30Z</time>
      </trkpt>
      <trkpt lat="43.99677" lon="5.06098">
        <ele>105.4</ele>
        <time>2012-04-08T15:42:53Z</time>
      </trkpt>
      <trkpt lat="43.99678" lon="5.06098">
        <ele>103</ele>
        <time>2012-04-08T15:43:16Z</time>
      </trkpt>
      <trkpt lat="43.99678" lon="5.06098">
        <ele>105.4</ele>
        <time>2012-04-08T15:43:35Z</time>
      </trkpt>
      <trkpt lat="43.99678" lon="5.06098">
        <ele>103.48</ele>
        <time>2012-04-08T15:43:39Z</time>
      </trkpt>
      <trkpt lat="43.99679" lon="5.06098">
        <ele>103.96</ele>
        <time>2012-04-08T15:44:05Z</time>
      </trkpt>
      <trkpt lat="43.99679" lon="5.06098">
        <ele>103.96</ele>
        <time>2012-04-08T15:44:31Z</time>
      </trkpt>
      <trkpt lat="43.99687" lon="5.06097">
        <ele>103</ele>
        <time>2012-04-08T15:44:50Z</time>
      </trkpt>
      <trkpt lat="43.99687" lon="5.06097">
        <ele>104.44</ele>
        <time>2012-04-08T15:45:20Z</time>
      </trkpt>
      <trkpt lat="43.99688" lon="5.06097">
        <ele>104.92</ele>
        <time>2012-04-08T15:45:34Z</time>
      </trkpt>
      <trkpt lat="43.99688" lon="5.06097">
        <ele>103.48</ele>
        <time>2012-04-08T15:45:53Z</time>
      </trkpt>
      <trkpt lat="43.99688" lon="5.06097">
        <ele>105.4</ele>
        <time>2012-04-08T15:46:24Z</time>
      </trkpt>
      <trkpt lat="43.99688" lon="5.06097">
        <ele>105.4</ele>
        <time>2012-04-08T15:46:38Z</time>
      </trkpt>
      <trkpt lat="43.99687" lon="5.06097">
        <ele>103.96</ele>
        <time>2012-04-08T15:46:52Z</time>
      </trkpt>
      <trkpt lat="43.99683" lon="5.06099">
        <ele>104.44</ele>
        <time>2012-04-08T15:47:20Z</time>
      </trkpt>
      <trkpt lat="43.99683" lon="5.06099">
        <ele>105.88</ele>
        <time>2012-04-08T15:47:25Z</time>
      </trkpt>
      <trkpt lat="43.99683" lon="5.06099">
        <ele>104.44</ele>
        <time>2012-04-08T15:47:54Z</time>
      </trkpt>
      <trkpt lat="43.99683" lon="5.06099">
        <ele>106.36</ele>
        <time>2012-04-08T15:48:01Z</time>
      </trkpt>
      <trkpt lat="43.99683" lon="5.06099">
        <ele>103.48</ele>
        <time>2012-04-08T15:48:30Z</time>
      </trkpt>
      <trkpt lat="43.99676" lon="5.06103">
        <ele>103.96</ele>
        <time>2012-04-08T15:48:53Z</time>
      </trkpt>
      <trkpt lat="43.99664" lon="5.06097">
        <ele>103.96</ele>
        <time>2012-04-08T15:49:16Z</time>
      </trkpt>
      <trkpt lat="43.9967" lon="5.06099">
        <ele>103.48</ele>
        <time>2012-04-08T15:49:38Z</time>
      </trkpt>
      <trkpt lat="43.99672" lon="5.06102">
        <ele>103.96</ele>
        <time>2012-04-08T15:50:03Z</time>
      </trkpt>
      <trkpt lat="43.99674" lon="5.06105">
        <ele>103.48</ele>
        <time>2012-04-08T15:50:23Z</time>
      </trkpt>
      <trkpt lat="43.99655" lon="5.06112">
        <ele>104.44</ele>
        <time>2012-04-08T15:50:45Z</time>
      </trkpt>
      <trkpt lat="43.99666" lon="5.06105">
        <ele>103</ele>
        <time>2012-04-08T15:51:09Z</time>
      </trkpt>
      <trkpt lat="43.99673" lon="5.061">
        <ele>103.48</ele>
        <time>2012-04-08T15:51:29Z</time>
      </trkpt>
      <trkpt lat="43.99684" lon="5.06095">
        <ele>103.96</ele>
        <time>2012-04-08T15:51:50Z</time>
      </trkpt>
      <trkpt lat="43.99684" lon="5.06093">
        <ele>103</ele>
        <time>2012-04-08T15:52:20Z</time>
      </trkpt>
      <trkpt lat="43.99684" lon="5.06093">
        <ele>103.48</ele>
        <time>2012-04-08T15:52:38Z</time>
      </trkpt>
      <trkpt lat="43.99689" lon="5.06093">
        <ele>101.56</ele>
        <time>2012-04-08T15:53:04Z</time>
      </trkpt>
      <trkpt lat="43.99689" lon="5.06093">
        <ele>103.48</ele>
        <time>2012-04-08T15:53:13Z</time>
      </trkpt>
      <trkpt lat="43.99689" lon="5.06093">
        <ele>103.48</ele>
        <time>2012-04-08T15:53:41Z</time>
      </trkpt>
      <trkpt lat="43.99685" lon="5.06095">
        <ele>103</ele>
        <time>2012-04-08T15:54:07Z</time>
      </trkpt>
      <trkpt lat="43.99685" lon="5.06095">
        <ele>103</ele>
        <time>2012-04-08T15:54:35Z</time>
      </trkpt>
      <trkpt lat="43.99685" lon="5.06095">
        <ele>103</ele>
        <time>2012-04-08T15:54:48Z</time>
      </trkpt>
      <trkpt lat="43.99684" lon="5.06098">
        <ele>103.48</ele>
        <time>2012-04-08T15:55:17Z</time>
      </trkpt>
      <trkpt lat="43.99684" lon="5.06098">
        <ele>101.08</ele>
        <time>2012-04-08T15:55:41Z</time>
      </trkpt>
      <trkpt lat="43.99674" lon="5.06096">
        <ele>100.6</ele>
        <time>2012-04-08T15:56:06Z</time>
      </trkpt>
      <trkpt lat="43.99674" lon="5.06096">
        <ele>101.08</ele>
        <time>2012-04-08T15:56:22Z</time>
      </trkpt>
      <trkpt lat="43.99675" lon="5.06096">
        <ele>101.08</ele>
        <time>2012-04-08T15:56:37Z</time>
      </trkpt>
      <trkpt lat="43.99686" lon="5.06089">
        <ele>102.52</ele>
        <time>2012-04-08T15:56:46Z</time>
      </trkpt>
      <trkpt lat="43.99704" lon="5.06083">
        <ele>102.04</ele>
        <time>2012-04-08T15:57:11Z</time>
      </trkpt>
      <trkpt lat="43.997" lon="5.06086">
        <ele>101.08</ele>
        <time>2012-04-08T15:57:31Z</time>
      </trkpt>
      <trkpt lat="43.997" lon="5.06086">
        <ele>99.63</ele>
        <time>2012-04-08T15:57:58Z</time>
      </trkpt>
      <trkpt lat="43.99699" lon="5.06087">
        <ele>102.52</ele>
        <time>2012-04-08T15:58:05Z</time>
      </trkpt>
      <trkpt lat="43.99698" lon="5.06088">
        <ele>101.08</ele>
        <time>2012-04-08T15:58:28Z</time>
      </trkpt>
      <trkpt lat="43.99695" lon="5.06088">
        <ele>102.52</ele>
        <time>2012-04-08T15:58:53Z</time>
      </trkpt>
      <trkpt lat="43.99695" lon="5.06088">
        <ele>101.56</ele>
        <time>2012-04-08T15:59:16Z</time>
      </trkpt>
      <trkpt lat="43.99694" lon="5.06088">
        <ele>101.08</ele>
        <time>2012-04-08T15:59:42Z</time>
      </trkpt>
      <trkpt lat="43.99691" lon="5.06092">
        <ele>100.11</ele>
        <time>2012-04-08T16:00:08Z</time>
      </trkpt>
      <trkpt lat="43.99688" lon="5.06093">
        <ele>101.08</ele>
        <time>2012-04-08T16:00:35Z</time>
      </trkpt>
      <trkpt lat="43.99688" lon="5.06093">
        <ele>98.67</ele>
        <time>2012-04-08T16:00:46Z</time>
      </trkpt>
      <trkpt lat="43.99678" lon="5.06097">
        <ele>99.63</ele>
        <time>2012-04-08T16:01:13Z</time>
      </trkpt>
      <trkpt lat="43.99671" lon="5.06093">
        <ele>100.11</ele>
        <time>2012-04-08T16:01:30Z</time>
      </trkpt>
      <trkpt lat="43.99673" lon="5.06092">
        <ele>98.67</ele>
        <time>2012-04-08T16:01:34Z</time>
      </trkpt>
      <trkpt lat="43.99673" lon="5.06093">
        <ele>99.63</ele>
        <time>2012-04-08T16:01:57Z</time>
      </trkpt>
      <trkpt lat="43.99673" lon="5.06093">
        <ele>98.19</ele>
        <time>2012-04-08T16:02:23Z</time>
      </trkpt>
      <trkpt lat="43.99674" lon="5.06093">
        <ele>99.15</ele>
        <time>2012-04-08T16:02:32Z</time>
      </trkpt>
      <trkpt lat="43.99674" lon="5.06093">
        <ele>101.08</ele>
        <time>2012-04-08T16:02:46Z</time>
      </trkpt>
      <trkpt lat="43.99674" lon="5.06093">
        <ele>100.11</ele>
        <time>2012-04-08T16:02:53Z</time>
      </trkpt>
      <trkpt lat="43.99674" lon="5.06093">
        <ele>101.08</ele>
        <time>2012-04-08T16:03:20Z</time>
      </trkpt>
      <trkpt lat="43.99677" lon="5.06096">
        <ele>99.15</ele>
        <time>2012-04-08T16:03:36Z</time>
      </trkpt>
      <trkpt lat="43.99675" lon="5.06097">
        <ele>98.19</ele>
        <time>2012-04-08T16:03:48Z</time>
      </trkpt>
      <trkpt lat="43.99674" lon="5.06096">
        <ele>101.56</ele>
        <time>2012-04-08T16:03:55Z</time>
      </trkpt>
      <trkpt lat="43.99673" lon="5.06096">
        <ele>101.56</ele>
        <time>2012-04-08T16:03:56Z</time>
      </trkpt>
      <trkpt lat="43.9967" lon="5.06094">
        <ele>99.15</ele>
        <time>2012-04-08T16:04:20Z</time>
      </trkpt>
      <trkpt lat="43.99661" lon="5.06095">
        <ele>100.11</ele>
        <time>2012-04-08T16:04:40Z</time>
      </trkpt>
      <trkpt lat="43.99661" lon="5.0609">
        <ele>100.11</ele>
        <time>2012-04-08T16:05:05Z</time>
      </trkpt>
      <trkpt lat="43.99663" lon="5.06088">
        <ele>99.63</ele>
        <time>2012-04-08T16:05:28Z</time>
      </trkpt>
      <trkpt lat="43.99663" lon="5.06088">
        <ele>100.11</ele>
        <time>2012-04-08T16:05:54Z</time>
      </trkpt>
      <trkpt lat="43.99663" lon="5.06088">
        <ele>99.63</ele>
        <time>2012-04-08T16:06:21Z</time>
      </trkpt>
      <trkpt lat="43.99664" lon="5.06089">
        <ele>99.15</ele>
        <time>2012-04-08T16:06:50Z</time>
      </trkpt>
      <trkpt lat="43.99666" lon="5.06089">
        <ele>99.15</ele>
        <time>2012-04-08T16:07:15Z</time>
      </trkpt>
      <trkpt lat="43.99667" lon="5.06088">
        <ele>99.15</ele>
        <time>2012-04-08T16:07:42Z</time>
      </trkpt>
      <trkpt lat="43.99667" lon="5.06088">
        <ele>97.71</ele>
        <time>2012-04-08T16:08:05Z</time>
      </trkpt>
      <trkpt lat="43.99667" lon="5.06088">
        <ele>96.75</ele>
        <time>2012-04-08T16:08:11Z</time>
      </trkpt>
      <trkpt lat="43.99667" lon="5.06088">
        <ele>99.15</ele>
        <time>2012-04-08T16:08:27Z</time>
      </trkpt>
      <trkpt lat="43.99667" lon="5.06089">
        <ele>97.71</ele>
        <time>2012-04-08T16:08:58Z</time>
      </trkpt>
      <trkpt lat="43.99667" lon="5.06089">
        <ele>99.63</ele>
        <time>2012-04-08T16:09:29Z</time>
      </trkpt>
      <trkpt lat="43.99669" lon="5.0609">
        <ele>99.15</ele>
        <time>2012-04-08T16:09:51Z</time>
      </trkpt>
      <trkpt lat="43.99671" lon="5.06097">
        <ele>97.71</ele>
        <time>2012-04-08T16:10:14Z</time>
      </trkpt>
      <trkpt lat="43.9967" lon="5.06099">
        <ele>98.19</ele>
        <time>2012-04-08T16:10:38Z</time>
      </trkpt>
      <trkpt lat="43.9967" lon="5.06099">
        <ele>98.67</ele>
        <time>2012-04-08T16:11:03Z</time>
      </trkpt>
      <trkpt lat="43.9967" lon="5.06099">
        <ele>98.67</ele>
        <time>2012-04-08T16:11:31Z</time>
      </trkpt>
      <trkpt lat="43.99671" lon="5.06099">
        <ele>98.67</ele>
        <time>2012-04-08T16:12:01Z</time>
      </trkpt>
      <trkpt lat="43.99672" lon="5.061">
        <ele>98.19</ele>
        <time>2012-04-08T16:12:24Z</time>
      </trkpt>
      <trkpt lat="43.9967" lon="5.06099">
        <ele>99.15</ele>
        <time>2012-04-08T16:12:49Z</time>
      </trkpt>
      <trkpt lat="43.99671" lon="5.06101">
        <ele>99.15</ele>
        <time>2012-04-08T16:13:11Z</time>
      </trkpt>
      <trkpt lat="43.99671" lon="5.06101">
        <ele>99.63</ele>
        <time>2012-04-08T16:13:38Z</time>
      </trkpt>
      <trkpt lat="43.99671" lon="5.06099">
        <ele>98.19</ele>
        <time>2012-04-08T16:14:04Z</time>
      </trkpt>
      <trkpt lat="43.99674" lon="5.06102">
        <ele>99.15</ele>
        <time>2012-04-08T16:14:29Z</time>
      </trkpt>
      <trkpt lat="43.99677" lon="5.06104">
        <ele>98.19</ele>
        <time>2012-04-08T16:14:52Z</time>
      </trkpt>
      <trkpt lat="43.99677" lon="5.06104">
        <ele>98.67</ele>
        <time>2012-04-08T16:14:57Z</time>
      </trkpt>
      <trkpt lat="43.99682" lon="5.06094">
        <ele>97.71</ele>
        <time>2012-04-08T16:15:19Z</time>
      </trkpt>
      <trkpt lat="43.99685" lon="5.06095">
        <ele>98.67</ele>
        <time>2012-04-08T16:15:40Z</time>
      </trkpt>
      <trkpt lat="43.99685" lon="5.06095">
        <ele>98.67</ele>
        <time>2012-04-08T16:16:04Z</time>
      </trkpt>
      <trkpt lat="43.99685" lon="5.06095">
        <ele>99.15</ele>
        <time>2012-04-08T16:16:26Z</time>
      </trkpt>
      <trkpt lat="43.99682" lon="5.06097">
        <ele>98.67</ele>
        <time>2012-04-08T16:16:49Z</time>
      </trkpt>
      <trkpt lat="43.99682" lon="5.06097">
        <ele>98.67</ele>
        <time>2012-04-08T16:17:18Z</time>
      </trkpt>
      <trkpt lat="43.99682" lon="5.06097">
        <ele>98.19</ele>
        <time>2012-04-08T16:17:51Z</time>
      </trkpt>
      <trkpt lat="43.99681" lon="5.06096">
        <ele>98.19</ele>
        <time>2012-04-08T16:18:24Z</time>
      </trkpt>
      <trkpt lat="43.99681" lon="5.06096">
        <ele>98.67</ele>
        <time>2012-04-08T16:18:53Z</time>
      </trkpt>
      <trkpt lat="43.99677" lon="5.06096">
        <ele>99.15</ele>
        <time>2012-04-08T16:19:20Z</time>
      </trkpt>
      <trkpt lat="43.99677" lon="5.06096">
        <ele>98.19</ele>
        <time>2012-04-08T16:19:36Z</time>
      </trkpt>
      <trkpt lat="43.99677" lon="5.06096">
        <ele>99.15</ele>
        <time>2012-04-08T16:19:45Z</time>
      </trkpt>
      <trkpt lat="43.99677" lon="5.06096">
        <ele>98.19</ele>
        <time>2012-04-08T16:19:49Z</time>
      </trkpt>
      <trkpt lat="43.99673" lon="5.061">
        <ele>98.67</ele>
        <time>2012-04-08T16:20:16Z</time>
      </trkpt>
      <trkpt lat="43.99673" lon="5.061">
        <ele>97.71</ele>
        <time>2012-04-08T16:20:46Z</time>
      </trkpt>
      <trkpt lat="43.99671" lon="5.061">
        <ele>97.23</ele>
        <time>2012-04-08T16:21:07Z</time>
      </trkpt>
      <trkpt lat="43.9967" lon="5.06098">
        <ele>99.15</ele>
        <time>2012-04-08T16:21:11Z</time>
      </trkpt>
      <trkpt lat="43.99667" lon="5.06098">
        <ele>96.75</ele>
        <time>2012-04-08T16:21:18Z</time>
      </trkpt>
      <trkpt lat="43.99667" lon="5.06097">
        <ele>99.63</ele>
        <time>2012-04-08T16:21:22Z</time>
      </trkpt>
      <trkpt lat="43.9967" lon="5.06097">
        <ele>98.19</ele>
        <time>2012-04-08T16:21:44Z</time>
      </trkpt>
      <trkpt lat="43.99679" lon="5.06095">
        <ele>98.67</ele>
        <time>2012-04-08T16:22:05Z</time>
      </trkpt>
      <trkpt lat="43.99678" lon="5.06095">
        <ele>98.67</ele>
        <time>2012-04-08T16:22:26Z</time>
      </trkpt>
      <trkpt lat="43.99681" lon="5.06093">
        <ele>97.71</ele>
        <time>2012-04-08T16:22:45Z</time>
      </trkpt>
      <trkpt lat="43.99681" lon="5.06095">
        <ele>96.75</ele>
        <time>2012-04-08T16:23:09Z</time>
      </trkpt>
      <trkpt lat="43.99683" lon="5.061">
        <ele>98.19</ele>
        <time>2012-04-08T16:23:29Z</time>
      </trkpt>
      <trkpt lat="43.99678" lon="5.06099">
        <ele>99.15</ele>
        <time>2012-04-08T16:23:44Z</time>
      </trkpt>
      <trkpt lat="43.99676" lon="5.06103">
        <ele>97.71</ele>
        <time>2012-04-08T16:24:04Z</time>
      </trkpt>
      <trkpt lat="43.99677" lon="5.06101">
        <ele>97.23</ele>
        <time>2012-04-08T16:24:29Z</time>
      </trkpt>
      <trkpt lat="43.99676" lon="5.06099">
        <ele>97.23</ele>
        <time>2012-04-08T16:24:57Z</time>
      </trkpt>
      <trkpt lat="43.99676" lon="5.06099">
        <ele>98.19</ele>
        <time>2012-04-08T16:25:24Z</time>
      </trkpt>
      <trkpt lat="43.99676" lon="5.06099">
        <ele>97.71</ele>
        <time>2012-04-08T16:25:52Z</time>
      </trkpt>
      <trkpt lat="43.99676" lon="5.06099">
        <ele>96.75</ele>
        <time>2012-04-08T16:26:21Z</time>
      </trkpt>
      <trkpt lat="43.99676" lon="5.06098">
        <ele>96.27</ele>
        <time>2012-04-08T16:26:48Z</time>
      </trkpt>
      <trkpt lat="43.99676" lon="5.06098">
        <ele>97.23</ele>
        <time>2012-04-08T16:27:00Z</time>
      </trkpt>
      <trkpt lat="43.99676" lon="5.06098">
        <ele>96.27</ele>
        <time>2012-04-08T16:27:29Z</time>
      </trkpt>
      <trkpt lat="43.99676" lon="5.06098">
        <ele>96.27</ele>
        <time>2012-04-08T16:28:03Z</time>
      </trkpt>
      <trkpt lat="43.99675" lon="5.06098">
        <ele>96.27</ele>
        <time>2012-04-08T16:28:32Z</time>
      </trkpt>
      <trkpt lat="43.99674" lon="5.06097">
        <ele>96.27</ele>
        <time>2012-04-08T16:29:05Z</time>
      </trkpt>
      <trkpt lat="43.99674" lon="5.06097">
        <ele>94.83</ele>
        <time>2012-04-08T16:29:09Z</time>
      </trkpt>
      <trkpt lat="43.99678" lon="5.06098">
        <ele>95.79</ele>
        <time>2012-04-08T16:29:32Z</time>
      </trkpt>
      <trkpt lat="43.99673" lon="5.06095">
        <ele>96.75</ele>
        <time>2012-04-08T16:29:51Z</time>
      </trkpt>
      <trkpt lat="43.99673" lon="5.06095">
        <ele>94.35</ele>
        <time>2012-04-08T16:30:05Z</time>
      </trkpt>
      <trkpt lat="43.99673" lon="5.06095">
        <ele>96.75</ele>
        <time>2012-04-08T16:30:10Z</time>
      </trkpt>
      <trkpt lat="43.99666" lon="5.06088">
        <ele>96.75</ele>
        <time>2012-04-08T16:30:33Z</time>
      </trkpt>
      <trkpt lat="43.99667" lon="5.06098">
        <ele>96.27</ele>
        <time>2012-04-08T16:30:54Z</time>
      </trkpt>
      <trkpt lat="43.99666" lon="5.061">
        <ele>94.83</ele>
        <time>2012-04-08T16:31:07Z</time>
      </trkpt>
      <trkpt lat="43.99664" lon="5.06102">
        <ele>97.71</ele>
        <time>2012-04-08T16:31:32Z</time>
      </trkpt>
      <trkpt lat="43.99664" lon="5.06102">
        <ele>97.71</ele>
        <time>2012-04-08T16:31:33Z</time>
      </trkpt>
      <trkpt lat="43.99664" lon="5.06101">
        <ele>95.79</ele>
        <time>2012-04-08T16:31:37Z</time>
      </trkpt>
      <trkpt lat="43.99664" lon="5.06102">
        <ele>96.27</ele>
        <time>2012-04-08T16:32:04Z</time>
      </trkpt>
      <trkpt lat="43.99664" lon="5.06102">
        <ele>95.79</ele>
        <time>2012-04-08T16:32:32Z</time>
      </trkpt>
      <trkpt lat="43.99665" lon="5.06101">
        <ele>95.79</ele>
        <time>2012-04-08T16:33:00Z</time>
      </trkpt>
      <trkpt lat="43.99671" lon="5.06099">
        <ele>97.23</ele>
        <time>2012-04-08T16:33:26Z</time>
      </trkpt>
      <trkpt lat="43.9967" lon="5.06099">
        <ele>95.79</ele>
        <time>2012-04-08T16:33:29Z</time>
      </trkpt>
      <trkpt lat="43.9967" lon="5.06096">
        <ele>95.79</ele>
        <time>2012-04-08T16:33:33Z</time>
      </trkpt>
      <trkpt lat="43.99672" lon="5.06091">
        <ele>96.75</ele>
        <time>2012-04-08T16:33:46Z</time>
      </trkpt>
      <trkpt lat="43.99672" lon="5.06091">
        <ele>96.75</ele>
        <time>2012-04-08T16:34:16Z</time>
      </trkpt>
      <trkpt lat="43.99669" lon="5.06096">
        <ele>96.27</ele>
        <time>2012-04-08T16:34:41Z</time>
      </trkpt>
      <trkpt lat="43.99669" lon="5.06096">
        <ele>97.23</ele>
        <time>2012-04-08T16:35:12Z</time>
      </trkpt>
      <trkpt lat="43.99669" lon="5.06096">
        <ele>96.75</ele>
        <time>2012-04-08T16:35:45Z</time>
      </trkpt>
      <trkpt lat="43.99669" lon="5.06095">
        <ele>96.27</ele>
        <time>2012-04-08T16:36:19Z</time>
      </trkpt>
      <trkpt lat="43.99668" lon="5.06095">
        <ele>97.71</ele>
        <time>2012-04-08T16:36:51Z</time>
      </trkpt>
      <trkpt lat="43.99669" lon="5.06094">
        <ele>97.23</ele>
        <time>2012-04-08T16:37:25Z</time>
      </trkpt>
      <trkpt lat="43.99669" lon="5.06095">
        <ele>97.71</ele>
        <time>2012-04-08T16:37:53Z</time>
      </trkpt>
      <trkpt lat="43.99669" lon="5.06095">
        <ele>97.71</ele>
        <time>2012-04-08T16:38:25Z</time>
      </trkpt>
      <trkpt lat="43.99669" lon="5.06095">
        <ele>98.19</ele>
        <time>2012-04-08T16:38:33Z</time>
      </trkpt>
      <trkpt lat="43.99669" lon="5.06095">
        <ele>96.75</ele>
        <time>2012-04-08T16:39:01Z</time>
      </trkpt>
      <trkpt lat="43.99669" lon="5.06095">
        <ele>97.23</ele>
        <time>2012-04-08T16:39:08Z</time>
      </trkpt>
      <trkpt lat="43.99668" lon="5.06095">
        <ele>96.27</ele>
        <time>2012-04-08T16:39:17Z</time>
      </trkpt>
      <trkpt lat="43.99668" lon="5.06095">
        <ele>97.71</ele>
        <time>2012-04-08T16:39:21Z</time>
      </trkpt>
      <trkpt lat="43.99667" lon="5.06095">
        <ele>97.71</ele>
        <time>2012-04-08T16:39:51Z</time>
      </trkpt>
      <trkpt lat="43.99667" lon="5.06095">
        <ele>97.23</ele>
        <time>2012-04-08T16:40:26Z</time>
      </trkpt>
      <trkpt lat="43.99665" lon="5.061">
        <ele>97.71</ele>
        <time>2012-04-08T16:40:55Z</time>
      </trkpt>
      <trkpt lat="43.99666" lon="5.061">
        <ele>99.15</ele>
        <time>2012-04-08T16:41:15Z</time>
      </trkpt>
      <trkpt lat="43.99671" lon="5.061">
        <ele>99.15</ele>
        <time>2012-04-08T16:41:34Z</time>
      </trkpt>
      <trkpt lat="43.99673" lon="5.06099">
        <ele>97.71</ele>
        <time>2012-04-08T16:41:37Z</time>
      </trkpt>
      <trkpt lat="43.99674" lon="5.06102">
        <ele>98.19</ele>
        <time>2012-04-08T16:41:58Z</time>
      </trkpt>
      <trkpt lat="43.99676" lon="5.06107">
        <ele>98.19</ele>
        <time>2012-04-08T16:42:17Z</time>
      </trkpt>
      <trkpt lat="43.99669" lon="5.06104">
        <ele>99.15</ele>
        <time>2012-04-08T16:42:36Z</time>
      </trkpt>
      <trkpt lat="43.99674" lon="5.06098">
        <ele>97.71</ele>
        <time>2012-04-08T16:42:55Z</time>
      </trkpt>
      <trkpt lat="43.99674" lon="5.06098">
        <ele>99.63</ele>
        <time>2012-04-08T16:43:18Z</time>
      </trkpt>
      <trkpt lat="43.99674" lon="5.06098">
        <ele>98.19</ele>
        <time>2012-04-08T16:43:25Z</time>
      </trkpt>
      <trkpt lat="43.99661" lon="5.06098">
        <ele>97.71</ele>
        <time>2012-04-08T16:43:46Z</time>
      </trkpt>
      <trkpt lat="43.99661" lon="5.06098">
        <ele>99.63</ele>
        <time>2012-04-08T16:44:14Z</time>
      </trkpt>
      <trkpt lat="43.99662" lon="5.06098">
        <ele>98.67</ele>
        <time>2012-04-08T16:44:43Z</time>
      </trkpt>
      <trkpt lat="43.99662" lon="5.06098">
        <ele>97.71</ele>
        <time>2012-04-08T16:45:15Z</time>
      </trkpt>
      <trkpt lat="43.99662" lon="5.06098">
        <ele>99.15</ele>
        <time>2012-04-08T16:45:42Z</time>
      </trkpt>
      <trkpt lat="43.99662" lon="5.06097">
        <ele>97.71</ele>
        <time>2012-04-08T16:46:10Z</time>
      </trkpt>
      <trkpt lat="43.99661" lon="5.06099">
        <ele>98.67</ele>
        <time>2012-04-08T16:46:25Z</time>
      </trkpt>
      <trkpt lat="43.99662" lon="5.06098">
        <ele>98.19</ele>
        <time>2012-04-08T16:46:55Z</time>
      </trkpt>
      <trkpt lat="43.99662" lon="5.06098">
        <ele>97.71</ele>
        <time>2012-04-08T16:47:21Z</time>
      </trkpt>
      <trkpt lat="43.99662" lon="5.06099">
        <ele>98.19</ele>
        <time>2012-04-08T16:47:39Z</time>
      </trkpt>
      <trkpt lat="43.99664" lon="5.06098">
        <ele>99.15</ele>
        <time>2012-04-08T16:47:54Z</time>
      </trkpt>
      <trkpt lat="43.99664" lon="5.06098">
        <ele>97.71</ele>
        <time>2012-04-08T16:48:06Z</time>
      </trkpt>
      <trkpt lat="43.99664" lon="5.06098">
        <ele>96.27</ele>
        <time>2012-04-08T16:48:17Z</time>
      </trkpt>
      <trkpt lat="43.99663" lon="5.06098">
        <ele>99.63</ele>
        <time>2012-04-08T16:48:36Z</time>
      </trkpt>
      <trkpt lat="43.99663" lon="5.06098">
        <ele>99.63</ele>
        <time>2012-04-08T16:48:37Z</time>
      </trkpt>
      <trkpt lat="43.99672" lon="5.06099">
        <ele>99.15</ele>
        <time>2012-04-08T16:48:56Z</time>
      </trkpt>
      <trkpt lat="43.99688" lon="5.06099">
        <ele>97.71</ele>
        <time>2012-04-08T16:49:05Z</time>
      </trkpt>
      <trkpt lat="43.99689" lon="5.06103">
        <ele>98.67</ele>
        <time>2012-04-08T16:49:15Z</time>
      </trkpt>
      <trkpt lat="43.9968" lon="5.06103">
        <ele>99.15</ele>
        <time>2012-04-08T16:49:27Z</time>
      </trkpt>
      <trkpt lat="43.99677" lon="5.06102">
        <ele>98.67</ele>
        <time>2012-04-08T16:49:47Z</time>
      </trkpt>
      <trkpt lat="43.9968" lon="5.06103">
        <ele>98.67</ele>
        <time>2012-04-08T16:50:09Z</time>
      </trkpt>
      <trkpt lat="43.99677" lon="5.06104">
        <ele>99.63</ele>
        <time>2012-04-08T16:50:29Z</time>
      </trkpt>
      <trkpt lat="43.99677" lon="5.06104">
        <ele>98.67</ele>
        <time>2012-04-08T16:50:56Z</time>
      </trkpt>
      <trkpt lat="43.99676" lon="5.06104">
        <ele>98.19</ele>
        <time>2012-04-08T16:51:16Z</time>
      </trkpt>
      <trkpt lat="43.99676" lon="5.06104">
        <ele>99.15</ele>
        <time>2012-04-08T16:51:41Z</time>
      </trkpt>
      <trkpt lat="43.99676" lon="5.06104">
        <ele>97.71</ele>
        <time>2012-04-08T16:52:07Z</time>
      </trkpt>
      <trkpt lat="43.99675" lon="5.06104">
        <ele>98.67</ele>
        <time>2012-04-08T16:52:34Z</time>
      </trkpt>
      <trkpt lat="43.99674" lon="5.06104">
        <ele>99.63</ele>
        <time>2012-04-08T16:53:06Z</time>
      </trkpt>
      <trkpt lat="43.99674" lon="5.06104">
        <ele>100.11</ele>
        <time>2012-04-08T16:53:23Z</time>
      </trkpt>
      <trkpt lat="43.99673" lon="5.06104">
        <ele>99.15</ele>
        <time>2012-04-08T16:53:53Z</time>
      </trkpt>
      <trkpt lat="43.99673" lon="5.06104">
        <ele>100.6</ele>
        <time>2012-04-08T16:54:08Z</time>
      </trkpt>
      <trkpt lat="43.99669" lon="5.06101">
        <ele>99.15</ele>
        <time>2012-04-08T16:54:29Z</time>
      </trkpt>
      <trkpt lat="43.99669" lon="5.06101">
        <ele>100.11</ele>
        <time>2012-04-08T16:54:50Z</time>
      </trkpt>
      <trkpt lat="43.99672" lon="5.06098">
        <ele>100.11</ele>
        <time>2012-04-08T16:55:13Z</time>
      </trkpt>
      <trkpt lat="43.99682" lon="5.06093">
        <ele>99.63</ele>
        <time>2012-04-08T16:55:35Z</time>
      </trkpt>
      <trkpt lat="43.9968" lon="5.06095">
        <ele>99.15</ele>
        <time>2012-04-08T16:55:57Z</time>
      </trkpt>
      <trkpt lat="43.99678" lon="5.06093">
        <ele>97.23</ele>
        <time>2012-04-08T16:56:03Z</time>
      </trkpt>
      <trkpt lat="43.99678" lon="5.06093">
        <ele>100.6</ele>
        <time>2012-04-08T16:56:08Z</time>
      </trkpt>
      <trkpt lat="43.99678" lon="5.06093">
        <ele>100.6</ele>
        <time>2012-04-08T16:56:09Z</time>
      </trkpt>
      <trkpt lat="43.99678" lon="5.06095">
        <ele>97.71</ele>
        <time>2012-04-08T16:56:28Z</time>
      </trkpt>
      <trkpt lat="43.99678" lon="5.06095">
        <ele>95.31</ele>
        <time>2012-04-08T16:56:33Z</time>
      </trkpt>
      <trkpt lat="43.99678" lon="5.06095">
        <ele>97.71</ele>
        <time>2012-04-08T16:56:36Z</time>
      </trkpt>
      <trkpt lat="43.99674" lon="5.06098">
        <ele>99.63</ele>
        <time>2012-04-08T16:56:56Z</time>
      </trkpt>
      <trkpt lat="43.99674" lon="5.06098">
        <ele>99.15</ele>
        <time>2012-04-08T16:57:23Z</time>
      </trkpt>
      <trkpt lat="43.99674" lon="5.06098">
        <ele>100.6</ele>
        <time>2012-04-08T16:57:35Z</time>
      </trkpt>
      <trkpt lat="43.99674" lon="5.06098">
        <ele>96.75</ele>
        <time>2012-04-08T16:57:38Z</time>
      </trkpt>
      <trkpt lat="43.99674" lon="5.06098">
        <ele>96.75</ele>
        <time>2012-04-08T16:57:39Z</time>
      </trkpt>
      <trkpt lat="43.99677" lon="5.06094">
        <ele>100.11</ele>
        <time>2012-04-08T16:58:02Z</time>
      </trkpt>
      <trkpt lat="43.99681" lon="5.06089">
        <ele>98.67</ele>
        <time>2012-04-08T16:58:27Z</time>
      </trkpt>
      <trkpt lat="43.9968" lon="5.06089">
        <ele>99.15</ele>
        <time>2012-04-08T16:58:53Z</time>
      </trkpt>
      <trkpt lat="43.99675" lon="5.06088">
        <ele>99.15</ele>
        <time>2012-04-08T16:59:16Z</time>
      </trkpt>
      <trkpt lat="43.99675" lon="5.06087">
        <ele>98.19</ele>
        <time>2012-04-08T16:59:40Z</time>
      </trkpt>
      <trkpt lat="43.99675" lon="5.06087">
        <ele>99.15</ele>
        <time>2012-04-08T17:00:04Z</time>
      </trkpt>
      <trkpt lat="43.99675" lon="5.06087">
        <ele>98.19</ele>
        <time>2012-04-08T17:00:32Z</time>
      </trkpt>
      <trkpt lat="43.9967" lon="5.06089">
        <ele>97.71</ele>
        <time>2012-04-08T17:00:55Z</time>
      </trkpt>
      <trkpt lat="43.99671" lon="5.06094">
        <ele>98.19</ele>
        <time>2012-04-08T17:01:18Z</time>
      </trkpt>
      <trkpt lat="43.99671" lon="5.06094">
        <ele>97.71</ele>
        <time>2012-04-08T17:01:46Z</time>
      </trkpt>
      <trkpt lat="43.99671" lon="5.06092">
        <ele>96.75</ele>
        <time>2012-04-08T17:02:12Z</time>
      </trkpt>
      <trkpt lat="43.99671" lon="5.06092">
        <ele>95.79</ele>
        <time>2012-04-08T17:02:36Z</time>
      </trkpt>
      <trkpt lat="43.99671" lon="5.06092">
        <ele>95.31</ele>
        <time>2012-04-08T17:02:37Z</time>
      </trkpt>
      <trkpt lat="43.9967" lon="5.06093">
        <ele>96.75</ele>
        <time>2012-04-08T17:03:03Z</time>
      </trkpt>
      <trkpt lat="43.9967" lon="5.06093">
        <ele>95.31</ele>
        <time>2012-04-08T17:03:31Z</time>
      </trkpt>
      <trkpt lat="43.99671" lon="5.06093">
        <ele>97.71</ele>
        <time>2012-04-08T17:03:42Z</time>
      </trkpt>
      <trkpt lat="43.99671" lon="5.06093">
        <ele>94.35</ele>
        <time>2012-04-08T17:03:52Z</time>
      </trkpt>
      <trkpt lat="43.99672" lon="5.06095">
        <ele>95.79</ele>
        <time>2012-04-08T17:04:16Z</time>
      </trkpt>
      <trkpt lat="43.99672" lon="5.06095">
        <ele>97.23</ele>
        <time>2012-04-08T17:04:32Z</time>
      </trkpt>
      <trkpt lat="43.99671" lon="5.06097">
        <ele>96.27</ele>
        <time>2012-04-08T17:04:56Z</time>
      </trkpt>
      <trkpt lat="43.9967" lon="5.06098">
        <ele>95.31</ele>
        <time>2012-04-08T17:05:23Z</time>
      </trkpt>
      <trkpt lat="43.99671" lon="5.06094">
        <ele>96.75</ele>
        <time>2012-04-08T17:05:48Z</time>
      </trkpt>
      <trkpt lat="43.99671" lon="5.06094">
        <ele>95.31</ele>
        <time>2012-04-08T17:06:13Z</time>
      </trkpt>
      <trkpt lat="43.9967" lon="5.06097">
        <ele>95.79</ele>
        <time>2012-04-08T17:06:37Z</time>
      </trkpt>
      <trkpt lat="43.9967" lon="5.06097">
        <ele>95.31</ele>
        <time>2012-04-08T17:07:02Z</time>
      </trkpt>
      <trkpt lat="43.99667" lon="5.06098">
        <ele>94.35</ele>
        <time>2012-04-08T17:07:29Z</time>
      </trkpt>
      <trkpt lat="43.99667" lon="5.06098">
        <ele>96.27</ele>
        <time>2012-04-08T17:07:58Z</time>
      </trkpt>
      <trkpt lat="43.99667" lon="5.06098">
        <ele>94.83</ele>
        <time>2012-04-08T17:08:33Z</time>
      </trkpt>
      <trkpt lat="43.99667" lon="5.06098">
        <ele>94.83</ele>
        <time>2012-04-08T17:08:45Z</time>
      </trkpt>
      <trkpt lat="43.99667" lon="5.06098">
        <ele>94.83</ele>
        <time>2012-04-08T17:09:19Z</time>
      </trkpt>
      <trkpt lat="43.99667" lon="5.06098">
        <ele>94.83</ele>
        <time>2012-04-08T17:09:49Z</time>
      </trkpt>
      <trkpt lat="43.9967" lon="5.06099">
        <ele>93.87</ele>
        <time>2012-04-08T17:10:15Z</time>
      </trkpt>
      <trkpt lat="43.9967" lon="5.06099">
        <ele>94.83</ele>
        <time>2012-04-08T17:10:37Z</time>
      </trkpt>
      <trkpt lat="43.99667" lon="5.06097">
        <ele>94.83</ele>
        <time>2012-04-08T17:11:03Z</time>
      </trkpt>
      <trkpt lat="43.99667" lon="5.06097">
        <ele>95.31</ele>
        <time>2012-04-08T17:11:33Z</time>
      </trkpt>
      <trkpt lat="43.99667" lon="5.06097">
        <ele>94.83</ele>
        <time>2012-04-08T17:12:01Z</time>
      </trkpt>
      <trkpt lat="43.99667" lon="5.06097">
        <ele>95.79</ele>
        <time>2012-04-08T17:12:30Z</time>
      </trkpt>
      <trkpt lat="43.99667" lon="5.06097">
        <ele>94.35</ele>
        <time>2012-04-08T17:12:58Z</time>
      </trkpt>
      <trkpt lat="43.99667" lon="5.06097">
        <ele>95.31</ele>
        <time>2012-04-08T17:13:24Z</time>
      </trkpt>
      <trkpt lat="43.99668" lon="5.06096">
        <ele>95.79</ele>
        <time>2012-04-08T17:13:53Z</time>
      </trkpt>
      <trkpt lat="43.99662" lon="5.06102">
        <ele>94.83</ele>
        <time>2012-04-08T17:14:19Z</time>
      </trkpt>
      <trkpt lat="43.99663" lon="5.06104">
        <ele>95.31</ele>
        <time>2012-04-08T17:14:43Z</time>
      </trkpt>
      <trkpt lat="43.99664" lon="5.06102">
        <ele>95.31</ele>
        <time>2012-04-08T17:15:08Z</time>
      </trkpt>
      <trkpt lat="43.99664" lon="5.06101">
        <ele>94.35</ele>
        <time>2012-04-08T17:15:32Z</time>
      </trkpt>
      <trkpt lat="43.99664" lon="5.06101">
        <ele>94.83</ele>
        <time>2012-04-08T17:15:56Z</time>
      </trkpt>
      <trkpt lat="43.99664" lon="5.06101">
        <ele>95.79</ele>
        <time>2012-04-08T17:16:17Z</time>
      </trkpt>
      <trkpt lat="43.99665" lon="5.061">
        <ele>95.31</ele>
        <time>2012-04-08T17:16:36Z</time>
      </trkpt>
      <trkpt lat="43.99669" lon="5.06097">
        <ele>94.35</ele>
        <time>2012-04-08T17:16:57Z</time>
      </trkpt>
      <trkpt lat="43.99668" lon="5.06097">
        <ele>95.31</ele>
        <time>2012-04-08T17:17:21Z</time>
      </trkpt>
      <trkpt lat="43.99674" lon="5.06089">
        <ele>94.83</ele>
        <time>2012-04-08T17:17:42Z</time>
      </trkpt>
      <trkpt lat="43.9967" lon="5.06087">
        <ele>94.35</ele>
        <time>2012-04-08T17:18:00Z</time>
      </trkpt>
      <trkpt lat="43.99679" lon="5.06099">
        <ele>94.83</ele>
        <time>2012-04-08T17:18:21Z</time>
      </trkpt>
      <trkpt lat="43.99682" lon="5.06096">
        <ele>94.83</ele>
        <time>2012-04-08T17:18:23Z</time>
      </trkpt>
      <trkpt lat="43.99699" lon="5.0607">
        <ele>94.83</ele>
        <time>2012-04-08T17:18:44Z</time>
      </trkpt>
      <trkpt lat="43.99704" lon="5.06067">
        <ele>95.31</ele>
        <time>2012-04-08T17:19:03Z</time>
      </trkpt>
      <trkpt lat="43.99708" lon="5.06077">
        <ele>94.83</ele>
        <time>2012-04-08T17:19:16Z</time>
      </trkpt>
      <trkpt lat="43.99714" lon="5.06082">
        <ele>95.31</ele>
        <time>2012-04-08T17:19:41Z</time>
      </trkpt>
      <trkpt lat="43.99717" lon="5.0607">
        <ele>95.31</ele>
        <time>2012-04-08T17:19:53Z</time>
      </trkpt>
      <trkpt lat="43.99715" lon="5.06072">
        <ele>95.31</ele>
        <time>2012-04-08T17:19:55Z</time>
      </trkpt>
      <trkpt lat="43.99678" lon="5.06097">
        <ele>94.35</ele>
        <time>2012-04-08T17:20:13Z</time>
      </trkpt>
      <trkpt lat="43.99664" lon="5.06095">
        <ele>94.35</ele>
        <time>2012-04-08T17:20:30Z</time>
      </trkpt>
      <trkpt lat="43.99676" lon="5.0609">
        <ele>93.87</ele>
        <time>2012-04-08T17:20:49Z</time>
      </trkpt>
      <trkpt lat="43.99671" lon="5.06094">
        <ele>94.35</ele>
        <time>2012-04-08T17:21:13Z</time>
      </trkpt>
      <trkpt lat="43.99666" lon="5.06093">
        <ele>95.31</ele>
        <time>2012-04-08T17:21:36Z</time>
      </trkpt>
      <trkpt lat="43.99665" lon="5.06092">
        <ele>93.87</ele>
        <time>2012-04-08T17:21:58Z</time>
      </trkpt>
      <trkpt lat="43.99668" lon="5.06094">
        <ele>94.35</ele>
        <time>2012-04-08T17:22:20Z</time>
      </trkpt>
      <trkpt lat="43.99671" lon="5.06093">
        <ele>94.83</ele>
        <time>2012-04-08T17:22:44Z</time>
      </trkpt>
      <trkpt lat="43.99671" lon="5.06093">
        <ele>93.87</ele>
        <time>2012-04-08T17:23:06Z</time>
      </trkpt>
      <trkpt lat="43.99669" lon="5.06096">
        <ele>94.83</ele>
        <time>2012-04-08T17:23:30Z</time>
      </trkpt>
      <trkpt lat="43.99669" lon="5.06096">
        <ele>91.94</ele>
        <time>2012-04-08T17:23:36Z</time>
      </trkpt>
      <trkpt lat="43.99683" lon="5.06084">
        <ele>92.42</ele>
        <time>2012-04-08T17:23:56Z</time>
      </trkpt>
      <trkpt lat="43.99683" lon="5.06084">
        <ele>92.9</ele>
        <time>2012-04-08T17:23:57Z</time>
      </trkpt>
      <trkpt lat="43.99686" lon="5.06081">
        <ele>94.83</ele>
        <time>2012-04-08T17:24:03Z</time>
      </trkpt>
      <trkpt lat="43.99689" lon="5.0608">
        <ele>94.83</ele>
        <time>2012-04-08T17:24:26Z</time>
      </trkpt>
      <trkpt lat="43.99686" lon="5.06087">
        <ele>94.83</ele>
        <time>2012-04-08T17:24:46Z</time>
      </trkpt>
      <trkpt lat="43.99673" lon="5.06097">
        <ele>94.83</ele>
        <time>2012-04-08T17:25:09Z</time>
      </trkpt>
      <trkpt lat="43.99673" lon="5.06097">
        <ele>94.35</ele>
        <time>2012-04-08T17:25:33Z</time>
      </trkpt>
      <trkpt lat="43.99671" lon="5.06097">
        <ele>94.83</ele>
        <time>2012-04-08T17:25:55Z</time>
      </trkpt>
      <trkpt lat="43.9966" lon="5.06103">
        <ele>94.35</ele>
        <time>2012-04-08T17:26:14Z</time>
      </trkpt>
      <trkpt lat="43.99663" lon="5.06105">
        <ele>94.83</ele>
        <time>2012-04-08T17:26:38Z</time>
      </trkpt>
      <trkpt lat="43.99658" lon="5.06108">
        <ele>95.31</ele>
        <time>2012-04-08T17:26:56Z</time>
      </trkpt>
      <trkpt lat="43.99658" lon="5.0611">
        <ele>94.83</ele>
        <time>2012-04-08T17:27:19Z</time>
      </trkpt>
      <trkpt lat="43.99658" lon="5.0611">
        <ele>93.87</ele>
        <time>2012-04-08T17:27:40Z</time>
      </trkpt>
      <trkpt lat="43.99658" lon="5.0611">
        <ele>95.31</ele>
        <time>2012-04-08T17:28:03Z</time>
      </trkpt>
      <trkpt lat="43.99658" lon="5.0611">
        <ele>94.83</ele>
        <time>2012-04-08T17:28:29Z</time>
      </trkpt>
      <trkpt lat="43.99658" lon="5.06109">
        <ele>94.83</ele>
        <time>2012-04-08T17:28:53Z</time>
      </trkpt>
      <trkpt lat="43.99658" lon="5.06109">
        <ele>95.79</ele>
        <time>2012-04-08T17:29:18Z</time>
      </trkpt>
      <trkpt lat="43.99658" lon="5.06109">
        <ele>94.35</ele>
        <time>2012-04-08T17:29:46Z</time>
      </trkpt>
      <trkpt lat="43.99675" lon="5.0609">
        <ele>94.83</ele>
        <time>2012-04-08T17:30:10Z</time>
      </trkpt>
      <trkpt lat="43.99675" lon="5.0609">
        <ele>95.79</ele>
        <time>2012-04-08T17:30:14Z</time>
      </trkpt>
      <trkpt lat="43.99669" lon="5.06096">
        <ele>96.75</ele>
        <time>2012-04-08T17:30:38Z</time>
      </trkpt>
      <trkpt lat="43.9967" lon="5.06095">
        <ele>96.27</ele>
        <time>2012-04-08T17:31:02Z</time>
      </trkpt>
      <trkpt lat="43.99666" lon="5.06093">
        <ele>96.75</ele>
        <time>2012-04-08T17:31:25Z</time>
      </trkpt>
      <trkpt lat="43.99668" lon="5.06094">
        <ele>96.75</ele>
        <time>2012-04-08T17:31:45Z</time>
      </trkpt>
      <trkpt lat="43.99659" lon="5.06101">
        <ele>96.27</ele>
        <time>2012-04-08T17:32:04Z</time>
      </trkpt>
      <trkpt lat="43.99669" lon="5.06092">
        <ele>97.71</ele>
        <time>2012-04-08T17:32:28Z</time>
      </trkpt>
      <trkpt lat="43.99671" lon="5.06096">
        <ele>96.75</ele>
        <time>2012-04-08T17:32:54Z</time>
      </trkpt>
      <trkpt lat="43.99674" lon="5.06097">
        <ele>97.23</ele>
        <time>2012-04-08T17:33:18Z</time>
      </trkpt>
      <trkpt lat="43.99674" lon="5.06097">
        <ele>97.23</ele>
        <time>2012-04-08T17:33:44Z</time>
      </trkpt>
      <trkpt lat="43.99674" lon="5.06095">
        <ele>97.23</ele>
        <time>2012-04-08T17:34:10Z</time>
      </trkpt>
      <trkpt lat="43.99674" lon="5.06095">
        <ele>95.79</ele>
        <time>2012-04-08T17:34:24Z</time>
      </trkpt>
      <trkpt lat="43.99674" lon="5.06095">
        <ele>97.71</ele>
        <time>2012-04-08T17:34:56Z</time>
      </trkpt>
      <trkpt lat="43.99674" lon="5.06094">
        <ele>94.83</ele>
        <time>2012-04-08T17:35:14Z</time>
      </trkpt>
      <trkpt lat="43.99674" lon="5.06094">
        <ele>93.87</ele>
        <time>2012-04-08T17:35:16Z</time>
      </trkpt>
      <trkpt lat="43.99674" lon="5.06094">
        <ele>97.23</ele>
        <time>2012-04-08T17:35:27Z</time>
      </trkpt>
      <trkpt lat="43.99673" lon="5.06094">
        <ele>97.23</ele>
        <time>2012-04-08T17:35:51Z</time>
      </trkpt>
      <trkpt lat="43.99673" lon="5.06094">
        <ele>95.31</ele>
        <time>2012-04-08T17:35:58Z</time>
      </trkpt>
      <trkpt lat="43.99673" lon="5.06094">
        <ele>98.67</ele>
        <time>2012-04-08T17:36:13Z</time>
      </trkpt>
      <trkpt lat="43.99673" lon="5.06095">
        <ele>97.23</ele>
        <time>2012-04-08T17:36:37Z</time>
      </trkpt>
      <trkpt lat="43.99672" lon="5.06092">
        <ele>95.79</ele>
        <time>2012-04-08T17:36:47Z</time>
      </trkpt>
      <trkpt lat="43.99672" lon="5.06092">
        <ele>97.23</ele>
        <time>2012-04-08T17:36:51Z</time>
      </trkpt>
      <trkpt lat="43.99672" lon="5.06092">
        <ele>97.71</ele>
        <time>2012-04-08T17:37:22Z</time>
      </trkpt>
      <trkpt lat="43.99672" lon="5.06091">
        <ele>95.31</ele>
        <time>2012-04-08T17:37:42Z</time>
      </trkpt>
      <trkpt lat="43.99672" lon="5.06091">
        <ele>97.71</ele>
        <time>2012-04-08T17:37:54Z</time>
      </trkpt>
      <trkpt lat="43.99671" lon="5.06093">
        <ele>96.75</ele>
        <time>2012-04-08T17:38:23Z</time>
      </trkpt>
      <trkpt lat="43.99669" lon="5.06093">
        <ele>97.71</ele>
        <time>2012-04-08T17:38:55Z</time>
      </trkpt>
      <trkpt lat="43.99669" lon="5.06094">
        <ele>98.67</ele>
        <time>2012-04-08T17:39:34Z</time>
      </trkpt>
      <trkpt lat="43.99668" lon="5.06095">
        <ele>98.19</ele>
        <time>2012-04-08T17:40:03Z</time>
      </trkpt>
      <trkpt lat="43.99668" lon="5.06095">
        <ele>99.63</ele>
        <time>2012-04-08T17:40:10Z</time>
      </trkpt>
      <trkpt lat="43.99666" lon="5.06105">
        <ele>98.19</ele>
        <time>2012-04-08T17:40:33Z</time>
      </trkpt>
      <trkpt lat="43.9967" lon="5.06096">
        <ele>98.67</ele>
        <time>2012-04-08T17:40:54Z</time>
      </trkpt>
      <trkpt lat="43.99666" lon="5.06102">
        <ele>98.67</ele>
        <time>2012-04-08T17:41:17Z</time>
      </trkpt>
      <trkpt lat="43.99659" lon="5.06115">
        <ele>99.15</ele>
        <time>2012-04-08T17:41:49Z</time>
      </trkpt>
      <trkpt lat="43.99658" lon="5.06113">
        <ele>97.71</ele>
        <time>2012-04-08T17:42:13Z</time>
      </trkpt>
      <trkpt lat="43.9966" lon="5.0611">
        <ele>98.19</ele>
        <time>2012-04-08T17:42:35Z</time>
      </trkpt>
      <trkpt lat="43.9966" lon="5.0611">
        <ele>97.23</ele>
        <time>2012-04-08T17:42:37Z</time>
      </trkpt>
      <trkpt lat="43.99659" lon="5.06111">
        <ele>98.67</ele>
        <time>2012-04-08T17:42:56Z</time>
      </trkpt>
      <trkpt lat="43.99656" lon="5.06114">
        <ele>97.23</ele>
        <time>2012-04-08T17:43:21Z</time>
      </trkpt>
      <trkpt lat="43.99669" lon="5.06102">
        <ele>98.19</ele>
        <time>2012-04-08T17:43:41Z</time>
      </trkpt>
      <trkpt lat="43.99671" lon="5.06092">
        <ele>99.15</ele>
        <time>2012-04-08T17:44:01Z</time>
      </trkpt>
      <trkpt lat="43.99672" lon="5.0609">
        <ele>98.67</ele>
        <time>2012-04-08T17:44:02Z</time>
      </trkpt>
      <trkpt lat="43.9969" lon="5.06075">
        <ele>98.19</ele>
        <time>2012-04-08T17:44:24Z</time>
      </trkpt>
      <trkpt lat="43.9968" lon="5.06082">
        <ele>98.19</ele>
        <time>2012-04-08T17:44:45Z</time>
      </trkpt>
      <trkpt lat="43.99677" lon="5.06096">
        <ele>97.71</ele>
        <time>2012-04-08T17:45:11Z</time>
      </trkpt>
      <trkpt lat="43.99676" lon="5.06098">
        <ele>97.23</ele>
        <time>2012-04-08T17:45:36Z</time>
      </trkpt>
      <trkpt lat="43.99673" lon="5.06098">
        <ele>96.27</ele>
        <time>2012-04-08T17:45:59Z</time>
      </trkpt>
      <trkpt lat="43.99673" lon="5.06098">
        <ele>97.71</ele>
        <time>2012-04-08T17:46:02Z</time>
      </trkpt>
      <trkpt lat="43.99668" lon="5.06103">
        <ele>96.27</ele>
        <time>2012-04-08T17:46:27Z</time>
      </trkpt>
      <trkpt lat="43.99669" lon="5.06104">
        <ele>96.27</ele>
        <time>2012-04-08T17:46:51Z</time>
      </trkpt>
      <trkpt lat="43.99668" lon="5.06103">
        <ele>98.19</ele>
        <time>2012-04-08T17:47:13Z</time>
      </trkpt>
      <trkpt lat="43.99668" lon="5.06104">
        <ele>96.75</ele>
        <time>2012-04-08T17:47:40Z</time>
      </trkpt>
      <trkpt lat="43.99667" lon="5.06104">
        <ele>95.79</ele>
        <time>2012-04-08T17:48:11Z</time>
      </trkpt>
      <trkpt lat="43.99666" lon="5.06103">
        <ele>96.75</ele>
        <time>2012-04-08T17:48:37Z</time>
      </trkpt>
      <trkpt lat="43.99666" lon="5.06103">
        <ele>95.31</ele>
        <time>2012-04-08T17:48:58Z</time>
      </trkpt>
      <trkpt lat="43.99659" lon="5.06107">
        <ele>95.79</ele>
        <time>2012-04-08T17:49:16Z</time>
      </trkpt>
      <trkpt lat="43.99654" lon="5.06116">
        <ele>96.27</ele>
        <time>2012-04-08T17:49:36Z</time>
      </trkpt>
      <trkpt lat="43.99655" lon="5.06114">
        <ele>95.79</ele>
        <time>2012-04-08T17:49:38Z</time>
      </trkpt>
      <trkpt lat="43.9966" lon="5.06108">
        <ele>95.79</ele>
        <time>2012-04-08T17:49:45Z</time>
      </trkpt>
      <trkpt lat="43.9968" lon="5.06092">
        <ele>95.31</ele>
        <time>2012-04-08T17:50:05Z</time>
      </trkpt>
      <trkpt lat="43.99681" lon="5.06091">
        <ele>96.75</ele>
        <time>2012-04-08T17:50:28Z</time>
      </trkpt>
      <trkpt lat="43.99681" lon="5.06091">
        <ele>95.31</ele>
        <time>2012-04-08T17:50:30Z</time>
      </trkpt>
      <trkpt lat="43.99681" lon="5.06091">
        <ele>95.31</ele>
        <time>2012-04-08T17:50:35Z</time>
      </trkpt>
      <trkpt lat="43.99674" lon="5.06094">
        <ele>95.31</ele>
        <time>2012-04-08T17:50:58Z</time>
      </trkpt>
      <trkpt lat="43.9967" lon="5.06099">
        <ele>94.83</ele>
        <time>2012-04-08T17:51:13Z</time>
      </trkpt>
      <trkpt lat="43.99669" lon="5.06104">
        <ele>95.79</ele>
        <time>2012-04-08T17:51:34Z</time>
      </trkpt>
      <trkpt lat="43.99674" lon="5.06099">
        <ele>95.79</ele>
        <time>2012-04-08T17:51:54Z</time>
      </trkpt>
      <trkpt lat="43.99674" lon="5.06099">
        <ele>92.42</ele>
        <time>2012-04-08T17:51:58Z</time>
      </trkpt>
      <trkpt lat="43.99674" lon="5.06099">
        <ele>95.31</ele>
        <time>2012-04-08T17:52:10Z</time>
      </trkpt>
      <trkpt lat="43.99674" lon="5.06098">
        <ele>96.27</ele>
        <time>2012-04-08T17:52:33Z</time>
      </trkpt>
      <trkpt lat="43.99668" lon="5.06094">
        <ele>95.31</ele>
        <time>2012-04-08T17:52:58Z</time>
      </trkpt>
      <trkpt lat="43.99666" lon="5.06093">
        <ele>96.27</ele>
        <time>2012-04-08T17:53:25Z</time>
      </trkpt>
      <trkpt lat="43.99666" lon="5.06093">
        <ele>96.27</ele>
        <time>2012-04-08T17:53:50Z</time>
      </trkpt>
      <trkpt lat="43.99666" lon="5.06093">
        <ele>95.31</ele>
        <time>2012-04-08T17:54:15Z</time>
      </trkpt>
      <trkpt lat="43.99666" lon="5.06094">
        <ele>95.79</ele>
        <time>2012-04-08T17:54:46Z</time>
      </trkpt>
      <trkpt lat="43.99666" lon="5.06094">
        <ele>95.79</ele>
        <time>2012-04-08T17:55:18Z</time>
      </trkpt>
      <trkpt lat="43.99666" lon="5.06094">
        <ele>95.79</ele>
        <time>2012-04-08T17:55:57Z</time>
      </trkpt>
      <trkpt lat="43.99666" lon="5.06094">
        <ele>96.27</ele>
        <time>2012-04-08T17:56:21Z</time>
      </trkpt>
      <trkpt lat="43.99666" lon="5.06094">
        <ele>95.79</ele>
        <time>2012-04-08T17:56:45Z</time>
      </trkpt>
      <trkpt lat="43.99666" lon="5.06094">
        <ele>95.31</ele>
        <time>2012-04-08T17:57:07Z</time>
      </trkpt>
      <trkpt lat="43.99665" lon="5.06098">
        <ele>95.31</ele>
        <time>2012-04-08T17:57:34Z</time>
      </trkpt>
      <trkpt lat="43.99667" lon="5.06095">
        <ele>96.27</ele>
        <time>2012-04-08T17:57:46Z</time>
      </trkpt>
      <trkpt lat="43.9967" lon="5.06091">
        <ele>95.31</ele>
        <time>2012-04-08T17:58:13Z</time>
      </trkpt>
      <trkpt lat="43.9967" lon="5.06091">
        <ele>96.75</ele>
        <time>2012-04-08T17:58:38Z</time>
      </trkpt>
      <trkpt lat="43.9967" lon="5.06091">
        <ele>96.75</ele>
        <time>2012-04-08T17:58:39Z</time>
      </trkpt>
      <trkpt lat="43.99668" lon="5.06091">
        <ele>96.27</ele>
        <time>2012-04-08T17:59:05Z</time>
      </trkpt>
      <trkpt lat="43.99668" lon="5.06091">
        <ele>95.79</ele>
        <time>2012-04-08T17:59:38Z</time>
      </trkpt>
      <trkpt lat="43.99668" lon="5.06091">
        <ele>96.27</ele>
        <time>2012-04-08T18:00:02Z</time>
      </trkpt>
      <trkpt lat="43.99668" lon="5.06092">
        <ele>95.79</ele>
        <time>2012-04-08T18:00:28Z</time>
      </trkpt>
      <trkpt lat="43.99671" lon="5.06093">
        <ele>96.27</ele>
        <time>2012-04-08T18:00:53Z</time>
      </trkpt>
      <trkpt lat="43.9967" lon="5.06093">
        <ele>97.23</ele>
        <time>2012-04-08T18:00:59Z</time>
      </trkpt>
      <trkpt lat="43.99658" lon="5.06085">
        <ele>96.27</ele>
        <time>2012-04-08T18:01:17Z</time>
      </trkpt>
      <trkpt lat="43.99658" lon="5.06085">
        <ele>95.79</ele>
        <time>2012-04-08T18:01:45Z</time>
      </trkpt>
      <trkpt lat="43.9966" lon="5.06087">
        <ele>95.31</ele>
        <time>2012-04-08T18:02:07Z</time>
      </trkpt>
      <trkpt lat="43.99651" lon="5.06086">
        <ele>96.27</ele>
        <time>2012-04-08T18:02:27Z</time>
      </trkpt>
      <trkpt lat="43.99653" lon="5.06089">
        <ele>96.75</ele>
        <time>2012-04-08T18:02:47Z</time>
      </trkpt>
      <trkpt lat="43.99657" lon="5.06099">
        <ele>97.71</ele>
        <time>2012-04-08T18:03:10Z</time>
      </trkpt>
      <trkpt lat="43.9967" lon="5.06098">
        <ele>95.31</ele>
        <time>2012-04-08T18:03:30Z</time>
      </trkpt>
      <trkpt lat="43.99673" lon="5.06099">
        <ele>96.27</ele>
        <time>2012-04-08T18:03:50Z</time>
      </trkpt>
      <trkpt lat="43.99673" lon="5.06096">
        <ele>96.27</ele>
        <time>2012-04-08T18:04:12Z</time>
      </trkpt>
      <trkpt lat="43.99671" lon="5.06092">
        <ele>94.35</ele>
        <time>2012-04-08T18:04:37Z</time>
      </trkpt>
      <trkpt lat="43.99663" lon="5.06088">
        <ele>95.79</ele>
        <time>2012-04-08T18:05:02Z</time>
      </trkpt>
      <trkpt lat="43.99668" lon="5.06087">
        <ele>96.27</ele>
        <time>2012-04-08T18:05:14Z</time>
      </trkpt>
      <trkpt lat="43.9967" lon="5.06086">
        <ele>95.31</ele>
        <time>2012-04-08T18:05:16Z</time>
      </trkpt>
      <trkpt lat="43.9967" lon="5.06085">
        <ele>96.27</ele>
        <time>2012-04-08T18:05:25Z</time>
      </trkpt>
      <trkpt lat="43.99669" lon="5.06084">
        <ele>96.27</ele>
        <time>2012-04-08T18:05:27Z</time>
      </trkpt>
      <trkpt lat="43.99671" lon="5.06079">
        <ele>95.31</ele>
        <time>2012-04-08T18:05:47Z</time>
      </trkpt>
      <trkpt lat="43.99671" lon="5.0608">
        <ele>95.79</ele>
        <time>2012-04-08T18:06:11Z</time>
      </trkpt>
      <trkpt lat="43.99671" lon="5.0608">
        <ele>95.79</ele>
        <time>2012-04-08T18:06:37Z</time>
      </trkpt>
      <trkpt lat="43.99671" lon="5.06081">
        <ele>94.83</ele>
        <time>2012-04-08T18:07:03Z</time>
      </trkpt>
      <trkpt lat="43.99671" lon="5.06081">
        <ele>96.75</ele>
        <time>2012-04-08T18:07:27Z</time>
      </trkpt>
      <trkpt lat="43.99671" lon="5.06081">
        <ele>95.31</ele>
        <time>2012-04-08T18:07:31Z</time>
      </trkpt>
      <trkpt lat="43.99669" lon="5.0608">
        <ele>92.9</ele>
        <time>2012-04-08T18:07:34Z</time>
      </trkpt>
      <trkpt lat="43.99669" lon="5.0608">
        <ele>93.87</ele>
        <time>2012-04-08T18:07:42Z</time>
      </trkpt>
      <trkpt lat="43.99669" lon="5.0608">
        <ele>95.79</ele>
        <time>2012-04-08T18:07:53Z</time>
      </trkpt>
      <trkpt lat="43.99672" lon="5.06082">
        <ele>95.79</ele>
        <time>2012-04-08T18:08:20Z</time>
      </trkpt>
      <trkpt lat="43.99672" lon="5.06081">
        <ele>94.83</ele>
        <time>2012-04-08T18:08:43Z</time>
      </trkpt>
      <trkpt lat="43.99672" lon="5.06077">
        <ele>95.79</ele>
        <time>2012-04-08T18:08:48Z</time>
      </trkpt>
      <trkpt lat="43.99671" lon="5.0608">
        <ele>95.79</ele>
        <time>2012-04-08T18:09:12Z</time>
      </trkpt>
      <trkpt lat="43.99671" lon="5.0608">
        <ele>94.35</ele>
        <time>2012-04-08T18:09:17Z</time>
      </trkpt>
      <trkpt lat="43.99669" lon="5.06096">
        <ele>94.35</ele>
        <time>2012-04-08T18:09:44Z</time>
      </trkpt>
      <trkpt lat="43.99669" lon="5.06096">
        <ele>95.31</ele>
        <time>2012-04-08T18:10:15Z</time>
      </trkpt>
      <trkpt lat="43.99671" lon="5.06092">
        <ele>93.39</ele>
        <time>2012-04-08T18:10:36Z</time>
      </trkpt>
      <trkpt lat="43.99676" lon="5.06094">
        <ele>94.35</ele>
        <time>2012-04-08T18:10:48Z</time>
      </trkpt>
      <trkpt lat="43.99676" lon="5.06094">
        <ele>95.79</ele>
        <time>2012-04-08T18:10:58Z</time>
      </trkpt>
      <trkpt lat="43.99674" lon="5.06094">
        <ele>95.79</ele>
        <time>2012-04-08T18:11:24Z</time>
      </trkpt>
      <trkpt lat="43.99674" lon="5.06094">
        <ele>93.87</ele>
        <time>2012-04-08T18:11:53Z</time>
      </trkpt>
      <trkpt lat="43.99674" lon="5.06095">
        <ele>94.35</ele>
        <time>2012-04-08T18:12:15Z</time>
      </trkpt>
      <trkpt lat="43.99674" lon="5.06095">
        <ele>94.35</ele>
        <time>2012-04-08T18:12:44Z</time>
      </trkpt>
      <trkpt lat="43.99668" lon="5.06097">
        <ele>93.87</ele>
        <time>2012-04-08T18:13:10Z</time>
      </trkpt>
      <trkpt lat="43.99665" lon="5.06098">
        <ele>94.83</ele>
        <time>2012-04-08T18:13:31Z</time>
      </trkpt>
      <trkpt lat="43.99661" lon="5.06103">
        <ele>94.35</ele>
        <time>2012-04-08T18:13:45Z</time>
      </trkpt>
      <trkpt lat="43.99661" lon="5.06106">
        <ele>94.35</ele>
        <time>2012-04-08T18:13:47Z</time>
      </trkpt>
      <trkpt lat="43.99659" lon="5.06117">
        <ele>93.39</ele>
        <time>2012-04-08T18:14:01Z</time>
      </trkpt>
      <trkpt lat="43.99659" lon="5.06117">
        <ele>91.94</ele>
        <time>2012-04-08T18:14:04Z</time>
      </trkpt>
      <trkpt lat="43.99665" lon="5.06115">
        <ele>93.87</ele>
        <time>2012-04-08T18:14:27Z</time>
      </trkpt>
      <trkpt lat="43.99663" lon="5.06109">
        <ele>94.35</ele>
        <time>2012-04-08T18:14:50Z</time>
      </trkpt>
      <trkpt lat="43.99663" lon="5.06109">
        <ele>92.9</ele>
        <time>2012-04-08T18:14:58Z</time>
      </trkpt>
      <trkpt lat="43.99663" lon="5.06109">
        <ele>92.9</ele>
        <time>2012-04-08T18:15:26Z</time>
      </trkpt>
      <trkpt lat="43.99663" lon="5.06108">
        <ele>91.94</ele>
        <time>2012-04-08T18:15:57Z</time>
      </trkpt>
      <trkpt lat="43.99663" lon="5.06108">
        <ele>93.39</ele>
        <time>2012-04-08T18:16:00Z</time>
      </trkpt>
      <trkpt lat="43.99662" lon="5.06107">
        <ele>91.94</ele>
        <time>2012-04-08T18:16:29Z</time>
      </trkpt>
      <trkpt lat="43.99666" lon="5.06099">
        <ele>93.87</ele>
        <time>2012-04-08T18:16:53Z</time>
      </trkpt>
      <trkpt lat="43.99666" lon="5.06099">
        <ele>92.42</ele>
        <time>2012-04-08T18:17:17Z</time>
      </trkpt>
      <trkpt lat="43.99666" lon="5.06099">
        <ele>92.9</ele>
        <time>2012-04-08T18:17:40Z</time>
      </trkpt>
      <trkpt lat="43.9967" lon="5.06096">
        <ele>91.94</ele>
        <time>2012-04-08T18:18:02Z</time>
      </trkpt>
      <trkpt lat="43.99672" lon="5.06097">
        <ele>91.94</ele>
        <time>2012-04-08T18:18:25Z</time>
      </trkpt>
      <trkpt lat="43.99671" lon="5.06101">
        <ele>92.42</ele>
        <time>2012-04-08T18:18:44Z</time>
      </trkpt>
      <trkpt lat="43.99673" lon="5.06101">
        <ele>91.46</ele>
        <time>2012-04-08T18:19:07Z</time>
      </trkpt>
      <trkpt lat="43.99671" lon="5.061">
        <ele>92.9</ele>
        <time>2012-04-08T18:19:30Z</time>
      </trkpt>
      <trkpt lat="43.99671" lon="5.061">
        <ele>90.98</ele>
        <time>2012-04-08T18:19:54Z</time>
      </trkpt>
      <trkpt lat="43.9967" lon="5.06098">
        <ele>90.98</ele>
        <time>2012-04-08T18:20:22Z</time>
      </trkpt>
      <trkpt lat="43.9967" lon="5.06098">
        <ele>90.98</ele>
        <time>2012-04-08T18:20:35Z</time>
      </trkpt>
      <trkpt lat="43.99668" lon="5.06102">
        <ele>90.02</ele>
        <time>2012-04-08T18:20:57Z</time>
      </trkpt>
      <trkpt lat="43.99663" lon="5.06097">
        <ele>90.98</ele>
        <time>2012-04-08T18:21:19Z</time>
      </trkpt>
      <trkpt lat="43.9966" lon="5.06092">
        <ele>91.46</ele>
        <time>2012-04-08T18:21:33Z</time>
      </trkpt>
      <trkpt lat="43.99662" lon="5.06104">
        <ele>90.98</ele>
        <time>2012-04-08T18:21:55Z</time>
      </trkpt>
      <trkpt lat="43.99663" lon="5.06096">
        <ele>90.5</ele>
        <time>2012-04-08T18:22:16Z</time>
      </trkpt>
      <trkpt lat="43.99665" lon="5.06096">
        <ele>88.1</ele>
        <time>2012-04-08T18:22:28Z</time>
      </trkpt>
      <trkpt lat="43.99665" lon="5.06096">
        <ele>91.46</ele>
        <time>2012-04-08T18:22:31Z</time>
      </trkpt>
      <trkpt lat="43.99665" lon="5.06096">
        <ele>91.46</ele>
        <time>2012-04-08T18:22:35Z</time>
      </trkpt>
      <trkpt lat="43.99666" lon="5.06095">
        <ele>92.42</ele>
        <time>2012-04-08T18:22:51Z</time>
      </trkpt>
      <trkpt lat="43.99665" lon="5.06096">
        <ele>93.87</ele>
        <time>2012-04-08T18:23:00Z</time>
      </trkpt>
      <trkpt lat="43.99665" lon="5.06096">
        <ele>90.5</ele>
        <time>2012-04-08T18:23:15Z</time>
      </trkpt>
      <trkpt lat="43.99665" lon="5.06096">
        <ele>91.46</ele>
        <time>2012-04-08T18:23:38Z</time>
      </trkpt>
      <trkpt lat="43.99666" lon="5.06093">
        <ele>91.94</ele>
        <time>2012-04-08T18:24:01Z</time>
      </trkpt>
      <trkpt lat="43.99666" lon="5.06093">
        <ele>90.98</ele>
        <time>2012-04-08T18:24:25Z</time>
      </trkpt>
      <trkpt lat="43.99665" lon="5.0609">
        <ele>91.46</ele>
        <time>2012-04-08T18:24:47Z</time>
      </trkpt>
      <trkpt lat="43.99665" lon="5.06094">
        <ele>90.5</ele>
        <time>2012-04-08T18:25:10Z</time>
      </trkpt>
      <trkpt lat="43.99668" lon="5.06093">
        <ele>88.58</ele>
        <time>2012-04-08T18:25:37Z</time>
      </trkpt>
      <trkpt lat="43.99668" lon="5.06093">
        <ele>91.46</ele>
        <time>2012-04-08T18:25:42Z</time>
      </trkpt>
      <trkpt lat="43.99668" lon="5.06093">
        <ele>90.02</ele>
        <time>2012-04-08T18:25:50Z</time>
      </trkpt>
      <trkpt lat="43.99668" lon="5.06093">
        <ele>90.98</ele>
        <time>2012-04-08T18:26:20Z</time>
      </trkpt>
      <trkpt lat="43.99668" lon="5.06093">
        <ele>90.98</ele>
        <time>2012-04-08T18:26:50Z</time>
      </trkpt>
      <trkpt lat="43.99668" lon="5.06094">
        <ele>93.39</ele>
        <time>2012-04-08T18:27:22Z</time>
      </trkpt>
      <trkpt lat="43.99668" lon="5.06094">
        <ele>90.02</ele>
        <time>2012-04-08T18:27:39Z</time>
      </trkpt>
      <trkpt lat="43.99668" lon="5.06094">
        <ele>91.46</ele>
        <time>2012-04-08T18:27:50Z</time>
      </trkpt>
      <trkpt lat="43.99672" lon="5.06098">
        <ele>90.5</ele>
        <time>2012-04-08T18:28:16Z</time>
      </trkpt>
      <trkpt lat="43.99673" lon="5.06101">
        <ele>90.98</ele>
        <time>2012-04-08T18:28:38Z</time>
      </trkpt>
      <trkpt lat="43.99674" lon="5.06099">
        <ele>89.54</ele>
        <time>2012-04-08T18:28:44Z</time>
      </trkpt>
      <trkpt lat="43.99682" lon="5.06093">
        <ele>90.02</ele>
        <time>2012-04-08T18:28:51Z</time>
      </trkpt>
      <trkpt lat="43.99691" lon="5.06085">
        <ele>89.54</ele>
        <time>2012-04-08T18:29:10Z</time>
      </trkpt>
      <trkpt lat="43.99686" lon="5.06084">
        <ele>89.06</ele>
        <time>2012-04-08T18:29:32Z</time>
      </trkpt>
      <trkpt lat="43.99683" lon="5.06091">
        <ele>89.54</ele>
        <time>2012-04-08T18:29:52Z</time>
      </trkpt>
      <trkpt lat="43.99683" lon="5.06091">
        <ele>90.5</ele>
        <time>2012-04-08T18:29:56Z</time>
      </trkpt>
      <trkpt lat="43.99684" lon="5.06088">
        <ele>89.54</ele>
        <time>2012-04-08T18:30:21Z</time>
      </trkpt>
      <trkpt lat="43.99675" lon="5.06089">
        <ele>90.98</ele>
        <time>2012-04-08T18:30:44Z</time>
      </trkpt>
      <trkpt lat="43.99671" lon="5.0609">
        <ele>90.98</ele>
        <time>2012-04-08T18:31:00Z</time>
      </trkpt>
      <trkpt lat="43.99671" lon="5.06091">
        <ele>89.54</ele>
        <time>2012-04-08T18:31:09Z</time>
      </trkpt>
      <trkpt lat="43.99671" lon="5.06091">
        <ele>90.98</ele>
        <time>2012-04-08T18:31:13Z</time>
      </trkpt>
      <trkpt lat="43.99671" lon="5.06091">
        <ele>91.46</ele>
        <time>2012-04-08T18:31:42Z</time>
      </trkpt>
      <trkpt lat="43.99671" lon="5.06091">
        <ele>90.98</ele>
        <time>2012-04-08T18:32:11Z</time>
      </trkpt>
      <trkpt lat="43.9967" lon="5.0609">
        <ele>91.46</ele>
        <time>2012-04-08T18:32:38Z</time>
      </trkpt>
      <trkpt lat="43.99666" lon="5.0609">
        <ele>92.42</ele>
        <time>2012-04-08T18:33:01Z</time>
      </trkpt>
      <trkpt lat="43.99666" lon="5.0609">
        <ele>92.42</ele>
        <time>2012-04-08T18:33:02Z</time>
      </trkpt>
      <trkpt lat="43.99665" lon="5.0609">
        <ele>90.98</ele>
        <time>2012-04-08T18:33:27Z</time>
      </trkpt>
      <trkpt lat="43.99663" lon="5.06094">
        <ele>90.98</ele>
        <time>2012-04-08T18:33:51Z</time>
      </trkpt>
      <trkpt lat="43.99663" lon="5.06094">
        <ele>90.98</ele>
        <time>2012-04-08T18:34:29Z</time>
      </trkpt>
      <trkpt lat="43.99663" lon="5.06094">
        <ele>90.02</ele>
        <time>2012-04-08T18:34:58Z</time>
      </trkpt>
      <trkpt lat="43.99663" lon="5.06094">
        <ele>90.5</ele>
        <time>2012-04-08T18:35:23Z</time>
      </trkpt>
      <trkpt lat="43.99664" lon="5.06094">
        <ele>90.02</ele>
        <time>2012-04-08T18:35:44Z</time>
      </trkpt>
      <trkpt lat="43.99662" lon="5.06093">
        <ele>90.98</ele>
        <time>2012-04-08T18:36:03Z</time>
      </trkpt>
      <trkpt lat="43.99663" lon="5.06086">
        <ele>90.98</ele>
        <time>2012-04-08T18:36:23Z</time>
      </trkpt>
      <trkpt lat="43.99663" lon="5.06086">
        <ele>89.54</ele>
        <time>2012-04-08T18:36:30Z</time>
      </trkpt>
      <trkpt lat="43.99664" lon="5.06092">
        <ele>90.98</ele>
        <time>2012-04-08T18:36:52Z</time>
      </trkpt>
      <trkpt lat="43.99664" lon="5.06095">
        <ele>90.5</ele>
        <time>2012-04-08T18:37:15Z</time>
      </trkpt>
      <trkpt lat="43.99664" lon="5.06096">
        <ele>90.5</ele>
        <time>2012-04-08T18:37:34Z</time>
      </trkpt>
      <trkpt lat="43.99664" lon="5.06096">
        <ele>89.54</ele>
        <time>2012-04-08T18:37:42Z</time>
      </trkpt>
      <trkpt lat="43.99664" lon="5.06096">
        <ele>91.46</ele>
        <time>2012-04-08T18:37:47Z</time>
      </trkpt>
      <trkpt lat="43.99664" lon="5.06096">
        <ele>90.5</ele>
        <time>2012-04-08T18:38:14Z</time>
      </trkpt>
      <trkpt lat="43.99666" lon="5.06095">
        <ele>90.02</ele>
        <time>2012-04-08T18:38:38Z</time>
      </trkpt>
      <trkpt lat="43.99666" lon="5.061">
        <ele>90.5</ele>
        <time>2012-04-08T18:39:04Z</time>
      </trkpt>
      <trkpt lat="43.99666" lon="5.061">
        <ele>89.54</ele>
        <time>2012-04-08T18:39:15Z</time>
      </trkpt>
      <trkpt lat="43.99671" lon="5.06093">
        <ele>89.54</ele>
        <time>2012-04-08T18:39:37Z</time>
      </trkpt>
      <trkpt lat="43.99671" lon="5.06093">
        <ele>91.94</ele>
        <time>2012-04-08T18:39:47Z</time>
      </trkpt>
      <trkpt lat="43.9967" lon="5.06089">
        <ele>90.98</ele>
        <time>2012-04-08T18:40:07Z</time>
      </trkpt>
      <trkpt lat="43.99669" lon="5.06092">
        <ele>90.5</ele>
        <time>2012-04-08T18:40:26Z</time>
      </trkpt>
      <trkpt lat="43.99667" lon="5.06095">
        <ele>90.98</ele>
        <time>2012-04-08T18:40:49Z</time>
      </trkpt>
      <trkpt lat="43.99664" lon="5.06094">
        <ele>89.54</ele>
        <time>2012-04-08T18:41:13Z</time>
      </trkpt>
      <trkpt lat="43.9966" lon="5.0609">
        <ele>90.98</ele>
        <time>2012-04-08T18:41:34Z</time>
      </trkpt>
      <trkpt lat="43.99656" lon="5.06086">
        <ele>91.46</ele>
        <time>2012-04-08T18:41:40Z</time>
      </trkpt>
      <trkpt lat="43.99651" lon="5.06087">
        <ele>90.02</ele>
        <time>2012-04-08T18:42:04Z</time>
      </trkpt>
      <trkpt lat="43.99663" lon="5.06085">
        <ele>90.02</ele>
        <time>2012-04-08T18:42:27Z</time>
      </trkpt>
      <trkpt lat="43.99665" lon="5.06085">
        <ele>90.02</ele>
        <time>2012-04-08T18:42:49Z</time>
      </trkpt>
      <trkpt lat="43.99667" lon="5.06083">
        <ele>90.5</ele>
        <time>2012-04-08T18:43:10Z</time>
      </trkpt>
      <trkpt lat="43.99665" lon="5.06088">
        <ele>90.5</ele>
        <time>2012-04-08T18:43:33Z</time>
      </trkpt>
      <trkpt lat="43.99663" lon="5.0609">
        <ele>89.54</ele>
        <time>2012-04-08T18:43:58Z</time>
      </trkpt>
      <trkpt lat="43.99663" lon="5.0609">
        <ele>90.98</ele>
        <time>2012-04-08T18:44:04Z</time>
      </trkpt>
      <trkpt lat="43.99668" lon="5.06086">
        <ele>90.02</ele>
        <time>2012-04-08T18:44:27Z</time>
      </trkpt>
      <trkpt lat="43.99663" lon="5.06088">
        <ele>90.02</ele>
        <time>2012-04-08T18:44:49Z</time>
      </trkpt>
      <trkpt lat="43.99657" lon="5.06087">
        <ele>89.54</ele>
        <time>2012-04-08T18:45:11Z</time>
      </trkpt>
      <trkpt lat="43.99657" lon="5.0609">
        <ele>89.54</ele>
        <time>2012-04-08T18:45:35Z</time>
      </trkpt>
      <trkpt lat="43.99665" lon="5.06092">
        <ele>89.54</ele>
        <time>2012-04-08T18:45:56Z</time>
      </trkpt>
      <trkpt lat="43.99656" lon="5.06094">
        <ele>90.02</ele>
        <time>2012-04-08T18:46:16Z</time>
      </trkpt>
      <trkpt lat="43.99659" lon="5.06091">
        <ele>89.54</ele>
        <time>2012-04-08T18:46:36Z</time>
      </trkpt>
      <trkpt lat="43.9967" lon="5.06088">
        <ele>89.06</ele>
        <time>2012-04-08T18:46:58Z</time>
      </trkpt>
      <trkpt lat="43.99672" lon="5.06086">
        <ele>87.62</ele>
        <time>2012-04-08T18:47:17Z</time>
      </trkpt>
      <trkpt lat="43.99672" lon="5.06086">
        <ele>86.18</ele>
        <time>2012-04-08T18:47:20Z</time>
      </trkpt>
      <trkpt lat="43.99671" lon="5.06085">
        <ele>89.54</ele>
        <time>2012-04-08T18:47:24Z</time>
      </trkpt>
      <trkpt lat="43.99671" lon="5.06085">
        <ele>89.06</ele>
        <time>2012-04-08T18:47:25Z</time>
      </trkpt>
      <trkpt lat="43.99674" lon="5.06098">
        <ele>88.1</ele>
        <time>2012-04-08T18:47:46Z</time>
      </trkpt>
      <trkpt lat="43.99674" lon="5.06098">
        <ele>88.1</ele>
        <time>2012-04-08T18:47:59Z</time>
      </trkpt>
      <trkpt lat="43.99671" lon="5.06095">
        <ele>89.54</ele>
        <time>2012-04-08T18:48:21Z</time>
      </trkpt>
      <trkpt lat="43.9967" lon="5.06094">
        <ele>89.06</ele>
        <time>2012-04-08T18:48:45Z</time>
      </trkpt>
      <trkpt lat="43.9967" lon="5.06093">
        <ele>89.06</ele>
        <time>2012-04-08T18:49:08Z</time>
      </trkpt>
      <trkpt lat="43.99676" lon="5.06094">
        <ele>88.58</ele>
        <time>2012-04-08T18:49:32Z</time>
      </trkpt>
      <trkpt lat="43.9968" lon="5.06093">
        <ele>88.1</ele>
        <time>2012-04-08T18:49:56Z</time>
      </trkpt>
      <trkpt lat="43.99674" lon="5.06092">
        <ele>88.1</ele>
        <time>2012-04-08T18:50:20Z</time>
      </trkpt>
      <trkpt lat="43.99673" lon="5.06093">
        <ele>87.62</ele>
        <time>2012-04-08T18:50:42Z</time>
      </trkpt>
      <trkpt lat="43.99679" lon="5.061">
        <ele>88.58</ele>
        <time>2012-04-08T18:51:06Z</time>
      </trkpt>
      <trkpt lat="43.9968" lon="5.06107">
        <ele>86.18</ele>
        <time>2012-04-08T18:51:20Z</time>
      </trkpt>
      <trkpt lat="43.9968" lon="5.06107">
        <ele>88.1</ele>
        <time>2012-04-08T18:51:27Z</time>
      </trkpt>
      <trkpt lat="43.99678" lon="5.0611">
        <ele>86.66</ele>
        <time>2012-04-08T18:51:39Z</time>
      </trkpt>
      <trkpt lat="43.99672" lon="5.06101">
        <ele>88.1</ele>
        <time>2012-04-08T18:52:04Z</time>
      </trkpt>
      <trkpt lat="43.99672" lon="5.06101">
        <ele>88.1</ele>
        <time>2012-04-08T18:52:27Z</time>
      </trkpt>
      <trkpt lat="43.99685" lon="5.06091">
        <ele>88.58</ele>
        <time>2012-04-08T18:52:48Z</time>
      </trkpt>
      <trkpt lat="43.99686" lon="5.06089">
        <ele>89.06</ele>
        <time>2012-04-08T18:53:10Z</time>
      </trkpt>
      <trkpt lat="43.99687" lon="5.06089">
        <ele>88.1</ele>
        <time>2012-04-08T18:53:31Z</time>
      </trkpt>
      <trkpt lat="43.99684" lon="5.06099">
        <ele>88.58</ele>
        <time>2012-04-08T18:53:55Z</time>
      </trkpt>
      <trkpt lat="43.99684" lon="5.0611">
        <ele>87.62</ele>
        <time>2012-04-08T18:54:21Z</time>
      </trkpt>
      <trkpt lat="43.99687" lon="5.06111">
        <ele>87.14</ele>
        <time>2012-04-08T18:54:40Z</time>
      </trkpt>
      <trkpt lat="43.99684" lon="5.06107">
        <ele>87.14</ele>
        <time>2012-04-08T18:54:59Z</time>
      </trkpt>
      <trkpt lat="43.99684" lon="5.06107">
        <ele>87.14</ele>
        <time>2012-04-08T18:55:20Z</time>
      </trkpt>
      <trkpt lat="43.99684" lon="5.06107">
        <ele>86.66</ele>
        <time>2012-04-08T18:55:42Z</time>
      </trkpt>
      <trkpt lat="43.99686" lon="5.0611">
        <ele>87.14</ele>
        <time>2012-04-08T18:56:04Z</time>
      </trkpt>
      <trkpt lat="43.99686" lon="5.0611">
        <ele>86.66</ele>
        <time>2012-04-08T18:56:28Z</time>
      </trkpt>
      <trkpt lat="43.99686" lon="5.0611">
        <ele>87.14</ele>
        <time>2012-04-08T18:56:52Z</time>
      </trkpt>
      <trkpt lat="43.99675" lon="5.06104">
        <ele>87.14</ele>
        <time>2012-04-08T18:57:12Z</time>
      </trkpt>
      <trkpt lat="43.99678" lon="5.06104">
        <ele>87.14</ele>
        <time>2012-04-08T18:57:36Z</time>
      </trkpt>
      <trkpt lat="43.99677" lon="5.06104">
        <ele>86.66</ele>
        <time>2012-04-08T18:58:01Z</time>
      </trkpt>
      <trkpt lat="43.99677" lon="5.06104">
        <ele>85.69</ele>
        <time>2012-04-08T18:58:24Z</time>
      </trkpt>
      <trkpt lat="43.99674" lon="5.06095">
        <ele>86.18</ele>
        <time>2012-04-08T18:58:43Z</time>
      </trkpt>
      <trkpt lat="43.99674" lon="5.06096">
        <ele>87.62</ele>
        <time>2012-04-08T18:59:07Z</time>
      </trkpt>
      <trkpt lat="43.99673" lon="5.06091">
        <ele>87.62</ele>
        <time>2012-04-08T18:59:27Z</time>
      </trkpt>
      <trkpt lat="43.99673" lon="5.06093">
        <ele>87.62</ele>
        <time>2012-04-08T18:59:47Z</time>
      </trkpt>
      <trkpt lat="43.99673" lon="5.06099">
        <ele>88.1</ele>
        <time>2012-04-08T19:00:08Z</time>
      </trkpt>
      <trkpt lat="43.9967" lon="5.061">
        <ele>87.62</ele>
        <time>2012-04-08T19:00:34Z</time>
      </trkpt>
      <trkpt lat="43.9967" lon="5.061">
        <ele>88.1</ele>
        <time>2012-04-08T19:00:58Z</time>
      </trkpt>
      <trkpt lat="43.99669" lon="5.061">
        <ele>88.1</ele>
        <time>2012-04-08T19:01:23Z</time>
      </trkpt>
      <trkpt lat="43.9967" lon="5.061">
        <ele>89.06</ele>
        <time>2012-04-08T19:01:45Z</time>
      </trkpt>
      <trkpt lat="43.9967" lon="5.061">
        <ele>89.06</ele>
        <time>2012-04-08T19:02:07Z</time>
      </trkpt>
      <trkpt lat="43.9967" lon="5.061">
        <ele>90.02</ele>
        <time>2012-04-08T19:02:31Z</time>
      </trkpt>
      <trkpt lat="43.9967" lon="5.061">
        <ele>89.54</ele>
        <time>2012-04-08T19:02:58Z</time>
      </trkpt>
      <trkpt lat="43.9967" lon="5.061">
        <ele>89.54</ele>
        <time>2012-04-08T19:03:24Z</time>
      </trkpt>
      <trkpt lat="43.9967" lon="5.061">
        <ele>90.98</ele>
        <time>2012-04-08T19:03:49Z</time>
      </trkpt>
      <trkpt lat="43.99669" lon="5.061">
        <ele>89.54</ele>
        <time>2012-04-08T19:04:11Z</time>
      </trkpt>
      <trkpt lat="43.99669" lon="5.06094">
        <ele>90.5</ele>
        <time>2012-04-08T19:04:34Z</time>
      </trkpt>
      <trkpt lat="43.99669" lon="5.06094">
        <ele>90.5</ele>
        <time>2012-04-08T19:05:02Z</time>
      </trkpt>
      <trkpt lat="43.99668" lon="5.06093">
        <ele>90.5</ele>
        <time>2012-04-08T19:05:26Z</time>
      </trkpt>
      <trkpt lat="43.99668" lon="5.0609">
        <ele>90.98</ele>
        <time>2012-04-08T19:05:52Z</time>
      </trkpt>
      <trkpt lat="43.99666" lon="5.06091">
        <ele>90.98</ele>
        <time>2012-04-08T19:06:14Z</time>
      </trkpt>
      <trkpt lat="43.99665" lon="5.0609">
        <ele>90.5</ele>
        <time>2012-04-08T19:06:38Z</time>
      </trkpt>
      <trkpt lat="43.99665" lon="5.0609">
        <ele>90.02</ele>
        <time>2012-04-08T19:07:01Z</time>
      </trkpt>
      <trkpt lat="43.99666" lon="5.06088">
        <ele>90.98</ele>
        <time>2012-04-08T19:07:24Z</time>
      </trkpt>
      <trkpt lat="43.99672" lon="5.06086">
        <ele>90.02</ele>
        <time>2012-04-08T19:07:47Z</time>
      </trkpt>
      <trkpt lat="43.99672" lon="5.06087">
        <ele>90.5</ele>
        <time>2012-04-08T19:08:11Z</time>
      </trkpt>
      <trkpt lat="43.99672" lon="5.06087">
        <ele>89.54</ele>
        <time>2012-04-08T19:08:35Z</time>
      </trkpt>
      <trkpt lat="43.99672" lon="5.06087">
        <ele>90.98</ele>
        <time>2012-04-08T19:08:59Z</time>
      </trkpt>
      <trkpt lat="43.99668" lon="5.06085">
        <ele>90.5</ele>
        <time>2012-04-08T19:09:23Z</time>
      </trkpt>
      <trkpt lat="43.9967" lon="5.06086">
        <ele>89.54</ele>
        <time>2012-04-08T19:09:47Z</time>
      </trkpt>
      <trkpt lat="43.99672" lon="5.0609">
        <ele>90.02</ele>
        <time>2012-04-08T19:10:13Z</time>
      </trkpt>
      <trkpt lat="43.99672" lon="5.0609">
        <ele>90.02</ele>
        <time>2012-04-08T19:10:39Z</time>
      </trkpt>
      <trkpt lat="43.99672" lon="5.06089">
        <ele>89.54</ele>
        <time>2012-04-08T19:11:10Z</time>
      </trkpt>
      <trkpt lat="43.99672" lon="5.0609">
        <ele>89.54</ele>
        <time>2012-04-08T19:11:43Z</time>
      </trkpt>
      <trkpt lat="43.99673" lon="5.0609">
        <ele>89.54</ele>
        <time>2012-04-08T19:12:13Z</time>
      </trkpt>
      <trkpt lat="43.99677" lon="5.06095">
        <ele>90.5</ele>
        <time>2012-04-08T19:12:37Z</time>
      </trkpt>
      <trkpt lat="43.99667" lon="5.06095">
        <ele>89.06</ele>
        <time>2012-04-08T19:12:57Z</time>
      </trkpt>
      <trkpt lat="43.99667" lon="5.06095">
        <ele>89.54</ele>
        <time>2012-04-08T19:13:19Z</time>
      </trkpt>
      <trkpt lat="43.99667" lon="5.06089">
        <ele>89.54</ele>
        <time>2012-04-08T19:13:43Z</time>
      </trkpt>
      <trkpt lat="43.99663" lon="5.0609">
        <ele>89.54</ele>
        <time>2012-04-08T19:14:07Z</time>
      </trkpt>
      <trkpt lat="43.99656" lon="5.06099">
        <ele>89.54</ele>
        <time>2012-04-08T19:14:29Z</time>
      </trkpt>
      <trkpt lat="43.99646" lon="5.061">
        <ele>90.02</ele>
        <time>2012-04-08T19:14:51Z</time>
      </trkpt>
      <trkpt lat="43.99658" lon="5.06093">
        <ele>89.06</ele>
        <time>2012-04-08T19:15:14Z</time>
      </trkpt>
      <trkpt lat="43.99666" lon="5.061">
        <ele>88.58</ele>
        <time>2012-04-08T19:15:39Z</time>
      </trkpt>
      <trkpt lat="43.99669" lon="5.06104">
        <ele>88.58</ele>
        <time>2012-04-08T19:16:02Z</time>
      </trkpt>
      <trkpt lat="43.99668" lon="5.06105">
        <ele>89.06</ele>
        <time>2012-04-08T19:16:25Z</time>
      </trkpt>
      <trkpt lat="43.99668" lon="5.06105">
        <ele>88.58</ele>
        <time>2012-04-08T19:16:51Z</time>
      </trkpt>
      <trkpt lat="43.99669" lon="5.061">
        <ele>89.06</ele>
        <time>2012-04-08T19:17:16Z</time>
      </trkpt>
      <trkpt lat="43.99669" lon="5.0609">
        <ele>89.54</ele>
        <time>2012-04-08T19:17:40Z</time>
      </trkpt>
      <trkpt lat="43.9967" lon="5.06091">
        <ele>89.06</ele>
        <time>2012-04-08T19:18:08Z</time>
      </trkpt>
      <trkpt lat="43.9967" lon="5.06091">
        <ele>88.58</ele>
        <time>2012-04-08T19:18:36Z</time>
      </trkpt>
      <trkpt lat="43.9967" lon="5.06091">
        <ele>89.06</ele>
        <time>2012-04-08T19:19:07Z</time>
      </trkpt>
      <trkpt lat="43.9967" lon="5.06092">
        <ele>90.02</ele>
        <time>2012-04-08T19:19:30Z</time>
      </trkpt>
      <trkpt lat="43.9967" lon="5.0609">
        <ele>89.54</ele>
        <time>2012-04-08T19:19:50Z</time>
      </trkpt>
      <trkpt lat="43.99674" lon="5.0609">
        <ele>89.54</ele>
        <time>2012-04-08T19:20:17Z</time>
      </trkpt>
      <trkpt lat="43.99673" lon="5.06091">
        <ele>90.02</ele>
        <time>2012-04-08T19:20:47Z</time>
      </trkpt>
      <trkpt lat="43.99676" lon="5.06091">
        <ele>90.02</ele>
        <time>2012-04-08T19:21:07Z</time>
      </trkpt>
      <trkpt lat="43.99673" lon="5.06097">
        <ele>89.54</ele>
        <time>2012-04-08T19:21:33Z</time>
      </trkpt>
      <trkpt lat="43.99672" lon="5.06098">
        <ele>89.54</ele>
        <time>2012-04-08T19:21:56Z</time>
      </trkpt>
      <trkpt lat="43.99672" lon="5.06098">
        <ele>89.54</ele>
        <time>2012-04-08T19:22:20Z</time>
      </trkpt>
      <trkpt lat="43.99672" lon="5.06098">
        <ele>89.06</ele>
        <time>2012-04-08T19:22:46Z</time>
      </trkpt>
      <trkpt lat="43.99671" lon="5.06089">
        <ele>89.54</ele>
        <time>2012-04-08T19:23:12Z</time>
      </trkpt>
      <trkpt lat="43.99666" lon="5.06084">
        <ele>89.06</ele>
        <time>2012-04-08T19:23:32Z</time>
      </trkpt>
      <trkpt lat="43.99664" lon="5.06088">
        <ele>89.54</ele>
        <time>2012-04-08T19:23:50Z</time>
      </trkpt>
      <trkpt lat="43.99663" lon="5.06097">
        <ele>89.54</ele>
        <time>2012-04-08T19:24:07Z</time>
      </trkpt>
      <trkpt lat="43.99659" lon="5.0611">
        <ele>90.02</ele>
        <time>2012-04-08T19:24:27Z</time>
      </trkpt>
      <trkpt lat="43.9966" lon="5.06106">
        <ele>90.02</ele>
        <time>2012-04-08T19:24:52Z</time>
      </trkpt>
      <trkpt lat="43.9966" lon="5.06106">
        <ele>90.02</ele>
        <time>2012-04-08T19:25:15Z</time>
      </trkpt>
      <trkpt lat="43.99665" lon="5.061">
        <ele>90.02</ele>
        <time>2012-04-08T19:25:32Z</time>
      </trkpt>
      <trkpt lat="43.99673" lon="5.06094">
        <ele>90.5</ele>
        <time>2012-04-08T19:25:54Z</time>
      </trkpt>
      <trkpt lat="43.99673" lon="5.06093">
        <ele>90.98</ele>
        <time>2012-04-08T19:26:17Z</time>
      </trkpt>
      <trkpt lat="43.99672" lon="5.06094">
        <ele>91.46</ele>
        <time>2012-04-08T19:26:41Z</time>
      </trkpt>
      <trkpt lat="43.99661" lon="5.06101">
        <ele>90.98</ele>
        <time>2012-04-08T19:27:08Z</time>
      </trkpt>
      <trkpt lat="43.99664" lon="5.06095">
        <ele>90.5</ele>
        <time>2012-04-08T19:27:20Z</time>
      </trkpt>
      <trkpt lat="43.99668" lon="5.06088">
        <ele>91.46</ele>
        <time>2012-04-08T19:27:41Z</time>
      </trkpt>
      <trkpt lat="43.9967" lon="5.06101">
        <ele>91.46</ele>
        <time>2012-04-08T19:28:03Z</time>
      </trkpt>
      <trkpt lat="43.99685" lon="5.06097">
        <ele>91.46</ele>
        <time>2012-04-08T19:28:27Z</time>
      </trkpt>
      <trkpt lat="43.99673" lon="5.06099">
        <ele>90.98</ele>
        <time>2012-04-08T19:28:48Z</time>
      </trkpt>
      <trkpt lat="43.99672" lon="5.06093">
        <ele>91.94</ele>
        <time>2012-04-08T19:29:06Z</time>
      </trkpt>
      <trkpt lat="43.99667" lon="5.06089">
        <ele>91.46</ele>
        <time>2012-04-08T19:29:28Z</time>
      </trkpt>
      <trkpt lat="43.99674" lon="5.06093">
        <ele>90.98</ele>
        <time>2012-04-08T19:29:51Z</time>
      </trkpt>
      <trkpt lat="43.99675" lon="5.06094">
        <ele>90.98</ele>
        <time>2012-04-08T19:30:16Z</time>
      </trkpt>
      <trkpt lat="43.99675" lon="5.06094">
        <ele>90.98</ele>
        <time>2012-04-08T19:30:47Z</time>
      </trkpt>
      <trkpt lat="43.99679" lon="5.06092">
        <ele>90.98</ele>
        <time>2012-04-08T19:31:14Z</time>
      </trkpt>
      <trkpt lat="43.99666" lon="5.061">
        <ele>90.98</ele>
        <time>2012-04-08T19:31:37Z</time>
      </trkpt>
      <trkpt lat="43.99658" lon="5.06103">
        <ele>91.46</ele>
        <time>2012-04-08T19:31:58Z</time>
      </trkpt>
      <trkpt lat="43.99655" lon="5.06104">
        <ele>90.98</ele>
        <time>2012-04-08T19:32:25Z</time>
      </trkpt>
      <trkpt lat="43.99658" lon="5.06103">
        <ele>90.5</ele>
        <time>2012-04-08T19:32:54Z</time>
      </trkpt>
      <trkpt lat="43.99658" lon="5.06103">
        <ele>90.98</ele>
        <time>2012-04-08T19:33:30Z</time>
      </trkpt>
      <trkpt lat="43.99658" lon="5.06103">
        <ele>91.94</ele>
        <time>2012-04-08T19:33:59Z</time>
      </trkpt>
      <trkpt lat="43.9967" lon="5.06101">
        <ele>90.98</ele>
        <time>2012-04-08T19:34:25Z</time>
      </trkpt>
      <trkpt lat="43.99671" lon="5.06101">
        <ele>90.98</ele>
        <time>2012-04-08T19:34:50Z</time>
      </trkpt>
      <trkpt lat="43.99671" lon="5.06102">
        <ele>91.46</ele>
        <time>2012-04-08T19:35:15Z</time>
      </trkpt>
      <trkpt lat="43.99673" lon="5.06099">
        <ele>90.98</ele>
        <time>2012-04-08T19:35:35Z</time>
      </trkpt>
      <trkpt lat="43.99673" lon="5.06099">
        <ele>91.46</ele>
        <time>2012-04-08T19:35:56Z</time>
      </trkpt>
      <trkpt lat="43.99671" lon="5.06104">
        <ele>90.98</ele>
        <time>2012-04-08T19:36:19Z</time>
      </trkpt>
      <trkpt lat="43.99671" lon="5.06104">
        <ele>91.46</ele>
        <time>2012-04-08T19:36:43Z</time>
      </trkpt>
      <trkpt lat="43.99676" lon="5.06105">
        <ele>90.98</ele>
        <time>2012-04-08T19:37:07Z</time>
      </trkpt>
      <trkpt lat="43.99676" lon="5.06106">
        <ele>91.46</ele>
        <time>2012-04-08T19:37:29Z</time>
      </trkpt>
      <trkpt lat="43.9968" lon="5.06103">
        <ele>90.98</ele>
        <time>2012-04-08T19:37:50Z</time>
      </trkpt>
      <trkpt lat="43.9968" lon="5.06103">
        <ele>90.98</ele>
        <time>2012-04-08T19:38:14Z</time>
      </trkpt>
      <trkpt lat="43.99677" lon="5.06105">
        <ele>90.98</ele>
        <time>2012-04-08T19:38:38Z</time>
      </trkpt>
      <trkpt lat="43.99676" lon="5.06104">
        <ele>90.98</ele>
        <time>2012-04-08T19:39:00Z</time>
      </trkpt>
      <trkpt lat="43.99673" lon="5.06096">
        <ele>90.98</ele>
        <time>2012-04-08T19:39:20Z</time>
      </trkpt>
      <trkpt lat="43.99674" lon="5.06108">
        <ele>90.98</ele>
        <time>2012-04-08T19:39:39Z</time>
      </trkpt>
      <trkpt lat="43.99668" lon="5.06104">
        <ele>91.46</ele>
        <time>2012-04-08T19:40:00Z</time>
      </trkpt>
      <trkpt lat="43.99665" lon="5.06093">
        <ele>91.46</ele>
        <time>2012-04-08T19:40:26Z</time>
      </trkpt>
      <trkpt lat="43.99667" lon="5.0609">
        <ele>90.02</ele>
        <time>2012-04-08T19:40:44Z</time>
      </trkpt>
      <trkpt lat="43.99673" lon="5.06084">
        <ele>91.46</ele>
        <time>2012-04-08T19:41:04Z</time>
      </trkpt>
      <trkpt lat="43.99671" lon="5.06082">
        <ele>91.46</ele>
        <time>2012-04-08T19:41:24Z</time>
      </trkpt>
      <trkpt lat="43.99694" lon="5.0609">
        <ele>91.46</ele>
        <time>2012-04-08T19:41:40Z</time>
      </trkpt>
      <trkpt lat="43.99705" lon="5.06102">
        <ele>91.46</ele>
        <time>2012-04-08T19:42:01Z</time>
      </trkpt>
      <trkpt lat="43.9969" lon="5.06102">
        <ele>90.98</ele>
        <time>2012-04-08T19:42:24Z</time>
      </trkpt>
      <trkpt lat="43.99686" lon="5.06103">
        <ele>91.94</ele>
        <time>2012-04-08T19:42:42Z</time>
      </trkpt>
      <trkpt lat="43.99688" lon="5.06103">
        <ele>91.46</ele>
        <time>2012-04-08T19:43:03Z</time>
      </trkpt>
      <trkpt lat="43.99677" lon="5.0609">
        <ele>92.42</ele>
        <time>2012-04-08T19:43:26Z</time>
      </trkpt>
      <trkpt lat="43.99675" lon="5.06091">
        <ele>91.94</ele>
        <time>2012-04-08T19:43:46Z</time>
      </trkpt>
      <trkpt lat="43.99675" lon="5.06092">
        <ele>92.42</ele>
        <time>2012-04-08T19:44:08Z</time>
      </trkpt>
      <trkpt lat="43.99668" lon="5.06089">
        <ele>91.94</ele>
        <time>2012-04-08T19:44:30Z</time>
      </trkpt>
      <trkpt lat="43.99658" lon="5.06087">
        <ele>91.94</ele>
        <time>2012-04-08T19:44:54Z</time>
      </trkpt>
      <trkpt lat="43.99664" lon="5.06087">
        <ele>91.94</ele>
        <time>2012-04-08T19:45:12Z</time>
      </trkpt>
      <trkpt lat="43.99661" lon="5.06089">
        <ele>91.94</ele>
        <time>2012-04-08T19:45:37Z</time>
      </trkpt>
      <trkpt lat="43.99668" lon="5.06093">
        <ele>92.42</ele>
        <time>2012-04-08T19:46:01Z</time>
      </trkpt>
      <trkpt lat="43.99668" lon="5.06093">
        <ele>91.94</ele>
        <time>2012-04-08T19:46:34Z</time>
      </trkpt>
      <trkpt lat="43.99669" lon="5.06093">
        <ele>91.94</ele>
        <time>2012-04-08T19:47:05Z</time>
      </trkpt>
      <trkpt lat="43.99668" lon="5.06093">
        <ele>91.94</ele>
        <time>2012-04-08T19:47:34Z</time>
      </trkpt>
      <trkpt lat="43.99665" lon="5.06094">
        <ele>92.42</ele>
        <time>2012-04-08T19:48:01Z</time>
      </trkpt>
      <trkpt lat="43.9966" lon="5.061">
        <ele>92.42</ele>
        <time>2012-04-08T19:48:23Z</time>
      </trkpt>
      <trkpt lat="43.9966" lon="5.06095">
        <ele>91.94</ele>
        <time>2012-04-08T19:48:42Z</time>
      </trkpt>
      <trkpt lat="43.99662" lon="5.06094">
        <ele>91.46</ele>
        <time>2012-04-08T19:49:05Z</time>
      </trkpt>
      <trkpt lat="43.99662" lon="5.06094">
        <ele>91.46</ele>
        <time>2012-04-08T19:49:26Z</time>
      </trkpt>
      <trkpt lat="43.99665" lon="5.06096">
        <ele>91.94</ele>
        <time>2012-04-08T19:49:52Z</time>
      </trkpt>
      <trkpt lat="43.99674" lon="5.06101">
        <ele>91.94</ele>
        <time>2012-04-08T19:50:12Z</time>
      </trkpt>
      <trkpt lat="43.99676" lon="5.06106">
        <ele>91.46</ele>
        <time>2012-04-08T19:50:31Z</time>
      </trkpt>
      <trkpt lat="43.99682" lon="5.06087">
        <ele>91.94</ele>
        <time>2012-04-08T19:50:52Z</time>
      </trkpt>
      <trkpt lat="43.99687" lon="5.06089">
        <ele>92.42</ele>
        <time>2012-04-08T19:51:17Z</time>
      </trkpt>
      <trkpt lat="43.99684" lon="5.0609">
        <ele>91.94</ele>
        <time>2012-04-08T19:51:41Z</time>
      </trkpt>
      <trkpt lat="43.9968" lon="5.06083">
        <ele>91.46</ele>
        <time>2012-04-08T19:52:04Z</time>
      </trkpt>
      <trkpt lat="43.99676" lon="5.06093">
        <ele>91.94</ele>
        <time>2012-04-08T19:52:27Z</time>
      </trkpt>
      <trkpt lat="43.99673" lon="5.06098">
        <ele>91.46</ele>
        <time>2012-04-08T19:52:56Z</time>
      </trkpt>
      <trkpt lat="43.99668" lon="5.06097">
        <ele>92.42</ele>
        <time>2012-04-08T19:53:19Z</time>
      </trkpt>
      <trkpt lat="43.99668" lon="5.06097">
        <ele>91.46</ele>
        <time>2012-04-08T19:53:45Z</time>
      </trkpt>
      <trkpt lat="43.99668" lon="5.06097">
        <ele>92.42</ele>
        <time>2012-04-08T19:54:15Z</time>
      </trkpt>
      <trkpt lat="43.99671" lon="5.06098">
        <ele>91.94</ele>
        <time>2012-04-08T19:54:42Z</time>
      </trkpt>
      <trkpt lat="43.99675" lon="5.06098">
        <ele>92.42</ele>
        <time>2012-04-08T19:55:06Z</time>
      </trkpt>
      <trkpt lat="43.99674" lon="5.06098">
        <ele>92.9</ele>
        <time>2012-04-08T19:55:35Z</time>
      </trkpt>
      <trkpt lat="43.99672" lon="5.06096">
        <ele>92.9</ele>
        <time>2012-04-08T19:56:00Z</time>
      </trkpt>
      <trkpt lat="43.99678" lon="5.06099">
        <ele>93.39</ele>
        <time>2012-04-08T19:56:24Z</time>
      </trkpt>
      <trkpt lat="43.99679" lon="5.06099">
        <ele>92.9</ele>
        <time>2012-04-08T19:56:47Z</time>
      </trkpt>
      <trkpt lat="43.99678" lon="5.06098">
        <ele>93.39</ele>
        <time>2012-04-08T19:57:10Z</time>
      </trkpt>
      <trkpt lat="43.99678" lon="5.06098">
        <ele>93.39</ele>
        <time>2012-04-08T19:57:33Z</time>
      </trkpt>
      <trkpt lat="43.99677" lon="5.06099">
        <ele>93.39</ele>
        <time>2012-04-08T19:57:55Z</time>
      </trkpt>
      <trkpt lat="43.99668" lon="5.06092">
        <ele>93.87</ele>
        <time>2012-04-08T19:58:23Z</time>
      </trkpt>
      <trkpt lat="43.99663" lon="5.06095">
        <ele>93.39</ele>
        <time>2012-04-08T19:58:49Z</time>
      </trkpt>
      <trkpt lat="43.99663" lon="5.06095">
        <ele>93.39</ele>
        <time>2012-04-08T19:59:12Z</time>
      </trkpt>
      <trkpt lat="43.99663" lon="5.06095">
        <ele>93.39</ele>
        <time>2012-04-08T19:59:36Z</time>
      </trkpt>
      <trkpt lat="43.99661" lon="5.06099">
        <ele>92.9</ele>
        <time>2012-04-08T20:00:01Z</time>
      </trkpt>
      <trkpt lat="43.99658" lon="5.06101">
        <ele>92.9</ele>
        <time>2012-04-08T20:00:23Z</time>
      </trkpt>
      <trkpt lat="43.9966" lon="5.06099">
        <ele>94.35</ele>
        <time>2012-04-08T20:00:47Z</time>
      </trkpt>
      <trkpt lat="43.99663" lon="5.06095">
        <ele>94.83</ele>
        <time>2012-04-08T20:01:09Z</time>
      </trkpt>
      <trkpt lat="43.99664" lon="5.06095">
        <ele>93.87</ele>
        <time>2012-04-08T20:01:38Z</time>
      </trkpt>
      <trkpt lat="43.99666" lon="5.06095">
        <ele>93.87</ele>
        <time>2012-04-08T20:01:45Z</time>
      </trkpt>
      <trkpt lat="43.99683" lon="5.06102">
        <ele>94.83</ele>
        <time>2012-04-08T20:02:12Z</time>
      </trkpt>
      <trkpt lat="43.99683" lon="5.06102">
        <ele>94.35</ele>
        <time>2012-04-08T20:02:40Z</time>
      </trkpt>
      <trkpt lat="43.99682" lon="5.06101">
        <ele>93.87</ele>
        <time>2012-04-08T20:03:12Z</time>
      </trkpt>
      <trkpt lat="43.9968" lon="5.061">
        <ele>94.35</ele>
        <time>2012-04-08T20:03:41Z</time>
      </trkpt>
      <trkpt lat="43.99675" lon="5.06091">
        <ele>94.83</ele>
        <time>2012-04-08T20:04:08Z</time>
      </trkpt>
      <trkpt lat="43.99672" lon="5.06088">
        <ele>94.35</ele>
        <time>2012-04-08T20:04:32Z</time>
      </trkpt>
      <trkpt lat="43.99671" lon="5.06088">
        <ele>94.35</ele>
        <time>2012-04-08T20:04:55Z</time>
      </trkpt>
      <trkpt lat="43.99674" lon="5.06089">
        <ele>94.35</ele>
        <time>2012-04-08T20:05:17Z</time>
      </trkpt>
      <trkpt lat="43.9967" lon="5.06096">
        <ele>94.83</ele>
        <time>2012-04-08T20:05:46Z</time>
      </trkpt>
      <trkpt lat="43.99671" lon="5.06096">
        <ele>94.35</ele>
        <time>2012-04-08T20:06:10Z</time>
      </trkpt>
      <trkpt lat="43.99671" lon="5.06096">
        <ele>94.35</ele>
        <time>2012-04-08T20:06:39Z</time>
      </trkpt>
      <trkpt lat="43.99671" lon="5.06096">
        <ele>94.83</ele>
        <time>2012-04-08T20:07:11Z</time>
      </trkpt>
      <trkpt lat="43.99671" lon="5.06096">
        <ele>95.31</ele>
        <time>2012-04-08T20:07:43Z</time>
      </trkpt>
      <trkpt lat="43.99671" lon="5.06096">
        <ele>94.83</ele>
        <time>2012-04-08T20:08:14Z</time>
      </trkpt>
      <trkpt lat="43.99671" lon="5.06096">
        <ele>95.31</ele>
        <time>2012-04-08T20:08:44Z</time>
      </trkpt>
      <trkpt lat="43.99671" lon="5.06096">
        <ele>94.83</ele>
        <time>2012-04-08T20:09:13Z</time>
      </trkpt>
      <trkpt lat="43.99671" lon="5.06096">
        <ele>94.83</ele>
        <time>2012-04-08T20:09:40Z</time>
      </trkpt>
      <trkpt lat="43.99672" lon="5.06096">
        <ele>95.31</ele>
        <time>2012-04-08T20:10:14Z</time>
      </trkpt>
      <trkpt lat="43.99672" lon="5.06095">
        <ele>95.31</ele>
        <time>2012-04-08T20:10:48Z</time>
      </trkpt>
      <trkpt lat="43.99672" lon="5.06095">
        <ele>95.31</ele>
        <time>2012-04-08T20:11:18Z</time>
      </trkpt>
      <trkpt lat="43.99672" lon="5.06095">
        <ele>95.79</ele>
        <time>2012-04-08T20:11:48Z</time>
      </trkpt>
      <trkpt lat="43.99673" lon="5.0609">
        <ele>95.79</ele>
        <time>2012-04-08T20:12:16Z</time>
      </trkpt>
      <trkpt lat="43.99673" lon="5.0609">
        <ele>95.79</ele>
        <time>2012-04-08T20:12:42Z</time>
      </trkpt>
      <trkpt lat="43.99672" lon="5.0609">
        <ele>95.79</ele>
        <time>2012-04-08T20:13:14Z</time>
      </trkpt>
      <trkpt lat="43.99672" lon="5.0609">
        <ele>95.79</ele>
        <time>2012-04-08T20:13:41Z</time>
      </trkpt>
      <trkpt lat="43.99672" lon="5.0609">
        <ele>96.75</ele>
        <time>2012-04-08T20:14:05Z</time>
      </trkpt>
      <trkpt lat="43.99672" lon="5.0609">
        <ele>96.27</ele>
        <time>2012-04-08T20:14:27Z</time>
      </trkpt>
      <trkpt lat="43.99672" lon="5.0609">
        <ele>96.27</ele>
        <time>2012-04-08T20:14:54Z</time>
      </trkpt>
      <trkpt lat="43.99672" lon="5.0609">
        <ele>95.79</ele>
        <time>2012-04-08T20:15:24Z</time>
      </trkpt>
      <trkpt lat="43.99672" lon="5.06091">
        <ele>96.75</ele>
        <time>2012-04-08T20:15:58Z</time>
      </trkpt>
      <trkpt lat="43.99672" lon="5.06091">
        <ele>95.79</ele>
        <time>2012-04-08T20:16:22Z</time>
      </trkpt>
      <trkpt lat="43.99672" lon="5.06093">
        <ele>96.27</ele>
        <time>2012-04-08T20:16:48Z</time>
      </trkpt>
      <trkpt lat="43.99672" lon="5.06093">
        <ele>96.27</ele>
        <time>2012-04-08T20:17:13Z</time>
      </trkpt>
      <trkpt lat="43.99672" lon="5.06093">
        <ele>96.27</ele>
        <time>2012-04-08T20:17:34Z</time>
      </trkpt>
      <trkpt lat="43.99677" lon="5.06093">
        <ele>95.79</ele>
        <time>2012-04-08T20:17:58Z</time>
      </trkpt>
      <trkpt lat="43.99681" lon="5.06096">
        <ele>96.27</ele>
        <time>2012-04-08T20:18:22Z</time>
      </trkpt>
      <trkpt lat="43.99682" lon="5.06102">
        <ele>97.23</ele>
        <time>2012-04-08T20:18:47Z</time>
      </trkpt>
      <trkpt lat="43.99683" lon="5.06106">
        <ele>97.23</ele>
        <time>2012-04-08T20:19:09Z</time>
      </trkpt>
      <trkpt lat="43.99683" lon="5.06106">
        <ele>97.23</ele>
        <time>2012-04-08T20:19:33Z</time>
      </trkpt>
      <trkpt lat="43.99683" lon="5.06106">
        <ele>97.23</ele>
        <time>2012-04-08T20:19:58Z</time>
      </trkpt>
      <trkpt lat="43.99681" lon="5.06102">
        <ele>97.23</ele>
        <time>2012-04-08T20:20:22Z</time>
      </trkpt>
      <trkpt lat="43.99664" lon="5.06097">
        <ele>97.23</ele>
        <time>2012-04-08T20:20:47Z</time>
      </trkpt>
      <trkpt lat="43.99664" lon="5.06097">
        <ele>97.71</ele>
        <time>2012-04-08T20:21:15Z</time>
      </trkpt>
      <trkpt lat="43.99666" lon="5.06095">
        <ele>97.71</ele>
        <time>2012-04-08T20:21:36Z</time>
      </trkpt>
      <trkpt lat="43.99665" lon="5.06094">
        <ele>97.23</ele>
        <time>2012-04-08T20:21:55Z</time>
      </trkpt>
      <trkpt lat="43.99663" lon="5.06097">
        <ele>97.71</ele>
        <time>2012-04-08T20:22:17Z</time>
      </trkpt>
      <trkpt lat="43.99655" lon="5.06094">
        <ele>98.19</ele>
        <time>2012-04-08T20:22:39Z</time>
      </trkpt>
      <trkpt lat="43.99651" lon="5.06095">
        <ele>98.19</ele>
        <time>2012-04-08T20:22:54Z</time>
      </trkpt>
      <trkpt lat="43.99653" lon="5.06098">
        <ele>98.19</ele>
        <time>2012-04-08T20:23:14Z</time>
      </trkpt>
      <trkpt lat="43.99655" lon="5.061">
        <ele>99.15</ele>
        <time>2012-04-08T20:23:38Z</time>
      </trkpt>
      <trkpt lat="43.99654" lon="5.061">
        <ele>98.67</ele>
        <time>2012-04-08T20:24:00Z</time>
      </trkpt>
      <trkpt lat="43.99655" lon="5.06106">
        <ele>98.67</ele>
        <time>2012-04-08T20:24:06Z</time>
      </trkpt>
      <trkpt lat="43.99663" lon="5.06124">
        <ele>98.19</ele>
        <time>2012-04-08T20:24:25Z</time>
      </trkpt>
      <trkpt lat="43.99664" lon="5.06126">
        <ele>98.19</ele>
        <time>2012-04-08T20:24:37Z</time>
      </trkpt>
      <trkpt lat="43.99664" lon="5.06128">
        <ele>98.19</ele>
        <time>2012-04-08T20:24:38Z</time>
      </trkpt>
      <trkpt lat="43.99679" lon="5.0616">
        <ele>98.19</ele>
        <time>2012-04-08T20:24:57Z</time>
      </trkpt>
      <trkpt lat="43.99668" lon="5.06105">
        <ele>98.19</ele>
        <time>2012-04-08T20:25:16Z</time>
      </trkpt>
      <trkpt lat="43.99669" lon="5.06105">
        <ele>97.71</ele>
        <time>2012-04-08T20:25:41Z</time>
      </trkpt>
      <trkpt lat="43.99666" lon="5.06097">
        <ele>97.71</ele>
        <time>2012-04-08T20:26:05Z</time>
      </trkpt>
      <trkpt lat="43.99664" lon="5.06094">
        <ele>97.71</ele>
        <time>2012-04-08T20:26:28Z</time>
      </trkpt>
      <trkpt lat="43.99664" lon="5.06095">
        <ele>97.71</ele>
        <time>2012-04-08T20:26:54Z</time>
      </trkpt>
      <trkpt lat="43.99664" lon="5.06095">
        <ele>98.19</ele>
        <time>2012-04-08T20:27:20Z</time>
      </trkpt>
      <trkpt lat="43.99664" lon="5.06095">
        <ele>98.19</ele>
        <time>2012-04-08T20:27:47Z</time>
      </trkpt>
      <trkpt lat="43.99665" lon="5.06094">
        <ele>97.71</ele>
        <time>2012-04-08T20:28:12Z</time>
      </trkpt>
      <trkpt lat="43.99668" lon="5.06095">
        <ele>97.71</ele>
        <time>2012-04-08T20:28:16Z</time>
      </trkpt>
      <trkpt lat="43.99676" lon="5.06095">
        <ele>98.19</ele>
        <time>2012-04-08T20:28:39Z</time>
      </trkpt>
      <trkpt lat="43.99672" lon="5.06101">
        <ele>98.19</ele>
        <time>2012-04-08T20:28:55Z</time>
      </trkpt>
      <trkpt lat="43.99658" lon="5.06112">
        <ele>98.67</ele>
        <time>2012-04-08T20:29:20Z</time>
      </trkpt>
      <trkpt lat="43.99659" lon="5.0611">
        <ele>99.15</ele>
        <time>2012-04-08T20:29:44Z</time>
      </trkpt>
      <trkpt lat="43.99659" lon="5.06109">
        <ele>98.67</ele>
        <time>2012-04-08T20:30:07Z</time>
      </trkpt>
      <trkpt lat="43.99659" lon="5.06109">
        <ele>98.67</ele>
        <time>2012-04-08T20:30:35Z</time>
      </trkpt>
      <trkpt lat="43.9966" lon="5.06108">
        <ele>98.67</ele>
        <time>2012-04-08T20:31:00Z</time>
      </trkpt>
      <trkpt lat="43.99664" lon="5.061">
        <ele>99.15</ele>
        <time>2012-04-08T20:31:25Z</time>
      </trkpt>
      <trkpt lat="43.99666" lon="5.06099">
        <ele>99.15</ele>
        <time>2012-04-08T20:31:52Z</time>
      </trkpt>
      <trkpt lat="43.99666" lon="5.06098">
        <ele>99.63</ele>
        <time>2012-04-08T20:32:19Z</time>
      </trkpt>
      <trkpt lat="43.99666" lon="5.06098">
        <ele>98.67</ele>
        <time>2012-04-08T20:32:50Z</time>
      </trkpt>
      <trkpt lat="43.99675" lon="5.06095">
        <ele>99.15</ele>
        <time>2012-04-08T20:33:18Z</time>
      </trkpt>
      <trkpt lat="43.99673" lon="5.06094">
        <ele>99.15</ele>
        <time>2012-04-08T20:33:43Z</time>
      </trkpt>
      <trkpt lat="43.99672" lon="5.06093">
        <ele>100.11</ele>
        <time>2012-04-08T20:34:06Z</time>
      </trkpt>
      <trkpt lat="43.99671" lon="5.06096">
        <ele>99.63</ele>
        <time>2012-04-08T20:34:22Z</time>
      </trkpt>
      <trkpt lat="43.99658" lon="5.06092">
        <ele>99.63</ele>
        <time>2012-04-08T20:34:36Z</time>
      </trkpt>
      <trkpt lat="43.99636" lon="5.06104">
        <ele>100.11</ele>
        <time>2012-04-08T20:35:06Z</time>
      </trkpt>
      <trkpt lat="43.99645" lon="5.06112">
        <ele>99.63</ele>
        <time>2012-04-08T20:35:26Z</time>
      </trkpt>
      <trkpt lat="43.99651" lon="5.06108">
        <ele>99.63</ele>
        <time>2012-04-08T20:35:54Z</time>
      </trkpt>
      <trkpt lat="43.99664" lon="5.06095">
        <ele>100.11</ele>
        <time>2012-04-08T20:36:28Z</time>
      </trkpt>
      <trkpt lat="43.99665" lon="5.06094">
        <ele>100.11</ele>
        <time>2012-04-08T20:36:56Z</time>
      </trkpt>
      <trkpt lat="43.99669" lon="5.06093">
        <ele>100.11</ele>
        <time>2012-04-08T20:37:19Z</time>
      </trkpt>
      <trkpt lat="43.99669" lon="5.06093">
        <ele>100.6</ele>
        <time>2012-04-08T20:37:48Z</time>
      </trkpt>
      <trkpt lat="43.99668" lon="5.06095">
        <ele>100.6</ele>
        <time>2012-04-08T20:38:16Z</time>
      </trkpt>
      <trkpt lat="43.99667" lon="5.06095">
        <ele>99.63</ele>
        <time>2012-04-08T20:38:44Z</time>
      </trkpt>
      <trkpt lat="43.99667" lon="5.06095">
        <ele>100.6</ele>
        <time>2012-04-08T20:39:09Z</time>
      </trkpt>
      <trkpt lat="43.9967" lon="5.06095">
        <ele>100.6</ele>
        <time>2012-04-08T20:39:32Z</time>
      </trkpt>
      <trkpt lat="43.9967" lon="5.06095">
        <ele>101.08</ele>
        <time>2012-04-08T20:40:00Z</time>
      </trkpt>
      <trkpt lat="43.9967" lon="5.06099">
        <ele>100.6</ele>
        <time>2012-04-08T20:40:22Z</time>
      </trkpt>
      <trkpt lat="43.99676" lon="5.06098">
        <ele>100.6</ele>
        <time>2012-04-08T20:41:05Z</time>
      </trkpt>
      <trkpt lat="43.99677" lon="5.06094">
        <ele>101.08</ele>
        <time>2012-04-08T20:41:31Z</time>
      </trkpt>
      <trkpt lat="43.99677" lon="5.06094">
        <ele>100.6</ele>
        <time>2012-04-08T20:41:55Z</time>
      </trkpt>
      <trkpt lat="43.99676" lon="5.06093">
        <ele>101.56</ele>
        <time>2012-04-08T20:42:19Z</time>
      </trkpt>
      <trkpt lat="43.9968" lon="5.06088">
        <ele>101.56</ele>
        <time>2012-04-08T20:42:40Z</time>
      </trkpt>
      <trkpt lat="43.99679" lon="5.06085">
        <ele>101.56</ele>
        <time>2012-04-08T20:43:02Z</time>
      </trkpt>
      <trkpt lat="43.99668" lon="5.0609">
        <ele>101.56</ele>
        <time>2012-04-08T20:43:26Z</time>
      </trkpt>
      <trkpt lat="43.99671" lon="5.06092">
        <ele>100.11</ele>
        <time>2012-04-08T20:43:50Z</time>
      </trkpt>
      <trkpt lat="43.99671" lon="5.06092">
        <ele>100.6</ele>
        <time>2012-04-08T20:44:14Z</time>
      </trkpt>
      <trkpt lat="43.99671" lon="5.06092">
        <ele>101.08</ele>
        <time>2012-04-08T20:44:42Z</time>
      </trkpt>
      <trkpt lat="43.99678" lon="5.06095">
        <ele>100.6</ele>
        <time>2012-04-08T20:45:01Z</time>
      </trkpt>
      <trkpt lat="43.99685" lon="5.06095">
        <ele>101.08</ele>
        <time>2012-04-08T20:45:23Z</time>
      </trkpt>
      <trkpt lat="43.99679" lon="5.0609">
        <ele>100.6</ele>
        <time>2012-04-08T20:45:45Z</time>
      </trkpt>
      <trkpt lat="43.99673" lon="5.06091">
        <ele>101.08</ele>
        <time>2012-04-08T20:46:10Z</time>
      </trkpt>
      <trkpt lat="43.99669" lon="5.06096">
        <ele>100.6</ele>
        <time>2012-04-08T20:46:30Z</time>
      </trkpt>
      <trkpt lat="43.99666" lon="5.06091">
        <ele>100.6</ele>
        <time>2012-04-08T20:46:52Z</time>
      </trkpt>
      <trkpt lat="43.99663" lon="5.06087">
        <ele>101.08</ele>
        <time>2012-04-08T20:47:15Z</time>
      </trkpt>
      <trkpt lat="43.99664" lon="5.06087">
        <ele>100.11</ele>
        <time>2012-04-08T20:47:37Z</time>
      </trkpt>
      <trkpt lat="43.99664" lon="5.06089">
        <ele>100.6</ele>
        <time>2012-04-08T20:48:02Z</time>
      </trkpt>
      <trkpt lat="43.99664" lon="5.06089">
        <ele>99.63</ele>
        <time>2012-04-08T20:48:25Z</time>
      </trkpt>
      <trkpt lat="43.9966" lon="5.06095">
        <ele>99.63</ele>
        <time>2012-04-08T20:48:45Z</time>
      </trkpt>
      <trkpt lat="43.99661" lon="5.06099">
        <ele>99.15</ele>
        <time>2012-04-08T20:49:06Z</time>
      </trkpt>
      <trkpt lat="43.99663" lon="5.061">
        <ele>99.63</ele>
        <time>2012-04-08T20:49:26Z</time>
      </trkpt>
      <trkpt lat="43.99673" lon="5.06097">
        <ele>99.63</ele>
        <time>2012-04-08T20:49:47Z</time>
      </trkpt>
      <trkpt lat="43.9967" lon="5.06097">
        <ele>99.63</ele>
        <time>2012-04-08T20:50:07Z</time>
      </trkpt>
      <trkpt lat="43.99672" lon="5.06123">
        <ele>100.11</ele>
        <time>2012-04-08T20:50:36Z</time>
      </trkpt>
      <trkpt lat="43.99674" lon="5.06122">
        <ele>99.63</ele>
        <time>2012-04-08T20:50:56Z</time>
      </trkpt>
      <trkpt lat="43.99671" lon="5.06109">
        <ele>100.6</ele>
        <time>2012-04-08T20:51:20Z</time>
      </trkpt>
      <trkpt lat="43.9967" lon="5.06105">
        <ele>100.6</ele>
        <time>2012-04-08T20:51:41Z</time>
      </trkpt>
      <trkpt lat="43.99655" lon="5.06102">
        <ele>100.6</ele>
        <time>2012-04-08T20:52:05Z</time>
      </trkpt>
      <trkpt lat="43.99652" lon="5.06106">
        <ele>100.6</ele>
        <time>2012-04-08T20:52:28Z</time>
      </trkpt>
      <trkpt lat="43.9965" lon="5.06105">
        <ele>100.11</ele>
        <time>2012-04-08T20:52:46Z</time>
      </trkpt>
      <trkpt lat="43.99648" lon="5.06106">
        <ele>100.11</ele>
        <time>2012-04-08T20:53:06Z</time>
      </trkpt>
      <trkpt lat="43.99667" lon="5.06079">
        <ele>101.08</ele>
        <time>2012-04-08T20:59:08Z</time>
      </trkpt>
      <trkpt lat="43.99663" lon="5.06082">
        <ele>100.6</ele>
        <time>2012-04-08T20:59:33Z</time>
      </trkpt>
      <trkpt lat="43.99665" lon="5.06083">
        <ele>101.08</ele>
        <time>2012-04-08T20:59:57Z</time>
      </trkpt>
      <trkpt lat="43.99665" lon="5.06086">
        <ele>100.6</ele>
        <time>2012-04-08T21:00:25Z</time>
      </trkpt>
      <trkpt lat="43.99657" lon="5.06084">
        <ele>100.6</ele>
        <time>2012-04-08T21:00:48Z</time>
      </trkpt>
      <trkpt lat="43.99657" lon="5.06086">
        <ele>101.08</ele>
        <time>2012-04-08T21:01:10Z</time>
      </trkpt>
      <trkpt lat="43.99657" lon="5.06086">
        <ele>100.6</ele>
        <time>2012-04-08T21:01:37Z</time>
      </trkpt>
      <trkpt lat="43.99657" lon="5.06085">
        <ele>100.6</ele>
        <time>2012-04-08T21:02:06Z</time>
      </trkpt>
      <trkpt lat="43.99657" lon="5.06085">
        <ele>101.08</ele>
        <time>2012-04-08T21:02:34Z</time>
      </trkpt>
      <trkpt lat="43.99657" lon="5.06085">
        <ele>100.6</ele>
        <time>2012-04-08T21:03:00Z</time>
      </trkpt>
      <trkpt lat="43.9966" lon="5.06078">
        <ele>101.08</ele>
        <time>2012-04-08T21:03:21Z</time>
      </trkpt>
      <trkpt lat="43.99656" lon="5.06078">
        <ele>101.08</ele>
        <time>2012-04-08T21:03:46Z</time>
      </trkpt>
      <trkpt lat="43.99657" lon="5.06077">
        <ele>101.56</ele>
        <time>2012-04-08T21:04:08Z</time>
      </trkpt>
      <trkpt lat="43.99657" lon="5.06077">
        <ele>101.56</ele>
        <time>2012-04-08T21:04:31Z</time>
      </trkpt>
      <trkpt lat="43.99656" lon="5.06086">
        <ele>102.04</ele>
        <time>2012-04-08T21:05:00Z</time>
      </trkpt>
      <trkpt lat="43.99653" lon="5.06092">
        <ele>103</ele>
        <time>2012-04-08T21:05:21Z</time>
      </trkpt>
      <trkpt lat="43.99652" lon="5.06092">
        <ele>103</ele>
        <time>2012-04-08T21:05:41Z</time>
      </trkpt>
      <trkpt lat="43.99645" lon="5.06094">
        <ele>103</ele>
        <time>2012-04-08T21:06:05Z</time>
      </trkpt>
      <trkpt lat="43.99662" lon="5.06061">
        <ele>103</ele>
        <time>2012-04-08T21:09:29Z</time>
      </trkpt>
      <trkpt lat="43.9966" lon="5.06059">
        <ele>102.52</ele>
        <time>2012-04-08T21:10:04Z</time>
      </trkpt>
      <trkpt lat="43.99647" lon="5.06067">
        <ele>102.52</ele>
        <time>2012-04-08T21:10:28Z</time>
      </trkpt>
      <trkpt lat="43.99655" lon="5.06077">
        <ele>103</ele>
        <time>2012-04-08T21:10:54Z</time>
      </trkpt>
      <trkpt lat="43.99655" lon="5.06081">
        <ele>103</ele>
        <time>2012-04-08T21:11:17Z</time>
      </trkpt>
      <trkpt lat="43.99654" lon="5.06084">
        <ele>103</ele>
        <time>2012-04-08T21:11:42Z</time>
      </trkpt>
      <trkpt lat="43.99655" lon="5.06085">
        <ele>103</ele>
        <time>2012-04-08T21:12:07Z</time>
      </trkpt>
      <trkpt lat="43.99659" lon="5.06086">
        <ele>102.52</ele>
        <time>2012-04-08T21:12:25Z</time>
      </trkpt>
      <trkpt lat="43.99657" lon="5.0609">
        <ele>102.52</ele>
        <time>2012-04-08T21:12:50Z</time>
      </trkpt>
      <trkpt lat="43.99656" lon="5.06093">
        <ele>101.56</ele>
        <time>2012-04-08T21:13:16Z</time>
      </trkpt>
      <trkpt lat="43.99659" lon="5.061">
        <ele>102.52</ele>
        <time>2012-04-08T21:13:39Z</time>
      </trkpt>
      <trkpt lat="43.99669" lon="5.06098">
        <ele>102.52</ele>
        <time>2012-04-08T21:14:04Z</time>
      </trkpt>
      <trkpt lat="43.99688" lon="5.06092">
        <ele>102.04</ele>
        <time>2012-04-08T21:14:32Z</time>
      </trkpt>
      <trkpt lat="43.99688" lon="5.06092">
        <ele>102.04</ele>
        <time>2012-04-08T21:15:05Z</time>
      </trkpt>
      <trkpt lat="43.9968" lon="5.06087">
        <ele>102.04</ele>
        <time>2012-04-08T21:15:29Z</time>
      </trkpt>
      <trkpt lat="43.9968" lon="5.06087">
        <ele>101.56</ele>
        <time>2012-04-08T21:15:59Z</time>
      </trkpt>
      <trkpt lat="43.9968" lon="5.06087">
        <ele>102.04</ele>
        <time>2012-04-08T21:16:30Z</time>
      </trkpt>
      <trkpt lat="43.9968" lon="5.06087">
        <ele>102.04</ele>
        <time>2012-04-08T21:17:00Z</time>
      </trkpt>
      <trkpt lat="43.9968" lon="5.06087">
        <ele>102.04</ele>
        <time>2012-04-08T21:17:29Z</time>
      </trkpt>
      <trkpt lat="43.99679" lon="5.06087">
        <ele>102.52</ele>
        <time>2012-04-08T21:17:53Z</time>
      </trkpt>
      <trkpt lat="43.99674" lon="5.06092">
        <ele>101.56</ele>
        <time>2012-04-08T21:18:17Z</time>
      </trkpt>
      <trkpt lat="43.99673" lon="5.06083">
        <ele>102.52</ele>
        <time>2012-04-08T21:18:37Z</time>
      </trkpt>
      <trkpt lat="43.99673" lon="5.06085">
        <ele>101.56</ele>
        <time>2012-04-08T21:19:05Z</time>
      </trkpt>
      <trkpt lat="43.99672" lon="5.06086">
        <ele>103</ele>
        <time>2012-04-08T21:19:27Z</time>
      </trkpt>
      <trkpt lat="43.99669" lon="5.06088">
        <ele>102.52</ele>
        <time>2012-04-08T21:19:51Z</time>
      </trkpt>
      <trkpt lat="43.99669" lon="5.06088">
        <ele>102.04</ele>
        <time>2012-04-08T21:20:17Z</time>
      </trkpt>
      <trkpt lat="43.99658" lon="5.06088">
        <ele>102.04</ele>
        <time>2012-04-08T21:20:47Z</time>
      </trkpt>
      <trkpt lat="43.99658" lon="5.06088">
        <ele>102.04</ele>
        <time>2012-04-08T21:21:08Z</time>
      </trkpt>
      <trkpt lat="43.99658" lon="5.06089">
        <ele>102.04</ele>
        <time>2012-04-08T21:21:33Z</time>
      </trkpt>
      <trkpt lat="43.99657" lon="5.06088">
        <ele>101.56</ele>
        <time>2012-04-08T21:21:59Z</time>
      </trkpt>
      <trkpt lat="43.99658" lon="5.06088">
        <ele>101.08</ele>
        <time>2012-04-08T21:22:21Z</time>
      </trkpt>
      <trkpt lat="43.99658" lon="5.06088">
        <ele>101.56</ele>
        <time>2012-04-08T21:22:45Z</time>
      </trkpt>
      <trkpt lat="43.99666" lon="5.06082">
        <ele>100.6</ele>
        <time>2012-04-08T21:23:10Z</time>
      </trkpt>
      <trkpt lat="43.99667" lon="5.06081">
        <ele>101.56</ele>
        <time>2012-04-08T21:23:34Z</time>
      </trkpt>
      <trkpt lat="43.99667" lon="5.06083">
        <ele>101.08</ele>
        <time>2012-04-08T21:24:00Z</time>
      </trkpt>
      <trkpt lat="43.99663" lon="5.06087">
        <ele>100.6</ele>
        <time>2012-04-08T21:24:26Z</time>
      </trkpt>
      <trkpt lat="43.99663" lon="5.06087">
        <ele>100.6</ele>
        <time>2012-04-08T21:24:53Z</time>
      </trkpt>
      <trkpt lat="43.99657" lon="5.06089">
        <ele>100.6</ele>
        <time>2012-04-08T21:25:18Z</time>
      </trkpt>
      <trkpt lat="43.99654" lon="5.06092">
        <ele>100.6</ele>
        <time>2012-04-08T21:25:42Z</time>
      </trkpt>
      <trkpt lat="43.99652" lon="5.06093">
        <ele>100.11</ele>
        <time>2012-04-08T21:25:46Z</time>
      </trkpt>
      <trkpt lat="43.99638" lon="5.06098">
        <ele>100.6</ele>
        <time>2012-04-08T21:26:06Z</time>
      </trkpt>
      <trkpt lat="43.99638" lon="5.06098">
        <ele>99.63</ele>
        <time>2012-04-08T21:26:34Z</time>
      </trkpt>
      <trkpt lat="43.99637" lon="5.06098">
        <ele>99.63</ele>
        <time>2012-04-08T21:27:05Z</time>
      </trkpt>
      <trkpt lat="43.99632" lon="5.06098">
        <ele>98.67</ele>
        <time>2012-04-08T21:27:28Z</time>
      </trkpt>
      <trkpt lat="43.99641" lon="5.061">
        <ele>99.63</ele>
        <time>2012-04-08T21:27:48Z</time>
      </trkpt>
      <trkpt lat="43.9965" lon="5.06102">
        <ele>98.67</ele>
        <time>2012-04-08T21:28:07Z</time>
      </trkpt>
      <trkpt lat="43.99658" lon="5.06102">
        <ele>98.19</ele>
        <time>2012-04-08T21:28:28Z</time>
      </trkpt>
      <trkpt lat="43.99667" lon="5.06088">
        <ele>98.67</ele>
        <time>2012-04-08T21:28:48Z</time>
      </trkpt>
      <trkpt lat="43.99667" lon="5.06086">
        <ele>98.19</ele>
        <time>2012-04-08T21:29:12Z</time>
      </trkpt>
      <trkpt lat="43.99667" lon="5.06086">
        <ele>98.67</ele>
        <time>2012-04-08T21:29:38Z</time>
      </trkpt>
      <trkpt lat="43.99676" lon="5.06087">
        <ele>98.19</ele>
        <time>2012-04-08T21:30:02Z</time>
      </trkpt>
      <trkpt lat="43.99677" lon="5.06087">
        <ele>99.15</ele>
        <time>2012-04-08T21:30:27Z</time>
      </trkpt>
      <trkpt lat="43.99676" lon="5.06088">
        <ele>98.67</ele>
        <time>2012-04-08T21:30:56Z</time>
      </trkpt>
      <trkpt lat="43.99673" lon="5.06091">
        <ele>99.63</ele>
        <time>2012-04-08T21:31:19Z</time>
      </trkpt>
      <trkpt lat="43.99672" lon="5.06091">
        <ele>99.15</ele>
        <time>2012-04-08T21:31:48Z</time>
      </trkpt>
      <trkpt lat="43.99672" lon="5.06091">
        <ele>98.67</ele>
        <time>2012-04-08T21:32:18Z</time>
      </trkpt>
      <trkpt lat="43.99672" lon="5.06091">
        <ele>98.19</ele>
        <time>2012-04-08T21:32:48Z</time>
      </trkpt>
      <trkpt lat="43.99672" lon="5.06091">
        <ele>98.67</ele>
        <time>2012-04-08T21:33:15Z</time>
      </trkpt>
      <trkpt lat="43.99672" lon="5.06091">
        <ele>98.67</ele>
        <time>2012-04-08T21:33:41Z</time>
      </trkpt>
      <trkpt lat="43.99672" lon="5.06091">
        <ele>98.67</ele>
        <time>2012-04-08T21:34:10Z</time>
      </trkpt>
      <trkpt lat="43.99671" lon="5.0609">
        <ele>98.19</ele>
        <time>2012-04-08T21:34:34Z</time>
      </trkpt>
      <trkpt lat="43.99668" lon="5.06087">
        <ele>98.19</ele>
        <time>2012-04-08T21:34:58Z</time>
      </trkpt>
      <trkpt lat="43.99665" lon="5.0609">
        <ele>98.19</ele>
        <time>2012-04-08T21:35:17Z</time>
      </trkpt>
      <trkpt lat="43.99655" lon="5.06095">
        <ele>98.19</ele>
        <time>2012-04-08T21:35:44Z</time>
      </trkpt>
      <trkpt lat="43.99655" lon="5.06094">
        <ele>98.19</ele>
        <time>2012-04-08T21:36:10Z</time>
      </trkpt>
      <trkpt lat="43.99652" lon="5.06095">
        <ele>98.19</ele>
        <time>2012-04-08T21:36:39Z</time>
      </trkpt>
      <trkpt lat="43.99651" lon="5.06096">
        <ele>97.23</ele>
        <time>2012-04-08T21:37:06Z</time>
      </trkpt>
      <trkpt lat="43.99648" lon="5.06091">
        <ele>98.19</ele>
        <time>2012-04-08T21:37:31Z</time>
      </trkpt>
      <trkpt lat="43.99659" lon="5.06089">
        <ele>97.71</ele>
        <time>2012-04-08T21:37:51Z</time>
      </trkpt>
      <trkpt lat="43.99669" lon="5.06092">
        <ele>97.23</ele>
        <time>2012-04-08T21:38:18Z</time>
      </trkpt>
      <trkpt lat="43.99669" lon="5.06092">
        <ele>97.71</ele>
        <time>2012-04-08T21:38:44Z</time>
      </trkpt>
      <trkpt lat="43.99665" lon="5.06092">
        <ele>98.19</ele>
        <time>2012-04-08T21:39:06Z</time>
      </trkpt>
      <trkpt lat="43.99658" lon="5.06093">
        <ele>97.71</ele>
        <time>2012-04-08T21:39:30Z</time>
      </trkpt>
      <trkpt lat="43.99661" lon="5.06089">
        <ele>98.67</ele>
        <time>2012-04-08T21:39:57Z</time>
      </trkpt>
      <trkpt lat="43.99655" lon="5.06084">
        <ele>97.71</ele>
        <time>2012-04-08T21:40:24Z</time>
      </trkpt>
      <trkpt lat="43.99655" lon="5.06084">
        <ele>98.19</ele>
        <time>2012-04-08T21:40:46Z</time>
      </trkpt>
      <trkpt lat="43.99653" lon="5.06089">
        <ele>97.71</ele>
        <time>2012-04-08T21:41:09Z</time>
      </trkpt>
      <trkpt lat="43.99656" lon="5.06087">
        <ele>96.75</ele>
        <time>2012-04-08T21:41:32Z</time>
      </trkpt>
      <trkpt lat="43.99661" lon="5.06083">
        <ele>97.71</ele>
        <time>2012-04-08T21:41:53Z</time>
      </trkpt>
      <trkpt lat="43.99661" lon="5.06083">
        <ele>97.23</ele>
        <time>2012-04-08T21:42:17Z</time>
      </trkpt>
      <trkpt lat="43.99664" lon="5.06083">
        <ele>97.71</ele>
        <time>2012-04-08T21:42:19Z</time>
      </trkpt>
      <trkpt lat="43.99695" lon="5.06086">
        <ele>97.71</ele>
        <time>2012-04-08T21:42:40Z</time>
      </trkpt>
      <trkpt lat="43.99698" lon="5.06089">
        <ele>97.71</ele>
        <time>2012-04-08T21:42:47Z</time>
      </trkpt>
      <trkpt lat="43.99725" lon="5.06112">
        <ele>97.23</ele>
        <time>2012-04-08T21:43:14Z</time>
      </trkpt>
      <trkpt lat="43.99707" lon="5.06116">
        <ele>97.23</ele>
        <time>2012-04-08T21:43:38Z</time>
      </trkpt>
      <trkpt lat="43.99705" lon="5.06115">
        <ele>97.71</ele>
        <time>2012-04-08T21:44:03Z</time>
      </trkpt>
      <trkpt lat="43.99697" lon="5.06104">
        <ele>97.23</ele>
        <time>2012-04-08T21:44:31Z</time>
      </trkpt>
      <trkpt lat="43.99692" lon="5.06104">
        <ele>96.75</ele>
        <time>2012-04-08T21:44:58Z</time>
      </trkpt>
      <trkpt lat="43.99675" lon="5.06098">
        <ele>97.23</ele>
        <time>2012-04-08T21:45:25Z</time>
      </trkpt>
      <trkpt lat="43.9967" lon="5.061">
        <ele>97.23</ele>
        <time>2012-04-08T21:45:50Z</time>
      </trkpt>
      <trkpt lat="43.99664" lon="5.06109">
        <ele>97.71</ele>
        <time>2012-04-08T21:46:15Z</time>
      </trkpt>
      <trkpt lat="43.9967" lon="5.06099">
        <ele>97.71</ele>
        <time>2012-04-08T21:48:26Z</time>
      </trkpt>
      <trkpt lat="43.99668" lon="5.061">
        <ele>97.71</ele>
        <time>2012-04-08T21:48:28Z</time>
      </trkpt>
      <trkpt lat="43.99664" lon="5.06105">
        <ele>97.23</ele>
        <time>2012-04-08T21:48:47Z</time>
      </trkpt>
      <trkpt lat="43.99658" lon="5.06093">
        <ele>97.23</ele>
        <time>2012-04-08T21:49:11Z</time>
      </trkpt>
      <trkpt lat="43.99651" lon="5.06082">
        <ele>96.75</ele>
        <time>2012-04-08T21:49:33Z</time>
      </trkpt>
      <trkpt lat="43.99654" lon="5.06085">
        <ele>97.23</ele>
        <time>2012-04-08T21:49:58Z</time>
      </trkpt>
      <trkpt lat="43.99654" lon="5.06084">
        <ele>97.23</ele>
        <time>2012-04-08T21:50:23Z</time>
      </trkpt>
      <trkpt lat="43.99655" lon="5.06084">
        <ele>97.71</ele>
        <time>2012-04-08T21:50:52Z</time>
      </trkpt>
      <trkpt lat="43.99655" lon="5.06084">
        <ele>97.23</ele>
        <time>2012-04-08T21:51:23Z</time>
      </trkpt>
      <trkpt lat="43.99656" lon="5.06085">
        <ele>97.23</ele>
        <time>2012-04-08T21:51:53Z</time>
      </trkpt>
      <trkpt lat="43.99656" lon="5.06084">
        <ele>98.19</ele>
        <time>2012-04-08T21:52:17Z</time>
      </trkpt>
      <trkpt lat="43.99656" lon="5.06083">
        <ele>97.23</ele>
        <time>2012-04-08T21:52:49Z</time>
      </trkpt>
      <trkpt lat="43.99656" lon="5.06083">
        <ele>96.75</ele>
        <time>2012-04-08T21:53:17Z</time>
      </trkpt>
      <trkpt lat="43.99659" lon="5.06082">
        <ele>96.75</ele>
        <time>2012-04-08T21:53:42Z</time>
      </trkpt>
      <trkpt lat="43.99662" lon="5.06081">
        <ele>97.23</ele>
        <time>2012-04-08T21:54:05Z</time>
      </trkpt>
      <trkpt lat="43.99664" lon="5.06083">
        <ele>97.23</ele>
        <time>2012-04-08T21:54:30Z</time>
      </trkpt>
      <trkpt lat="43.99664" lon="5.06083">
        <ele>97.71</ele>
        <time>2012-04-08T21:54:55Z</time>
      </trkpt>
      <trkpt lat="43.99671" lon="5.06085">
        <ele>97.23</ele>
        <time>2012-04-08T21:55:21Z</time>
      </trkpt>
      <trkpt lat="43.99676" lon="5.06084">
        <ele>98.19</ele>
        <time>2012-04-08T22:03:19Z</time>
      </trkpt>
      <trkpt lat="43.99676" lon="5.06084">
        <ele>98.19</ele>
        <time>2012-04-08T22:03:48Z</time>
      </trkpt>
      <trkpt lat="43.99673" lon="5.06083">
        <ele>97.71</ele>
        <time>2012-04-08T22:04:17Z</time>
      </trkpt>
      <trkpt lat="43.9967" lon="5.06083">
        <ele>97.71</ele>
        <time>2012-04-08T22:04:49Z</time>
      </trkpt>
      <trkpt lat="43.99666" lon="5.06077">
        <ele>97.71</ele>
        <time>2012-04-08T22:05:15Z</time>
      </trkpt>
      <trkpt lat="43.99666" lon="5.06091">
        <ele>97.23</ele>
        <time>2012-04-08T22:05:37Z</time>
      </trkpt>
      <trkpt lat="43.99674" lon="5.0606">
        <ele>97.23</ele>
        <time>2012-04-08T22:06:35Z</time>
      </trkpt>
      <trkpt lat="43.99671" lon="5.06071">
        <ele>96.75</ele>
        <time>2012-04-08T22:07:00Z</time>
      </trkpt>
      <trkpt lat="43.99666" lon="5.06082">
        <ele>97.23</ele>
        <time>2012-04-08T22:07:28Z</time>
      </trkpt>
      <trkpt lat="43.99666" lon="5.06086">
        <ele>98.19</ele>
        <time>2012-04-08T22:07:51Z</time>
      </trkpt>
      <trkpt lat="43.99667" lon="5.06082">
        <ele>97.71</ele>
        <time>2012-04-08T22:08:14Z</time>
      </trkpt>
      <trkpt lat="43.99667" lon="5.06082">
        <ele>97.71</ele>
        <time>2012-04-08T22:08:40Z</time>
      </trkpt>
      <trkpt lat="43.99667" lon="5.06081">
        <ele>98.19</ele>
        <time>2012-04-08T22:09:02Z</time>
      </trkpt>
      <trkpt lat="43.99671" lon="5.06083">
        <ele>97.71</ele>
        <time>2012-04-08T22:09:10Z</time>
      </trkpt>
      <trkpt lat="43.99682" lon="5.06082">
        <ele>97.71</ele>
        <time>2012-04-08T22:09:33Z</time>
      </trkpt>
      <trkpt lat="43.99685" lon="5.06086">
        <ele>97.71</ele>
        <time>2012-04-08T22:09:52Z</time>
      </trkpt>
      <trkpt lat="43.99677" lon="5.06087">
        <ele>97.71</ele>
        <time>2012-04-08T22:10:14Z</time>
      </trkpt>
      <trkpt lat="43.9967" lon="5.06085">
        <ele>97.71</ele>
        <time>2012-04-08T22:10:36Z</time>
      </trkpt>
      <trkpt lat="43.99662" lon="5.06078">
        <ele>97.23</ele>
        <time>2012-04-08T22:10:57Z</time>
      </trkpt>
      <trkpt lat="43.9966" lon="5.06075">
        <ele>97.23</ele>
        <time>2012-04-08T22:11:00Z</time>
      </trkpt>
      <trkpt lat="43.99649" lon="5.06057">
        <ele>97.71</ele>
        <time>2012-04-08T22:11:23Z</time>
      </trkpt>
      <trkpt lat="43.99649" lon="5.06057">
        <ele>97.71</ele>
        <time>2012-04-08T22:11:47Z</time>
      </trkpt>
      <trkpt lat="43.99649" lon="5.06058">
        <ele>97.71</ele>
        <time>2012-04-08T22:12:11Z</time>
      </trkpt>
      <trkpt lat="43.99648" lon="5.06059">
        <ele>97.23</ele>
        <time>2012-04-08T22:12:30Z</time>
      </trkpt>
      <trkpt lat="43.99636" lon="5.06064">
        <ele>97.23</ele>
        <time>2012-04-08T22:12:52Z</time>
      </trkpt>
      <trkpt lat="43.99634" lon="5.06062">
        <ele>98.19</ele>
        <time>2012-04-08T22:13:13Z</time>
      </trkpt>
      <trkpt lat="43.99635" lon="5.06066">
        <ele>98.19</ele>
        <time>2012-04-08T22:13:34Z</time>
      </trkpt>
      <trkpt lat="43.99635" lon="5.06064">
        <ele>98.19</ele>
        <time>2012-04-08T22:13:53Z</time>
      </trkpt>
      <trkpt lat="43.99655" lon="5.06074">
        <ele>97.71</ele>
        <time>2012-04-08T22:14:16Z</time>
      </trkpt>
      <trkpt lat="43.99655" lon="5.06074">
        <ele>98.19</ele>
        <time>2012-04-08T22:14:40Z</time>
      </trkpt>
      <trkpt lat="43.99659" lon="5.06077">
        <ele>97.71</ele>
        <time>2012-04-08T22:15:02Z</time>
      </trkpt>
      <trkpt lat="43.99656" lon="5.0608">
        <ele>97.23</ele>
        <time>2012-04-08T22:15:25Z</time>
      </trkpt>
      <trkpt lat="43.9966" lon="5.06083">
        <ele>97.71</ele>
        <time>2012-04-08T22:15:48Z</time>
      </trkpt>
      <trkpt lat="43.99662" lon="5.06081">
        <ele>97.23</ele>
        <time>2012-04-08T22:16:11Z</time>
      </trkpt>
      <trkpt lat="43.99653" lon="5.06083">
        <ele>97.23</ele>
        <time>2012-04-08T22:16:33Z</time>
      </trkpt>
      <trkpt lat="43.99646" lon="5.06083">
        <ele>97.23</ele>
        <time>2012-04-08T22:16:55Z</time>
      </trkpt>
      <trkpt lat="43.99659" lon="5.06085">
        <ele>97.71</ele>
        <time>2012-04-08T22:17:15Z</time>
      </trkpt>
      <trkpt lat="43.99658" lon="5.06079">
        <ele>97.23</ele>
        <time>2012-04-08T22:17:39Z</time>
      </trkpt>
      <trkpt lat="43.99658" lon="5.0609">
        <ele>97.71</ele>
        <time>2012-04-08T22:18:00Z</time>
      </trkpt>
      <trkpt lat="43.99658" lon="5.0609">
        <ele>96.75</ele>
        <time>2012-04-08T22:18:22Z</time>
      </trkpt>
      <trkpt lat="43.99658" lon="5.06085">
        <ele>97.23</ele>
        <time>2012-04-08T22:18:45Z</time>
      </trkpt>
      <trkpt lat="43.99658" lon="5.06077">
        <ele>96.27</ele>
        <time>2012-04-08T22:19:05Z</time>
      </trkpt>
      <trkpt lat="43.99658" lon="5.06077">
        <ele>97.23</ele>
        <time>2012-04-08T22:19:28Z</time>
      </trkpt>
      <trkpt lat="43.99655" lon="5.06086">
        <ele>97.23</ele>
        <time>2012-04-08T22:19:50Z</time>
      </trkpt>
      <trkpt lat="43.99655" lon="5.06086">
        <ele>97.23</ele>
        <time>2012-04-08T22:20:12Z</time>
      </trkpt>
      <trkpt lat="43.9966" lon="5.06085">
        <ele>97.23</ele>
        <time>2012-04-08T22:20:32Z</time>
      </trkpt>
      <trkpt lat="43.99658" lon="5.06085">
        <ele>96.75</ele>
        <time>2012-04-08T22:20:51Z</time>
      </trkpt>
      <trkpt lat="43.99659" lon="5.06079">
        <ele>96.75</ele>
        <time>2012-04-08T22:21:13Z</time>
      </trkpt>
      <trkpt lat="43.99661" lon="5.06082">
        <ele>97.23</ele>
        <time>2012-04-08T22:21:36Z</time>
      </trkpt>
      <trkpt lat="43.99663" lon="5.06085">
        <ele>96.75</ele>
        <time>2012-04-08T22:21:59Z</time>
      </trkpt>
      <trkpt lat="43.99663" lon="5.06085">
        <ele>96.75</ele>
        <time>2012-04-08T22:22:24Z</time>
      </trkpt>
      <trkpt lat="43.99665" lon="5.06084">
        <ele>96.75</ele>
        <time>2012-04-08T22:22:47Z</time>
      </trkpt>
      <trkpt lat="43.99668" lon="5.06081">
        <ele>96.75</ele>
        <time>2012-04-08T22:23:09Z</time>
      </trkpt>
      <trkpt lat="43.99662" lon="5.06082">
        <ele>97.23</ele>
        <time>2012-04-08T22:23:30Z</time>
      </trkpt>
      <trkpt lat="43.99655" lon="5.06081">
        <ele>96.75</ele>
        <time>2012-04-08T22:23:55Z</time>
      </trkpt>
      <trkpt lat="43.99654" lon="5.06081">
        <ele>96.75</ele>
        <time>2012-04-08T22:24:19Z</time>
      </trkpt>
      <trkpt lat="43.99653" lon="5.06078">
        <ele>96.75</ele>
        <time>2012-04-08T22:24:38Z</time>
      </trkpt>
      <trkpt lat="43.99652" lon="5.06074">
        <ele>96.75</ele>
        <time>2012-04-08T22:24:42Z</time>
      </trkpt>
      <trkpt lat="43.99652" lon="5.06066">
        <ele>97.23</ele>
        <time>2012-04-08T22:25:04Z</time>
      </trkpt>
      <trkpt lat="43.99652" lon="5.06066">
        <ele>96.75</ele>
        <time>2012-04-08T22:25:27Z</time>
      </trkpt>
      <trkpt lat="43.99661" lon="5.06074">
        <ele>97.23</ele>
        <time>2012-04-08T22:25:51Z</time>
      </trkpt>
      <trkpt lat="43.99661" lon="5.06074">
        <ele>96.75</ele>
        <time>2012-04-08T22:26:22Z</time>
      </trkpt>
      <trkpt lat="43.99659" lon="5.06074">
        <ele>96.75</ele>
        <time>2012-04-08T22:26:51Z</time>
      </trkpt>
      <trkpt lat="43.99662" lon="5.06075">
        <ele>96.27</ele>
        <time>2012-04-08T22:27:17Z</time>
      </trkpt>
      <trkpt lat="43.99663" lon="5.06084">
        <ele>96.75</ele>
        <time>2012-04-08T22:27:37Z</time>
      </trkpt>
      <trkpt lat="43.99659" lon="5.06075">
        <ele>96.75</ele>
        <time>2012-04-08T22:28:01Z</time>
      </trkpt>
      <trkpt lat="43.99659" lon="5.06075">
        <ele>96.27</ele>
        <time>2012-04-08T22:28:29Z</time>
      </trkpt>
      <trkpt lat="43.9966" lon="5.06076">
        <ele>96.75</ele>
        <time>2012-04-08T22:28:53Z</time>
      </trkpt>
      <trkpt lat="43.99656" lon="5.06076">
        <ele>96.75</ele>
        <time>2012-04-08T22:29:23Z</time>
      </trkpt>
      <trkpt lat="43.99656" lon="5.06077">
        <ele>97.23</ele>
        <time>2012-04-08T22:29:54Z</time>
      </trkpt>
      <trkpt lat="43.99656" lon="5.06077">
        <ele>97.23</ele>
        <time>2012-04-08T22:30:25Z</time>
      </trkpt>
      <trkpt lat="43.99654" lon="5.06076">
        <ele>96.27</ele>
        <time>2012-04-08T22:30:49Z</time>
      </trkpt>
      <trkpt lat="43.99657" lon="5.06075">
        <ele>96.27</ele>
        <time>2012-04-08T22:31:09Z</time>
      </trkpt>
      <trkpt lat="43.9966" lon="5.06082">
        <ele>96.27</ele>
        <time>2012-04-08T22:31:30Z</time>
      </trkpt>
      <trkpt lat="43.99661" lon="5.06083">
        <ele>96.27</ele>
        <time>2012-04-08T22:31:50Z</time>
      </trkpt>
      <trkpt lat="43.99663" lon="5.06084">
        <ele>96.75</ele>
        <time>2012-04-08T22:32:10Z</time>
      </trkpt>
      <trkpt lat="43.99662" lon="5.06084">
        <ele>96.27</ele>
        <time>2012-04-08T22:32:33Z</time>
      </trkpt>
      <trkpt lat="43.99662" lon="5.06085">
        <ele>96.75</ele>
        <time>2012-04-08T22:32:58Z</time>
      </trkpt>
      <trkpt lat="43.99662" lon="5.06085">
        <ele>96.75</ele>
        <time>2012-04-08T22:33:28Z</time>
      </trkpt>
      <trkpt lat="43.99662" lon="5.06085">
        <ele>97.23</ele>
        <time>2012-04-08T22:33:57Z</time>
      </trkpt>
      <trkpt lat="43.99655" lon="5.06082">
        <ele>96.75</ele>
        <time>2012-04-08T22:34:19Z</time>
      </trkpt>
      <trkpt lat="43.99657" lon="5.06083">
        <ele>96.75</ele>
        <time>2012-04-08T22:34:50Z</time>
      </trkpt>
      <trkpt lat="43.99657" lon="5.06082">
        <ele>96.75</ele>
        <time>2012-04-08T22:35:25Z</time>
      </trkpt>
      <trkpt lat="43.99658" lon="5.06082">
        <ele>97.23</ele>
        <time>2012-04-08T22:35:54Z</time>
      </trkpt>
      <trkpt lat="43.9966" lon="5.06085">
        <ele>97.23</ele>
        <time>2012-04-08T22:36:17Z</time>
      </trkpt>
      <trkpt lat="43.9966" lon="5.06087">
        <ele>96.75</ele>
        <time>2012-04-08T22:36:45Z</time>
      </trkpt>
      <trkpt lat="43.9966" lon="5.06087">
        <ele>97.23</ele>
        <time>2012-04-08T22:37:17Z</time>
      </trkpt>
      <trkpt lat="43.99661" lon="5.06083">
        <ele>97.23</ele>
        <time>2012-04-08T22:37:41Z</time>
      </trkpt>
      <trkpt lat="43.99661" lon="5.06082">
        <ele>97.71</ele>
        <time>2012-04-08T22:38:06Z</time>
      </trkpt>
      <trkpt lat="43.99661" lon="5.06082">
        <ele>97.71</ele>
        <time>2012-04-08T22:38:31Z</time>
      </trkpt>
      <trkpt lat="43.99655" lon="5.06086">
        <ele>97.23</ele>
        <time>2012-04-08T22:38:54Z</time>
      </trkpt>
      <trkpt lat="43.99658" lon="5.06085">
        <ele>97.23</ele>
        <time>2012-04-08T22:39:19Z</time>
      </trkpt>
      <trkpt lat="43.99661" lon="5.06085">
        <ele>97.23</ele>
        <time>2012-04-08T22:39:44Z</time>
      </trkpt>
      <trkpt lat="43.99662" lon="5.0609">
        <ele>97.23</ele>
        <time>2012-04-08T22:40:04Z</time>
      </trkpt>
      <trkpt lat="43.99662" lon="5.06089">
        <ele>96.75</ele>
        <time>2012-04-08T22:40:28Z</time>
      </trkpt>
      <trkpt lat="43.9966" lon="5.06099">
        <ele>96.75</ele>
        <time>2012-04-08T22:40:48Z</time>
      </trkpt>
      <trkpt lat="43.99661" lon="5.06097">
        <ele>96.75</ele>
        <time>2012-04-08T22:41:13Z</time>
      </trkpt>
      <trkpt lat="43.99662" lon="5.06099">
        <ele>96.27</ele>
        <time>2012-04-08T22:41:43Z</time>
      </trkpt>
      <trkpt lat="43.99658" lon="5.06091">
        <ele>96.27</ele>
        <time>2012-04-08T22:42:08Z</time>
      </trkpt>
      <trkpt lat="43.9966" lon="5.06091">
        <ele>95.79</ele>
        <time>2012-04-08T22:42:34Z</time>
      </trkpt>
      <trkpt lat="43.9966" lon="5.06091">
        <ele>95.31</ele>
        <time>2012-04-08T22:42:59Z</time>
      </trkpt>
      <trkpt lat="43.99661" lon="5.06092">
        <ele>95.31</ele>
        <time>2012-04-08T22:43:22Z</time>
      </trkpt>
      <trkpt lat="43.9966" lon="5.06094">
        <ele>94.35</ele>
        <time>2012-04-08T22:43:30Z</time>
      </trkpt>
      <trkpt lat="43.99658" lon="5.06095">
        <ele>94.83</ele>
        <time>2012-04-08T22:43:54Z</time>
      </trkpt>
      <trkpt lat="43.99664" lon="5.06091">
        <ele>93.87</ele>
        <time>2012-04-08T22:44:17Z</time>
      </trkpt>
      <trkpt lat="43.99664" lon="5.06093">
        <ele>94.35</ele>
        <time>2012-04-08T22:44:39Z</time>
      </trkpt>
      <trkpt lat="43.99659" lon="5.0609">
        <ele>93.39</ele>
        <time>2012-04-08T22:45:01Z</time>
      </trkpt>
      <trkpt lat="43.99656" lon="5.06089">
        <ele>93.39</ele>
        <time>2012-04-08T22:45:21Z</time>
      </trkpt>
      <trkpt lat="43.99653" lon="5.06092">
        <ele>93.87</ele>
        <time>2012-04-08T22:45:41Z</time>
      </trkpt>
      <trkpt lat="43.99647" lon="5.06095">
        <ele>92.9</ele>
        <time>2012-04-08T22:45:57Z</time>
      </trkpt>
      <trkpt lat="43.99648" lon="5.06091">
        <ele>92.9</ele>
        <time>2012-04-08T22:46:20Z</time>
      </trkpt>
      <trkpt lat="43.99652" lon="5.06086">
        <ele>92.9</ele>
        <time>2012-04-08T22:46:45Z</time>
      </trkpt>
      <trkpt lat="43.99656" lon="5.06083">
        <ele>92.42</ele>
        <time>2012-04-08T22:47:08Z</time>
      </trkpt>
      <trkpt lat="43.99655" lon="5.06083">
        <ele>92.9</ele>
        <time>2012-04-08T22:47:33Z</time>
      </trkpt>
      <trkpt lat="43.99651" lon="5.06077">
        <ele>92.9</ele>
        <time>2012-04-08T22:47:46Z</time>
      </trkpt>
      <trkpt lat="43.99656" lon="5.06078">
        <ele>92.9</ele>
        <time>2012-04-08T22:48:09Z</time>
      </trkpt>
      <trkpt lat="43.99659" lon="5.06077">
        <ele>92.9</ele>
        <time>2012-04-08T22:48:31Z</time>
      </trkpt>
      <trkpt lat="43.99664" lon="5.06076">
        <ele>92.9</ele>
        <time>2012-04-08T22:48:55Z</time>
      </trkpt>
      <trkpt lat="43.99669" lon="5.06076">
        <ele>92.9</ele>
        <time>2012-04-08T22:49:17Z</time>
      </trkpt>
      <trkpt lat="43.99669" lon="5.06075">
        <ele>93.39</ele>
        <time>2012-04-08T22:49:38Z</time>
      </trkpt>
      <trkpt lat="43.99667" lon="5.06077">
        <ele>93.39</ele>
        <time>2012-04-08T22:49:58Z</time>
      </trkpt>
      <trkpt lat="43.99664" lon="5.06079">
        <ele>93.39</ele>
        <time>2012-04-08T22:50:22Z</time>
      </trkpt>
      <trkpt lat="43.99664" lon="5.06079">
        <ele>92.9</ele>
        <time>2012-04-08T22:50:46Z</time>
      </trkpt>
      <trkpt lat="43.99665" lon="5.06081">
        <ele>92.42</ele>
        <time>2012-04-08T22:51:06Z</time>
      </trkpt>
      <trkpt lat="43.99665" lon="5.06081">
        <ele>92.9</ele>
        <time>2012-04-08T22:51:28Z</time>
      </trkpt>
      <trkpt lat="43.99665" lon="5.06081">
        <ele>92.9</ele>
        <time>2012-04-08T22:51:52Z</time>
      </trkpt>
      <trkpt lat="43.99662" lon="5.06085">
        <ele>92.9</ele>
        <time>2012-04-08T22:52:17Z</time>
      </trkpt>
      <trkpt lat="43.99661" lon="5.06083">
        <ele>92.9</ele>
        <time>2012-04-08T22:52:41Z</time>
      </trkpt>
      <trkpt lat="43.99666" lon="5.06089">
        <ele>93.87</ele>
        <time>2012-04-08T22:53:08Z</time>
      </trkpt>
      <trkpt lat="43.99667" lon="5.06085">
        <ele>93.87</ele>
        <time>2012-04-08T22:53:15Z</time>
      </trkpt>
      <trkpt lat="43.99669" lon="5.06065">
        <ele>93.87</ele>
        <time>2012-04-08T22:53:34Z</time>
      </trkpt>
      <trkpt lat="43.9967" lon="5.06084">
        <ele>93.87</ele>
        <time>2012-04-08T22:54:01Z</time>
      </trkpt>
      <trkpt lat="43.9967" lon="5.06083">
        <ele>94.83</ele>
        <time>2012-04-08T22:54:25Z</time>
      </trkpt>
      <trkpt lat="43.9967" lon="5.06081">
        <ele>94.35</ele>
        <time>2012-04-08T22:54:54Z</time>
      </trkpt>
      <trkpt lat="43.9967" lon="5.06081">
        <ele>94.83</ele>
        <time>2012-04-08T22:55:19Z</time>
      </trkpt>
      <trkpt lat="43.9967" lon="5.06081">
        <ele>95.31</ele>
        <time>2012-04-08T22:55:44Z</time>
      </trkpt>
      <trkpt lat="43.99663" lon="5.06077">
        <ele>95.31</ele>
        <time>2012-04-08T22:56:15Z</time>
      </trkpt>
      <trkpt lat="43.99664" lon="5.06072">
        <ele>95.79</ele>
        <time>2012-04-08T22:56:41Z</time>
      </trkpt>
      <trkpt lat="43.99664" lon="5.06073">
        <ele>95.79</ele>
        <time>2012-04-08T22:57:06Z</time>
      </trkpt>
      <trkpt lat="43.99664" lon="5.06073">
        <ele>95.31</ele>
        <time>2012-04-08T22:57:34Z</time>
      </trkpt>
      <trkpt lat="43.99664" lon="5.06073">
        <ele>96.27</ele>
        <time>2012-04-08T22:58:01Z</time>
      </trkpt>
      <trkpt lat="43.99663" lon="5.06073">
        <ele>96.27</ele>
        <time>2012-04-08T22:58:25Z</time>
      </trkpt>
      <trkpt lat="43.99663" lon="5.06073">
        <ele>96.75</ele>
        <time>2012-04-08T22:58:52Z</time>
      </trkpt>
      <trkpt lat="43.99663" lon="5.06074">
        <ele>96.27</ele>
        <time>2012-04-08T22:59:23Z</time>
      </trkpt>
      <trkpt lat="43.99663" lon="5.06074">
        <ele>96.75</ele>
        <time>2012-04-08T22:59:56Z</time>
      </trkpt>
      <trkpt lat="43.99663" lon="5.06074">
        <ele>96.75</ele>
        <time>2012-04-08T23:00:29Z</time>
      </trkpt>
      <trkpt lat="43.99663" lon="5.06075">
        <ele>97.23</ele>
        <time>2012-04-08T23:00:58Z</time>
      </trkpt>
      <trkpt lat="43.99663" lon="5.06075">
        <ele>96.75</ele>
        <time>2012-04-08T23:01:25Z</time>
      </trkpt>
      <trkpt lat="43.99664" lon="5.06076">
        <ele>97.23</ele>
        <time>2012-04-08T23:01:57Z</time>
      </trkpt>
      <trkpt lat="43.99664" lon="5.06076">
        <ele>97.71</ele>
        <time>2012-04-08T23:02:26Z</time>
      </trkpt>
      <trkpt lat="43.99664" lon="5.06076">
        <ele>97.23</ele>
        <time>2012-04-08T23:02:58Z</time>
      </trkpt>
      <trkpt lat="43.99664" lon="5.06076">
        <ele>97.23</ele>
        <time>2012-04-08T23:03:24Z</time>
      </trkpt>
      <trkpt lat="43.99664" lon="5.06077">
        <ele>96.75</ele>
        <time>2012-04-08T23:03:58Z</time>
      </trkpt>
      <trkpt lat="43.99664" lon="5.06077">
        <ele>97.71</ele>
        <time>2012-04-08T23:04:25Z</time>
      </trkpt>
      <trkpt lat="43.99664" lon="5.06078">
        <ele>97.71</ele>
        <time>2012-04-08T23:04:50Z</time>
      </trkpt>
      <trkpt lat="43.99664" lon="5.06078">
        <ele>97.71</ele>
        <time>2012-04-08T23:05:17Z</time>
      </trkpt>
      <trkpt lat="43.99664" lon="5.06079">
        <ele>98.19</ele>
        <time>2012-04-08T23:05:46Z</time>
      </trkpt>
      <trkpt lat="43.99664" lon="5.0608">
        <ele>98.19</ele>
        <time>2012-04-08T23:06:17Z</time>
      </trkpt>
      <trkpt lat="43.99664" lon="5.0608">
        <ele>98.19</ele>
        <time>2012-04-08T23:06:48Z</time>
      </trkpt>
      <trkpt lat="43.99664" lon="5.0608">
        <ele>99.15</ele>
        <time>2012-04-08T23:07:17Z</time>
      </trkpt>
      <trkpt lat="43.99664" lon="5.06083">
        <ele>98.19</ele>
        <time>2012-04-08T23:07:45Z</time>
      </trkpt>
      <trkpt lat="43.99667" lon="5.06087">
        <ele>98.19</ele>
        <time>2012-04-08T23:08:05Z</time>
      </trkpt>
      <trkpt lat="43.99663" lon="5.06088">
        <ele>98.19</ele>
        <time>2012-04-08T23:08:31Z</time>
      </trkpt>
      <trkpt lat="43.99663" lon="5.06088">
        <ele>98.19</ele>
        <time>2012-04-08T23:09:05Z</time>
      </trkpt>
      <trkpt lat="43.99663" lon="5.06088">
        <ele>98.19</ele>
        <time>2012-04-08T23:09:38Z</time>
      </trkpt>
      <trkpt lat="43.99664" lon="5.06088">
        <ele>98.19</ele>
        <time>2012-04-08T23:10:04Z</time>
      </trkpt>
      <trkpt lat="43.99664" lon="5.06088">
        <ele>98.67</ele>
        <time>2012-04-08T23:10:34Z</time>
      </trkpt>
      <trkpt lat="43.99664" lon="5.06088">
        <ele>98.19</ele>
        <time>2012-04-08T23:11:01Z</time>
      </trkpt>
      <trkpt lat="43.99664" lon="5.06088">
        <ele>98.19</ele>
        <time>2012-04-08T23:11:29Z</time>
      </trkpt>
      <trkpt lat="43.99664" lon="5.06088">
        <ele>97.71</ele>
        <time>2012-04-08T23:11:52Z</time>
      </trkpt>
      <trkpt lat="43.99659" lon="5.06084">
        <ele>98.19</ele>
        <time>2012-04-08T23:12:10Z</time>
      </trkpt>
      <trkpt lat="43.99661" lon="5.06086">
        <ele>97.71</ele>
        <time>2012-04-08T23:12:32Z</time>
      </trkpt>
      <trkpt lat="43.99661" lon="5.06087">
        <ele>97.71</ele>
        <time>2012-04-08T23:12:59Z</time>
      </trkpt>
      <trkpt lat="43.99662" lon="5.06086">
        <ele>97.23</ele>
        <time>2012-04-08T23:13:27Z</time>
      </trkpt>
      <trkpt lat="43.99662" lon="5.06086">
        <ele>97.71</ele>
        <time>2012-04-08T23:13:58Z</time>
      </trkpt>
      <trkpt lat="43.99662" lon="5.06086">
        <ele>97.71</ele>
        <time>2012-04-08T23:14:25Z</time>
      </trkpt>
      <trkpt lat="43.99663" lon="5.06087">
        <ele>97.71</ele>
        <time>2012-04-08T23:14:54Z</time>
      </trkpt>
      <trkpt lat="43.99663" lon="5.06087">
        <ele>96.75</ele>
        <time>2012-04-08T23:15:29Z</time>
      </trkpt>
      <trkpt lat="43.99663" lon="5.06087">
        <ele>97.71</ele>
        <time>2012-04-08T23:15:58Z</time>
      </trkpt>
      <trkpt lat="43.99662" lon="5.06089">
        <ele>97.23</ele>
        <time>2012-04-08T23:16:29Z</time>
      </trkpt>
      <trkpt lat="43.99662" lon="5.06089">
        <ele>96.75</ele>
        <time>2012-04-08T23:17:01Z</time>
      </trkpt>
      <trkpt lat="43.99662" lon="5.06089">
        <ele>96.75</ele>
        <time>2012-04-08T23:17:35Z</time>
      </trkpt>
      <trkpt lat="43.99662" lon="5.06089">
        <ele>96.75</ele>
        <time>2012-04-08T23:18:00Z</time>
      </trkpt>
      <trkpt lat="43.99662" lon="5.06089">
        <ele>96.75</ele>
        <time>2012-04-08T23:18:24Z</time>
      </trkpt>
      <trkpt lat="43.99663" lon="5.06091">
        <ele>96.27</ele>
        <time>2012-04-08T23:18:49Z</time>
      </trkpt>
      <trkpt lat="43.99662" lon="5.06092">
        <ele>96.27</ele>
        <time>2012-04-08T23:19:22Z</time>
      </trkpt>
      <trkpt lat="43.9966" lon="5.06091">
        <ele>96.75</ele>
        <time>2012-04-08T23:19:52Z</time>
      </trkpt>
      <trkpt lat="43.99658" lon="5.0609">
        <ele>96.27</ele>
        <time>2012-04-08T23:20:12Z</time>
      </trkpt>
      <trkpt lat="43.99658" lon="5.06092">
        <ele>96.27</ele>
        <time>2012-04-08T23:20:39Z</time>
      </trkpt>
      <trkpt lat="43.99658" lon="5.06092">
        <ele>96.27</ele>
        <time>2012-04-08T23:21:06Z</time>
      </trkpt>
      <trkpt lat="43.99658" lon="5.06092">
        <ele>95.79</ele>
        <time>2012-04-08T23:21:35Z</time>
      </trkpt>
      <trkpt lat="43.99658" lon="5.06092">
        <ele>95.79</ele>
        <time>2012-04-08T23:22:11Z</time>
      </trkpt>
      <trkpt lat="43.99658" lon="5.06092">
        <ele>95.79</ele>
        <time>2012-04-08T23:22:35Z</time>
      </trkpt>
      <trkpt lat="43.99657" lon="5.0609">
        <ele>96.27</ele>
        <time>2012-04-08T23:22:56Z</time>
      </trkpt>
      <trkpt lat="43.99648" lon="5.06085">
        <ele>95.79</ele>
        <time>2012-04-08T23:23:17Z</time>
      </trkpt>
      <trkpt lat="43.99652" lon="5.06078">
        <ele>95.79</ele>
        <time>2012-04-08T23:23:37Z</time>
      </trkpt>
      <trkpt lat="43.99669" lon="5.06086">
        <ele>95.31</ele>
        <time>2012-04-08T23:23:57Z</time>
      </trkpt>
      <trkpt lat="43.99669" lon="5.06089">
        <ele>94.83</ele>
        <time>2012-04-08T23:24:21Z</time>
      </trkpt>
      <trkpt lat="43.99669" lon="5.06089">
        <ele>94.35</ele>
        <time>2012-04-08T23:24:49Z</time>
      </trkpt>
      <trkpt lat="43.9967" lon="5.06096">
        <ele>93.87</ele>
        <time>2012-04-08T23:25:13Z</time>
      </trkpt>
      <trkpt lat="43.99661" lon="5.06092">
        <ele>94.35</ele>
        <time>2012-04-08T23:25:31Z</time>
      </trkpt>
      <trkpt lat="43.99652" lon="5.06106">
        <ele>94.35</ele>
        <time>2012-04-08T23:25:50Z</time>
      </trkpt>
      <trkpt lat="43.9965" lon="5.06105">
        <ele>94.35</ele>
        <time>2012-04-08T23:26:08Z</time>
      </trkpt>
      <trkpt lat="43.99657" lon="5.06084">
        <ele>94.35</ele>
        <time>2012-04-08T23:26:29Z</time>
      </trkpt>
      <trkpt lat="43.99657" lon="5.06085">
        <ele>94.35</ele>
        <time>2012-04-08T23:26:30Z</time>
      </trkpt>
      <trkpt lat="43.99664" lon="5.06091">
        <ele>94.83</ele>
        <time>2012-04-08T23:26:50Z</time>
      </trkpt>
      <trkpt lat="43.99663" lon="5.06088">
        <ele>94.35</ele>
        <time>2012-04-08T23:27:13Z</time>
      </trkpt>
      <trkpt lat="43.99669" lon="5.06086">
        <ele>94.35</ele>
        <time>2012-04-08T23:27:36Z</time>
      </trkpt>
      <trkpt lat="43.99667" lon="5.06084">
        <ele>94.35</ele>
        <time>2012-04-08T23:27:57Z</time>
      </trkpt>
      <trkpt lat="43.99663" lon="5.06083">
        <ele>93.87</ele>
        <time>2012-04-08T23:28:20Z</time>
      </trkpt>
      <trkpt lat="43.99661" lon="5.06078">
        <ele>93.87</ele>
        <time>2012-04-08T23:28:47Z</time>
      </trkpt>
      <trkpt lat="43.99661" lon="5.06078">
        <ele>93.87</ele>
        <time>2012-04-08T23:29:14Z</time>
      </trkpt>
      <trkpt lat="43.99661" lon="5.06078">
        <ele>93.87</ele>
        <time>2012-04-08T23:29:42Z</time>
      </trkpt>
      <trkpt lat="43.99659" lon="5.06084">
        <ele>93.87</ele>
        <time>2012-04-08T23:30:07Z</time>
      </trkpt>
      <trkpt lat="43.99657" lon="5.06084">
        <ele>92.9</ele>
        <time>2012-04-08T23:30:31Z</time>
      </trkpt>
      <trkpt lat="43.99658" lon="5.06084">
        <ele>92.9</ele>
        <time>2012-04-08T23:30:59Z</time>
      </trkpt>
      <trkpt lat="43.99658" lon="5.06084">
        <ele>92.9</ele>
        <time>2012-04-08T23:31:26Z</time>
      </trkpt>
      <trkpt lat="43.99658" lon="5.06084">
        <ele>93.39</ele>
        <time>2012-04-08T23:31:50Z</time>
      </trkpt>
      <trkpt lat="43.99661" lon="5.06083">
        <ele>92.9</ele>
        <time>2012-04-08T23:32:16Z</time>
      </trkpt>
      <trkpt lat="43.99664" lon="5.06082">
        <ele>92.9</ele>
        <time>2012-04-08T23:32:44Z</time>
      </trkpt>
      <trkpt lat="43.99664" lon="5.06082">
        <ele>92.42</ele>
        <time>2012-04-08T23:33:11Z</time>
      </trkpt>
      <trkpt lat="43.99664" lon="5.06082">
        <ele>91.94</ele>
        <time>2012-04-08T23:33:38Z</time>
      </trkpt>
      <trkpt lat="43.99664" lon="5.06082">
        <ele>92.9</ele>
        <time>2012-04-08T23:34:03Z</time>
      </trkpt>
      <trkpt lat="43.99664" lon="5.06082">
        <ele>92.42</ele>
        <time>2012-04-08T23:34:31Z</time>
      </trkpt>
      <trkpt lat="43.99664" lon="5.06082">
        <ele>92.42</ele>
        <time>2012-04-08T23:34:56Z</time>
      </trkpt>
      <trkpt lat="43.99664" lon="5.06082">
        <ele>92.42</ele>
        <time>2012-04-08T23:35:21Z</time>
      </trkpt>
      <trkpt lat="43.99665" lon="5.06083">
        <ele>92.42</ele>
        <time>2012-04-08T23:35:41Z</time>
      </trkpt>
      <trkpt lat="43.99664" lon="5.0609">
        <ele>92.42</ele>
        <time>2012-04-08T23:36:01Z</time>
      </trkpt>
      <trkpt lat="43.99652" lon="5.06084">
        <ele>92.42</ele>
        <time>2012-04-08T23:36:20Z</time>
      </trkpt>
      <trkpt lat="43.99653" lon="5.06082">
        <ele>92.42</ele>
        <time>2012-04-08T23:36:44Z</time>
      </trkpt>
      <trkpt lat="43.99662" lon="5.06085">
        <ele>92.42</ele>
        <time>2012-04-08T23:37:09Z</time>
      </trkpt>
      <trkpt lat="43.99662" lon="5.06085">
        <ele>92.42</ele>
        <time>2012-04-08T23:37:33Z</time>
      </trkpt>
      <trkpt lat="43.99665" lon="5.06089">
        <ele>92.9</ele>
        <time>2012-04-08T23:37:56Z</time>
      </trkpt>
      <trkpt lat="43.99665" lon="5.06087">
        <ele>92.9</ele>
        <time>2012-04-08T23:38:24Z</time>
      </trkpt>
      <trkpt lat="43.99664" lon="5.0609">
        <ele>92.9</ele>
        <time>2012-04-08T23:38:44Z</time>
      </trkpt>
      <trkpt lat="43.99663" lon="5.06091">
        <ele>93.39</ele>
        <time>2012-04-08T23:39:10Z</time>
      </trkpt>
      <trkpt lat="43.99663" lon="5.06081">
        <ele>92.9</ele>
        <time>2012-04-08T23:39:32Z</time>
      </trkpt>
      <trkpt lat="43.99664" lon="5.06079">
        <ele>92.9</ele>
        <time>2012-04-08T23:40:01Z</time>
      </trkpt>
      <trkpt lat="43.99666" lon="5.06076">
        <ele>93.39</ele>
        <time>2012-04-08T23:40:44Z</time>
      </trkpt>
      <trkpt lat="43.99665" lon="5.06074">
        <ele>93.39</ele>
        <time>2012-04-08T23:41:10Z</time>
      </trkpt>
      <trkpt lat="43.99665" lon="5.06075">
        <ele>93.39</ele>
        <time>2012-04-08T23:41:46Z</time>
      </trkpt>
      <trkpt lat="43.99665" lon="5.06074">
        <ele>93.87</ele>
        <time>2012-04-08T23:42:20Z</time>
      </trkpt>
      <trkpt lat="43.99665" lon="5.06075">
        <ele>94.35</ele>
        <time>2012-04-08T23:42:54Z</time>
      </trkpt>
      <trkpt lat="43.9966" lon="5.06072">
        <ele>94.35</ele>
        <time>2012-04-08T23:43:17Z</time>
      </trkpt>
      <trkpt lat="43.99665" lon="5.06078">
        <ele>94.83</ele>
        <time>2012-04-08T23:43:45Z</time>
      </trkpt>
      <trkpt lat="43.99665" lon="5.06078">
        <ele>94.83</ele>
        <time>2012-04-08T23:44:12Z</time>
      </trkpt>
      <trkpt lat="43.99665" lon="5.06079">
        <ele>95.31</ele>
        <time>2012-04-08T23:44:43Z</time>
      </trkpt>
      <trkpt lat="43.99666" lon="5.06088">
        <ele>95.31</ele>
        <time>2012-04-08T23:45:12Z</time>
      </trkpt>
      <trkpt lat="43.99666" lon="5.06088">
        <ele>95.79</ele>
        <time>2012-04-08T23:45:37Z</time>
      </trkpt>
      <trkpt lat="43.99666" lon="5.06088">
        <ele>96.27</ele>
        <time>2012-04-08T23:46:02Z</time>
      </trkpt>
      <trkpt lat="43.99663" lon="5.06089">
        <ele>95.79</ele>
        <time>2012-04-08T23:46:26Z</time>
      </trkpt>
      <trkpt lat="43.99662" lon="5.0609">
        <ele>96.75</ele>
        <time>2012-04-08T23:46:52Z</time>
      </trkpt>
      <trkpt lat="43.99663" lon="5.0609">
        <ele>96.27</ele>
        <time>2012-04-08T23:47:20Z</time>
      </trkpt>
      <trkpt lat="43.99666" lon="5.06087">
        <ele>96.75</ele>
        <time>2012-04-08T23:47:47Z</time>
      </trkpt>
      <trkpt lat="43.99667" lon="5.06083">
        <ele>96.75</ele>
        <time>2012-04-08T23:48:06Z</time>
      </trkpt>
      <trkpt lat="43.99669" lon="5.0608">
        <ele>97.71</ele>
        <time>2012-04-08T23:48:28Z</time>
      </trkpt>
      <trkpt lat="43.99669" lon="5.0608">
        <ele>97.23</ele>
        <time>2012-04-08T23:48:58Z</time>
      </trkpt>
      <trkpt lat="43.99668" lon="5.0608">
        <ele>96.75</ele>
        <time>2012-04-08T23:49:22Z</time>
      </trkpt>
      <trkpt lat="43.99668" lon="5.0608">
        <ele>96.75</ele>
        <time>2012-04-08T23:49:45Z</time>
      </trkpt>
      <trkpt lat="43.99669" lon="5.06081">
        <ele>96.75</ele>
        <time>2012-04-08T23:50:13Z</time>
      </trkpt>
      <trkpt lat="43.99666" lon="5.06089">
        <ele>97.23</ele>
        <time>2012-04-08T23:50:34Z</time>
      </trkpt>
      <trkpt lat="43.99666" lon="5.06088">
        <ele>97.23</ele>
        <time>2012-04-08T23:51:01Z</time>
      </trkpt>
      <trkpt lat="43.99667" lon="5.06088">
        <ele>96.27</ele>
        <time>2012-04-08T23:51:26Z</time>
      </trkpt>
      <trkpt lat="43.99666" lon="5.06088">
        <ele>96.27</ele>
        <time>2012-04-08T23:51:50Z</time>
      </trkpt>
      <trkpt lat="43.99657" lon="5.06093">
        <ele>96.27</ele>
        <time>2012-04-08T23:52:17Z</time>
      </trkpt>
      <trkpt lat="43.99655" lon="5.06093">
        <ele>96.27</ele>
        <time>2012-04-08T23:52:41Z</time>
      </trkpt>
      <trkpt lat="43.99655" lon="5.06093">
        <ele>96.27</ele>
        <time>2012-04-08T23:53:11Z</time>
      </trkpt>
      <trkpt lat="43.99655" lon="5.06093">
        <ele>96.75</ele>
        <time>2012-04-08T23:53:38Z</time>
      </trkpt>
      <trkpt lat="43.99655" lon="5.06093">
        <ele>96.27</ele>
        <time>2012-04-08T23:54:07Z</time>
      </trkpt>
      <trkpt lat="43.99657" lon="5.06087">
        <ele>96.27</ele>
        <time>2012-04-08T23:54:41Z</time>
      </trkpt>
      <trkpt lat="43.99662" lon="5.06081">
        <ele>96.27</ele>
        <time>2012-04-08T23:55:07Z</time>
      </trkpt>
      <trkpt lat="43.99661" lon="5.06081">
        <ele>96.75</ele>
        <time>2012-04-08T23:55:32Z</time>
      </trkpt>
      <trkpt lat="43.99666" lon="5.06082">
        <ele>96.27</ele>
        <time>2012-04-08T23:55:55Z</time>
      </trkpt>
      <trkpt lat="43.99668" lon="5.06085">
        <ele>96.27</ele>
        <time>2012-04-08T23:56:17Z</time>
      </trkpt>
      <trkpt lat="43.99671" lon="5.06086">
        <ele>96.27</ele>
        <time>2012-04-08T23:56:46Z</time>
      </trkpt>
      <trkpt lat="43.99655" lon="5.06082">
        <ele>95.79</ele>
        <time>2012-04-08T23:57:09Z</time>
      </trkpt>
      <trkpt lat="43.99661" lon="5.06087">
        <ele>96.27</ele>
        <time>2012-04-08T23:57:31Z</time>
      </trkpt>
      <trkpt lat="43.9967" lon="5.06089">
        <ele>96.27</ele>
        <time>2012-04-08T23:57:54Z</time>
      </trkpt>
      <trkpt lat="43.99666" lon="5.06086">
        <ele>95.79</ele>
        <time>2012-04-08T23:58:21Z</time>
      </trkpt>
      <trkpt lat="43.99666" lon="5.06087">
        <ele>95.79</ele>
        <time>2012-04-08T23:58:50Z</time>
      </trkpt>
      <trkpt lat="43.99665" lon="5.06087">
        <ele>95.79</ele>
        <time>2012-04-08T23:59:17Z</time>
      </trkpt>
      <trkpt lat="43.99663" lon="5.06085">
        <ele>95.79</ele>
        <time>2012-04-08T23:59:43Z</time>
      </trkpt>
      <trkpt lat="43.99664" lon="5.06085">
        <ele>95.79</ele>
        <time>2012-04-09T00:00:06Z</time>
      </trkpt>
      <trkpt lat="43.99664" lon="5.06087">
        <ele>95.79</ele>
        <time>2012-04-09T00:00:33Z</time>
      </trkpt>
      <trkpt lat="43.99665" lon="5.06085">
        <ele>95.79</ele>
        <time>2012-04-09T00:00:56Z</time>
      </trkpt>
      <trkpt lat="43.99673" lon="5.06089">
        <ele>95.79</ele>
        <time>2012-04-09T00:01:18Z</time>
      </trkpt>
      <trkpt lat="43.99673" lon="5.06089">
        <ele>95.31</ele>
        <time>2012-04-09T00:01:44Z</time>
      </trkpt>
      <trkpt lat="43.99671" lon="5.06087">
        <ele>95.79</ele>
        <time>2012-04-09T00:02:03Z</time>
      </trkpt>
      <trkpt lat="43.9966" lon="5.06079">
        <ele>95.31</ele>
        <time>2012-04-09T00:02:24Z</time>
      </trkpt>
      <trkpt lat="43.9964" lon="5.06074">
        <ele>95.79</ele>
        <time>2012-04-09T00:02:49Z</time>
      </trkpt>
      <trkpt lat="43.99644" lon="5.06076">
        <ele>96.27</ele>
        <time>2012-04-09T00:03:11Z</time>
      </trkpt>
      <trkpt lat="43.99655" lon="5.06086">
        <ele>96.27</ele>
        <time>2012-04-09T00:03:35Z</time>
      </trkpt>
      <trkpt lat="43.99655" lon="5.06088">
        <ele>96.75</ele>
        <time>2012-04-09T00:04:00Z</time>
      </trkpt>
      <trkpt lat="43.99658" lon="5.0609">
        <ele>96.75</ele>
        <time>2012-04-09T00:04:26Z</time>
      </trkpt>
      <trkpt lat="43.99665" lon="5.0609">
        <ele>97.23</ele>
        <time>2012-04-09T00:04:46Z</time>
      </trkpt>
      <trkpt lat="43.99665" lon="5.0609">
        <ele>98.19</ele>
        <time>2012-04-09T00:05:14Z</time>
      </trkpt>
      <trkpt lat="43.99666" lon="5.06086">
        <ele>98.19</ele>
        <time>2012-04-09T00:05:35Z</time>
      </trkpt>
      <trkpt lat="43.99676" lon="5.06097">
        <ele>98.67</ele>
        <time>2012-04-09T00:05:54Z</time>
      </trkpt>
      <trkpt lat="43.99678" lon="5.06098">
        <ele>99.15</ele>
        <time>2012-04-09T00:06:18Z</time>
      </trkpt>
      <trkpt lat="43.99677" lon="5.0609">
        <ele>98.67</ele>
        <time>2012-04-09T00:06:46Z</time>
      </trkpt>
      <trkpt lat="43.99674" lon="5.06089">
        <ele>99.63</ele>
        <time>2012-04-09T00:07:11Z</time>
      </trkpt>
      <trkpt lat="43.99674" lon="5.06089">
        <ele>99.63</ele>
        <time>2012-04-09T00:07:42Z</time>
      </trkpt>
      <trkpt lat="43.99668" lon="5.06081">
        <ele>99.63</ele>
        <time>2012-04-09T00:08:06Z</time>
      </trkpt>
      <trkpt lat="43.99653" lon="5.06079">
        <ele>100.11</ele>
        <time>2012-04-09T00:08:29Z</time>
      </trkpt>
      <trkpt lat="43.99659" lon="5.06077">
        <ele>100.11</ele>
        <time>2012-04-09T00:08:49Z</time>
      </trkpt>
      <trkpt lat="43.99664" lon="5.06081">
        <ele>100.6</ele>
        <time>2012-04-09T00:09:11Z</time>
      </trkpt>
      <trkpt lat="43.99666" lon="5.0608">
        <ele>100.6</ele>
        <time>2012-04-09T00:09:31Z</time>
      </trkpt>
      <trkpt lat="43.99663" lon="5.06081">
        <ele>100.6</ele>
        <time>2012-04-09T00:09:48Z</time>
      </trkpt>
      <trkpt lat="43.99661" lon="5.06079">
        <ele>100.6</ele>
        <time>2012-04-09T00:09:53Z</time>
      </trkpt>
      <trkpt lat="43.99644" lon="5.06071">
        <ele>100.6</ele>
        <time>2012-04-09T00:10:17Z</time>
      </trkpt>
      <trkpt lat="43.99646" lon="5.06072">
        <ele>100.6</ele>
        <time>2012-04-09T00:10:20Z</time>
      </trkpt>
      <trkpt lat="43.99659" lon="5.06089">
        <ele>101.08</ele>
        <time>2012-04-09T00:10:45Z</time>
      </trkpt>
      <trkpt lat="43.99659" lon="5.06089">
        <ele>101.08</ele>
        <time>2012-04-09T00:11:08Z</time>
      </trkpt>
      <trkpt lat="43.99659" lon="5.06088">
        <ele>100.6</ele>
        <time>2012-04-09T00:11:39Z</time>
      </trkpt>
      <trkpt lat="43.99676" lon="5.06095">
        <ele>101.56</ele>
        <time>2012-04-09T00:12:03Z</time>
      </trkpt>
      <trkpt lat="43.99676" lon="5.06095">
        <ele>101.08</ele>
        <time>2012-04-09T00:12:28Z</time>
      </trkpt>
      <trkpt lat="43.99676" lon="5.06093">
        <ele>101.08</ele>
        <time>2012-04-09T00:12:54Z</time>
      </trkpt>
      <trkpt lat="43.99676" lon="5.06092">
        <ele>101.08</ele>
        <time>2012-04-09T00:13:13Z</time>
      </trkpt>
      <trkpt lat="43.99681" lon="5.06091">
        <ele>101.08</ele>
        <time>2012-04-09T00:13:29Z</time>
      </trkpt>
      <trkpt lat="43.99686" lon="5.06091">
        <ele>101.08</ele>
        <time>2012-04-09T00:13:33Z</time>
      </trkpt>
      <trkpt lat="43.99685" lon="5.06078">
        <ele>101.56</ele>
        <time>2012-04-09T00:13:54Z</time>
      </trkpt>
      <trkpt lat="43.99671" lon="5.0608">
        <ele>101.08</ele>
        <time>2012-04-09T00:16:53Z</time>
      </trkpt>
      <trkpt lat="43.99675" lon="5.06088">
        <ele>101.08</ele>
        <time>2012-04-09T00:17:26Z</time>
      </trkpt>
      <trkpt lat="43.99672" lon="5.0609">
        <ele>101.56</ele>
        <time>2012-04-09T00:17:55Z</time>
      </trkpt>
      <trkpt lat="43.99653" lon="5.06084">
        <ele>100.6</ele>
        <time>2012-04-09T00:18:21Z</time>
      </trkpt>
      <trkpt lat="43.99653" lon="5.06079">
        <ele>101.08</ele>
        <time>2012-04-09T00:18:46Z</time>
      </trkpt>
      <trkpt lat="43.99653" lon="5.0608">
        <ele>100.11</ele>
        <time>2012-04-09T00:19:12Z</time>
      </trkpt>
      <trkpt lat="43.99651" lon="5.06081">
        <ele>100.11</ele>
        <time>2012-04-09T00:19:18Z</time>
      </trkpt>
      <trkpt lat="43.99635" lon="5.06072">
        <ele>100.11</ele>
        <time>2012-04-09T00:19:44Z</time>
      </trkpt>
      <trkpt lat="43.99631" lon="5.06073">
        <ele>100.11</ele>
        <time>2012-04-09T00:20:06Z</time>
      </trkpt>
      <trkpt lat="43.99628" lon="5.06083">
        <ele>100.11</ele>
        <time>2012-04-09T00:20:32Z</time>
      </trkpt>
      <trkpt lat="43.9967" lon="5.06092">
        <ele>100.11</ele>
        <time>2012-04-09T00:21:02Z</time>
      </trkpt>
      <trkpt lat="43.99654" lon="5.06088">
        <ele>99.63</ele>
        <time>2012-04-09T00:21:16Z</time>
      </trkpt>
      <trkpt lat="43.99645" lon="5.06086">
        <ele>99.15</ele>
        <time>2012-04-09T00:21:43Z</time>
      </trkpt>
      <trkpt lat="43.99649" lon="5.06084">
        <ele>99.63</ele>
        <time>2012-04-09T00:22:11Z</time>
      </trkpt>
      <trkpt lat="43.99651" lon="5.06084">
        <ele>99.15</ele>
        <time>2012-04-09T00:22:32Z</time>
      </trkpt>
      <trkpt lat="43.99653" lon="5.06084">
        <ele>98.67</ele>
        <time>2012-04-09T00:23:02Z</time>
      </trkpt>
      <trkpt lat="43.99655" lon="5.06084">
        <ele>98.67</ele>
        <time>2012-04-09T00:23:29Z</time>
      </trkpt>
      <trkpt lat="43.99657" lon="5.06081">
        <ele>98.67</ele>
        <time>2012-04-09T00:23:52Z</time>
      </trkpt>
      <trkpt lat="43.99656" lon="5.06081">
        <ele>98.19</ele>
        <time>2012-04-09T00:24:13Z</time>
      </trkpt>
      <trkpt lat="43.99651" lon="5.06082">
        <ele>98.19</ele>
        <time>2012-04-09T00:24:35Z</time>
      </trkpt>
      <trkpt lat="43.9965" lon="5.06082">
        <ele>98.19</ele>
        <time>2012-04-09T00:24:58Z</time>
      </trkpt>
      <trkpt lat="43.99653" lon="5.06093">
        <ele>97.71</ele>
        <time>2012-04-09T00:25:15Z</time>
      </trkpt>
      <trkpt lat="43.99663" lon="5.06081">
        <ele>98.19</ele>
        <time>2012-04-09T00:25:40Z</time>
      </trkpt>
      <trkpt lat="43.99662" lon="5.06079">
        <ele>98.19</ele>
        <time>2012-04-09T00:26:03Z</time>
      </trkpt>
      <trkpt lat="43.99665" lon="5.06084">
        <ele>98.19</ele>
        <time>2012-04-09T00:26:25Z</time>
      </trkpt>
      <trkpt lat="43.99666" lon="5.06085">
        <ele>97.71</ele>
        <time>2012-04-09T00:26:26Z</time>
      </trkpt>
      <trkpt lat="43.99665" lon="5.06077">
        <ele>97.71</ele>
        <time>2012-04-09T00:26:46Z</time>
      </trkpt>
      <trkpt lat="43.99667" lon="5.06084">
        <ele>97.71</ele>
        <time>2012-04-09T00:27:06Z</time>
      </trkpt>
      <trkpt lat="43.9968" lon="5.06096">
        <ele>98.19</ele>
        <time>2012-04-09T00:27:28Z</time>
      </trkpt>
      <trkpt lat="43.99666" lon="5.06098">
        <ele>98.19</ele>
        <time>2012-04-09T00:27:49Z</time>
      </trkpt>
      <trkpt lat="43.99645" lon="5.06092">
        <ele>98.19</ele>
        <time>2012-04-09T00:28:18Z</time>
      </trkpt>
      <trkpt lat="43.99638" lon="5.06089">
        <ele>98.19</ele>
        <time>2012-04-09T00:28:28Z</time>
      </trkpt>
      <trkpt lat="43.9961" lon="5.06089">
        <ele>98.19</ele>
        <time>2012-04-09T00:28:55Z</time>
      </trkpt>
      <trkpt lat="43.99608" lon="5.06091">
        <ele>98.19</ele>
        <time>2012-04-09T00:28:57Z</time>
      </trkpt>
      <trkpt lat="43.99682" lon="5.06101">
        <ele>98.67</ele>
        <time>2012-04-09T00:29:18Z</time>
      </trkpt>
      <trkpt lat="43.99719" lon="5.06107">
        <ele>98.19</ele>
        <time>2012-04-09T00:29:44Z</time>
      </trkpt>
      <trkpt lat="43.99718" lon="5.06115">
        <ele>98.19</ele>
        <time>2012-04-09T00:30:05Z</time>
      </trkpt>
      <trkpt lat="43.99709" lon="5.06078">
        <ele>98.67</ele>
        <time>2012-04-09T00:37:38Z</time>
      </trkpt>
      <trkpt lat="43.99699" lon="5.06082">
        <ele>98.67</ele>
        <time>2012-04-09T00:37:40Z</time>
      </trkpt>
      <trkpt lat="43.99681" lon="5.06082">
        <ele>98.19</ele>
        <time>2012-04-09T00:37:44Z</time>
      </trkpt>
      <trkpt lat="43.9965" lon="5.06072">
        <ele>98.67</ele>
        <time>2012-04-09T00:37:56Z</time>
      </trkpt>
      <trkpt lat="43.99648" lon="5.06075">
        <ele>98.19</ele>
        <time>2012-04-09T00:38:15Z</time>
      </trkpt>
      <trkpt lat="43.99652" lon="5.06073">
        <ele>98.67</ele>
        <time>2012-04-09T00:38:40Z</time>
      </trkpt>
      <trkpt lat="43.99651" lon="5.06063">
        <ele>98.67</ele>
        <time>2012-04-09T00:39:03Z</time>
      </trkpt>
      <trkpt lat="43.99649" lon="5.06073">
        <ele>99.15</ele>
        <time>2012-04-09T00:39:27Z</time>
      </trkpt>
      <trkpt lat="43.99649" lon="5.06074">
        <ele>99.15</ele>
        <time>2012-04-09T00:39:48Z</time>
      </trkpt>
      <trkpt lat="43.99637" lon="5.06069">
        <ele>99.15</ele>
        <time>2012-04-09T00:40:07Z</time>
      </trkpt>
      <trkpt lat="43.99641" lon="5.06077">
        <ele>99.63</ele>
        <time>2012-04-09T00:40:32Z</time>
      </trkpt>
      <trkpt lat="43.99644" lon="5.06085">
        <ele>99.63</ele>
        <time>2012-04-09T00:40:38Z</time>
      </trkpt>
      <trkpt lat="43.99655" lon="5.06076">
        <ele>99.63</ele>
        <time>2012-04-09T00:41:01Z</time>
      </trkpt>
      <trkpt lat="43.99655" lon="5.06072">
        <ele>99.63</ele>
        <time>2012-04-09T00:41:23Z</time>
      </trkpt>
      <trkpt lat="43.99657" lon="5.06074">
        <ele>99.15</ele>
        <time>2012-04-09T00:41:46Z</time>
      </trkpt>
      <trkpt lat="43.99659" lon="5.06067">
        <ele>99.63</ele>
        <time>2012-04-09T00:42:06Z</time>
      </trkpt>
      <trkpt lat="43.9966" lon="5.06077">
        <ele>99.15</ele>
        <time>2012-04-09T00:42:32Z</time>
      </trkpt>
      <trkpt lat="43.99665" lon="5.06091">
        <ele>100.11</ele>
        <time>2012-04-09T00:42:53Z</time>
      </trkpt>
      <trkpt lat="43.99663" lon="5.06089">
        <ele>99.63</ele>
        <time>2012-04-09T00:43:26Z</time>
      </trkpt>
      <trkpt lat="43.99655" lon="5.06078">
        <ele>99.63</ele>
        <time>2012-04-09T00:43:49Z</time>
      </trkpt>
      <trkpt lat="43.99653" lon="5.06075">
        <ele>99.63</ele>
        <time>2012-04-09T00:44:16Z</time>
      </trkpt>
      <trkpt lat="43.99649" lon="5.06072">
        <ele>99.63</ele>
        <time>2012-04-09T00:44:37Z</time>
      </trkpt>
      <trkpt lat="43.99657" lon="5.06078">
        <ele>99.15</ele>
        <time>2012-04-09T00:45:03Z</time>
      </trkpt>
      <trkpt lat="43.99657" lon="5.06078">
        <ele>99.63</ele>
        <time>2012-04-09T00:45:34Z</time>
      </trkpt>
      <trkpt lat="43.99657" lon="5.06078">
        <ele>99.63</ele>
        <time>2012-04-09T00:46:04Z</time>
      </trkpt>
      <trkpt lat="43.99659" lon="5.06074">
        <ele>99.63</ele>
        <time>2012-04-09T00:46:31Z</time>
      </trkpt>
      <trkpt lat="43.9965" lon="5.06068">
        <ele>100.11</ele>
        <time>2012-04-09T00:46:49Z</time>
      </trkpt>
      <trkpt lat="43.99646" lon="5.0607">
        <ele>99.63</ele>
        <time>2012-04-09T00:47:11Z</time>
      </trkpt>
      <trkpt lat="43.99659" lon="5.0608">
        <ele>100.11</ele>
        <time>2012-04-09T00:47:30Z</time>
      </trkpt>
      <trkpt lat="43.99666" lon="5.06089">
        <ele>100.11</ele>
        <time>2012-04-09T00:47:49Z</time>
      </trkpt>
      <trkpt lat="43.99667" lon="5.06091">
        <ele>100.11</ele>
        <time>2012-04-09T00:48:10Z</time>
      </trkpt>
      <trkpt lat="43.99667" lon="5.06091">
        <ele>100.11</ele>
        <time>2012-04-09T00:48:37Z</time>
      </trkpt>
      <trkpt lat="43.99667" lon="5.06091">
        <ele>100.11</ele>
        <time>2012-04-09T00:49:09Z</time>
      </trkpt>
      <trkpt lat="43.99668" lon="5.0609">
        <ele>99.63</ele>
        <time>2012-04-09T00:49:37Z</time>
      </trkpt>
      <trkpt lat="43.99667" lon="5.06092">
        <ele>99.63</ele>
        <time>2012-04-09T00:50:03Z</time>
      </trkpt>
      <trkpt lat="43.99668" lon="5.06092">
        <ele>99.63</ele>
        <time>2012-04-09T00:50:27Z</time>
      </trkpt>
      <trkpt lat="43.99669" lon="5.06092">
        <ele>99.63</ele>
        <time>2012-04-09T00:50:53Z</time>
      </trkpt>
      <trkpt lat="43.99669" lon="5.06092">
        <ele>99.15</ele>
        <time>2012-04-09T00:51:21Z</time>
      </trkpt>
      <trkpt lat="43.99669" lon="5.06092">
        <ele>99.15</ele>
        <time>2012-04-09T00:51:47Z</time>
      </trkpt>
      <trkpt lat="43.99669" lon="5.0609">
        <ele>99.63</ele>
        <time>2012-04-09T00:52:16Z</time>
      </trkpt>
      <trkpt lat="43.99669" lon="5.0609">
        <ele>99.15</ele>
        <time>2012-04-09T00:52:42Z</time>
      </trkpt>
      <trkpt lat="43.9967" lon="5.06089">
        <ele>99.15</ele>
        <time>2012-04-09T00:53:07Z</time>
      </trkpt>
      <trkpt lat="43.99672" lon="5.06087">
        <ele>98.67</ele>
        <time>2012-04-09T00:53:32Z</time>
      </trkpt>
      <trkpt lat="43.99672" lon="5.06087">
        <ele>98.67</ele>
        <time>2012-04-09T00:53:59Z</time>
      </trkpt>
      <trkpt lat="43.99672" lon="5.06087">
        <ele>99.15</ele>
        <time>2012-04-09T00:54:23Z</time>
      </trkpt>
      <trkpt lat="43.99672" lon="5.06087">
        <ele>98.19</ele>
        <time>2012-04-09T00:54:48Z</time>
      </trkpt>
      <trkpt lat="43.99674" lon="5.0609">
        <ele>98.19</ele>
        <time>2012-04-09T00:55:12Z</time>
      </trkpt>
      <trkpt lat="43.99672" lon="5.06088">
        <ele>98.67</ele>
        <time>2012-04-09T00:55:35Z</time>
      </trkpt>
      <trkpt lat="43.9967" lon="5.06088">
        <ele>98.67</ele>
        <time>2012-04-09T00:56:03Z</time>
      </trkpt>
      <trkpt lat="43.99668" lon="5.06095">
        <ele>98.67</ele>
        <time>2012-04-09T00:56:29Z</time>
      </trkpt>
      <trkpt lat="43.99667" lon="5.06095">
        <ele>98.67</ele>
        <time>2012-04-09T00:56:56Z</time>
      </trkpt>
      <trkpt lat="43.99667" lon="5.06095">
        <ele>98.67</ele>
        <time>2012-04-09T00:57:25Z</time>
      </trkpt>
      <trkpt lat="43.99667" lon="5.06095">
        <ele>98.19</ele>
        <time>2012-04-09T00:57:50Z</time>
      </trkpt>
      <trkpt lat="43.99667" lon="5.06095">
        <ele>98.67</ele>
        <time>2012-04-09T00:58:20Z</time>
      </trkpt>
      <trkpt lat="43.99667" lon="5.06095">
        <ele>98.67</ele>
        <time>2012-04-09T00:58:50Z</time>
      </trkpt>
      <trkpt lat="43.99667" lon="5.06095">
        <ele>99.15</ele>
        <time>2012-04-09T00:59:17Z</time>
      </trkpt>
      <trkpt lat="43.99664" lon="5.0609">
        <ele>99.15</ele>
        <time>2012-04-09T00:59:42Z</time>
      </trkpt>
      <trkpt lat="43.99664" lon="5.0609">
        <ele>99.15</ele>
        <time>2012-04-09T01:00:09Z</time>
      </trkpt>
      <trkpt lat="43.99668" lon="5.06082">
        <ele>99.15</ele>
        <time>2012-04-09T01:00:34Z</time>
      </trkpt>
      <trkpt lat="43.99662" lon="5.06076">
        <ele>99.15</ele>
        <time>2012-04-09T01:00:57Z</time>
      </trkpt>
      <trkpt lat="43.99661" lon="5.06084">
        <ele>99.63</ele>
        <time>2012-04-09T01:01:20Z</time>
      </trkpt>
      <trkpt lat="43.99662" lon="5.06077">
        <ele>100.11</ele>
        <time>2012-04-09T01:01:45Z</time>
      </trkpt>
      <trkpt lat="43.99662" lon="5.06074">
        <ele>100.11</ele>
        <time>2012-04-09T01:02:12Z</time>
      </trkpt>
      <trkpt lat="43.99664" lon="5.06077">
        <ele>100.11</ele>
        <time>2012-04-09T01:02:40Z</time>
      </trkpt>
      <trkpt lat="43.99666" lon="5.06081">
        <ele>100.11</ele>
        <time>2012-04-09T01:03:07Z</time>
      </trkpt>
      <trkpt lat="43.99665" lon="5.06082">
        <ele>100.6</ele>
        <time>2012-04-09T01:03:34Z</time>
      </trkpt>
      <trkpt lat="43.99658" lon="5.06078">
        <ele>100.6</ele>
        <time>2012-04-09T01:03:41Z</time>
      </trkpt>
      <trkpt lat="43.99652" lon="5.06067">
        <ele>101.08</ele>
        <time>2012-04-09T01:04:06Z</time>
      </trkpt>
      <trkpt lat="43.9966" lon="5.06082">
        <ele>100.6</ele>
        <time>2012-04-09T01:04:37Z</time>
      </trkpt>
      <trkpt lat="43.9966" lon="5.06082">
        <ele>100.6</ele>
        <time>2012-04-09T01:05:05Z</time>
      </trkpt>
      <trkpt lat="43.99661" lon="5.06082">
        <ele>100.6</ele>
        <time>2012-04-09T01:05:31Z</time>
      </trkpt>
      <trkpt lat="43.99669" lon="5.06089">
        <ele>100.11</ele>
        <time>2012-04-09T01:05:58Z</time>
      </trkpt>
      <trkpt lat="43.9967" lon="5.0609">
        <ele>100.11</ele>
        <time>2012-04-09T01:06:20Z</time>
      </trkpt>
      <trkpt lat="43.99673" lon="5.06099">
        <ele>100.11</ele>
        <time>2012-04-09T01:06:28Z</time>
      </trkpt>
      <trkpt lat="43.99676" lon="5.06093">
        <ele>100.11</ele>
        <time>2012-04-09T01:06:53Z</time>
      </trkpt>
      <trkpt lat="43.99675" lon="5.0609">
        <ele>100.6</ele>
        <time>2012-04-09T01:07:15Z</time>
      </trkpt>
      <trkpt lat="43.99675" lon="5.0609">
        <ele>100.6</ele>
        <time>2012-04-09T01:07:41Z</time>
      </trkpt>
      <trkpt lat="43.99671" lon="5.0608">
        <ele>100.11</ele>
        <time>2012-04-09T01:08:05Z</time>
      </trkpt>
      <trkpt lat="43.99669" lon="5.0608">
        <ele>99.63</ele>
        <time>2012-04-09T01:08:27Z</time>
      </trkpt>
      <trkpt lat="43.99669" lon="5.0608">
        <ele>99.63</ele>
        <time>2012-04-09T01:08:56Z</time>
      </trkpt>
      <trkpt lat="43.99672" lon="5.06077">
        <ele>99.63</ele>
        <time>2012-04-09T01:09:19Z</time>
      </trkpt>
      <trkpt lat="43.99668" lon="5.0607">
        <ele>99.63</ele>
        <time>2012-04-09T01:09:42Z</time>
      </trkpt>
      <trkpt lat="43.99664" lon="5.06083">
        <ele>99.63</ele>
        <time>2012-04-09T01:10:06Z</time>
      </trkpt>
      <trkpt lat="43.99662" lon="5.06079">
        <ele>99.63</ele>
        <time>2012-04-09T01:10:28Z</time>
      </trkpt>
      <trkpt lat="43.99663" lon="5.06079">
        <ele>99.63</ele>
        <time>2012-04-09T01:10:53Z</time>
      </trkpt>
      <trkpt lat="43.99661" lon="5.06078">
        <ele>99.63</ele>
        <time>2012-04-09T01:11:17Z</time>
      </trkpt>
      <trkpt lat="43.99661" lon="5.06078">
        <ele>99.15</ele>
        <time>2012-04-09T01:11:44Z</time>
      </trkpt>
      <trkpt lat="43.99663" lon="5.06077">
        <ele>99.15</ele>
        <time>2012-04-09T01:12:06Z</time>
      </trkpt>
      <trkpt lat="43.9966" lon="5.06075">
        <ele>99.63</ele>
        <time>2012-04-09T01:12:27Z</time>
      </trkpt>
      <trkpt lat="43.99661" lon="5.06076">
        <ele>99.15</ele>
        <time>2012-04-09T01:12:52Z</time>
      </trkpt>
      <trkpt lat="43.99664" lon="5.06078">
        <ele>99.15</ele>
        <time>2012-04-09T01:13:15Z</time>
      </trkpt>
      <trkpt lat="43.99653" lon="5.06067">
        <ele>99.15</ele>
        <time>2012-04-09T01:13:41Z</time>
      </trkpt>
      <trkpt lat="43.99638" lon="5.06055">
        <ele>100.11</ele>
        <time>2012-04-09T01:14:05Z</time>
      </trkpt>
      <trkpt lat="43.99638" lon="5.06054">
        <ele>99.15</ele>
        <time>2012-04-09T01:14:29Z</time>
      </trkpt>
      <trkpt lat="43.9965" lon="5.0607">
        <ele>99.15</ele>
        <time>2012-04-09T01:15:06Z</time>
      </trkpt>
      <trkpt lat="43.9966" lon="5.06078">
        <ele>99.15</ele>
        <time>2012-04-09T01:15:33Z</time>
      </trkpt>
      <trkpt lat="43.99665" lon="5.06079">
        <ele>99.15</ele>
        <time>2012-04-09T01:15:55Z</time>
      </trkpt>
      <trkpt lat="43.99656" lon="5.06068">
        <ele>99.15</ele>
        <time>2012-04-09T01:16:16Z</time>
      </trkpt>
      <trkpt lat="43.99653" lon="5.06067">
        <ele>98.67</ele>
        <time>2012-04-09T01:16:36Z</time>
      </trkpt>
      <trkpt lat="43.99652" lon="5.06078">
        <ele>99.63</ele>
        <time>2012-04-09T01:17:03Z</time>
      </trkpt>
      <trkpt lat="43.99665" lon="5.06084">
        <ele>99.63</ele>
        <time>2012-04-09T01:17:29Z</time>
      </trkpt>
      <trkpt lat="43.99668" lon="5.06084">
        <ele>100.11</ele>
        <time>2012-04-09T01:17:32Z</time>
      </trkpt>
      <trkpt lat="43.99679" lon="5.06086">
        <ele>99.15</ele>
        <time>2012-04-09T01:17:55Z</time>
      </trkpt>
      <trkpt lat="43.99679" lon="5.06086">
        <ele>99.15</ele>
        <time>2012-04-09T01:18:23Z</time>
      </trkpt>
      <trkpt lat="43.99671" lon="5.06082">
        <ele>99.15</ele>
        <time>2012-04-09T01:18:49Z</time>
      </trkpt>
      <trkpt lat="43.99672" lon="5.06082">
        <ele>99.63</ele>
        <time>2012-04-09T01:19:14Z</time>
      </trkpt>
      <trkpt lat="43.99669" lon="5.06078">
        <ele>99.15</ele>
        <time>2012-04-09T01:19:22Z</time>
      </trkpt>
      <trkpt lat="43.9966" lon="5.06075">
        <ele>99.63</ele>
        <time>2012-04-09T01:19:43Z</time>
      </trkpt>
      <trkpt lat="43.9967" lon="5.06075">
        <ele>99.63</ele>
        <time>2012-04-09T01:20:05Z</time>
      </trkpt>
      <trkpt lat="43.99671" lon="5.06088">
        <ele>99.63</ele>
        <time>2012-04-09T01:20:30Z</time>
      </trkpt>
      <trkpt lat="43.99676" lon="5.06096">
        <ele>99.15</ele>
        <time>2012-04-09T01:20:50Z</time>
      </trkpt>
      <trkpt lat="43.99675" lon="5.06096">
        <ele>100.11</ele>
        <time>2012-04-09T01:21:15Z</time>
      </trkpt>
      <trkpt lat="43.99672" lon="5.06093">
        <ele>99.63</ele>
        <time>2012-04-09T01:21:36Z</time>
      </trkpt>
      <trkpt lat="43.99671" lon="5.06092">
        <ele>100.6</ele>
        <time>2012-04-09T01:22:00Z</time>
      </trkpt>
      <trkpt lat="43.99664" lon="5.06085">
        <ele>100.11</ele>
        <time>2012-04-09T01:22:22Z</time>
      </trkpt>
      <trkpt lat="43.99661" lon="5.06083">
        <ele>100.6</ele>
        <time>2012-04-09T01:22:46Z</time>
      </trkpt>
      <trkpt lat="43.99667" lon="5.06082">
        <ele>100.6</ele>
        <time>2012-04-09T01:23:12Z</time>
      </trkpt>
      <trkpt lat="43.99667" lon="5.06082">
        <ele>100.6</ele>
        <time>2012-04-09T01:23:37Z</time>
      </trkpt>
      <trkpt lat="43.99665" lon="5.0608">
        <ele>100.6</ele>
        <time>2012-04-09T01:23:59Z</time>
      </trkpt>
      <trkpt lat="43.99663" lon="5.06073">
        <ele>100.11</ele>
        <time>2012-04-09T01:24:18Z</time>
      </trkpt>
      <trkpt lat="43.99667" lon="5.06072">
        <ele>100.6</ele>
        <time>2012-04-09T01:24:41Z</time>
      </trkpt>
      <trkpt lat="43.9967" lon="5.06074">
        <ele>101.08</ele>
        <time>2012-04-09T01:25:02Z</time>
      </trkpt>
      <trkpt lat="43.9967" lon="5.06075">
        <ele>101.08</ele>
        <time>2012-04-09T01:25:27Z</time>
      </trkpt>
      <trkpt lat="43.9967" lon="5.06075">
        <ele>100.6</ele>
        <time>2012-04-09T01:25:48Z</time>
      </trkpt>
      <trkpt lat="43.99667" lon="5.06079">
        <ele>101.08</ele>
        <time>2012-04-09T01:26:16Z</time>
      </trkpt>
      <trkpt lat="43.99666" lon="5.06081">
        <ele>100.6</ele>
        <time>2012-04-09T01:26:38Z</time>
      </trkpt>
      <trkpt lat="43.9967" lon="5.06087">
        <ele>100.6</ele>
        <time>2012-04-09T01:27:02Z</time>
      </trkpt>
      <trkpt lat="43.9967" lon="5.06087">
        <ele>100.11</ele>
        <time>2012-04-09T01:27:30Z</time>
      </trkpt>
      <trkpt lat="43.99664" lon="5.06079">
        <ele>100.6</ele>
        <time>2012-04-09T01:27:57Z</time>
      </trkpt>
      <trkpt lat="43.99664" lon="5.06077">
        <ele>100.11</ele>
        <time>2012-04-09T01:28:19Z</time>
      </trkpt>
      <trkpt lat="43.99659" lon="5.06068">
        <ele>100.11</ele>
        <time>2012-04-09T01:28:45Z</time>
      </trkpt>
      <trkpt lat="43.99659" lon="5.06069">
        <ele>100.11</ele>
        <time>2012-04-09T01:29:17Z</time>
      </trkpt>
      <trkpt lat="43.99656" lon="5.06074">
        <ele>100.11</ele>
        <time>2012-04-09T01:29:44Z</time>
      </trkpt>
      <trkpt lat="43.99655" lon="5.06079">
        <ele>100.11</ele>
        <time>2012-04-09T01:30:10Z</time>
      </trkpt>
      <trkpt lat="43.99654" lon="5.06081">
        <ele>100.6</ele>
        <time>2012-04-09T01:30:34Z</time>
      </trkpt>
      <trkpt lat="43.99654" lon="5.0608">
        <ele>100.11</ele>
        <time>2012-04-09T01:31:00Z</time>
      </trkpt>
      <trkpt lat="43.99654" lon="5.0608">
        <ele>100.11</ele>
        <time>2012-04-09T01:31:23Z</time>
      </trkpt>
      <trkpt lat="43.99662" lon="5.06082">
        <ele>100.11</ele>
        <time>2012-04-09T01:31:47Z</time>
      </trkpt>
      <trkpt lat="43.99657" lon="5.06081">
        <ele>100.11</ele>
        <time>2012-04-09T01:32:05Z</time>
      </trkpt>
      <trkpt lat="43.9965" lon="5.06074">
        <ele>99.63</ele>
        <time>2012-04-09T01:32:30Z</time>
      </trkpt>
      <trkpt lat="43.99647" lon="5.06076">
        <ele>100.6</ele>
        <time>2012-04-09T01:32:52Z</time>
      </trkpt>
      <trkpt lat="43.99651" lon="5.06082">
        <ele>100.11</ele>
        <time>2012-04-09T01:33:13Z</time>
      </trkpt>
      <trkpt lat="43.99653" lon="5.06083">
        <ele>99.63</ele>
        <time>2012-04-09T01:33:34Z</time>
      </trkpt>
      <trkpt lat="43.99653" lon="5.06083">
        <ele>99.63</ele>
        <time>2012-04-09T01:33:56Z</time>
      </trkpt>
      <trkpt lat="43.9966" lon="5.06082">
        <ele>99.63</ele>
        <time>2012-04-09T01:34:22Z</time>
      </trkpt>
      <trkpt lat="43.99663" lon="5.06086">
        <ele>99.63</ele>
        <time>2012-04-09T01:34:47Z</time>
      </trkpt>
      <trkpt lat="43.99661" lon="5.06084">
        <ele>99.15</ele>
        <time>2012-04-09T01:35:10Z</time>
      </trkpt>
      <trkpt lat="43.99664" lon="5.0608">
        <ele>98.67</ele>
        <time>2012-04-09T01:35:32Z</time>
      </trkpt>
      <trkpt lat="43.99663" lon="5.06079">
        <ele>99.15</ele>
        <time>2012-04-09T01:35:58Z</time>
      </trkpt>
      <trkpt lat="43.99663" lon="5.06079">
        <ele>99.63</ele>
        <time>2012-04-09T01:36:23Z</time>
      </trkpt>
      <trkpt lat="43.99666" lon="5.06082">
        <ele>99.63</ele>
        <time>2012-04-09T01:36:44Z</time>
      </trkpt>
      <trkpt lat="43.99672" lon="5.06083">
        <ele>99.63</ele>
        <time>2012-04-09T01:36:47Z</time>
      </trkpt>
      <trkpt lat="43.99683" lon="5.06091">
        <ele>100.11</ele>
        <time>2012-04-09T01:37:10Z</time>
      </trkpt>
      <trkpt lat="43.99683" lon="5.0609">
        <ele>99.63</ele>
        <time>2012-04-09T01:37:36Z</time>
      </trkpt>
      <trkpt lat="43.99686" lon="5.06089">
        <ele>99.63</ele>
        <time>2012-04-09T01:37:56Z</time>
      </trkpt>
      <trkpt lat="43.99691" lon="5.06093">
        <ele>100.11</ele>
        <time>2012-04-09T01:38:20Z</time>
      </trkpt>
      <trkpt lat="43.99688" lon="5.06092">
        <ele>100.11</ele>
        <time>2012-04-09T01:38:41Z</time>
      </trkpt>
      <trkpt lat="43.99682" lon="5.06076">
        <ele>100.6</ele>
        <time>2012-04-09T01:39:04Z</time>
      </trkpt>
      <trkpt lat="43.99672" lon="5.06085">
        <ele>100.11</ele>
        <time>2012-04-09T01:39:23Z</time>
      </trkpt>
      <trkpt lat="43.99676" lon="5.06091">
        <ele>100.11</ele>
        <time>2012-04-09T01:39:54Z</time>
      </trkpt>
      <trkpt lat="43.99674" lon="5.06089">
        <ele>100.6</ele>
        <time>2012-04-09T01:40:13Z</time>
      </trkpt>
      <trkpt lat="43.99654" lon="5.06068">
        <ele>99.63</ele>
        <time>2012-04-09T01:40:34Z</time>
      </trkpt>
      <trkpt lat="43.99648" lon="5.06067">
        <ele>99.63</ele>
        <time>2012-04-09T01:41:02Z</time>
      </trkpt>
      <trkpt lat="43.99648" lon="5.06068">
        <ele>99.15</ele>
        <time>2012-04-09T01:41:24Z</time>
      </trkpt>
      <trkpt lat="43.99637" lon="5.06056">
        <ele>100.11</ele>
        <time>2012-04-09T01:41:48Z</time>
      </trkpt>
      <trkpt lat="43.99637" lon="5.06056">
        <ele>99.63</ele>
        <time>2012-04-09T01:42:08Z</time>
      </trkpt>
      <trkpt lat="43.99664" lon="5.06083">
        <ele>99.63</ele>
        <time>2012-04-09T01:42:38Z</time>
      </trkpt>
      <trkpt lat="43.99661" lon="5.06078">
        <ele>99.15</ele>
        <time>2012-04-09T01:43:01Z</time>
      </trkpt>
      <trkpt lat="43.99657" lon="5.06077">
        <ele>99.15</ele>
        <time>2012-04-09T01:43:21Z</time>
      </trkpt>
      <trkpt lat="43.99657" lon="5.0608">
        <ele>99.15</ele>
        <time>2012-04-09T01:43:38Z</time>
      </trkpt>
      <trkpt lat="43.99663" lon="5.06081">
        <ele>98.19</ele>
        <time>2012-04-09T01:44:00Z</time>
      </trkpt>
      <trkpt lat="43.99663" lon="5.0608">
        <ele>98.67</ele>
        <time>2012-04-09T01:44:10Z</time>
      </trkpt>
      <trkpt lat="43.9966" lon="5.06088">
        <ele>98.19</ele>
        <time>2012-04-09T01:44:15Z</time>
      </trkpt>
      <trkpt lat="43.99654" lon="5.06123">
        <ele>98.67</ele>
        <time>2012-04-09T01:44:38Z</time>
      </trkpt>
      <trkpt lat="43.9966" lon="5.06125">
        <ele>98.67</ele>
        <time>2012-04-09T01:44:45Z</time>
      </trkpt>
      <trkpt lat="43.9967" lon="5.06107">
        <ele>98.67</ele>
        <time>2012-04-09T01:45:05Z</time>
      </trkpt>
      <trkpt lat="43.99671" lon="5.06095">
        <ele>98.67</ele>
        <time>2012-04-09T01:45:15Z</time>
      </trkpt>
      <trkpt lat="43.99688" lon="5.06094">
        <ele>98.67</ele>
        <time>2012-04-09T01:45:31Z</time>
      </trkpt>
      <trkpt lat="43.99688" lon="5.06092">
        <ele>99.15</ele>
        <time>2012-04-09T01:45:50Z</time>
      </trkpt>
      <trkpt lat="43.99677" lon="5.06085">
        <ele>98.67</ele>
        <time>2012-04-09T01:46:16Z</time>
      </trkpt>
      <trkpt lat="43.99669" lon="5.06078">
        <ele>98.67</ele>
        <time>2012-04-09T01:46:41Z</time>
      </trkpt>
      <trkpt lat="43.9967" lon="5.06076">
        <ele>99.15</ele>
        <time>2012-04-09T01:47:05Z</time>
      </trkpt>
      <trkpt lat="43.99667" lon="5.06081">
        <ele>98.67</ele>
        <time>2012-04-09T01:47:27Z</time>
      </trkpt>
      <trkpt lat="43.99666" lon="5.06089">
        <ele>98.67</ele>
        <time>2012-04-09T01:47:49Z</time>
      </trkpt>
      <trkpt lat="43.99666" lon="5.0609">
        <ele>98.19</ele>
        <time>2012-04-09T01:48:17Z</time>
      </trkpt>
      <trkpt lat="43.9967" lon="5.06083">
        <ele>99.15</ele>
        <time>2012-04-09T01:48:44Z</time>
      </trkpt>
      <trkpt lat="43.99668" lon="5.06082">
        <ele>99.15</ele>
        <time>2012-04-09T01:49:12Z</time>
      </trkpt>
      <trkpt lat="43.99657" lon="5.06084">
        <ele>98.67</ele>
        <time>2012-04-09T01:49:33Z</time>
      </trkpt>
      <trkpt lat="43.99657" lon="5.06086">
        <ele>98.67</ele>
        <time>2012-04-09T01:49:35Z</time>
      </trkpt>
      <trkpt lat="43.99659" lon="5.06088">
        <ele>98.19</ele>
        <time>2012-04-09T01:49:58Z</time>
      </trkpt>
      <trkpt lat="43.9966" lon="5.06082">
        <ele>98.67</ele>
        <time>2012-04-09T01:50:21Z</time>
      </trkpt>
      <trkpt lat="43.99655" lon="5.06068">
        <ele>98.67</ele>
        <time>2012-04-09T01:50:49Z</time>
      </trkpt>
      <trkpt lat="43.99657" lon="5.06082">
        <ele>99.15</ele>
        <time>2012-04-09T01:51:13Z</time>
      </trkpt>
      <trkpt lat="43.99657" lon="5.06082">
        <ele>99.15</ele>
        <time>2012-04-09T01:51:38Z</time>
      </trkpt>
      <trkpt lat="43.99658" lon="5.06081">
        <ele>98.67</ele>
        <time>2012-04-09T01:52:00Z</time>
      </trkpt>
      <trkpt lat="43.99658" lon="5.06081">
        <ele>98.67</ele>
        <time>2012-04-09T01:52:22Z</time>
      </trkpt>
      <trkpt lat="43.99658" lon="5.0608">
        <ele>98.67</ele>
        <time>2012-04-09T01:52:50Z</time>
      </trkpt>
      <trkpt lat="43.99659" lon="5.0608">
        <ele>99.15</ele>
        <time>2012-04-09T01:53:18Z</time>
      </trkpt>
      <trkpt lat="43.9966" lon="5.06082">
        <ele>99.15</ele>
        <time>2012-04-09T01:53:43Z</time>
      </trkpt>
      <trkpt lat="43.99659" lon="5.0609">
        <ele>99.15</ele>
        <time>2012-04-09T01:54:05Z</time>
      </trkpt>
      <trkpt lat="43.99659" lon="5.0609">
        <ele>98.67</ele>
        <time>2012-04-09T01:54:26Z</time>
      </trkpt>
      <trkpt lat="43.99659" lon="5.0609">
        <ele>98.67</ele>
        <time>2012-04-09T01:54:51Z</time>
      </trkpt>
      <trkpt lat="43.9966" lon="5.0609">
        <ele>98.19</ele>
        <time>2012-04-09T01:55:17Z</time>
      </trkpt>
      <trkpt lat="43.9966" lon="5.0609">
        <ele>99.15</ele>
        <time>2012-04-09T01:55:44Z</time>
      </trkpt>
      <trkpt lat="43.9966" lon="5.06089">
        <ele>99.15</ele>
        <time>2012-04-09T01:56:10Z</time>
      </trkpt>
      <trkpt lat="43.99663" lon="5.06093">
        <ele>99.15</ele>
        <time>2012-04-09T01:56:37Z</time>
      </trkpt>
      <trkpt lat="43.99664" lon="5.06093">
        <ele>99.15</ele>
        <time>2012-04-09T01:57:03Z</time>
      </trkpt>
      <trkpt lat="43.99664" lon="5.06093">
        <ele>98.67</ele>
        <time>2012-04-09T01:57:29Z</time>
      </trkpt>
      <trkpt lat="43.99665" lon="5.06092">
        <ele>99.15</ele>
        <time>2012-04-09T01:57:58Z</time>
      </trkpt>
      <trkpt lat="43.99665" lon="5.06092">
        <ele>98.67</ele>
        <time>2012-04-09T01:58:30Z</time>
      </trkpt>
      <trkpt lat="43.99665" lon="5.06092">
        <ele>98.19</ele>
        <time>2012-04-09T01:58:57Z</time>
      </trkpt>
      <trkpt lat="43.99661" lon="5.06097">
        <ele>98.67</ele>
        <time>2012-04-09T01:59:20Z</time>
      </trkpt>
      <trkpt lat="43.99661" lon="5.06095">
        <ele>97.71</ele>
        <time>2012-04-09T01:59:44Z</time>
      </trkpt>
      <trkpt lat="43.99661" lon="5.06095">
        <ele>97.23</ele>
        <time>2012-04-09T02:00:12Z</time>
      </trkpt>
      <trkpt lat="43.99661" lon="5.06095">
        <ele>97.23</ele>
        <time>2012-04-09T02:00:42Z</time>
      </trkpt>
      <trkpt lat="43.99662" lon="5.06095">
        <ele>97.23</ele>
        <time>2012-04-09T02:01:09Z</time>
      </trkpt>
      <trkpt lat="43.99666" lon="5.06091">
        <ele>96.75</ele>
        <time>2012-04-09T02:01:34Z</time>
      </trkpt>
      <trkpt lat="43.99667" lon="5.06088">
        <ele>96.75</ele>
        <time>2012-04-09T02:01:58Z</time>
      </trkpt>
      <trkpt lat="43.99667" lon="5.06087">
        <ele>96.75</ele>
        <time>2012-04-09T02:02:18Z</time>
      </trkpt>
      <trkpt lat="43.99667" lon="5.06079">
        <ele>96.27</ele>
        <time>2012-04-09T02:02:46Z</time>
      </trkpt>
      <trkpt lat="43.99667" lon="5.06079">
        <ele>96.27</ele>
        <time>2012-04-09T02:03:16Z</time>
      </trkpt>
      <trkpt lat="43.99667" lon="5.0608">
        <ele>96.27</ele>
        <time>2012-04-09T02:03:48Z</time>
      </trkpt>
      <trkpt lat="43.99666" lon="5.06081">
        <ele>95.79</ele>
        <time>2012-04-09T02:04:17Z</time>
      </trkpt>
      <trkpt lat="43.99666" lon="5.06081">
        <ele>95.79</ele>
        <time>2012-04-09T02:04:42Z</time>
      </trkpt>
      <trkpt lat="43.99662" lon="5.0608">
        <ele>95.79</ele>
        <time>2012-04-09T02:04:52Z</time>
      </trkpt>
      <trkpt lat="43.99653" lon="5.06083">
        <ele>96.27</ele>
        <time>2012-04-09T02:05:13Z</time>
      </trkpt>
      <trkpt lat="43.99653" lon="5.06083">
        <ele>95.79</ele>
        <time>2012-04-09T02:05:38Z</time>
      </trkpt>
      <trkpt lat="43.99653" lon="5.06083">
        <ele>94.83</ele>
        <time>2012-04-09T02:06:06Z</time>
      </trkpt>
      <trkpt lat="43.99654" lon="5.06083">
        <ele>95.31</ele>
        <time>2012-04-09T02:06:34Z</time>
      </trkpt>
      <trkpt lat="43.99656" lon="5.06083">
        <ele>95.31</ele>
        <time>2012-04-09T02:07:07Z</time>
      </trkpt>
      <trkpt lat="43.99656" lon="5.06083">
        <ele>94.83</ele>
        <time>2012-04-09T02:07:36Z</time>
      </trkpt>
      <trkpt lat="43.99656" lon="5.06083">
        <ele>95.31</ele>
        <time>2012-04-09T02:08:11Z</time>
      </trkpt>
      <trkpt lat="43.99657" lon="5.06083">
        <ele>94.83</ele>
        <time>2012-04-09T02:08:46Z</time>
      </trkpt>
      <trkpt lat="43.99658" lon="5.06083">
        <ele>95.31</ele>
        <time>2012-04-09T02:09:13Z</time>
      </trkpt>
      <trkpt lat="43.9966" lon="5.06077">
        <ele>95.31</ele>
        <time>2012-04-09T02:09:36Z</time>
      </trkpt>
      <trkpt lat="43.9966" lon="5.06079">
        <ele>94.83</ele>
        <time>2012-04-09T02:10:02Z</time>
      </trkpt>
      <trkpt lat="43.99657" lon="5.06078">
        <ele>95.31</ele>
        <time>2012-04-09T02:10:22Z</time>
      </trkpt>
      <trkpt lat="43.99658" lon="5.06079">
        <ele>94.83</ele>
        <time>2012-04-09T02:10:47Z</time>
      </trkpt>
      <trkpt lat="43.99658" lon="5.06079">
        <ele>95.31</ele>
        <time>2012-04-09T02:11:18Z</time>
      </trkpt>
      <trkpt lat="43.99658" lon="5.06079">
        <ele>95.31</ele>
        <time>2012-04-09T02:11:49Z</time>
      </trkpt>
      <trkpt lat="43.99658" lon="5.0608">
        <ele>95.31</ele>
        <time>2012-04-09T02:12:14Z</time>
      </trkpt>
      <trkpt lat="43.99659" lon="5.06082">
        <ele>95.31</ele>
        <time>2012-04-09T02:12:42Z</time>
      </trkpt>
      <trkpt lat="43.99663" lon="5.06088">
        <ele>95.31</ele>
        <time>2012-04-09T02:13:07Z</time>
      </trkpt>
      <trkpt lat="43.99663" lon="5.06088">
        <ele>95.79</ele>
        <time>2012-04-09T02:13:34Z</time>
      </trkpt>
      <trkpt lat="43.99664" lon="5.06088">
        <ele>96.27</ele>
        <time>2012-04-09T02:13:58Z</time>
      </trkpt>
      <trkpt lat="43.99665" lon="5.06088">
        <ele>96.27</ele>
        <time>2012-04-09T02:14:30Z</time>
      </trkpt>
      <trkpt lat="43.99674" lon="5.06086">
        <ele>95.79</ele>
        <time>2012-04-09T02:15:00Z</time>
      </trkpt>
      <trkpt lat="43.99674" lon="5.06086">
        <ele>96.27</ele>
        <time>2012-04-09T02:15:27Z</time>
      </trkpt>
      <trkpt lat="43.99671" lon="5.06085">
        <ele>96.27</ele>
        <time>2012-04-09T02:15:53Z</time>
      </trkpt>
      <trkpt lat="43.99671" lon="5.06089">
        <ele>95.79</ele>
        <time>2012-04-09T02:16:11Z</time>
      </trkpt>
      <trkpt lat="43.99677" lon="5.06101">
        <ele>96.27</ele>
        <time>2012-04-09T02:16:36Z</time>
      </trkpt>
      <trkpt lat="43.99675" lon="5.06088">
        <ele>96.27</ele>
        <time>2012-04-09T02:16:58Z</time>
      </trkpt>
      <trkpt lat="43.99672" lon="5.06088">
        <ele>96.75</ele>
        <time>2012-04-09T02:17:21Z</time>
      </trkpt>
      <trkpt lat="43.99671" lon="5.06085">
        <ele>97.23</ele>
        <time>2012-04-09T02:17:46Z</time>
      </trkpt>
      <trkpt lat="43.9967" lon="5.06085">
        <ele>96.75</ele>
        <time>2012-04-09T02:18:14Z</time>
      </trkpt>
      <trkpt lat="43.9967" lon="5.06085">
        <ele>97.23</ele>
        <time>2012-04-09T02:18:43Z</time>
      </trkpt>
      <trkpt lat="43.9967" lon="5.06085">
        <ele>97.23</ele>
        <time>2012-04-09T02:19:11Z</time>
      </trkpt>
      <trkpt lat="43.99671" lon="5.06084">
        <ele>97.23</ele>
        <time>2012-04-09T02:19:33Z</time>
      </trkpt>
      <trkpt lat="43.9967" lon="5.06085">
        <ele>97.23</ele>
        <time>2012-04-09T02:19:56Z</time>
      </trkpt>
      <trkpt lat="43.99666" lon="5.06089">
        <ele>97.23</ele>
        <time>2012-04-09T02:20:22Z</time>
      </trkpt>
      <trkpt lat="43.99664" lon="5.06089">
        <ele>97.23</ele>
        <time>2012-04-09T02:20:45Z</time>
      </trkpt>
      <trkpt lat="43.99659" lon="5.06092">
        <ele>97.23</ele>
        <time>2012-04-09T02:21:08Z</time>
      </trkpt>
      <trkpt lat="43.99659" lon="5.06092">
        <ele>97.23</ele>
        <time>2012-04-09T02:21:34Z</time>
      </trkpt>
      <trkpt lat="43.99662" lon="5.06093">
        <ele>97.23</ele>
        <time>2012-04-09T02:21:59Z</time>
      </trkpt>
      <trkpt lat="43.99662" lon="5.06094">
        <ele>97.23</ele>
        <time>2012-04-09T02:22:25Z</time>
      </trkpt>
      <trkpt lat="43.99655" lon="5.06094">
        <ele>97.23</ele>
        <time>2012-04-09T02:22:47Z</time>
      </trkpt>
      <trkpt lat="43.99657" lon="5.06103">
        <ele>96.75</ele>
        <time>2012-04-09T02:23:07Z</time>
      </trkpt>
      <trkpt lat="43.9966" lon="5.06105">
        <ele>96.75</ele>
        <time>2012-04-09T02:23:30Z</time>
      </trkpt>
      <trkpt lat="43.9966" lon="5.06104">
        <ele>97.23</ele>
        <time>2012-04-09T02:23:54Z</time>
      </trkpt>
      <trkpt lat="43.9966" lon="5.06101">
        <ele>96.75</ele>
        <time>2012-04-09T02:24:16Z</time>
      </trkpt>
      <trkpt lat="43.99665" lon="5.06089">
        <ele>96.75</ele>
        <time>2012-04-09T02:24:38Z</time>
      </trkpt>
      <trkpt lat="43.99663" lon="5.06091">
        <ele>96.75</ele>
        <time>2012-04-09T02:24:58Z</time>
      </trkpt>
      <trkpt lat="43.99664" lon="5.06091">
        <ele>97.23</ele>
        <time>2012-04-09T02:25:20Z</time>
      </trkpt>
      <trkpt lat="43.99664" lon="5.06084">
        <ele>97.23</ele>
        <time>2012-04-09T02:25:43Z</time>
      </trkpt>
      <trkpt lat="43.99663" lon="5.06084">
        <ele>96.75</ele>
        <time>2012-04-09T02:26:09Z</time>
      </trkpt>
      <trkpt lat="43.99663" lon="5.06084">
        <ele>97.23</ele>
        <time>2012-04-09T02:26:32Z</time>
      </trkpt>
      <trkpt lat="43.99665" lon="5.06084">
        <ele>96.75</ele>
        <time>2012-04-09T02:26:52Z</time>
      </trkpt>
      <trkpt lat="43.99665" lon="5.06084">
        <ele>97.23</ele>
        <time>2012-04-09T02:27:15Z</time>
      </trkpt>
      <trkpt lat="43.99673" lon="5.06083">
        <ele>97.23</ele>
        <time>2012-04-09T02:27:38Z</time>
      </trkpt>
      <trkpt lat="43.99673" lon="5.06095">
        <ele>97.23</ele>
        <time>2012-04-09T02:28:01Z</time>
      </trkpt>
      <trkpt lat="43.9967" lon="5.0609">
        <ele>96.75</ele>
        <time>2012-04-09T02:28:25Z</time>
      </trkpt>
      <trkpt lat="43.99672" lon="5.06083">
        <ele>96.75</ele>
        <time>2012-04-09T02:28:46Z</time>
      </trkpt>
      <trkpt lat="43.99672" lon="5.06085">
        <ele>97.23</ele>
        <time>2012-04-09T02:29:11Z</time>
      </trkpt>
      <trkpt lat="43.99672" lon="5.06085">
        <ele>96.27</ele>
        <time>2012-04-09T02:29:37Z</time>
      </trkpt>
      <trkpt lat="43.99672" lon="5.06085">
        <ele>96.75</ele>
        <time>2012-04-09T02:30:03Z</time>
      </trkpt>
      <trkpt lat="43.9967" lon="5.06083">
        <ele>96.75</ele>
        <time>2012-04-09T02:30:27Z</time>
      </trkpt>
      <trkpt lat="43.99667" lon="5.06086">
        <ele>97.23</ele>
        <time>2012-04-09T02:30:49Z</time>
      </trkpt>
      <trkpt lat="43.99665" lon="5.06086">
        <ele>97.23</ele>
        <time>2012-04-09T02:31:13Z</time>
      </trkpt>
      <trkpt lat="43.99666" lon="5.06079">
        <ele>96.75</ele>
        <time>2012-04-09T02:31:37Z</time>
      </trkpt>
      <trkpt lat="43.99666" lon="5.06079">
        <ele>96.27</ele>
        <time>2012-04-09T02:32:01Z</time>
      </trkpt>
      <trkpt lat="43.99667" lon="5.06082">
        <ele>96.75</ele>
        <time>2012-04-09T02:32:26Z</time>
      </trkpt>
      <trkpt lat="43.99667" lon="5.06082">
        <ele>96.27</ele>
        <time>2012-04-09T02:32:50Z</time>
      </trkpt>
      <trkpt lat="43.99669" lon="5.0609">
        <ele>96.27</ele>
        <time>2012-04-09T02:33:10Z</time>
      </trkpt>
      <trkpt lat="43.9967" lon="5.06095">
        <ele>96.75</ele>
        <time>2012-04-09T02:33:32Z</time>
      </trkpt>
      <trkpt lat="43.99666" lon="5.06089">
        <ele>96.27</ele>
        <time>2012-04-09T02:33:55Z</time>
      </trkpt>
      <trkpt lat="43.99666" lon="5.06089">
        <ele>96.27</ele>
        <time>2012-04-09T02:34:20Z</time>
      </trkpt>
      <trkpt lat="43.99663" lon="5.0609">
        <ele>96.75</ele>
        <time>2012-04-09T02:34:46Z</time>
      </trkpt>
      <trkpt lat="43.99663" lon="5.0609">
        <ele>95.79</ele>
        <time>2012-04-09T02:35:14Z</time>
      </trkpt>
      <trkpt lat="43.99663" lon="5.0609">
        <ele>95.31</ele>
        <time>2012-04-09T02:35:44Z</time>
      </trkpt>
      <trkpt lat="43.99663" lon="5.06089">
        <ele>94.83</ele>
        <time>2012-04-09T02:36:12Z</time>
      </trkpt>
      <trkpt lat="43.99663" lon="5.06089">
        <ele>95.31</ele>
        <time>2012-04-09T02:36:38Z</time>
      </trkpt>
      <trkpt lat="43.99666" lon="5.06087">
        <ele>94.83</ele>
        <time>2012-04-09T02:37:01Z</time>
      </trkpt>
      <trkpt lat="43.99671" lon="5.06084">
        <ele>94.83</ele>
        <time>2012-04-09T02:37:20Z</time>
      </trkpt>
      <trkpt lat="43.99671" lon="5.06086">
        <ele>94.83</ele>
        <time>2012-04-09T02:37:41Z</time>
      </trkpt>
      <trkpt lat="43.99676" lon="5.06088">
        <ele>94.35</ele>
        <time>2012-04-09T02:37:59Z</time>
      </trkpt>
      <trkpt lat="43.99676" lon="5.06091">
        <ele>94.35</ele>
        <time>2012-04-09T02:38:02Z</time>
      </trkpt>
      <trkpt lat="43.99662" lon="5.06096">
        <ele>93.39</ele>
        <time>2012-04-09T02:41:50Z</time>
      </trkpt>
      <trkpt lat="43.99662" lon="5.06094">
        <ele>93.87</ele>
        <time>2012-04-09T02:41:51Z</time>
      </trkpt>
      <trkpt lat="43.9966" lon="5.06069">
        <ele>93.87</ele>
        <time>2012-04-09T02:42:16Z</time>
      </trkpt>
      <trkpt lat="43.99652" lon="5.0606">
        <ele>92.9</ele>
        <time>2012-04-09T02:42:46Z</time>
      </trkpt>
      <trkpt lat="43.99654" lon="5.0606">
        <ele>93.39</ele>
        <time>2012-04-09T02:43:14Z</time>
      </trkpt>
      <trkpt lat="43.99657" lon="5.06059">
        <ele>93.39</ele>
        <time>2012-04-09T02:43:39Z</time>
      </trkpt>
      <trkpt lat="43.99651" lon="5.06052">
        <ele>93.39</ele>
        <time>2012-04-09T02:44:04Z</time>
      </trkpt>
      <trkpt lat="43.99651" lon="5.06053">
        <ele>93.39</ele>
        <time>2012-04-09T02:44:26Z</time>
      </trkpt>
      <trkpt lat="43.99657" lon="5.06045">
        <ele>93.39</ele>
        <time>2012-04-09T02:44:47Z</time>
      </trkpt>
      <trkpt lat="43.99655" lon="5.06043">
        <ele>92.9</ele>
        <time>2012-04-09T02:45:11Z</time>
      </trkpt>
      <trkpt lat="43.99659" lon="5.06057">
        <ele>92.9</ele>
        <time>2012-04-09T02:45:33Z</time>
      </trkpt>
      <trkpt lat="43.99672" lon="5.06068">
        <ele>93.39</ele>
        <time>2012-04-09T02:45:54Z</time>
      </trkpt>
      <trkpt lat="43.99662" lon="5.06078">
        <ele>93.39</ele>
        <time>2012-04-09T02:46:20Z</time>
      </trkpt>
      <trkpt lat="43.99662" lon="5.06078">
        <ele>93.39</ele>
        <time>2012-04-09T02:46:41Z</time>
      </trkpt>
      <trkpt lat="43.99662" lon="5.06078">
        <ele>93.39</ele>
        <time>2012-04-09T02:47:04Z</time>
      </trkpt>
      <trkpt lat="43.99661" lon="5.0608">
        <ele>93.87</ele>
        <time>2012-04-09T02:47:24Z</time>
      </trkpt>
      <trkpt lat="43.99667" lon="5.06078">
        <ele>92.9</ele>
        <time>2012-04-09T02:47:45Z</time>
      </trkpt>
      <trkpt lat="43.99665" lon="5.06083">
        <ele>93.39</ele>
        <time>2012-04-09T02:48:07Z</time>
      </trkpt>
      <trkpt lat="43.99663" lon="5.06079">
        <ele>93.39</ele>
        <time>2012-04-09T02:48:31Z</time>
      </trkpt>
      <trkpt lat="43.99663" lon="5.06079">
        <ele>93.87</ele>
        <time>2012-04-09T02:48:57Z</time>
      </trkpt>
      <trkpt lat="43.99659" lon="5.06084">
        <ele>93.87</ele>
        <time>2012-04-09T02:49:26Z</time>
      </trkpt>
      <trkpt lat="43.99659" lon="5.06084">
        <ele>94.35</ele>
        <time>2012-04-09T02:49:54Z</time>
      </trkpt>
      <trkpt lat="43.99659" lon="5.06084">
        <ele>94.35</ele>
        <time>2012-04-09T02:50:25Z</time>
      </trkpt>
      <trkpt lat="43.99661" lon="5.06083">
        <ele>94.35</ele>
        <time>2012-04-09T02:50:51Z</time>
      </trkpt>
      <trkpt lat="43.99661" lon="5.06083">
        <ele>94.35</ele>
        <time>2012-04-09T02:51:18Z</time>
      </trkpt>
      <trkpt lat="43.9966" lon="5.06085">
        <ele>94.83</ele>
        <time>2012-04-09T02:51:43Z</time>
      </trkpt>
      <trkpt lat="43.99657" lon="5.06093">
        <ele>94.83</ele>
        <time>2012-04-09T02:52:04Z</time>
      </trkpt>
      <trkpt lat="43.9966" lon="5.06092">
        <ele>94.83</ele>
        <time>2012-04-09T02:52:30Z</time>
      </trkpt>
      <trkpt lat="43.9966" lon="5.06092">
        <ele>94.83</ele>
        <time>2012-04-09T02:52:53Z</time>
      </trkpt>
      <trkpt lat="43.9966" lon="5.06092">
        <ele>94.35</ele>
        <time>2012-04-09T02:53:23Z</time>
      </trkpt>
      <trkpt lat="43.9966" lon="5.06092">
        <ele>94.83</ele>
        <time>2012-04-09T02:53:50Z</time>
      </trkpt>
      <trkpt lat="43.9966" lon="5.06092">
        <ele>94.35</ele>
        <time>2012-04-09T02:54:16Z</time>
      </trkpt>
      <trkpt lat="43.9966" lon="5.06092">
        <ele>94.35</ele>
        <time>2012-04-09T02:54:43Z</time>
      </trkpt>
      <trkpt lat="43.9966" lon="5.06092">
        <ele>94.35</ele>
        <time>2012-04-09T02:55:09Z</time>
      </trkpt>
      <trkpt lat="43.9966" lon="5.06092">
        <ele>94.35</ele>
        <time>2012-04-09T02:55:35Z</time>
      </trkpt>
      <trkpt lat="43.9966" lon="5.06092">
        <ele>94.35</ele>
        <time>2012-04-09T02:56:03Z</time>
      </trkpt>
      <trkpt lat="43.99665" lon="5.06089">
        <ele>94.83</ele>
        <time>2012-04-09T02:56:26Z</time>
      </trkpt>
      <trkpt lat="43.99662" lon="5.06096">
        <ele>94.83</ele>
        <time>2012-04-09T02:56:48Z</time>
      </trkpt>
      <trkpt lat="43.99669" lon="5.06093">
        <ele>94.83</ele>
        <time>2012-04-09T02:57:08Z</time>
      </trkpt>
      <trkpt lat="43.99674" lon="5.06092">
        <ele>94.35</ele>
        <time>2012-04-09T02:57:25Z</time>
      </trkpt>
      <trkpt lat="43.99673" lon="5.06089">
        <ele>94.83</ele>
        <time>2012-04-09T02:57:47Z</time>
      </trkpt>
      <trkpt lat="43.99656" lon="5.06097">
        <ele>94.83</ele>
        <time>2012-04-09T02:58:07Z</time>
      </trkpt>
      <trkpt lat="43.99656" lon="5.06097">
        <ele>94.83</ele>
        <time>2012-04-09T02:58:29Z</time>
      </trkpt>
      <trkpt lat="43.99656" lon="5.06094">
        <ele>94.83</ele>
        <time>2012-04-09T02:58:54Z</time>
      </trkpt>
      <trkpt lat="43.99656" lon="5.06094">
        <ele>94.35</ele>
        <time>2012-04-09T02:59:24Z</time>
      </trkpt>
      <trkpt lat="43.99656" lon="5.06094">
        <ele>94.35</ele>
        <time>2012-04-09T02:59:52Z</time>
      </trkpt>
      <trkpt lat="43.99657" lon="5.06094">
        <ele>93.87</ele>
        <time>2012-04-09T03:00:19Z</time>
      </trkpt>
      <trkpt lat="43.99656" lon="5.06093">
        <ele>93.87</ele>
        <time>2012-04-09T03:00:48Z</time>
      </trkpt>
      <trkpt lat="43.99648" lon="5.06079">
        <ele>94.35</ele>
        <time>2012-04-09T03:01:13Z</time>
      </trkpt>
      <trkpt lat="43.99651" lon="5.06073">
        <ele>94.35</ele>
        <time>2012-04-09T03:01:44Z</time>
      </trkpt>
      <trkpt lat="43.99652" lon="5.06074">
        <ele>94.35</ele>
        <time>2012-04-09T03:02:13Z</time>
      </trkpt>
      <trkpt lat="43.99654" lon="5.06075">
        <ele>94.83</ele>
        <time>2012-04-09T03:02:44Z</time>
      </trkpt>
      <trkpt lat="43.99654" lon="5.06075">
        <ele>94.83</ele>
        <time>2012-04-09T03:03:15Z</time>
      </trkpt>
      <trkpt lat="43.99655" lon="5.0608">
        <ele>95.31</ele>
        <time>2012-04-09T03:03:46Z</time>
      </trkpt>
      <trkpt lat="43.99659" lon="5.06085">
        <ele>95.79</ele>
        <time>2012-04-09T03:04:11Z</time>
      </trkpt>
      <trkpt lat="43.99658" lon="5.06092">
        <ele>95.31</ele>
        <time>2012-04-09T03:04:34Z</time>
      </trkpt>
      <trkpt lat="43.99661" lon="5.06093">
        <ele>95.31</ele>
        <time>2012-04-09T03:04:59Z</time>
      </trkpt>
      <trkpt lat="43.9966" lon="5.06097">
        <ele>95.31</ele>
        <time>2012-04-09T03:05:27Z</time>
      </trkpt>
      <trkpt lat="43.99659" lon="5.06091">
        <ele>95.31</ele>
        <time>2012-04-09T03:05:54Z</time>
      </trkpt>
      <trkpt lat="43.99659" lon="5.06091">
        <ele>95.31</ele>
        <time>2012-04-09T03:06:17Z</time>
      </trkpt>
      <trkpt lat="43.9966" lon="5.06089">
        <ele>95.79</ele>
        <time>2012-04-09T03:06:40Z</time>
      </trkpt>
      <trkpt lat="43.9966" lon="5.0609">
        <ele>95.31</ele>
        <time>2012-04-09T03:07:07Z</time>
      </trkpt>
      <trkpt lat="43.9966" lon="5.0609">
        <ele>95.31</ele>
        <time>2012-04-09T03:07:41Z</time>
      </trkpt>
      <trkpt lat="43.99659" lon="5.0609">
        <ele>95.31</ele>
        <time>2012-04-09T03:08:06Z</time>
      </trkpt>
      <trkpt lat="43.9966" lon="5.0609">
        <ele>94.83</ele>
        <time>2012-04-09T03:08:42Z</time>
      </trkpt>
      <trkpt lat="43.99662" lon="5.06089">
        <ele>94.83</ele>
        <time>2012-04-09T03:09:21Z</time>
      </trkpt>
      <trkpt lat="43.99662" lon="5.06089">
        <ele>95.31</ele>
        <time>2012-04-09T03:09:44Z</time>
      </trkpt>
      <trkpt lat="43.99662" lon="5.06089">
        <ele>94.83</ele>
        <time>2012-04-09T03:10:14Z</time>
      </trkpt>
      <trkpt lat="43.99663" lon="5.06089">
        <ele>94.83</ele>
        <time>2012-04-09T03:10:44Z</time>
      </trkpt>
      <trkpt lat="43.99663" lon="5.06089">
        <ele>94.83</ele>
        <time>2012-04-09T03:11:09Z</time>
      </trkpt>
      <trkpt lat="43.99663" lon="5.06088">
        <ele>94.35</ele>
        <time>2012-04-09T03:11:43Z</time>
      </trkpt>
      <trkpt lat="43.99664" lon="5.06087">
        <ele>94.35</ele>
        <time>2012-04-09T03:12:12Z</time>
      </trkpt>
      <trkpt lat="43.99667" lon="5.06086">
        <ele>94.35</ele>
        <time>2012-04-09T03:12:37Z</time>
      </trkpt>
      <trkpt lat="43.99669" lon="5.06086">
        <ele>93.87</ele>
        <time>2012-04-09T03:13:02Z</time>
      </trkpt>
      <trkpt lat="43.99669" lon="5.06086">
        <ele>93.87</ele>
        <time>2012-04-09T03:13:37Z</time>
      </trkpt>
      <trkpt lat="43.99668" lon="5.06087">
        <ele>94.35</ele>
        <time>2012-04-09T03:14:16Z</time>
      </trkpt>
      <trkpt lat="43.99668" lon="5.06087">
        <ele>93.39</ele>
        <time>2012-04-09T03:14:53Z</time>
      </trkpt>
      <trkpt lat="43.99668" lon="5.06087">
        <ele>93.87</ele>
        <time>2012-04-09T03:15:24Z</time>
      </trkpt>
      <trkpt lat="43.99668" lon="5.06087">
        <ele>93.39</ele>
        <time>2012-04-09T03:15:57Z</time>
      </trkpt>
      <trkpt lat="43.99668" lon="5.06087">
        <ele>93.87</ele>
        <time>2012-04-09T03:16:26Z</time>
      </trkpt>
      <trkpt lat="43.99668" lon="5.06088">
        <ele>93.39</ele>
        <time>2012-04-09T03:16:50Z</time>
      </trkpt>
      <trkpt lat="43.99667" lon="5.06089">
        <ele>93.87</ele>
        <time>2012-04-09T03:17:09Z</time>
      </trkpt>
      <trkpt lat="43.99666" lon="5.06089">
        <ele>93.39</ele>
        <time>2012-04-09T03:17:36Z</time>
      </trkpt>
      <trkpt lat="43.99666" lon="5.06089">
        <ele>92.9</ele>
        <time>2012-04-09T03:18:10Z</time>
      </trkpt>
      <trkpt lat="43.99666" lon="5.0609">
        <ele>92.9</ele>
        <time>2012-04-09T03:18:54Z</time>
      </trkpt>
      <trkpt lat="43.99666" lon="5.0609">
        <ele>92.9</ele>
        <time>2012-04-09T03:19:34Z</time>
      </trkpt>
      <trkpt lat="43.99666" lon="5.0609">
        <ele>93.39</ele>
        <time>2012-04-09T03:20:05Z</time>
      </trkpt>
      <trkpt lat="43.99666" lon="5.0609">
        <ele>93.39</ele>
        <time>2012-04-09T03:20:35Z</time>
      </trkpt>
      <trkpt lat="43.99666" lon="5.0609">
        <ele>93.39</ele>
        <time>2012-04-09T03:21:05Z</time>
      </trkpt>
      <trkpt lat="43.99665" lon="5.0609">
        <ele>93.39</ele>
        <time>2012-04-09T03:21:36Z</time>
      </trkpt>
      <trkpt lat="43.99665" lon="5.0609">
        <ele>93.39</ele>
        <time>2012-04-09T03:22:06Z</time>
      </trkpt>
      <trkpt lat="43.99666" lon="5.06086">
        <ele>93.87</ele>
        <time>2012-04-09T03:22:33Z</time>
      </trkpt>
      <trkpt lat="43.99666" lon="5.06086">
        <ele>93.39</ele>
        <time>2012-04-09T03:22:59Z</time>
      </trkpt>
      <trkpt lat="43.99666" lon="5.06086">
        <ele>93.87</ele>
        <time>2012-04-09T03:23:35Z</time>
      </trkpt>
      <trkpt lat="43.99666" lon="5.06086">
        <ele>93.87</ele>
        <time>2012-04-09T03:24:08Z</time>
      </trkpt>
      <trkpt lat="43.99664" lon="5.06088">
        <ele>93.87</ele>
        <time>2012-04-09T03:24:37Z</time>
      </trkpt>
      <trkpt lat="43.99664" lon="5.06088">
        <ele>93.87</ele>
        <time>2012-04-09T03:25:03Z</time>
      </trkpt>
      <trkpt lat="43.99662" lon="5.06093">
        <ele>94.35</ele>
        <time>2012-04-09T03:25:29Z</time>
      </trkpt>
      <trkpt lat="43.99662" lon="5.06094">
        <ele>93.87</ele>
        <time>2012-04-09T03:25:51Z</time>
      </trkpt>
      <trkpt lat="43.99657" lon="5.06095">
        <ele>93.87</ele>
        <time>2012-04-09T03:26:12Z</time>
      </trkpt>
      <trkpt lat="43.99654" lon="5.06095">
        <ele>93.87</ele>
        <time>2012-04-09T03:26:43Z</time>
      </trkpt>
      <trkpt lat="43.99654" lon="5.06095">
        <ele>93.39</ele>
        <time>2012-04-09T03:27:04Z</time>
      </trkpt>
      <trkpt lat="43.99667" lon="5.06091">
        <ele>93.87</ele>
        <time>2012-04-09T03:27:30Z</time>
      </trkpt>
      <trkpt lat="43.99667" lon="5.06091">
        <ele>93.39</ele>
        <time>2012-04-09T03:27:58Z</time>
      </trkpt>
      <trkpt lat="43.99665" lon="5.06095">
        <ele>93.87</ele>
        <time>2012-04-09T03:28:20Z</time>
      </trkpt>
      <trkpt lat="43.99675" lon="5.06091">
        <ele>93.39</ele>
        <time>2012-04-09T03:28:45Z</time>
      </trkpt>
      <trkpt lat="43.99677" lon="5.06093">
        <ele>93.39</ele>
        <time>2012-04-09T03:29:06Z</time>
      </trkpt>
      <trkpt lat="43.99674" lon="5.06099">
        <ele>93.39</ele>
        <time>2012-04-09T03:29:27Z</time>
      </trkpt>
      <trkpt lat="43.99671" lon="5.06099">
        <ele>92.9</ele>
        <time>2012-04-09T03:29:52Z</time>
      </trkpt>
      <trkpt lat="43.99668" lon="5.06103">
        <ele>92.9</ele>
        <time>2012-04-09T03:30:18Z</time>
      </trkpt>
      <trkpt lat="43.99666" lon="5.06097">
        <ele>93.39</ele>
        <time>2012-04-09T03:30:43Z</time>
      </trkpt>
      <trkpt lat="43.99666" lon="5.06098">
        <ele>92.9</ele>
        <time>2012-04-09T03:31:05Z</time>
      </trkpt>
      <trkpt lat="43.99675" lon="5.06085">
        <ele>92.42</ele>
        <time>2012-04-09T03:31:28Z</time>
      </trkpt>
      <trkpt lat="43.99674" lon="5.06084">
        <ele>92.42</ele>
        <time>2012-04-09T03:31:49Z</time>
      </trkpt>
      <trkpt lat="43.99674" lon="5.06084">
        <ele>92.9</ele>
        <time>2012-04-09T03:32:14Z</time>
      </trkpt>
      <trkpt lat="43.99671" lon="5.06083">
        <ele>92.9</ele>
        <time>2012-04-09T03:32:36Z</time>
      </trkpt>
      <trkpt lat="43.9967" lon="5.06081">
        <ele>92.9</ele>
        <time>2012-04-09T03:32:54Z</time>
      </trkpt>
      <trkpt lat="43.99674" lon="5.06077">
        <ele>92.9</ele>
        <time>2012-04-09T03:33:13Z</time>
      </trkpt>
      <trkpt lat="43.99672" lon="5.06081">
        <ele>92.9</ele>
        <time>2012-04-09T03:33:38Z</time>
      </trkpt>
      <trkpt lat="43.99673" lon="5.06086">
        <ele>93.39</ele>
        <time>2012-04-09T03:34:03Z</time>
      </trkpt>
      <trkpt lat="43.99676" lon="5.06092">
        <ele>93.39</ele>
        <time>2012-04-09T03:34:26Z</time>
      </trkpt>
      <trkpt lat="43.99688" lon="5.06112">
        <ele>93.39</ele>
        <time>2012-04-09T03:34:49Z</time>
      </trkpt>
      <trkpt lat="43.99681" lon="5.06096">
        <ele>93.39</ele>
        <time>2012-04-09T03:35:10Z</time>
      </trkpt>
      <trkpt lat="43.99675" lon="5.06092">
        <ele>93.87</ele>
        <time>2012-04-09T03:35:33Z</time>
      </trkpt>
      <trkpt lat="43.99671" lon="5.0609">
        <ele>93.87</ele>
        <time>2012-04-09T03:35:56Z</time>
      </trkpt>
      <trkpt lat="43.99672" lon="5.0609">
        <ele>94.35</ele>
        <time>2012-04-09T03:36:16Z</time>
      </trkpt>
      <trkpt lat="43.99671" lon="5.0609">
        <ele>93.39</ele>
        <time>2012-04-09T03:36:37Z</time>
      </trkpt>
      <trkpt lat="43.99664" lon="5.0609">
        <ele>93.87</ele>
        <time>2012-04-09T03:37:00Z</time>
      </trkpt>
      <trkpt lat="43.99667" lon="5.06089">
        <ele>93.87</ele>
        <time>2012-04-09T03:37:21Z</time>
      </trkpt>
      <trkpt lat="43.99669" lon="5.06089">
        <ele>93.87</ele>
        <time>2012-04-09T03:37:44Z</time>
      </trkpt>
      <trkpt lat="43.99669" lon="5.06089">
        <ele>93.87</ele>
        <time>2012-04-09T03:38:07Z</time>
      </trkpt>
      <trkpt lat="43.99674" lon="5.06085">
        <ele>94.35</ele>
        <time>2012-04-09T03:38:35Z</time>
      </trkpt>
      <trkpt lat="43.99674" lon="5.06085">
        <ele>93.87</ele>
        <time>2012-04-09T03:39:00Z</time>
      </trkpt>
      <trkpt lat="43.99674" lon="5.06085">
        <ele>94.35</ele>
        <time>2012-04-09T03:39:26Z</time>
      </trkpt>
      <trkpt lat="43.99674" lon="5.06085">
        <ele>94.35</ele>
        <time>2012-04-09T03:39:51Z</time>
      </trkpt>
      <trkpt lat="43.99674" lon="5.06085">
        <ele>94.35</ele>
        <time>2012-04-09T03:40:19Z</time>
      </trkpt>
      <trkpt lat="43.99673" lon="5.06096">
        <ele>93.39</ele>
        <time>2012-04-09T03:40:44Z</time>
      </trkpt>
      <trkpt lat="43.99673" lon="5.061">
        <ele>94.35</ele>
        <time>2012-04-09T03:41:07Z</time>
      </trkpt>
      <trkpt lat="43.99673" lon="5.061">
        <ele>94.35</ele>
        <time>2012-04-09T03:41:30Z</time>
      </trkpt>
      <trkpt lat="43.99667" lon="5.06085">
        <ele>94.83</ele>
        <time>2012-04-09T03:41:51Z</time>
      </trkpt>
      <trkpt lat="43.99667" lon="5.06084">
        <ele>93.87</ele>
        <time>2012-04-09T03:42:19Z</time>
      </trkpt>
      <trkpt lat="43.9967" lon="5.06087">
        <ele>94.35</ele>
        <time>2012-04-09T03:42:45Z</time>
      </trkpt>
      <trkpt lat="43.99673" lon="5.06089">
        <ele>94.35</ele>
        <time>2012-04-09T03:43:11Z</time>
      </trkpt>
      <trkpt lat="43.99665" lon="5.061">
        <ele>94.35</ele>
        <time>2012-04-09T03:43:32Z</time>
      </trkpt>
      <trkpt lat="43.9966" lon="5.06095">
        <ele>94.35</ele>
        <time>2012-04-09T03:43:54Z</time>
      </trkpt>
      <trkpt lat="43.99658" lon="5.06092">
        <ele>94.83</ele>
        <time>2012-04-09T03:44:03Z</time>
      </trkpt>
      <trkpt lat="43.99644" lon="5.06075">
        <ele>94.83</ele>
        <time>2012-04-09T03:44:25Z</time>
      </trkpt>
      <trkpt lat="43.99645" lon="5.06078">
        <ele>94.83</ele>
        <time>2012-04-09T03:44:52Z</time>
      </trkpt>
      <trkpt lat="43.99646" lon="5.06079">
        <ele>95.31</ele>
        <time>2012-04-09T03:45:14Z</time>
      </trkpt>
      <trkpt lat="43.99652" lon="5.06083">
        <ele>94.83</ele>
        <time>2012-04-09T03:45:38Z</time>
      </trkpt>
      <trkpt lat="43.99653" lon="5.06084">
        <ele>94.83</ele>
        <time>2012-04-09T03:46:04Z</time>
      </trkpt>
      <trkpt lat="43.99655" lon="5.06088">
        <ele>94.83</ele>
        <time>2012-04-09T03:46:25Z</time>
      </trkpt>
      <trkpt lat="43.99655" lon="5.06089">
        <ele>95.31</ele>
        <time>2012-04-09T03:46:48Z</time>
      </trkpt>
      <trkpt lat="43.99655" lon="5.06089">
        <ele>95.31</ele>
        <time>2012-04-09T03:47:11Z</time>
      </trkpt>
      <trkpt lat="43.99656" lon="5.06089">
        <ele>94.83</ele>
        <time>2012-04-09T03:47:44Z</time>
      </trkpt>
      <trkpt lat="43.99657" lon="5.0609">
        <ele>94.83</ele>
        <time>2012-04-09T03:48:17Z</time>
      </trkpt>
      <trkpt lat="43.99657" lon="5.0609">
        <ele>94.83</ele>
        <time>2012-04-09T03:48:42Z</time>
      </trkpt>
      <trkpt lat="43.99657" lon="5.0609">
        <ele>94.83</ele>
        <time>2012-04-09T03:49:06Z</time>
      </trkpt>
      <trkpt lat="43.99658" lon="5.06089">
        <ele>94.35</ele>
        <time>2012-04-09T03:49:31Z</time>
      </trkpt>
      <trkpt lat="43.99658" lon="5.06089">
        <ele>94.35</ele>
        <time>2012-04-09T03:49:58Z</time>
      </trkpt>
      <trkpt lat="43.99658" lon="5.06089">
        <ele>94.83</ele>
        <time>2012-04-09T03:50:28Z</time>
      </trkpt>
      <trkpt lat="43.99658" lon="5.06089">
        <ele>94.83</ele>
        <time>2012-04-09T03:50:57Z</time>
      </trkpt>
      <trkpt lat="43.99661" lon="5.06088">
        <ele>94.35</ele>
        <time>2012-04-09T03:51:25Z</time>
      </trkpt>
      <trkpt lat="43.99661" lon="5.06088">
        <ele>94.83</ele>
        <time>2012-04-09T03:51:53Z</time>
      </trkpt>
      <trkpt lat="43.99661" lon="5.06088">
        <ele>95.31</ele>
        <time>2012-04-09T03:52:19Z</time>
      </trkpt>
      <trkpt lat="43.99661" lon="5.06088">
        <ele>94.83</ele>
        <time>2012-04-09T03:52:46Z</time>
      </trkpt>
      <trkpt lat="43.99663" lon="5.0609">
        <ele>94.83</ele>
        <time>2012-04-09T03:53:11Z</time>
      </trkpt>
      <trkpt lat="43.99663" lon="5.06097">
        <ele>94.83</ele>
        <time>2012-04-09T03:53:35Z</time>
      </trkpt>
      <trkpt lat="43.99663" lon="5.06097">
        <ele>94.83</ele>
        <time>2012-04-09T03:53:59Z</time>
      </trkpt>
      <trkpt lat="43.99662" lon="5.06097">
        <ele>94.83</ele>
        <time>2012-04-09T03:54:26Z</time>
      </trkpt>
      <trkpt lat="43.99662" lon="5.061">
        <ele>95.79</ele>
        <time>2012-04-09T03:54:48Z</time>
      </trkpt>
      <trkpt lat="43.99662" lon="5.061">
        <ele>95.31</ele>
        <time>2012-04-09T03:55:22Z</time>
      </trkpt>
      <trkpt lat="43.99662" lon="5.061">
        <ele>95.79</ele>
        <time>2012-04-09T03:55:50Z</time>
      </trkpt>
      <trkpt lat="43.99662" lon="5.061">
        <ele>95.79</ele>
        <time>2012-04-09T03:56:16Z</time>
      </trkpt>
      <trkpt lat="43.99661" lon="5.06099">
        <ele>95.79</ele>
        <time>2012-04-09T03:56:41Z</time>
      </trkpt>
      <trkpt lat="43.99661" lon="5.06096">
        <ele>95.79</ele>
        <time>2012-04-09T03:57:07Z</time>
      </trkpt>
      <trkpt lat="43.99662" lon="5.06096">
        <ele>96.27</ele>
        <time>2012-04-09T03:57:29Z</time>
      </trkpt>
      <trkpt lat="43.99662" lon="5.06096">
        <ele>95.79</ele>
        <time>2012-04-09T03:57:54Z</time>
      </trkpt>
      <trkpt lat="43.99664" lon="5.06095">
        <ele>96.27</ele>
        <time>2012-04-09T03:58:18Z</time>
      </trkpt>
      <trkpt lat="43.99668" lon="5.06094">
        <ele>96.27</ele>
        <time>2012-04-09T03:58:43Z</time>
      </trkpt>
      <trkpt lat="43.99668" lon="5.06094">
        <ele>96.75</ele>
        <time>2012-04-09T03:59:13Z</time>
      </trkpt>
      <trkpt lat="43.99632" lon="5.06091">
        <ele>94.83</ele>
        <time>2012-04-09T06:03:08Z</time>
      </trkpt>
      <trkpt lat="43.99634" lon="5.06089">
        <ele>94.35</ele>
        <time>2012-04-09T06:03:09Z</time>
      </trkpt>
      <trkpt lat="43.99649" lon="5.06068">
        <ele>94.83</ele>
        <time>2012-04-09T06:03:20Z</time>
      </trkpt>
      <trkpt lat="43.99654" lon="5.06076">
        <ele>96.27</ele>
        <time>2012-04-09T06:03:37Z</time>
      </trkpt>
      <trkpt lat="43.99655" lon="5.06074">
        <ele>99.15</ele>
        <time>2012-04-09T06:03:50Z</time>
      </trkpt>
      <trkpt lat="43.99655" lon="5.06074">
        <ele>101.08</ele>
        <time>2012-04-09T06:04:13Z</time>
      </trkpt>
      <trkpt lat="43.99656" lon="5.06077">
        <ele>102.04</ele>
        <time>2012-04-09T06:04:29Z</time>
      </trkpt>
      <trkpt lat="43.99656" lon="5.06071">
        <ele>102.04</ele>
        <time>2012-04-09T06:04:50Z</time>
      </trkpt>
      <trkpt lat="43.99658" lon="5.06064">
        <ele>101.56</ele>
        <time>2012-04-09T06:05:11Z</time>
      </trkpt>
      <trkpt lat="43.99658" lon="5.06072">
        <ele>99.63</ele>
        <time>2012-04-09T06:05:29Z</time>
      </trkpt>
      <trkpt lat="43.99669" lon="5.06082">
        <ele>99.15</ele>
        <time>2012-04-09T06:06:51Z</time>
      </trkpt>
      <trkpt lat="43.99668" lon="5.06084">
        <ele>99.15</ele>
        <time>2012-04-09T06:06:57Z</time>
      </trkpt>
      <trkpt lat="43.99671" lon="5.0607">
        <ele>98.67</ele>
        <time>2012-04-09T06:07:03Z</time>
      </trkpt>
      <trkpt lat="43.99675" lon="5.06062">
        <ele>99.15</ele>
        <time>2012-04-09T06:07:12Z</time>
      </trkpt>
      <trkpt lat="43.99673" lon="5.06053">
        <ele>98.19</ele>
        <time>2012-04-09T06:07:26Z</time>
      </trkpt>
      <trkpt lat="43.99673" lon="5.06046">
        <ele>98.19</ele>
        <time>2012-04-09T06:07:35Z</time>
      </trkpt>
      <trkpt lat="43.99671" lon="5.06038">
        <ele>96.27</ele>
        <time>2012-04-09T06:07:50Z</time>
      </trkpt>
      <trkpt lat="43.99676" lon="5.06042">
        <ele>96.75</ele>
        <time>2012-04-09T06:08:14Z</time>
      </trkpt>
      <trkpt lat="43.99678" lon="5.06044">
        <ele>96.75</ele>
        <time>2012-04-09T06:08:28Z</time>
      </trkpt>
      <trkpt lat="43.9968" lon="5.06042">
        <ele>95.79</ele>
        <time>2012-04-09T06:08:37Z</time>
      </trkpt>
      <trkpt lat="43.99684" lon="5.06053">
        <ele>96.75</ele>
        <time>2012-04-09T06:08:40Z</time>
      </trkpt>
      <trkpt lat="43.99689" lon="5.06081">
        <ele>96.27</ele>
        <time>2012-04-09T06:08:43Z</time>
      </trkpt>
      <trkpt lat="43.99708" lon="5.06159">
        <ele>91.94</ele>
        <time>2012-04-09T06:08:50Z</time>
      </trkpt>
      <trkpt lat="43.99711" lon="5.0617">
        <ele>92.9</ele>
        <time>2012-04-09T06:08:51Z</time>
      </trkpt>
      <trkpt lat="43.99719" lon="5.06199">
        <ele>91.94</ele>
        <time>2012-04-09T06:08:54Z</time>
      </trkpt>
      <trkpt lat="43.99719" lon="5.06208">
        <ele>91.94</ele>
        <time>2012-04-09T06:08:55Z</time>
      </trkpt>
      <trkpt lat="43.99719" lon="5.0623">
        <ele>91.94</ele>
        <time>2012-04-09T06:08:57Z</time>
      </trkpt>
      <trkpt lat="43.99717" lon="5.0624">
        <ele>91.94</ele>
        <time>2012-04-09T06:08:58Z</time>
      </trkpt>
      <trkpt lat="43.99713" lon="5.06249">
        <ele>91.46</ele>
        <time>2012-04-09T06:08:59Z</time>
      </trkpt>
      <trkpt lat="43.99708" lon="5.06258">
        <ele>93.87</ele>
        <time>2012-04-09T06:09:00Z</time>
      </trkpt>
      <trkpt lat="43.99703" lon="5.06267">
        <ele>92.9</ele>
        <time>2012-04-09T06:09:01Z</time>
      </trkpt>
      <trkpt lat="43.99698" lon="5.06275">
        <ele>92.42</ele>
        <time>2012-04-09T06:09:02Z</time>
      </trkpt>
      <trkpt lat="43.99667" lon="5.0632">
        <ele>92.9</ele>
        <time>2012-04-09T06:09:08Z</time>
      </trkpt>
      <trkpt lat="43.99597" lon="5.06401">
        <ele>96.27</ele>
        <time>2012-04-09T06:09:19Z</time>
      </trkpt>
      <trkpt lat="43.9959" lon="5.06408">
        <ele>95.79</ele>
        <time>2012-04-09T06:09:20Z</time>
      </trkpt>
      <trkpt lat="43.9949" lon="5.06486">
        <ele>98.67</ele>
        <time>2012-04-09T06:09:32Z</time>
      </trkpt>
      <trkpt lat="43.99425" lon="5.06526">
        <ele>98.67</ele>
        <time>2012-04-09T06:09:41Z</time>
      </trkpt>
      <trkpt lat="43.9937" lon="5.06572">
        <ele>98.67</ele>
        <time>2012-04-09T06:09:49Z</time>
      </trkpt>
      <trkpt lat="43.99305" lon="5.06621">
        <ele>100.6</ele>
        <time>2012-04-09T06:09:56Z</time>
      </trkpt>
      <trkpt lat="43.99297" lon="5.06624">
        <ele>100.6</ele>
        <time>2012-04-09T06:09:57Z</time>
      </trkpt>
      <trkpt lat="43.99289" lon="5.06628">
        <ele>100.6</ele>
        <time>2012-04-09T06:09:58Z</time>
      </trkpt>
      <trkpt lat="43.99283" lon="5.06632">
        <ele>100.11</ele>
        <time>2012-04-09T06:09:59Z</time>
      </trkpt>
      <trkpt lat="43.99278" lon="5.06635">
        <ele>100.6</ele>
        <time>2012-04-09T06:10:00Z</time>
      </trkpt>
      <trkpt lat="43.99273" lon="5.06636">
        <ele>100.6</ele>
        <time>2012-04-09T06:10:01Z</time>
      </trkpt>
      <trkpt lat="43.99268" lon="5.06637">
        <ele>100.6</ele>
        <time>2012-04-09T06:10:02Z</time>
      </trkpt>
      <trkpt lat="43.99264" lon="5.0664">
        <ele>102.04</ele>
        <time>2012-04-09T06:10:03Z</time>
      </trkpt>
      <trkpt lat="43.99258" lon="5.06642">
        <ele>101.08</ele>
        <time>2012-04-09T06:10:04Z</time>
      </trkpt>
      <trkpt lat="43.99186" lon="5.06676">
        <ele>102.04</ele>
        <time>2012-04-09T06:10:12Z</time>
      </trkpt>
      <trkpt lat="43.99143" lon="5.06698">
        <ele>98.19</ele>
        <time>2012-04-09T06:10:16Z</time>
      </trkpt>
      <trkpt lat="43.99132" lon="5.06703">
        <ele>103.96</ele>
        <time>2012-04-09T06:10:17Z</time>
      </trkpt>
      <trkpt lat="43.9902" lon="5.06753">
        <ele>104.92</ele>
        <time>2012-04-09T06:10:28Z</time>
      </trkpt>
      <trkpt lat="43.98978" lon="5.06765">
        <ele>106.36</ele>
        <time>2012-04-09T06:10:35Z</time>
      </trkpt>
      <trkpt lat="43.98873" lon="5.06791">
        <ele>109.25</ele>
        <time>2012-04-09T06:10:45Z</time>
      </trkpt>
      <trkpt lat="43.98788" lon="5.06803">
        <ele>111.17</ele>
        <time>2012-04-09T06:10:54Z</time>
      </trkpt>
      <trkpt lat="43.98749" lon="5.0681">
        <ele>112.61</ele>
        <time>2012-04-09T06:10:58Z</time>
      </trkpt>
      <trkpt lat="43.98602" lon="5.06836">
        <ele>115.98</ele>
        <time>2012-04-09T06:11:10Z</time>
      </trkpt>
      <trkpt lat="43.98458" lon="5.06834">
        <ele>116.46</ele>
        <time>2012-04-09T06:11:22Z</time>
      </trkpt>
      <trkpt lat="43.98432" lon="5.06836">
        <ele>115.01</ele>
        <time>2012-04-09T06:11:24Z</time>
      </trkpt>
      <trkpt lat="43.98225" lon="5.06848">
        <ele>113.57</ele>
        <time>2012-04-09T06:11:40Z</time>
      </trkpt>
      <trkpt lat="43.9816" lon="5.06847">
        <ele>116.46</ele>
        <time>2012-04-09T06:11:46Z</time>
      </trkpt>
      <trkpt lat="43.98011" lon="5.06877">
        <ele>114.05</ele>
        <time>2012-04-09T06:11:58Z</time>
      </trkpt>
      <trkpt lat="43.97875" lon="5.06948">
        <ele>114.53</ele>
        <time>2012-04-09T06:12:09Z</time>
      </trkpt>
      <trkpt lat="43.97701" lon="5.07035">
        <ele>117.9</ele>
        <time>2012-04-09T06:12:23Z</time>
      </trkpt>
      <trkpt lat="43.97562" lon="5.07084">
        <ele>118.86</ele>
        <time>2012-04-09T06:12:35Z</time>
      </trkpt>
      <trkpt lat="43.97453" lon="5.0717">
        <ele>120.78</ele>
        <time>2012-04-09T06:12:46Z</time>
      </trkpt>
      <trkpt lat="43.97359" lon="5.07229">
        <ele>123.19</ele>
        <time>2012-04-09T06:12:55Z</time>
      </trkpt>
      <trkpt lat="43.97195" lon="5.07264">
        <ele>125.59</ele>
        <time>2012-04-09T06:13:09Z</time>
      </trkpt>
      <trkpt lat="43.9716" lon="5.07262">
        <ele>126.07</ele>
        <time>2012-04-09T06:13:12Z</time>
      </trkpt>
      <trkpt lat="43.97057" lon="5.0724">
        <ele>129.43</ele>
        <time>2012-04-09T06:13:21Z</time>
      </trkpt>
      <trkpt lat="43.97013" lon="5.07237">
        <ele>130.4</ele>
        <time>2012-04-09T06:13:25Z</time>
      </trkpt>
      <trkpt lat="43.97003" lon="5.07241">
        <ele>130.88</ele>
        <time>2012-04-09T06:13:26Z</time>
      </trkpt>
      <trkpt lat="43.96984" lon="5.07249">
        <ele>131.84</ele>
        <time>2012-04-09T06:13:28Z</time>
      </trkpt>
      <trkpt lat="43.96907" lon="5.07292">
        <ele>135.2</ele>
        <time>2012-04-09T06:13:35Z</time>
      </trkpt>
      <trkpt lat="43.96851" lon="5.07315">
        <ele>137.61</ele>
        <time>2012-04-09T06:13:40Z</time>
      </trkpt>
      <trkpt lat="43.96786" lon="5.07342">
        <ele>140.97</ele>
        <time>2012-04-09T06:13:46Z</time>
      </trkpt>
      <trkpt lat="43.96704" lon="5.07392">
        <ele>144.82</ele>
        <time>2012-04-09T06:13:54Z</time>
      </trkpt>
      <trkpt lat="43.96656" lon="5.0742">
        <ele>148.66</ele>
        <time>2012-04-09T06:13:59Z</time>
      </trkpt>
      <trkpt lat="43.96607" lon="5.07444">
        <ele>151.54</ele>
        <time>2012-04-09T06:14:04Z</time>
      </trkpt>
      <trkpt lat="43.96561" lon="5.07467">
        <ele>155.39</ele>
        <time>2012-04-09T06:14:09Z</time>
      </trkpt>
      <trkpt lat="43.96553" lon="5.07472">
        <ele>155.39</ele>
        <time>2012-04-09T06:14:10Z</time>
      </trkpt>
      <trkpt lat="43.96545" lon="5.07478">
        <ele>155.87</ele>
        <time>2012-04-09T06:14:11Z</time>
      </trkpt>
      <trkpt lat="43.96537" lon="5.07485">
        <ele>157.31</ele>
        <time>2012-04-09T06:14:12Z</time>
      </trkpt>
      <trkpt lat="43.96506" lon="5.07516">
        <ele>160.2</ele>
        <time>2012-04-09T06:14:16Z</time>
      </trkpt>
      <trkpt lat="43.96476" lon="5.07546">
        <ele>163.56</ele>
        <time>2012-04-09T06:14:20Z</time>
      </trkpt>
      <trkpt lat="43.9646" lon="5.07558">
        <ele>165</ele>
        <time>2012-04-09T06:14:22Z</time>
      </trkpt>
      <trkpt lat="43.96452" lon="5.07562">
        <ele>165.96</ele>
        <time>2012-04-09T06:14:23Z</time>
      </trkpt>
      <trkpt lat="43.96444" lon="5.07565">
        <ele>167.41</ele>
        <time>2012-04-09T06:14:24Z</time>
      </trkpt>
      <trkpt lat="43.96436" lon="5.07567">
        <ele>168.37</ele>
        <time>2012-04-09T06:14:25Z</time>
      </trkpt>
      <trkpt lat="43.96426" lon="5.07566">
        <ele>169.81</ele>
        <time>2012-04-09T06:14:26Z</time>
      </trkpt>
      <trkpt lat="43.96417" lon="5.07564">
        <ele>171.25</ele>
        <time>2012-04-09T06:14:27Z</time>
      </trkpt>
      <trkpt lat="43.96381" lon="5.0756">
        <ele>174.62</ele>
        <time>2012-04-09T06:14:31Z</time>
      </trkpt>
      <trkpt lat="43.96358" lon="5.07558">
        <ele>177.5</ele>
        <time>2012-04-09T06:14:34Z</time>
      </trkpt>
      <trkpt lat="43.96335" lon="5.07551">
        <ele>180.38</ele>
        <time>2012-04-09T06:14:39Z</time>
      </trkpt>
      <trkpt lat="43.96273" lon="5.07503">
        <ele>178.46</ele>
        <time>2012-04-09T06:14:52Z</time>
      </trkpt>
      <trkpt lat="43.96203" lon="5.07467">
        <ele>175.1</ele>
        <time>2012-04-09T06:15:02Z</time>
      </trkpt>
      <trkpt lat="43.96103" lon="5.07422">
        <ele>171.73</ele>
        <time>2012-04-09T06:15:15Z</time>
      </trkpt>
      <trkpt lat="43.96096" lon="5.0742">
        <ele>171.25</ele>
        <time>2012-04-09T06:15:16Z</time>
      </trkpt>
      <trkpt lat="43.96082" lon="5.07416">
        <ele>170.29</ele>
        <time>2012-04-09T06:15:18Z</time>
      </trkpt>
      <trkpt lat="43.9606" lon="5.07409">
        <ele>168.37</ele>
        <time>2012-04-09T06:15:22Z</time>
      </trkpt>
      <trkpt lat="43.96056" lon="5.07409">
        <ele>168.37</ele>
        <time>2012-04-09T06:15:23Z</time>
      </trkpt>
      <trkpt lat="43.96053" lon="5.07411">
        <ele>167.89</ele>
        <time>2012-04-09T06:15:24Z</time>
      </trkpt>
      <trkpt lat="43.96051" lon="5.07414">
        <ele>167.89</ele>
        <time>2012-04-09T06:15:25Z</time>
      </trkpt>
      <trkpt lat="43.96049" lon="5.07418">
        <ele>167.89</ele>
        <time>2012-04-09T06:15:26Z</time>
      </trkpt>
      <trkpt lat="43.96048" lon="5.07421">
        <ele>167.89</ele>
        <time>2012-04-09T06:15:27Z</time>
      </trkpt>
      <trkpt lat="43.96048" lon="5.07425">
        <ele>168.37</ele>
        <time>2012-04-09T06:15:28Z</time>
      </trkpt>
      <trkpt lat="43.96049" lon="5.07429">
        <ele>168.37</ele>
        <time>2012-04-09T06:15:29Z</time>
      </trkpt>
      <trkpt lat="43.9605" lon="5.07434">
        <ele>167.89</ele>
        <time>2012-04-09T06:15:30Z</time>
      </trkpt>
      <trkpt lat="43.96051" lon="5.07438">
        <ele>168.85</ele>
        <time>2012-04-09T06:15:31Z</time>
      </trkpt>
      <trkpt lat="43.96053" lon="5.07442">
        <ele>168.85</ele>
        <time>2012-04-09T06:15:32Z</time>
      </trkpt>
      <trkpt lat="43.96055" lon="5.07444">
        <ele>169.33</ele>
        <time>2012-04-09T06:15:33Z</time>
      </trkpt>
      <trkpt lat="43.96058" lon="5.07446">
        <ele>168.85</ele>
        <time>2012-04-09T06:15:34Z</time>
      </trkpt>
      <trkpt lat="43.96061" lon="5.07447">
        <ele>169.33</ele>
        <time>2012-04-09T06:15:35Z</time>
      </trkpt>
      <trkpt lat="43.96064" lon="5.07447">
        <ele>169.33</ele>
        <time>2012-04-09T06:15:36Z</time>
      </trkpt>
      <trkpt lat="43.96067" lon="5.07445">
        <ele>169.33</ele>
        <time>2012-04-09T06:15:37Z</time>
      </trkpt>
      <trkpt lat="43.9607" lon="5.07442">
        <ele>169.33</ele>
        <time>2012-04-09T06:15:38Z</time>
      </trkpt>
      <trkpt lat="43.96072" lon="5.07438">
        <ele>169.33</ele>
        <time>2012-04-09T06:15:39Z</time>
      </trkpt>
      <trkpt lat="43.96073" lon="5.07435">
        <ele>168.85</ele>
        <time>2012-04-09T06:15:40Z</time>
      </trkpt>
      <trkpt lat="43.96074" lon="5.07432">
        <ele>169.33</ele>
        <time>2012-04-09T06:15:41Z</time>
      </trkpt>
      <trkpt lat="43.96075" lon="5.07431">
        <ele>168.85</ele>
        <time>2012-04-09T06:15:54Z</time>
      </trkpt>
      <trkpt lat="43.96075" lon="5.07431">
        <ele>165.48</ele>
        <time>2012-04-09T06:15:57Z</time>
      </trkpt>
      <trkpt lat="43.96075" lon="5.07431">
        <ele>169.33</ele>
        <time>2012-04-09T06:15:58Z</time>
      </trkpt>
      <trkpt lat="43.96075" lon="5.07431">
        <ele>172.69</ele>
        <time>2012-04-09T06:15:59Z</time>
      </trkpt>
      <trkpt lat="43.96075" lon="5.07431">
        <ele>169.33</ele>
        <time>2012-04-09T06:16:00Z</time>
      </trkpt>
      <trkpt lat="43.96075" lon="5.07431">
        <ele>161.16</ele>
        <time>2012-04-09T06:16:03Z</time>
      </trkpt>
      <trkpt lat="43.96075" lon="5.07431">
        <ele>169.81</ele>
        <time>2012-04-09T06:16:04Z</time>
      </trkpt>
      <trkpt lat="43.96075" lon="5.07431">
        <ele>166.45</ele>
        <time>2012-04-09T06:16:06Z</time>
      </trkpt>
      <trkpt lat="43.96075" lon="5.07431">
        <ele>166.93</ele>
        <time>2012-04-09T06:16:07Z</time>
      </trkpt>
      <trkpt lat="43.96075" lon="5.07431">
        <ele>168.85</ele>
        <time>2012-04-09T06:16:10Z</time>
      </trkpt>
      <trkpt lat="43.96075" lon="5.0743">
        <ele>168.85</ele>
        <time>2012-04-09T06:16:31Z</time>
      </trkpt>
      <trkpt lat="43.96075" lon="5.0743">
        <ele>170.77</ele>
        <time>2012-04-09T06:16:52Z</time>
      </trkpt>
      <trkpt lat="43.96075" lon="5.0743">
        <ele>167.89</ele>
        <time>2012-04-09T06:16:55Z</time>
      </trkpt>
      <trkpt lat="43.96075" lon="5.0743">
        <ele>168.85</ele>
        <time>2012-04-09T06:16:59Z</time>
      </trkpt>
      <trkpt lat="43.96075" lon="5.0743">
        <ele>169.33</ele>
        <time>2012-04-09T06:17:23Z</time>
      </trkpt>
      <trkpt lat="43.96075" lon="5.0743">
        <ele>168.85</ele>
        <time>2012-04-09T06:17:38Z</time>
      </trkpt>
      <trkpt lat="43.96076" lon="5.07431">
        <ele>169.33</ele>
        <time>2012-04-09T06:17:51Z</time>
      </trkpt>
      <trkpt lat="43.96076" lon="5.07431">
        <ele>169.33</ele>
        <time>2012-04-09T06:18:07Z</time>
      </trkpt>
      <trkpt lat="43.96075" lon="5.07432">
        <ele>169.33</ele>
        <time>2012-04-09T06:18:25Z</time>
      </trkpt>
      <trkpt lat="43.96074" lon="5.07433">
        <ele>168.85</ele>
        <time>2012-04-09T06:18:43Z</time>
      </trkpt>
      <trkpt lat="43.96073" lon="5.07434">
        <ele>168.85</ele>
        <time>2012-04-09T06:18:44Z</time>
      </trkpt>
      <trkpt lat="43.96073" lon="5.07436">
        <ele>169.81</ele>
        <time>2012-04-09T06:18:45Z</time>
      </trkpt>
      <trkpt lat="43.96073" lon="5.07437">
        <ele>169.33</ele>
        <time>2012-04-09T06:18:46Z</time>
      </trkpt>
      <trkpt lat="43.96071" lon="5.07439">
        <ele>169.33</ele>
        <time>2012-04-09T06:18:48Z</time>
      </trkpt>
      <trkpt lat="43.9607" lon="5.0744">
        <ele>169.33</ele>
        <time>2012-04-09T06:18:49Z</time>
      </trkpt>
      <trkpt lat="43.96069" lon="5.07442">
        <ele>169.33</ele>
        <time>2012-04-09T06:18:50Z</time>
      </trkpt>
      <trkpt lat="43.96068" lon="5.07445">
        <ele>168.85</ele>
        <time>2012-04-09T06:18:51Z</time>
      </trkpt>
      <trkpt lat="43.96067" lon="5.07447">
        <ele>169.33</ele>
        <time>2012-04-09T06:18:52Z</time>
      </trkpt>
      <trkpt lat="43.96066" lon="5.07451">
        <ele>169.33</ele>
        <time>2012-04-09T06:18:54Z</time>
      </trkpt>
      <trkpt lat="43.96066" lon="5.07453">
        <ele>169.33</ele>
        <time>2012-04-09T06:18:55Z</time>
      </trkpt>
      <trkpt lat="43.96066" lon="5.07456">
        <ele>170.29</ele>
        <time>2012-04-09T06:18:56Z</time>
      </trkpt>
      <trkpt lat="43.96065" lon="5.07459">
        <ele>170.29</ele>
        <time>2012-04-09T06:18:57Z</time>
      </trkpt>
      <trkpt lat="43.96065" lon="5.07461">
        <ele>170.77</ele>
        <time>2012-04-09T06:18:58Z</time>
      </trkpt>
      <trkpt lat="43.96064" lon="5.07463">
        <ele>170.77</ele>
        <time>2012-04-09T06:18:59Z</time>
      </trkpt>
      <trkpt lat="43.96062" lon="5.07466">
        <ele>170.29</ele>
        <time>2012-04-09T06:19:01Z</time>
      </trkpt>
      <trkpt lat="43.96061" lon="5.07469">
        <ele>170.77</ele>
        <time>2012-04-09T06:19:02Z</time>
      </trkpt>
      <trkpt lat="43.9606" lon="5.07471">
        <ele>170.77</ele>
        <time>2012-04-09T06:19:03Z</time>
      </trkpt>
      <trkpt lat="43.9606" lon="5.07474">
        <ele>171.25</ele>
        <time>2012-04-09T06:19:04Z</time>
      </trkpt>
      <trkpt lat="43.9606" lon="5.07476">
        <ele>171.25</ele>
        <time>2012-04-09T06:19:05Z</time>
      </trkpt>
      <trkpt lat="43.9606" lon="5.07479">
        <ele>171.25</ele>
        <time>2012-04-09T06:19:06Z</time>
      </trkpt>
      <trkpt lat="43.9606" lon="5.07481">
        <ele>172.21</ele>
        <time>2012-04-09T06:19:07Z</time>
      </trkpt>
      <trkpt lat="43.96059" lon="5.07483">
        <ele>171.73</ele>
        <time>2012-04-09T06:19:08Z</time>
      </trkpt>
      <trkpt lat="43.96058" lon="5.07485">
        <ele>172.21</ele>
        <time>2012-04-09T06:19:09Z</time>
      </trkpt>
      <trkpt lat="43.96057" lon="5.07487">
        <ele>171.73</ele>
        <time>2012-04-09T06:19:10Z</time>
      </trkpt>
      <trkpt lat="43.96056" lon="5.07488">
        <ele>172.69</ele>
        <time>2012-04-09T06:19:11Z</time>
      </trkpt>
      <trkpt lat="43.96055" lon="5.0749">
        <ele>172.69</ele>
        <time>2012-04-09T06:19:12Z</time>
      </trkpt>
      <trkpt lat="43.96055" lon="5.07494">
        <ele>173.17</ele>
        <time>2012-04-09T06:19:14Z</time>
      </trkpt>
      <trkpt lat="43.96055" lon="5.07496">
        <ele>173.17</ele>
        <time>2012-04-09T06:19:15Z</time>
      </trkpt>
      <trkpt lat="43.96054" lon="5.07498">
        <ele>173.17</ele>
        <time>2012-04-09T06:19:16Z</time>
      </trkpt>
      <trkpt lat="43.96054" lon="5.07498">
        <ele>173.66</ele>
        <time>2012-04-09T06:19:17Z</time>
      </trkpt>
      <trkpt lat="43.96053" lon="5.07499">
        <ele>173.66</ele>
        <time>2012-04-09T06:19:18Z</time>
      </trkpt>
      <trkpt lat="43.96052" lon="5.07501">
        <ele>173.66</ele>
        <time>2012-04-09T06:19:19Z</time>
      </trkpt>
      <trkpt lat="43.96052" lon="5.07503">
        <ele>173.66</ele>
        <time>2012-04-09T06:19:20Z</time>
      </trkpt>
      <trkpt lat="43.9605" lon="5.07504">
        <ele>174.14</ele>
        <time>2012-04-09T06:19:21Z</time>
      </trkpt>
      <trkpt lat="43.9605" lon="5.07509">
        <ele>175.1</ele>
        <time>2012-04-09T06:19:25Z</time>
      </trkpt>
      <trkpt lat="43.96049" lon="5.07513">
        <ele>175.1</ele>
        <time>2012-04-09T06:19:28Z</time>
      </trkpt>
      <trkpt lat="43.96048" lon="5.07515">
        <ele>175.58</ele>
        <time>2012-04-09T06:19:29Z</time>
      </trkpt>
      <trkpt lat="43.96047" lon="5.07517">
        <ele>175.58</ele>
        <time>2012-04-09T06:19:30Z</time>
      </trkpt>
      <trkpt lat="43.96041" lon="5.0753">
        <ele>177.5</ele>
        <time>2012-04-09T06:19:39Z</time>
      </trkpt>
      <trkpt lat="43.96039" lon="5.0753">
        <ele>177.5</ele>
        <time>2012-04-09T06:19:40Z</time>
      </trkpt>
      <trkpt lat="43.96037" lon="5.07534">
        <ele>178.46</ele>
        <time>2012-04-09T06:19:44Z</time>
      </trkpt>
      <trkpt lat="43.96034" lon="5.07538">
        <ele>178.94</ele>
        <time>2012-04-09T06:19:47Z</time>
      </trkpt>
      <trkpt lat="43.96027" lon="5.07557">
        <ele>181.35</ele>
        <time>2012-04-09T06:19:59Z</time>
      </trkpt>
      <trkpt lat="43.96026" lon="5.07558">
        <ele>181.83</ele>
        <time>2012-04-09T06:20:00Z</time>
      </trkpt>
      <trkpt lat="43.96025" lon="5.07559">
        <ele>181.83</ele>
        <time>2012-04-09T06:20:01Z</time>
      </trkpt>
      <trkpt lat="43.96018" lon="5.07567">
        <ele>182.79</ele>
        <time>2012-04-09T06:20:10Z</time>
      </trkpt>
      <trkpt lat="43.96014" lon="5.07572">
        <ele>184.23</ele>
        <time>2012-04-09T06:20:16Z</time>
      </trkpt>
      <trkpt lat="43.96012" lon="5.07577">
        <ele>184.71</ele>
        <time>2012-04-09T06:20:19Z</time>
      </trkpt>
      <trkpt lat="43.96002" lon="5.07591">
        <ele>187.11</ele>
        <time>2012-04-09T06:20:31Z</time>
      </trkpt>
      <trkpt lat="43.95996" lon="5.07596">
        <ele>188.08</ele>
        <time>2012-04-09T06:20:35Z</time>
      </trkpt>
      <trkpt lat="43.95994" lon="5.07599">
        <ele>188.08</ele>
        <time>2012-04-09T06:20:36Z</time>
      </trkpt>
      <trkpt lat="43.95993" lon="5.076">
        <ele>188.08</ele>
        <time>2012-04-09T06:20:37Z</time>
      </trkpt>
      <trkpt lat="43.95992" lon="5.07602">
        <ele>188.08</ele>
        <time>2012-04-09T06:20:38Z</time>
      </trkpt>
      <trkpt lat="43.9599" lon="5.07603">
        <ele>188.56</ele>
        <time>2012-04-09T06:20:39Z</time>
      </trkpt>
      <trkpt lat="43.95984" lon="5.07611">
        <ele>190</ele>
        <time>2012-04-09T06:20:45Z</time>
      </trkpt>
      <trkpt lat="43.95981" lon="5.07621">
        <ele>190.96</ele>
        <time>2012-04-09T06:20:53Z</time>
      </trkpt>
      <trkpt lat="43.95978" lon="5.07628">
        <ele>191.44</ele>
        <time>2012-04-09T06:20:56Z</time>
      </trkpt>
      <trkpt lat="43.95969" lon="5.07646">
        <ele>193.84</ele>
        <time>2012-04-09T06:21:06Z</time>
      </trkpt>
      <trkpt lat="43.95965" lon="5.07652">
        <ele>194.8</ele>
        <time>2012-04-09T06:21:11Z</time>
      </trkpt>
      <trkpt lat="43.95956" lon="5.07661">
        <ele>194.32</ele>
        <time>2012-04-09T06:21:17Z</time>
      </trkpt>
      <trkpt lat="43.95952" lon="5.07665">
        <ele>195.77</ele>
        <time>2012-04-09T06:21:19Z</time>
      </trkpt>
      <trkpt lat="43.95941" lon="5.07689">
        <ele>195.77</ele>
        <time>2012-04-09T06:21:28Z</time>
      </trkpt>
      <trkpt lat="43.95937" lon="5.07705">
        <ele>196.25</ele>
        <time>2012-04-09T06:21:33Z</time>
      </trkpt>
      <trkpt lat="43.95935" lon="5.07716">
        <ele>195.77</ele>
        <time>2012-04-09T06:21:37Z</time>
      </trkpt>
      <trkpt lat="43.95933" lon="5.07725">
        <ele>196.25</ele>
        <time>2012-04-09T06:21:40Z</time>
      </trkpt>
      <trkpt lat="43.95929" lon="5.0774">
        <ele>197.21</ele>
        <time>2012-04-09T06:21:46Z</time>
      </trkpt>
      <trkpt lat="43.95928" lon="5.07748">
        <ele>198.17</ele>
        <time>2012-04-09T06:21:49Z</time>
      </trkpt>
      <trkpt lat="43.95927" lon="5.07759">
        <ele>199.61</ele>
        <time>2012-04-09T06:21:53Z</time>
      </trkpt>
      <trkpt lat="43.95927" lon="5.07769">
        <ele>199.13</ele>
        <time>2012-04-09T06:21:57Z</time>
      </trkpt>
      <trkpt lat="43.95929" lon="5.07785">
        <ele>200.09</ele>
        <time>2012-04-09T06:22:08Z</time>
      </trkpt>
      <trkpt lat="43.9593" lon="5.0779">
        <ele>200.09</ele>
        <time>2012-04-09T06:22:11Z</time>
      </trkpt>
      <trkpt lat="43.95935" lon="5.07809">
        <ele>199.13</ele>
        <time>2012-04-09T06:22:18Z</time>
      </trkpt>
      <trkpt lat="43.95944" lon="5.0783">
        <ele>198.17</ele>
        <time>2012-04-09T06:22:26Z</time>
      </trkpt>
      <trkpt lat="43.9595" lon="5.0784">
        <ele>197.69</ele>
        <time>2012-04-09T06:22:30Z</time>
      </trkpt>
      <trkpt lat="43.95953" lon="5.07845">
        <ele>197.69</ele>
        <time>2012-04-09T06:22:32Z</time>
      </trkpt>
      <trkpt lat="43.95958" lon="5.07852">
        <ele>197.21</ele>
        <time>2012-04-09T06:22:36Z</time>
      </trkpt>
      <trkpt lat="43.95978" lon="5.07873">
        <ele>197.21</ele>
        <time>2012-04-09T06:22:47Z</time>
      </trkpt>
      <trkpt lat="43.95987" lon="5.07884">
        <ele>197.21</ele>
        <time>2012-04-09T06:22:53Z</time>
      </trkpt>
      <trkpt lat="43.95996" lon="5.07896">
        <ele>198.17</ele>
        <time>2012-04-09T06:22:59Z</time>
      </trkpt>
      <trkpt lat="43.96006" lon="5.07904">
        <ele>198.17</ele>
        <time>2012-04-09T06:23:05Z</time>
      </trkpt>
      <trkpt lat="43.96018" lon="5.07911">
        <ele>198.65</ele>
        <time>2012-04-09T06:23:11Z</time>
      </trkpt>
      <trkpt lat="43.96027" lon="5.07913">
        <ele>198.65</ele>
        <time>2012-04-09T06:23:15Z</time>
      </trkpt>
      <trkpt lat="43.96047" lon="5.07924">
        <ele>198.17</ele>
        <time>2012-04-09T06:23:26Z</time>
      </trkpt>
      <trkpt lat="43.96064" lon="5.07929">
        <ele>197.69</ele>
        <time>2012-04-09T06:23:34Z</time>
      </trkpt>
      <trkpt lat="43.96075" lon="5.07931">
        <ele>197.21</ele>
        <time>2012-04-09T06:23:40Z</time>
      </trkpt>
      <trkpt lat="43.96091" lon="5.07936">
        <ele>195.77</ele>
        <time>2012-04-09T06:23:49Z</time>
      </trkpt>
      <trkpt lat="43.96104" lon="5.07938">
        <ele>193.84</ele>
        <time>2012-04-09T06:23:58Z</time>
      </trkpt>
      <trkpt lat="43.96119" lon="5.07944">
        <ele>192.88</ele>
        <time>2012-04-09T06:24:11Z</time>
      </trkpt>
      <trkpt lat="43.9612" lon="5.07947">
        <ele>191.92</ele>
        <time>2012-04-09T06:24:13Z</time>
      </trkpt>
      <trkpt lat="43.96119" lon="5.07961">
        <ele>191.44</ele>
        <time>2012-04-09T06:24:19Z</time>
      </trkpt>
      <trkpt lat="43.9611" lon="5.07982">
        <ele>190.96</ele>
        <time>2012-04-09T06:24:29Z</time>
      </trkpt>
      <trkpt lat="43.96108" lon="5.07987">
        <ele>190</ele>
        <time>2012-04-09T06:24:31Z</time>
      </trkpt>
      <trkpt lat="43.96104" lon="5.07995">
        <ele>190</ele>
        <time>2012-04-09T06:24:35Z</time>
      </trkpt>
      <trkpt lat="43.96101" lon="5.08">
        <ele>189.52</ele>
        <time>2012-04-09T06:24:37Z</time>
      </trkpt>
      <trkpt lat="43.96093" lon="5.08019">
        <ele>189.04</ele>
        <time>2012-04-09T06:24:45Z</time>
      </trkpt>
      <trkpt lat="43.96091" lon="5.08029">
        <ele>188.56</ele>
        <time>2012-04-09T06:24:49Z</time>
      </trkpt>
      <trkpt lat="43.96089" lon="5.08042">
        <ele>187.59</ele>
        <time>2012-04-09T06:24:53Z</time>
      </trkpt>
      <trkpt lat="43.96089" lon="5.08048">
        <ele>188.08</ele>
        <time>2012-04-09T06:24:55Z</time>
      </trkpt>
      <trkpt lat="43.96094" lon="5.08064">
        <ele>188.08</ele>
        <time>2012-04-09T06:25:00Z</time>
      </trkpt>
      <trkpt lat="43.96107" lon="5.0809">
        <ele>187.59</ele>
        <time>2012-04-09T06:25:10Z</time>
      </trkpt>
      <trkpt lat="43.96113" lon="5.08101">
        <ele>187.11</ele>
        <time>2012-04-09T06:25:14Z</time>
      </trkpt>
      <trkpt lat="43.96126" lon="5.08125">
        <ele>188.08</ele>
        <time>2012-04-09T06:25:25Z</time>
      </trkpt>
      <trkpt lat="43.96136" lon="5.08146">
        <ele>188.56</ele>
        <time>2012-04-09T06:25:34Z</time>
      </trkpt>
      <trkpt lat="43.96138" lon="5.08151">
        <ele>188.56</ele>
        <time>2012-04-09T06:25:36Z</time>
      </trkpt>
      <trkpt lat="43.96142" lon="5.0816">
        <ele>189.04</ele>
        <time>2012-04-09T06:25:41Z</time>
      </trkpt>
      <trkpt lat="43.96147" lon="5.0817">
        <ele>189.52</ele>
        <time>2012-04-09T06:25:45Z</time>
      </trkpt>
      <trkpt lat="43.96155" lon="5.08187">
        <ele>189.52</ele>
        <time>2012-04-09T06:25:51Z</time>
      </trkpt>
      <trkpt lat="43.9616" lon="5.08196">
        <ele>189.52</ele>
        <time>2012-04-09T06:25:55Z</time>
      </trkpt>
      <trkpt lat="43.96167" lon="5.08214">
        <ele>189.52</ele>
        <time>2012-04-09T06:26:02Z</time>
      </trkpt>
      <trkpt lat="43.96173" lon="5.0823">
        <ele>190.96</ele>
        <time>2012-04-09T06:26:08Z</time>
      </trkpt>
      <trkpt lat="43.96177" lon="5.08253">
        <ele>192.4</ele>
        <time>2012-04-09T06:26:17Z</time>
      </trkpt>
      <trkpt lat="43.96179" lon="5.08271">
        <ele>193.84</ele>
        <time>2012-04-09T06:26:25Z</time>
      </trkpt>
      <trkpt lat="43.9618" lon="5.08283">
        <ele>194.8</ele>
        <time>2012-04-09T06:26:30Z</time>
      </trkpt>
      <trkpt lat="43.96178" lon="5.08302">
        <ele>196.25</ele>
        <time>2012-04-09T06:26:38Z</time>
      </trkpt>
      <trkpt lat="43.96179" lon="5.08312">
        <ele>197.21</ele>
        <time>2012-04-09T06:26:42Z</time>
      </trkpt>
      <trkpt lat="43.96181" lon="5.08334">
        <ele>199.13</ele>
        <time>2012-04-09T06:26:51Z</time>
      </trkpt>
      <trkpt lat="43.96181" lon="5.08339">
        <ele>199.13</ele>
        <time>2012-04-09T06:26:53Z</time>
      </trkpt>
      <trkpt lat="43.96182" lon="5.08347">
        <ele>200.09</ele>
        <time>2012-04-09T06:26:57Z</time>
      </trkpt>
      <trkpt lat="43.96186" lon="5.08366">
        <ele>202.01</ele>
        <time>2012-04-09T06:27:06Z</time>
      </trkpt>
      <trkpt lat="43.96188" lon="5.08372">
        <ele>202.01</ele>
        <time>2012-04-09T06:27:09Z</time>
      </trkpt>
      <trkpt lat="43.96192" lon="5.08383">
        <ele>202.98</ele>
        <time>2012-04-09T06:27:14Z</time>
      </trkpt>
      <trkpt lat="43.96195" lon="5.08393">
        <ele>203.46</ele>
        <time>2012-04-09T06:27:19Z</time>
      </trkpt>
      <trkpt lat="43.96207" lon="5.08415">
        <ele>205.38</ele>
        <time>2012-04-09T06:27:30Z</time>
      </trkpt>
      <trkpt lat="43.96209" lon="5.08418">
        <ele>204.9</ele>
        <time>2012-04-09T06:27:31Z</time>
      </trkpt>
      <trkpt lat="43.96213" lon="5.08425">
        <ele>205.86</ele>
        <time>2012-04-09T06:27:35Z</time>
      </trkpt>
      <trkpt lat="43.96219" lon="5.08437">
        <ele>206.34</ele>
        <time>2012-04-09T06:27:40Z</time>
      </trkpt>
      <trkpt lat="43.96222" lon="5.08445">
        <ele>206.82</ele>
        <time>2012-04-09T06:27:44Z</time>
      </trkpt>
      <trkpt lat="43.96228" lon="5.08458">
        <ele>208.26</ele>
        <time>2012-04-09T06:27:51Z</time>
      </trkpt>
      <trkpt lat="43.96232" lon="5.08467">
        <ele>208.74</ele>
        <time>2012-04-09T06:27:56Z</time>
      </trkpt>
      <trkpt lat="43.96241" lon="5.08484">
        <ele>210.19</ele>
        <time>2012-04-09T06:28:04Z</time>
      </trkpt>
      <trkpt lat="43.96248" lon="5.08507">
        <ele>212.11</ele>
        <time>2012-04-09T06:28:14Z</time>
      </trkpt>
      <trkpt lat="43.96255" lon="5.08521">
        <ele>214.03</ele>
        <time>2012-04-09T06:28:22Z</time>
      </trkpt>
      <trkpt lat="43.96256" lon="5.08523">
        <ele>214.03</ele>
        <time>2012-04-09T06:28:23Z</time>
      </trkpt>
      <trkpt lat="43.96266" lon="5.08543">
        <ele>215.47</ele>
        <time>2012-04-09T06:28:32Z</time>
      </trkpt>
      <trkpt lat="43.9628" lon="5.08566">
        <ele>218.36</ele>
        <time>2012-04-09T06:28:43Z</time>
      </trkpt>
      <trkpt lat="43.96288" lon="5.08569">
        <ele>219.32</ele>
        <time>2012-04-09T06:28:47Z</time>
      </trkpt>
      <trkpt lat="43.96302" lon="5.08586">
        <ele>221.24</ele>
        <time>2012-04-09T06:28:56Z</time>
      </trkpt>
      <trkpt lat="43.96321" lon="5.08606">
        <ele>223.16</ele>
        <time>2012-04-09T06:29:08Z</time>
      </trkpt>
      <trkpt lat="43.96335" lon="5.08619">
        <ele>224.12</ele>
        <time>2012-04-09T06:29:17Z</time>
      </trkpt>
      <trkpt lat="43.96347" lon="5.08634">
        <ele>226.05</ele>
        <time>2012-04-09T06:29:25Z</time>
      </trkpt>
      <trkpt lat="43.96361" lon="5.08642">
        <ele>227.01</ele>
        <time>2012-04-09T06:29:33Z</time>
      </trkpt>
      <trkpt lat="43.96373" lon="5.08649">
        <ele>227.97</ele>
        <time>2012-04-09T06:29:41Z</time>
      </trkpt>
      <trkpt lat="43.96386" lon="5.08655">
        <ele>229.89</ele>
        <time>2012-04-09T06:29:49Z</time>
      </trkpt>
      <trkpt lat="43.96394" lon="5.08662">
        <ele>231.81</ele>
        <time>2012-04-09T06:29:55Z</time>
      </trkpt>
      <trkpt lat="43.96396" lon="5.08667">
        <ele>231.81</ele>
        <time>2012-04-09T06:29:58Z</time>
      </trkpt>
      <trkpt lat="43.96405" lon="5.08685">
        <ele>234.7</ele>
        <time>2012-04-09T06:30:08Z</time>
      </trkpt>
      <trkpt lat="43.96406" lon="5.08687">
        <ele>234.7</ele>
        <time>2012-04-09T06:30:09Z</time>
      </trkpt>
      <trkpt lat="43.96416" lon="5.08699">
        <ele>236.14</ele>
        <time>2012-04-09T06:30:16Z</time>
      </trkpt>
      <trkpt lat="43.96427" lon="5.0871">
        <ele>238.54</ele>
        <time>2012-04-09T06:30:24Z</time>
      </trkpt>
      <trkpt lat="43.96434" lon="5.08714">
        <ele>239.02</ele>
        <time>2012-04-09T06:30:28Z</time>
      </trkpt>
      <trkpt lat="43.96443" lon="5.08718">
        <ele>240.47</ele>
        <time>2012-04-09T06:30:33Z</time>
      </trkpt>
      <trkpt lat="43.96449" lon="5.0872">
        <ele>241.43</ele>
        <time>2012-04-09T06:30:37Z</time>
      </trkpt>
      <trkpt lat="43.96454" lon="5.08722">
        <ele>242.39</ele>
        <time>2012-04-09T06:30:40Z</time>
      </trkpt>
      <trkpt lat="43.96457" lon="5.08723">
        <ele>242.39</ele>
        <time>2012-04-09T06:30:42Z</time>
      </trkpt>
      <trkpt lat="43.96471" lon="5.08725">
        <ele>245.27</ele>
        <time>2012-04-09T06:30:51Z</time>
      </trkpt>
      <trkpt lat="43.96484" lon="5.08734">
        <ele>246.72</ele>
        <time>2012-04-09T06:31:00Z</time>
      </trkpt>
      <trkpt lat="43.96494" lon="5.08742">
        <ele>248.16</ele>
        <time>2012-04-09T06:31:08Z</time>
      </trkpt>
      <trkpt lat="43.96508" lon="5.08754">
        <ele>250.56</ele>
        <time>2012-04-09T06:31:22Z</time>
      </trkpt>
      <trkpt lat="43.96515" lon="5.08759">
        <ele>251.04</ele>
        <time>2012-04-09T06:31:28Z</time>
      </trkpt>
      <trkpt lat="43.96525" lon="5.08771">
        <ele>252</ele>
        <time>2012-04-09T06:31:41Z</time>
      </trkpt>
      <trkpt lat="43.96525" lon="5.08773">
        <ele>252.48</ele>
        <time>2012-04-09T06:31:43Z</time>
      </trkpt>
      <trkpt lat="43.96525" lon="5.08776">
        <ele>252.48</ele>
        <time>2012-04-09T06:31:45Z</time>
      </trkpt>
      <trkpt lat="43.96523" lon="5.08782">
        <ele>252.48</ele>
        <time>2012-04-09T06:31:51Z</time>
      </trkpt>
      <trkpt lat="43.96509" lon="5.08793">
        <ele>253.44</ele>
        <time>2012-04-09T06:32:00Z</time>
      </trkpt>
      <trkpt lat="43.965" lon="5.08797">
        <ele>253.44</ele>
        <time>2012-04-09T06:32:04Z</time>
      </trkpt>
      <trkpt lat="43.96484" lon="5.08802">
        <ele>253.93</ele>
        <time>2012-04-09T06:32:12Z</time>
      </trkpt>
      <trkpt lat="43.96475" lon="5.08803">
        <ele>254.41</ele>
        <time>2012-04-09T06:32:16Z</time>
      </trkpt>
      <trkpt lat="43.96462" lon="5.08817">
        <ele>255.37</ele>
        <time>2012-04-09T06:32:24Z</time>
      </trkpt>
      <trkpt lat="43.96455" lon="5.0883">
        <ele>256.81</ele>
        <time>2012-04-09T06:32:30Z</time>
      </trkpt>
      <trkpt lat="43.96447" lon="5.08853">
        <ele>259.21</ele>
        <time>2012-04-09T06:32:40Z</time>
      </trkpt>
      <trkpt lat="43.96443" lon="5.0886">
        <ele>260.17</ele>
        <time>2012-04-09T06:32:44Z</time>
      </trkpt>
      <trkpt lat="43.96441" lon="5.08866">
        <ele>262.1</ele>
        <time>2012-04-09T06:32:48Z</time>
      </trkpt>
      <trkpt lat="43.96438" lon="5.08877">
        <ele>262.1</ele>
        <time>2012-04-09T06:32:55Z</time>
      </trkpt>
      <trkpt lat="43.96436" lon="5.08882">
        <ele>263.06</ele>
        <time>2012-04-09T06:32:59Z</time>
      </trkpt>
      <trkpt lat="43.96434" lon="5.08887">
        <ele>263.54</ele>
        <time>2012-04-09T06:33:03Z</time>
      </trkpt>
      <trkpt lat="43.96425" lon="5.08902">
        <ele>265.46</ele>
        <time>2012-04-09T06:33:12Z</time>
      </trkpt>
      <trkpt lat="43.9642" lon="5.08912">
        <ele>266.42</ele>
        <time>2012-04-09T06:33:17Z</time>
      </trkpt>
      <trkpt lat="43.96414" lon="5.08923">
        <ele>267.38</ele>
        <time>2012-04-09T06:33:23Z</time>
      </trkpt>
      <trkpt lat="43.96411" lon="5.08927">
        <ele>268.35</ele>
        <time>2012-04-09T06:33:25Z</time>
      </trkpt>
      <trkpt lat="43.96405" lon="5.08943">
        <ele>270.27</ele>
        <time>2012-04-09T06:33:34Z</time>
      </trkpt>
      <trkpt lat="43.96403" lon="5.08946">
        <ele>270.27</ele>
        <time>2012-04-09T06:33:36Z</time>
      </trkpt>
      <trkpt lat="43.96399" lon="5.08952">
        <ele>270.75</ele>
        <time>2012-04-09T06:33:42Z</time>
      </trkpt>
      <trkpt lat="43.96397" lon="5.08954">
        <ele>270.75</ele>
        <time>2012-04-09T06:33:44Z</time>
      </trkpt>
      <trkpt lat="43.96396" lon="5.08959">
        <ele>272.19</ele>
        <time>2012-04-09T06:33:48Z</time>
      </trkpt>
      <trkpt lat="43.96391" lon="5.08965">
        <ele>273.15</ele>
        <time>2012-04-09T06:34:00Z</time>
      </trkpt>
      <trkpt lat="43.9639" lon="5.0897">
        <ele>273.63</ele>
        <time>2012-04-09T06:34:04Z</time>
      </trkpt>
      <trkpt lat="43.96386" lon="5.08977">
        <ele>274.11</ele>
        <time>2012-04-09T06:34:17Z</time>
      </trkpt>
      <trkpt lat="43.96386" lon="5.0898">
        <ele>274.11</ele>
        <time>2012-04-09T06:34:21Z</time>
      </trkpt>
      <trkpt lat="43.96384" lon="5.09002">
        <ele>274.59</ele>
        <time>2012-04-09T06:34:30Z</time>
      </trkpt>
      <trkpt lat="43.96384" lon="5.09005">
        <ele>274.59</ele>
        <time>2012-04-09T06:34:31Z</time>
      </trkpt>
      <trkpt lat="43.96378" lon="5.09023">
        <ele>275.07</ele>
        <time>2012-04-09T06:34:37Z</time>
      </trkpt>
      <trkpt lat="43.96379" lon="5.09041">
        <ele>276.04</ele>
        <time>2012-04-09T06:34:44Z</time>
      </trkpt>
      <trkpt lat="43.96382" lon="5.09063">
        <ele>276.52</ele>
        <time>2012-04-09T06:34:53Z</time>
      </trkpt>
      <trkpt lat="43.96382" lon="5.0907">
        <ele>276.04</ele>
        <time>2012-04-09T06:34:56Z</time>
      </trkpt>
      <trkpt lat="43.96381" lon="5.09076">
        <ele>277</ele>
        <time>2012-04-09T06:35:01Z</time>
      </trkpt>
      <trkpt lat="43.96378" lon="5.09081">
        <ele>277.48</ele>
        <time>2012-04-09T06:35:06Z</time>
      </trkpt>
      <trkpt lat="43.96367" lon="5.09084">
        <ele>277.96</ele>
        <time>2012-04-09T06:35:14Z</time>
      </trkpt>
      <trkpt lat="43.9636" lon="5.09088">
        <ele>277.96</ele>
        <time>2012-04-09T06:35:17Z</time>
      </trkpt>
      <trkpt lat="43.96355" lon="5.09112">
        <ele>277.96</ele>
        <time>2012-04-09T06:35:26Z</time>
      </trkpt>
      <trkpt lat="43.96358" lon="5.09134">
        <ele>277</ele>
        <time>2012-04-09T06:35:34Z</time>
      </trkpt>
      <trkpt lat="43.96353" lon="5.09139">
        <ele>276.04</ele>
        <time>2012-04-09T06:35:38Z</time>
      </trkpt>
      <trkpt lat="43.96349" lon="5.09164">
        <ele>273.63</ele>
        <time>2012-04-09T06:35:46Z</time>
      </trkpt>
      <trkpt lat="43.96356" lon="5.09185">
        <ele>274.11</ele>
        <time>2012-04-09T06:35:53Z</time>
      </trkpt>
      <trkpt lat="43.96358" lon="5.0921">
        <ele>275.07</ele>
        <time>2012-04-09T06:36:04Z</time>
      </trkpt>
      <trkpt lat="43.96358" lon="5.09218">
        <ele>274.11</ele>
        <time>2012-04-09T06:36:07Z</time>
      </trkpt>
      <trkpt lat="43.96355" lon="5.09238">
        <ele>274.11</ele>
        <time>2012-04-09T06:36:19Z</time>
      </trkpt>
      <trkpt lat="43.96355" lon="5.09238">
        <ele>274.11</ele>
        <time>2012-04-09T06:36:46Z</time>
      </trkpt>
      <trkpt lat="43.96359" lon="5.09238">
        <ele>274.11</ele>
        <time>2012-04-09T06:36:52Z</time>
      </trkpt>
      <trkpt lat="43.96362" lon="5.09232">
        <ele>274.11</ele>
        <time>2012-04-09T06:37:01Z</time>
      </trkpt>
      <trkpt lat="43.96365" lon="5.09225">
        <ele>274.11</ele>
        <time>2012-04-09T06:37:06Z</time>
      </trkpt>
      <trkpt lat="43.96366" lon="5.09198">
        <ele>273.63</ele>
        <time>2012-04-09T06:37:17Z</time>
      </trkpt>
      <trkpt lat="43.96363" lon="5.09172">
        <ele>274.11</ele>
        <time>2012-04-09T06:37:26Z</time>
      </trkpt>
      <trkpt lat="43.96361" lon="5.09154">
        <ele>276.04</ele>
        <time>2012-04-09T06:37:34Z</time>
      </trkpt>
      <trkpt lat="43.96361" lon="5.0915">
        <ele>277.48</ele>
        <time>2012-04-09T06:37:41Z</time>
      </trkpt>
      <trkpt lat="43.96361" lon="5.09121">
        <ele>277.96</ele>
        <time>2012-04-09T06:37:50Z</time>
      </trkpt>
      <trkpt lat="43.96364" lon="5.09118">
        <ele>277.96</ele>
        <time>2012-04-09T06:37:54Z</time>
      </trkpt>
      <trkpt lat="43.96374" lon="5.09139">
        <ele>277.96</ele>
        <time>2012-04-09T06:38:04Z</time>
      </trkpt>
      <trkpt lat="43.96375" lon="5.09141">
        <ele>277.96</ele>
        <time>2012-04-09T06:38:05Z</time>
      </trkpt>
      <trkpt lat="43.9638" lon="5.09149">
        <ele>278.44</ele>
        <time>2012-04-09T06:38:10Z</time>
      </trkpt>
      <trkpt lat="43.9639" lon="5.09154">
        <ele>278.44</ele>
        <time>2012-04-09T06:38:16Z</time>
      </trkpt>
      <trkpt lat="43.96395" lon="5.09156">
        <ele>278.92</ele>
        <time>2012-04-09T06:38:19Z</time>
      </trkpt>
      <trkpt lat="43.96411" lon="5.09162">
        <ele>278.92</ele>
        <time>2012-04-09T06:38:28Z</time>
      </trkpt>
      <trkpt lat="43.96413" lon="5.09162">
        <ele>279.4</ele>
        <time>2012-04-09T06:38:29Z</time>
      </trkpt>
      <trkpt lat="43.96421" lon="5.09168">
        <ele>278.92</ele>
        <time>2012-04-09T06:38:34Z</time>
      </trkpt>
      <trkpt lat="43.9643" lon="5.09167">
        <ele>278.92</ele>
        <time>2012-04-09T06:38:41Z</time>
      </trkpt>
      <trkpt lat="43.9644" lon="5.09173">
        <ele>278.92</ele>
        <time>2012-04-09T06:38:47Z</time>
      </trkpt>
      <trkpt lat="43.9644" lon="5.09181">
        <ele>278.92</ele>
        <time>2012-04-09T06:38:51Z</time>
      </trkpt>
      <trkpt lat="43.96441" lon="5.09191">
        <ele>278.44</ele>
        <time>2012-04-09T06:38:55Z</time>
      </trkpt>
      <trkpt lat="43.96454" lon="5.0921">
        <ele>278.92</ele>
        <time>2012-04-09T06:39:05Z</time>
      </trkpt>
      <trkpt lat="43.96466" lon="5.09203">
        <ele>279.4</ele>
        <time>2012-04-09T06:39:12Z</time>
      </trkpt>
      <trkpt lat="43.96469" lon="5.092">
        <ele>278.44</ele>
        <time>2012-04-09T06:39:15Z</time>
      </trkpt>
      <trkpt lat="43.96471" lon="5.09199">
        <ele>278.92</ele>
        <time>2012-04-09T06:39:17Z</time>
      </trkpt>
      <trkpt lat="43.96476" lon="5.09197">
        <ele>278.44</ele>
        <time>2012-04-09T06:39:22Z</time>
      </trkpt>
      <trkpt lat="43.9648" lon="5.09191">
        <ele>277.96</ele>
        <time>2012-04-09T06:39:29Z</time>
      </trkpt>
      <trkpt lat="43.96482" lon="5.0919">
        <ele>277</ele>
        <time>2012-04-09T06:39:31Z</time>
      </trkpt>
      <trkpt lat="43.96497" lon="5.09193">
        <ele>276.04</ele>
        <time>2012-04-09T06:39:39Z</time>
      </trkpt>
      <trkpt lat="43.96501" lon="5.09193">
        <ele>275.07</ele>
        <time>2012-04-09T06:39:41Z</time>
      </trkpt>
      <trkpt lat="43.96518" lon="5.09185">
        <ele>274.59</ele>
        <time>2012-04-09T06:39:49Z</time>
      </trkpt>
      <trkpt lat="43.9652" lon="5.09186">
        <ele>274.59</ele>
        <time>2012-04-09T06:39:50Z</time>
      </trkpt>
      <trkpt lat="43.96537" lon="5.09198">
        <ele>274.59</ele>
        <time>2012-04-09T06:39:59Z</time>
      </trkpt>
      <trkpt lat="43.96552" lon="5.09207">
        <ele>275.07</ele>
        <time>2012-04-09T06:40:06Z</time>
      </trkpt>
      <trkpt lat="43.96559" lon="5.09211">
        <ele>275.07</ele>
        <time>2012-04-09T06:40:10Z</time>
      </trkpt>
      <trkpt lat="43.96563" lon="5.09214">
        <ele>275.07</ele>
        <time>2012-04-09T06:40:13Z</time>
      </trkpt>
      <trkpt lat="43.96585" lon="5.09225">
        <ele>276.52</ele>
        <time>2012-04-09T06:40:23Z</time>
      </trkpt>
      <trkpt lat="43.966" lon="5.09232">
        <ele>277</ele>
        <time>2012-04-09T06:40:30Z</time>
      </trkpt>
      <trkpt lat="43.96613" lon="5.09239">
        <ele>278.44</ele>
        <time>2012-04-09T06:40:37Z</time>
      </trkpt>
      <trkpt lat="43.96623" lon="5.09238">
        <ele>279.4</ele>
        <time>2012-04-09T06:40:42Z</time>
      </trkpt>
      <trkpt lat="43.96631" lon="5.09239">
        <ele>280.36</ele>
        <time>2012-04-09T06:40:47Z</time>
      </trkpt>
      <trkpt lat="43.96636" lon="5.09239">
        <ele>279.88</ele>
        <time>2012-04-09T06:40:49Z</time>
      </trkpt>
      <trkpt lat="43.96646" lon="5.09246">
        <ele>280.84</ele>
        <time>2012-04-09T06:40:54Z</time>
      </trkpt>
      <trkpt lat="43.96663" lon="5.09254">
        <ele>280.36</ele>
        <time>2012-04-09T06:41:01Z</time>
      </trkpt>
      <trkpt lat="43.9667" lon="5.09259">
        <ele>279.88</ele>
        <time>2012-04-09T06:41:04Z</time>
      </trkpt>
      <trkpt lat="43.96674" lon="5.09261">
        <ele>279.88</ele>
        <time>2012-04-09T06:41:06Z</time>
      </trkpt>
      <trkpt lat="43.96682" lon="5.09264">
        <ele>280.84</ele>
        <time>2012-04-09T06:41:10Z</time>
      </trkpt>
      <trkpt lat="43.96701" lon="5.09272">
        <ele>279.88</ele>
        <time>2012-04-09T06:41:19Z</time>
      </trkpt>
      <trkpt lat="43.96712" lon="5.09284">
        <ele>278.92</ele>
        <time>2012-04-09T06:41:29Z</time>
      </trkpt>
      <trkpt lat="43.96716" lon="5.0929">
        <ele>277.48</ele>
        <time>2012-04-09T06:41:39Z</time>
      </trkpt>
      <trkpt lat="43.96714" lon="5.09296">
        <ele>277.48</ele>
        <time>2012-04-09T06:41:43Z</time>
      </trkpt>
      <trkpt lat="43.96705" lon="5.09308">
        <ele>275.56</ele>
        <time>2012-04-09T06:41:56Z</time>
      </trkpt>
      <trkpt lat="43.96691" lon="5.09328">
        <ele>273.15</ele>
        <time>2012-04-09T06:42:09Z</time>
      </trkpt>
      <trkpt lat="43.96688" lon="5.09331">
        <ele>272.67</ele>
        <time>2012-04-09T06:42:11Z</time>
      </trkpt>
      <trkpt lat="43.96677" lon="5.09341">
        <ele>270.27</ele>
        <time>2012-04-09T06:42:17Z</time>
      </trkpt>
      <trkpt lat="43.96663" lon="5.09358">
        <ele>268.83</ele>
        <time>2012-04-09T06:42:26Z</time>
      </trkpt>
      <trkpt lat="43.96659" lon="5.09361">
        <ele>267.38</ele>
        <time>2012-04-09T06:42:28Z</time>
      </trkpt>
      <trkpt lat="43.96649" lon="5.09374">
        <ele>266.9</ele>
        <time>2012-04-09T06:42:35Z</time>
      </trkpt>
      <trkpt lat="43.96635" lon="5.09389">
        <ele>266.9</ele>
        <time>2012-04-09T06:42:42Z</time>
      </trkpt>
      <trkpt lat="43.96634" lon="5.09403">
        <ele>265.46</ele>
        <time>2012-04-09T06:42:50Z</time>
      </trkpt>
      <trkpt lat="43.9663" lon="5.09413">
        <ele>264.98</ele>
        <time>2012-04-09T06:42:55Z</time>
      </trkpt>
      <trkpt lat="43.9662" lon="5.09428">
        <ele>262.58</ele>
        <time>2012-04-09T06:43:05Z</time>
      </trkpt>
      <trkpt lat="43.96608" lon="5.09424">
        <ele>260.17</ele>
        <time>2012-04-09T06:43:11Z</time>
      </trkpt>
      <trkpt lat="43.96597" lon="5.09423">
        <ele>257.77</ele>
        <time>2012-04-09T06:43:17Z</time>
      </trkpt>
      <trkpt lat="43.96596" lon="5.09422">
        <ele>257.77</ele>
        <time>2012-04-09T06:43:18Z</time>
      </trkpt>
      <trkpt lat="43.96587" lon="5.09425">
        <ele>255.85</ele>
        <time>2012-04-09T06:43:24Z</time>
      </trkpt>
      <trkpt lat="43.9657" lon="5.09426">
        <ele>253.44</ele>
        <time>2012-04-09T06:43:29Z</time>
      </trkpt>
      <trkpt lat="43.96557" lon="5.09427">
        <ele>251.52</ele>
        <time>2012-04-09T06:43:34Z</time>
      </trkpt>
      <trkpt lat="43.96535" lon="5.0943">
        <ele>251.04</ele>
        <time>2012-04-09T06:43:43Z</time>
      </trkpt>
      <trkpt lat="43.96533" lon="5.09431">
        <ele>250.56</ele>
        <time>2012-04-09T06:43:44Z</time>
      </trkpt>
      <trkpt lat="43.96529" lon="5.09434">
        <ele>252</ele>
        <time>2012-04-09T06:43:47Z</time>
      </trkpt>
      <trkpt lat="43.96525" lon="5.09438">
        <ele>252.48</ele>
        <time>2012-04-09T06:43:50Z</time>
      </trkpt>
      <trkpt lat="43.96508" lon="5.09445">
        <ele>254.89</ele>
        <time>2012-04-09T06:43:59Z</time>
      </trkpt>
      <trkpt lat="43.96502" lon="5.09446">
        <ele>254.89</ele>
        <time>2012-04-09T06:44:01Z</time>
      </trkpt>
      <trkpt lat="43.96485" lon="5.09455">
        <ele>256.33</ele>
        <time>2012-04-09T06:44:08Z</time>
      </trkpt>
      <trkpt lat="43.96476" lon="5.09455">
        <ele>256.81</ele>
        <time>2012-04-09T06:44:12Z</time>
      </trkpt>
      <trkpt lat="43.96456" lon="5.09455">
        <ele>257.29</ele>
        <time>2012-04-09T06:44:20Z</time>
      </trkpt>
      <trkpt lat="43.9645" lon="5.09456">
        <ele>257.77</ele>
        <time>2012-04-09T06:44:22Z</time>
      </trkpt>
      <trkpt lat="43.96444" lon="5.09457">
        <ele>258.25</ele>
        <time>2012-04-09T06:44:25Z</time>
      </trkpt>
      <trkpt lat="43.96429" lon="5.09451">
        <ele>259.21</ele>
        <time>2012-04-09T06:44:31Z</time>
      </trkpt>
      <trkpt lat="43.96422" lon="5.09457">
        <ele>260.65</ele>
        <time>2012-04-09T06:44:36Z</time>
      </trkpt>
      <trkpt lat="43.96426" lon="5.0948">
        <ele>261.62</ele>
        <time>2012-04-09T06:44:44Z</time>
      </trkpt>
      <trkpt lat="43.96434" lon="5.09496">
        <ele>263.54</ele>
        <time>2012-04-09T06:44:51Z</time>
      </trkpt>
      <trkpt lat="43.96437" lon="5.09503">
        <ele>264.5</ele>
        <time>2012-04-09T06:44:54Z</time>
      </trkpt>
      <trkpt lat="43.96449" lon="5.09521">
        <ele>265.46</ele>
        <time>2012-04-09T06:45:02Z</time>
      </trkpt>
      <trkpt lat="43.96454" lon="5.09533">
        <ele>266.42</ele>
        <time>2012-04-09T06:45:08Z</time>
      </trkpt>
      <trkpt lat="43.96457" lon="5.09548">
        <ele>267.38</ele>
        <time>2012-04-09T06:45:14Z</time>
      </trkpt>
      <trkpt lat="43.96467" lon="5.09569">
        <ele>269.79</ele>
        <time>2012-04-09T06:45:25Z</time>
      </trkpt>
      <trkpt lat="43.96469" lon="5.09573">
        <ele>270.27</ele>
        <time>2012-04-09T06:45:27Z</time>
      </trkpt>
      <trkpt lat="43.96474" lon="5.09584">
        <ele>270.75</ele>
        <time>2012-04-09T06:45:32Z</time>
      </trkpt>
      <trkpt lat="43.96479" lon="5.09589">
        <ele>272.67</ele>
        <time>2012-04-09T06:45:37Z</time>
      </trkpt>
      <trkpt lat="43.96481" lon="5.09593">
        <ele>273.15</ele>
        <time>2012-04-09T06:45:39Z</time>
      </trkpt>
      <trkpt lat="43.96494" lon="5.09614">
        <ele>275.56</ele>
        <time>2012-04-09T06:45:53Z</time>
      </trkpt>
      <trkpt lat="43.96497" lon="5.09621">
        <ele>276.52</ele>
        <time>2012-04-09T06:45:57Z</time>
      </trkpt>
      <trkpt lat="43.96507" lon="5.0963">
        <ele>277.96</ele>
        <time>2012-04-09T06:46:06Z</time>
      </trkpt>
      <trkpt lat="43.96512" lon="5.09639">
        <ele>279.4</ele>
        <time>2012-04-09T06:46:12Z</time>
      </trkpt>
      <trkpt lat="43.96517" lon="5.0965">
        <ele>280.36</ele>
        <time>2012-04-09T06:46:18Z</time>
      </trkpt>
      <trkpt lat="43.96521" lon="5.0966">
        <ele>281.32</ele>
        <time>2012-04-09T06:46:22Z</time>
      </trkpt>
      <trkpt lat="43.96525" lon="5.09673">
        <ele>282.28</ele>
        <time>2012-04-09T06:46:31Z</time>
      </trkpt>
      <trkpt lat="43.96525" lon="5.09673">
        <ele>283.73</ele>
        <time>2012-04-09T06:46:37Z</time>
      </trkpt>
      <trkpt lat="43.9653" lon="5.09681">
        <ele>283.73</ele>
        <time>2012-04-09T06:46:51Z</time>
      </trkpt>
      <trkpt lat="43.9653" lon="5.09681">
        <ele>283.73</ele>
        <time>2012-04-09T06:47:07Z</time>
      </trkpt>
      <trkpt lat="43.9653" lon="5.09681">
        <ele>283.25</ele>
        <time>2012-04-09T06:47:11Z</time>
      </trkpt>
      <trkpt lat="43.96527" lon="5.0969">
        <ele>284.69</ele>
        <time>2012-04-09T06:47:16Z</time>
      </trkpt>
      <trkpt lat="43.96527" lon="5.09692">
        <ele>284.69</ele>
        <time>2012-04-09T06:47:17Z</time>
      </trkpt>
      <trkpt lat="43.96525" lon="5.09697">
        <ele>285.65</ele>
        <time>2012-04-09T06:47:20Z</time>
      </trkpt>
      <trkpt lat="43.9652" lon="5.09724">
        <ele>289.01</ele>
        <time>2012-04-09T06:47:31Z</time>
      </trkpt>
      <trkpt lat="43.96519" lon="5.09741">
        <ele>290.94</ele>
        <time>2012-04-09T06:47:38Z</time>
      </trkpt>
      <trkpt lat="43.96519" lon="5.09743">
        <ele>291.42</ele>
        <time>2012-04-09T06:47:39Z</time>
      </trkpt>
      <trkpt lat="43.96519" lon="5.09748">
        <ele>291.9</ele>
        <time>2012-04-09T06:47:42Z</time>
      </trkpt>
      <trkpt lat="43.96511" lon="5.09761">
        <ele>294.3</ele>
        <time>2012-04-09T06:47:50Z</time>
      </trkpt>
      <trkpt lat="43.96508" lon="5.09763">
        <ele>294.78</ele>
        <time>2012-04-09T06:47:52Z</time>
      </trkpt>
      <trkpt lat="43.96503" lon="5.09767">
        <ele>296.22</ele>
        <time>2012-04-09T06:47:56Z</time>
      </trkpt>
      <trkpt lat="43.96494" lon="5.09785">
        <ele>298.15</ele>
        <time>2012-04-09T06:48:04Z</time>
      </trkpt>
      <trkpt lat="43.96494" lon="5.09785">
        <ele>299.11</ele>
        <time>2012-04-09T06:48:05Z</time>
      </trkpt>
      <trkpt lat="43.96492" lon="5.09787">
        <ele>299.11</ele>
        <time>2012-04-09T06:48:07Z</time>
      </trkpt>
      <trkpt lat="43.96489" lon="5.09791">
        <ele>300.07</ele>
        <time>2012-04-09T06:48:10Z</time>
      </trkpt>
      <trkpt lat="43.96485" lon="5.09796">
        <ele>301.03</ele>
        <time>2012-04-09T06:48:13Z</time>
      </trkpt>
      <trkpt lat="43.9648" lon="5.09806">
        <ele>301.99</ele>
        <time>2012-04-09T06:48:20Z</time>
      </trkpt>
      <trkpt lat="43.96478" lon="5.09816">
        <ele>303.91</ele>
        <time>2012-04-09T06:48:26Z</time>
      </trkpt>
      <trkpt lat="43.96477" lon="5.09824">
        <ele>304.88</ele>
        <time>2012-04-09T06:48:30Z</time>
      </trkpt>
      <trkpt lat="43.96474" lon="5.09843">
        <ele>307.28</ele>
        <time>2012-04-09T06:48:41Z</time>
      </trkpt>
      <trkpt lat="43.96474" lon="5.09846">
        <ele>307.28</ele>
        <time>2012-04-09T06:48:42Z</time>
      </trkpt>
      <trkpt lat="43.96473" lon="5.09856">
        <ele>308.72</ele>
        <time>2012-04-09T06:48:45Z</time>
      </trkpt>
      <trkpt lat="43.96475" lon="5.09865">
        <ele>309.2</ele>
        <time>2012-04-09T06:48:48Z</time>
      </trkpt>
      <trkpt lat="43.96472" lon="5.09876">
        <ele>311.12</ele>
        <time>2012-04-09T06:48:55Z</time>
      </trkpt>
      <trkpt lat="43.96466" lon="5.09868">
        <ele>313.05</ele>
        <time>2012-04-09T06:49:04Z</time>
      </trkpt>
      <trkpt lat="43.96465" lon="5.09868">
        <ele>313.53</ele>
        <time>2012-04-09T06:49:05Z</time>
      </trkpt>
      <trkpt lat="43.96455" lon="5.09871">
        <ele>314.97</ele>
        <time>2012-04-09T06:49:12Z</time>
      </trkpt>
      <trkpt lat="43.96449" lon="5.09875">
        <ele>314.97</ele>
        <time>2012-04-09T06:49:15Z</time>
      </trkpt>
      <trkpt lat="43.96424" lon="5.09881">
        <ele>315.45</ele>
        <time>2012-04-09T06:49:28Z</time>
      </trkpt>
      <trkpt lat="43.96417" lon="5.09882">
        <ele>315.93</ele>
        <time>2012-04-09T06:49:35Z</time>
      </trkpt>
      <trkpt lat="43.9641" lon="5.09898">
        <ele>315.45</ele>
        <time>2012-04-09T06:49:49Z</time>
      </trkpt>
      <trkpt lat="43.96411" lon="5.099">
        <ele>316.89</ele>
        <time>2012-04-09T06:49:54Z</time>
      </trkpt>
      <trkpt lat="43.96408" lon="5.09909">
        <ele>316.89</ele>
        <time>2012-04-09T06:50:03Z</time>
      </trkpt>
      <trkpt lat="43.96409" lon="5.0991">
        <ele>316.89</ele>
        <time>2012-04-09T06:50:21Z</time>
      </trkpt>
      <trkpt lat="43.96408" lon="5.0991">
        <ele>316.89</ele>
        <time>2012-04-09T06:50:47Z</time>
      </trkpt>
      <trkpt lat="43.96408" lon="5.0991">
        <ele>317.85</ele>
        <time>2012-04-09T06:51:16Z</time>
      </trkpt>
      <trkpt lat="43.96409" lon="5.0991">
        <ele>318.81</ele>
        <time>2012-04-09T06:51:41Z</time>
      </trkpt>
      <trkpt lat="43.96407" lon="5.09911">
        <ele>318.81</ele>
        <time>2012-04-09T06:51:53Z</time>
      </trkpt>
      <trkpt lat="43.96413" lon="5.09913">
        <ele>319.78</ele>
        <time>2012-04-09T06:52:01Z</time>
      </trkpt>
      <trkpt lat="43.96415" lon="5.09917">
        <ele>320.74</ele>
        <time>2012-04-09T06:52:03Z</time>
      </trkpt>
      <trkpt lat="43.96426" lon="5.09932">
        <ele>321.7</ele>
        <time>2012-04-09T06:52:08Z</time>
      </trkpt>
      <trkpt lat="43.96433" lon="5.09935">
        <ele>322.66</ele>
        <time>2012-04-09T06:52:10Z</time>
      </trkpt>
      <trkpt lat="43.96436" lon="5.09936">
        <ele>322.66</ele>
        <time>2012-04-09T06:52:13Z</time>
      </trkpt>
      <trkpt lat="43.96444" lon="5.09936">
        <ele>324.1</ele>
        <time>2012-04-09T06:52:21Z</time>
      </trkpt>
      <trkpt lat="43.96447" lon="5.09937">
        <ele>324.1</ele>
        <time>2012-04-09T06:52:31Z</time>
      </trkpt>
      <trkpt lat="43.96448" lon="5.09939">
        <ele>324.1</ele>
        <time>2012-04-09T06:52:32Z</time>
      </trkpt>
      <trkpt lat="43.96445" lon="5.09952">
        <ele>325.54</ele>
        <time>2012-04-09T06:52:38Z</time>
      </trkpt>
      <trkpt lat="43.96442" lon="5.09958">
        <ele>326.02</ele>
        <time>2012-04-09T06:52:42Z</time>
      </trkpt>
      <trkpt lat="43.9644" lon="5.09961">
        <ele>326.5</ele>
        <time>2012-04-09T06:52:44Z</time>
      </trkpt>
      <trkpt lat="43.9643" lon="5.09988">
        <ele>326.5</ele>
        <time>2012-04-09T06:52:53Z</time>
      </trkpt>
      <trkpt lat="43.96423" lon="5.09996">
        <ele>326.99</ele>
        <time>2012-04-09T06:52:57Z</time>
      </trkpt>
      <trkpt lat="43.96408" lon="5.10008">
        <ele>327.95</ele>
        <time>2012-04-09T06:53:04Z</time>
      </trkpt>
      <trkpt lat="43.96403" lon="5.10012">
        <ele>327.95</ele>
        <time>2012-04-09T06:53:07Z</time>
      </trkpt>
      <trkpt lat="43.96392" lon="5.10034">
        <ele>328.43</ele>
        <time>2012-04-09T06:53:15Z</time>
      </trkpt>
      <trkpt lat="43.96374" lon="5.10033">
        <ele>329.87</ele>
        <time>2012-04-09T06:53:25Z</time>
      </trkpt>
      <trkpt lat="43.96373" lon="5.10035">
        <ele>330.35</ele>
        <time>2012-04-09T06:53:26Z</time>
      </trkpt>
      <trkpt lat="43.96365" lon="5.10047">
        <ele>330.35</ele>
        <time>2012-04-09T06:53:32Z</time>
      </trkpt>
      <trkpt lat="43.96359" lon="5.10053">
        <ele>330.35</ele>
        <time>2012-04-09T06:53:35Z</time>
      </trkpt>
      <trkpt lat="43.96348" lon="5.10064">
        <ele>331.31</ele>
        <time>2012-04-09T06:53:43Z</time>
      </trkpt>
      <trkpt lat="43.96337" lon="5.10074">
        <ele>331.79</ele>
        <time>2012-04-09T06:53:50Z</time>
      </trkpt>
      <trkpt lat="43.96331" lon="5.10076">
        <ele>332.27</ele>
        <time>2012-04-09T06:53:52Z</time>
      </trkpt>
      <trkpt lat="43.96319" lon="5.10077">
        <ele>332.75</ele>
        <time>2012-04-09T06:53:57Z</time>
      </trkpt>
      <trkpt lat="43.96318" lon="5.10078">
        <ele>332.75</ele>
        <time>2012-04-09T06:53:58Z</time>
      </trkpt>
      <trkpt lat="43.96302" lon="5.10087">
        <ele>334.2</ele>
        <time>2012-04-09T06:54:06Z</time>
      </trkpt>
      <trkpt lat="43.96294" lon="5.10097">
        <ele>335.16</ele>
        <time>2012-04-09T06:54:11Z</time>
      </trkpt>
      <trkpt lat="43.96288" lon="5.10104">
        <ele>335.64</ele>
        <time>2012-04-09T06:54:14Z</time>
      </trkpt>
      <trkpt lat="43.96289" lon="5.10114">
        <ele>336.12</ele>
        <time>2012-04-09T06:54:18Z</time>
      </trkpt>
      <trkpt lat="43.96288" lon="5.10126">
        <ele>336.6</ele>
        <time>2012-04-09T06:54:22Z</time>
      </trkpt>
      <trkpt lat="43.96292" lon="5.10139">
        <ele>337.08</ele>
        <time>2012-04-09T06:54:27Z</time>
      </trkpt>
      <trkpt lat="43.96297" lon="5.1016">
        <ele>338.52</ele>
        <time>2012-04-09T06:54:35Z</time>
      </trkpt>
      <trkpt lat="43.96298" lon="5.10171">
        <ele>339</ele>
        <time>2012-04-09T06:54:39Z</time>
      </trkpt>
      <trkpt lat="43.96313" lon="5.10183">
        <ele>339.96</ele>
        <time>2012-04-09T06:54:47Z</time>
      </trkpt>
      <trkpt lat="43.96324" lon="5.10199">
        <ele>341.41</ele>
        <time>2012-04-09T06:54:55Z</time>
      </trkpt>
      <trkpt lat="43.96328" lon="5.10209">
        <ele>342.37</ele>
        <time>2012-04-09T06:55:00Z</time>
      </trkpt>
      <trkpt lat="43.96332" lon="5.10216">
        <ele>343.33</ele>
        <time>2012-04-09T06:55:04Z</time>
      </trkpt>
      <trkpt lat="43.96335" lon="5.10225">
        <ele>343.81</ele>
        <time>2012-04-09T06:55:09Z</time>
      </trkpt>
      <trkpt lat="43.96337" lon="5.10231">
        <ele>344.29</ele>
        <time>2012-04-09T06:55:12Z</time>
      </trkpt>
      <trkpt lat="43.96346" lon="5.10246">
        <ele>345.25</ele>
        <time>2012-04-09T06:55:19Z</time>
      </trkpt>
      <trkpt lat="43.9635" lon="5.10251">
        <ele>345.73</ele>
        <time>2012-04-09T06:55:21Z</time>
      </trkpt>
      <trkpt lat="43.96352" lon="5.10259">
        <ele>346.69</ele>
        <time>2012-04-09T06:55:25Z</time>
      </trkpt>
      <trkpt lat="43.96355" lon="5.10263">
        <ele>346.21</ele>
        <time>2012-04-09T06:55:27Z</time>
      </trkpt>
      <trkpt lat="43.96361" lon="5.1027">
        <ele>347.17</ele>
        <time>2012-04-09T06:55:31Z</time>
      </trkpt>
      <trkpt lat="43.96365" lon="5.1028">
        <ele>348.13</ele>
        <time>2012-04-09T06:55:35Z</time>
      </trkpt>
      <trkpt lat="43.96373" lon="5.10288">
        <ele>348.62</ele>
        <time>2012-04-09T06:55:41Z</time>
      </trkpt>
      <trkpt lat="43.96376" lon="5.10293">
        <ele>349.1</ele>
        <time>2012-04-09T06:55:43Z</time>
      </trkpt>
      <trkpt lat="43.96388" lon="5.10302">
        <ele>351.02</ele>
        <time>2012-04-09T06:55:51Z</time>
      </trkpt>
      <trkpt lat="43.96392" lon="5.1031">
        <ele>351.98</ele>
        <time>2012-04-09T06:55:57Z</time>
      </trkpt>
      <trkpt lat="43.96393" lon="5.1031">
        <ele>351.5</ele>
        <time>2012-04-09T06:56:12Z</time>
      </trkpt>
      <trkpt lat="43.96393" lon="5.1031">
        <ele>351.5</ele>
        <time>2012-04-09T06:56:30Z</time>
      </trkpt>
      <trkpt lat="43.96393" lon="5.10309">
        <ele>352.94</ele>
        <time>2012-04-09T06:56:45Z</time>
      </trkpt>
      <trkpt lat="43.96393" lon="5.10309">
        <ele>351.5</ele>
        <time>2012-04-09T06:57:07Z</time>
      </trkpt>
      <trkpt lat="43.96393" lon="5.10309">
        <ele>351.98</ele>
        <time>2012-04-09T06:57:20Z</time>
      </trkpt>
      <trkpt lat="43.96393" lon="5.10309">
        <ele>351.02</ele>
        <time>2012-04-09T06:57:24Z</time>
      </trkpt>
      <trkpt lat="43.96398" lon="5.10311">
        <ele>351.98</ele>
        <time>2012-04-09T06:57:29Z</time>
      </trkpt>
      <trkpt lat="43.96402" lon="5.10313">
        <ele>351.98</ele>
        <time>2012-04-09T06:57:34Z</time>
      </trkpt>
      <trkpt lat="43.96405" lon="5.10313">
        <ele>352.46</ele>
        <time>2012-04-09T06:57:38Z</time>
      </trkpt>
      <trkpt lat="43.96412" lon="5.10295">
        <ele>353.42</ele>
        <time>2012-04-09T06:57:53Z</time>
      </trkpt>
      <trkpt lat="43.96416" lon="5.10291">
        <ele>354.38</ele>
        <time>2012-04-09T06:58:02Z</time>
      </trkpt>
      <trkpt lat="43.96419" lon="5.10292">
        <ele>354.86</ele>
        <time>2012-04-09T06:58:06Z</time>
      </trkpt>
      <trkpt lat="43.96427" lon="5.10301">
        <ele>356.79</ele>
        <time>2012-04-09T06:58:14Z</time>
      </trkpt>
      <trkpt lat="43.96443" lon="5.10314">
        <ele>359.19</ele>
        <time>2012-04-09T06:58:24Z</time>
      </trkpt>
      <trkpt lat="43.96454" lon="5.10323">
        <ele>359.19</ele>
        <time>2012-04-09T06:58:31Z</time>
      </trkpt>
      <trkpt lat="43.96469" lon="5.10332">
        <ele>359.67</ele>
        <time>2012-04-09T06:58:39Z</time>
      </trkpt>
      <trkpt lat="43.96486" lon="5.10351">
        <ele>358.23</ele>
        <time>2012-04-09T06:58:49Z</time>
      </trkpt>
      <trkpt lat="43.96501" lon="5.10359">
        <ele>359.19</ele>
        <time>2012-04-09T06:58:57Z</time>
      </trkpt>
      <trkpt lat="43.96509" lon="5.10371">
        <ele>357.75</ele>
        <time>2012-04-09T06:59:03Z</time>
      </trkpt>
      <trkpt lat="43.96514" lon="5.10379">
        <ele>356.79</ele>
        <time>2012-04-09T06:59:07Z</time>
      </trkpt>
      <trkpt lat="43.96523" lon="5.10381">
        <ele>357.75</ele>
        <time>2012-04-09T06:59:14Z</time>
      </trkpt>
      <trkpt lat="43.96527" lon="5.10381">
        <ele>358.23</ele>
        <time>2012-04-09T06:59:19Z</time>
      </trkpt>
      <trkpt lat="43.96534" lon="5.10385">
        <ele>359.67</ele>
        <time>2012-04-09T06:59:25Z</time>
      </trkpt>
      <trkpt lat="43.9654" lon="5.10385">
        <ele>360.15</ele>
        <time>2012-04-09T06:59:31Z</time>
      </trkpt>
      <trkpt lat="43.96548" lon="5.10388">
        <ele>361.59</ele>
        <time>2012-04-09T06:59:36Z</time>
      </trkpt>
      <trkpt lat="43.96554" lon="5.1039">
        <ele>362.07</ele>
        <time>2012-04-09T06:59:39Z</time>
      </trkpt>
      <trkpt lat="43.9656" lon="5.10397">
        <ele>361.59</ele>
        <time>2012-04-09T06:59:43Z</time>
      </trkpt>
      <trkpt lat="43.96565" lon="5.10402">
        <ele>362.07</ele>
        <time>2012-04-09T06:59:46Z</time>
      </trkpt>
      <trkpt lat="43.96573" lon="5.10415">
        <ele>362.07</ele>
        <time>2012-04-09T06:59:52Z</time>
      </trkpt>
      <trkpt lat="43.96575" lon="5.10421">
        <ele>362.07</ele>
        <time>2012-04-09T06:59:54Z</time>
      </trkpt>
      <trkpt lat="43.96584" lon="5.10441">
        <ele>362.07</ele>
        <time>2012-04-09T07:00:02Z</time>
      </trkpt>
      <trkpt lat="43.96593" lon="5.10458">
        <ele>362.07</ele>
        <time>2012-04-09T07:00:09Z</time>
      </trkpt>
      <trkpt lat="43.96598" lon="5.10464">
        <ele>362.07</ele>
        <time>2012-04-09T07:00:12Z</time>
      </trkpt>
      <trkpt lat="43.96614" lon="5.10476">
        <ele>364</ele>
        <time>2012-04-09T07:00:20Z</time>
      </trkpt>
      <trkpt lat="43.96628" lon="5.10477">
        <ele>364.96</ele>
        <time>2012-04-09T07:00:27Z</time>
      </trkpt>
      <trkpt lat="43.9664" lon="5.10483">
        <ele>366.4</ele>
        <time>2012-04-09T07:00:34Z</time>
      </trkpt>
      <trkpt lat="43.96647" lon="5.10487">
        <ele>366.4</ele>
        <time>2012-04-09T07:00:45Z</time>
      </trkpt>
      <trkpt lat="43.96649" lon="5.10488">
        <ele>366.88</ele>
        <time>2012-04-09T07:00:47Z</time>
      </trkpt>
      <trkpt lat="43.96655" lon="5.10491">
        <ele>367.84</ele>
        <time>2012-04-09T07:00:56Z</time>
      </trkpt>
      <trkpt lat="43.96658" lon="5.10495">
        <ele>367.84</ele>
        <time>2012-04-09T07:01:01Z</time>
      </trkpt>
      <trkpt lat="43.9666" lon="5.10496">
        <ele>368.32</ele>
        <time>2012-04-09T07:01:03Z</time>
      </trkpt>
      <trkpt lat="43.96662" lon="5.10497">
        <ele>368.32</ele>
        <time>2012-04-09T07:01:07Z</time>
      </trkpt>
      <trkpt lat="43.96669" lon="5.10488">
        <ele>368.8</ele>
        <time>2012-04-09T07:01:12Z</time>
      </trkpt>
      <trkpt lat="43.96675" lon="5.10482">
        <ele>369.28</ele>
        <time>2012-04-09T07:01:15Z</time>
      </trkpt>
      <trkpt lat="43.96684" lon="5.10471">
        <ele>369.28</ele>
        <time>2012-04-09T07:01:20Z</time>
      </trkpt>
      <trkpt lat="43.96691" lon="5.1046">
        <ele>369.76</ele>
        <time>2012-04-09T07:01:24Z</time>
      </trkpt>
      <trkpt lat="43.96698" lon="5.10454">
        <ele>369.28</ele>
        <time>2012-04-09T07:01:29Z</time>
      </trkpt>
      <trkpt lat="43.96708" lon="5.1044">
        <ele>368.32</ele>
        <time>2012-04-09T07:01:36Z</time>
      </trkpt>
      <trkpt lat="43.96729" lon="5.10419">
        <ele>365.92</ele>
        <time>2012-04-09T07:01:46Z</time>
      </trkpt>
      <trkpt lat="43.9674" lon="5.10406">
        <ele>365.92</ele>
        <time>2012-04-09T07:01:52Z</time>
      </trkpt>
      <trkpt lat="43.96745" lon="5.10395">
        <ele>364.48</ele>
        <time>2012-04-09T07:01:57Z</time>
      </trkpt>
      <trkpt lat="43.96756" lon="5.10365">
        <ele>363.52</ele>
        <time>2012-04-09T07:02:06Z</time>
      </trkpt>
      <trkpt lat="43.96754" lon="5.10348">
        <ele>361.59</ele>
        <time>2012-04-09T07:02:12Z</time>
      </trkpt>
      <trkpt lat="43.96754" lon="5.10342">
        <ele>361.59</ele>
        <time>2012-04-09T07:02:14Z</time>
      </trkpt>
      <trkpt lat="43.96753" lon="5.10331">
        <ele>360.63</ele>
        <time>2012-04-09T07:02:18Z</time>
      </trkpt>
      <trkpt lat="43.96759" lon="5.10313">
        <ele>359.67</ele>
        <time>2012-04-09T07:02:26Z</time>
      </trkpt>
      <trkpt lat="43.96761" lon="5.10306">
        <ele>359.19</ele>
        <time>2012-04-09T07:02:29Z</time>
      </trkpt>
      <trkpt lat="43.96763" lon="5.10298">
        <ele>357.75</ele>
        <time>2012-04-09T07:02:32Z</time>
      </trkpt>
      <trkpt lat="43.96761" lon="5.10285">
        <ele>355.83</ele>
        <time>2012-04-09T07:02:37Z</time>
      </trkpt>
      <trkpt lat="43.96766" lon="5.10271">
        <ele>353.42</ele>
        <time>2012-04-09T07:02:44Z</time>
      </trkpt>
      <trkpt lat="43.96767" lon="5.10261">
        <ele>352.46</ele>
        <time>2012-04-09T07:02:49Z</time>
      </trkpt>
      <trkpt lat="43.96785" lon="5.10252">
        <ele>350.54</ele>
        <time>2012-04-09T07:02:59Z</time>
      </trkpt>
      <trkpt lat="43.96792" lon="5.10253">
        <ele>350.06</ele>
        <time>2012-04-09T07:03:03Z</time>
      </trkpt>
      <trkpt lat="43.96811" lon="5.10237">
        <ele>347.65</ele>
        <time>2012-04-09T07:03:11Z</time>
      </trkpt>
      <trkpt lat="43.96815" lon="5.10232">
        <ele>347.65</ele>
        <time>2012-04-09T07:03:13Z</time>
      </trkpt>
      <trkpt lat="43.96829" lon="5.10215">
        <ele>347.17</ele>
        <time>2012-04-09T07:03:20Z</time>
      </trkpt>
      <trkpt lat="43.96834" lon="5.10205">
        <ele>347.17</ele>
        <time>2012-04-09T07:03:32Z</time>
      </trkpt>
      <trkpt lat="43.96834" lon="5.10205">
        <ele>346.21</ele>
        <time>2012-04-09T07:03:44Z</time>
      </trkpt>
      <trkpt lat="43.96835" lon="5.10205">
        <ele>346.21</ele>
        <time>2012-04-09T07:03:56Z</time>
      </trkpt>
      <trkpt lat="43.96837" lon="5.10202">
        <ele>346.21</ele>
        <time>2012-04-09T07:04:09Z</time>
      </trkpt>
      <trkpt lat="43.96837" lon="5.10202">
        <ele>346.21</ele>
        <time>2012-04-09T07:04:40Z</time>
      </trkpt>
      <trkpt lat="43.96843" lon="5.10196">
        <ele>345.73</ele>
        <time>2012-04-09T07:04:53Z</time>
      </trkpt>
      <trkpt lat="43.96847" lon="5.10187">
        <ele>345.73</ele>
        <time>2012-04-09T07:05:03Z</time>
      </trkpt>
      <trkpt lat="43.96856" lon="5.10179">
        <ele>346.69</ele>
        <time>2012-04-09T07:05:07Z</time>
      </trkpt>
      <trkpt lat="43.96871" lon="5.10159">
        <ele>345.25</ele>
        <time>2012-04-09T07:05:14Z</time>
      </trkpt>
      <trkpt lat="43.96874" lon="5.10157">
        <ele>346.69</ele>
        <time>2012-04-09T07:05:15Z</time>
      </trkpt>
      <trkpt lat="43.96881" lon="5.10146">
        <ele>346.21</ele>
        <time>2012-04-09T07:05:19Z</time>
      </trkpt>
      <trkpt lat="43.96897" lon="5.10125">
        <ele>346.21</ele>
        <time>2012-04-09T07:05:28Z</time>
      </trkpt>
      <trkpt lat="43.96899" lon="5.10118">
        <ele>346.69</ele>
        <time>2012-04-09T07:05:31Z</time>
      </trkpt>
      <trkpt lat="43.96915" lon="5.10103">
        <ele>348.13</ele>
        <time>2012-04-09T07:05:40Z</time>
      </trkpt>
      <trkpt lat="43.9693" lon="5.10086">
        <ele>348.62</ele>
        <time>2012-04-09T07:05:49Z</time>
      </trkpt>
      <trkpt lat="43.96943" lon="5.1007">
        <ele>348.62</ele>
        <time>2012-04-09T07:05:56Z</time>
      </trkpt>
      <trkpt lat="43.96947" lon="5.1006">
        <ele>349.1</ele>
        <time>2012-04-09T07:06:00Z</time>
      </trkpt>
      <trkpt lat="43.96949" lon="5.10055">
        <ele>349.1</ele>
        <time>2012-04-09T07:06:02Z</time>
      </trkpt>
      <trkpt lat="43.9696" lon="5.1003">
        <ele>349.58</ele>
        <time>2012-04-09T07:06:11Z</time>
      </trkpt>
      <trkpt lat="43.96962" lon="5.10025">
        <ele>350.06</ele>
        <time>2012-04-09T07:06:13Z</time>
      </trkpt>
      <trkpt lat="43.96972" lon="5.09997">
        <ele>351.5</ele>
        <time>2012-04-09T07:06:23Z</time>
      </trkpt>
      <trkpt lat="43.96978" lon="5.09983">
        <ele>351.02</ele>
        <time>2012-04-09T07:06:28Z</time>
      </trkpt>
      <trkpt lat="43.96985" lon="5.09975">
        <ele>352.46</ele>
        <time>2012-04-09T07:06:33Z</time>
      </trkpt>
      <trkpt lat="43.9699" lon="5.09968">
        <ele>351.98</ele>
        <time>2012-04-09T07:06:36Z</time>
      </trkpt>
      <trkpt lat="43.97001" lon="5.09941">
        <ele>352.46</ele>
        <time>2012-04-09T07:06:46Z</time>
      </trkpt>
      <trkpt lat="43.97006" lon="5.09931">
        <ele>352.94</ele>
        <time>2012-04-09T07:06:49Z</time>
      </trkpt>
      <trkpt lat="43.97011" lon="5.09923">
        <ele>351.98</ele>
        <time>2012-04-09T07:07:01Z</time>
      </trkpt>
      <trkpt lat="43.97011" lon="5.09923">
        <ele>351.98</ele>
        <time>2012-04-09T07:07:02Z</time>
      </trkpt>
      <trkpt lat="43.97015" lon="5.09912">
        <ele>351.98</ele>
        <time>2012-04-09T07:07:12Z</time>
      </trkpt>
      <trkpt lat="43.97018" lon="5.09906">
        <ele>351.98</ele>
        <time>2012-04-09T07:07:15Z</time>
      </trkpt>
      <trkpt lat="43.97025" lon="5.09894">
        <ele>352.46</ele>
        <time>2012-04-09T07:07:20Z</time>
      </trkpt>
      <trkpt lat="43.9703" lon="5.09874">
        <ele>350.54</ele>
        <time>2012-04-09T07:07:29Z</time>
      </trkpt>
      <trkpt lat="43.97028" lon="5.09867">
        <ele>349.58</ele>
        <time>2012-04-09T07:07:33Z</time>
      </trkpt>
      <trkpt lat="43.97023" lon="5.09855">
        <ele>347.65</ele>
        <time>2012-04-09T07:07:40Z</time>
      </trkpt>
      <trkpt lat="43.9703" lon="5.09849">
        <ele>345.73</ele>
        <time>2012-04-09T07:07:46Z</time>
      </trkpt>
      <trkpt lat="43.97034" lon="5.09847">
        <ele>345.25</ele>
        <time>2012-04-09T07:07:48Z</time>
      </trkpt>
      <trkpt lat="43.97037" lon="5.09847">
        <ele>344.29</ele>
        <time>2012-04-09T07:07:50Z</time>
      </trkpt>
      <trkpt lat="43.97049" lon="5.09829">
        <ele>342.37</ele>
        <time>2012-04-09T07:07:59Z</time>
      </trkpt>
      <trkpt lat="43.97053" lon="5.09811">
        <ele>339.96</ele>
        <time>2012-04-09T07:08:07Z</time>
      </trkpt>
      <trkpt lat="43.97057" lon="5.09791">
        <ele>337.56</ele>
        <time>2012-04-09T07:08:16Z</time>
      </trkpt>
      <trkpt lat="43.97057" lon="5.09781">
        <ele>336.6</ele>
        <time>2012-04-09T07:08:20Z</time>
      </trkpt>
      <trkpt lat="43.97061" lon="5.09772">
        <ele>336.12</ele>
        <time>2012-04-09T07:08:24Z</time>
      </trkpt>
      <trkpt lat="43.97065" lon="5.09749">
        <ele>335.16</ele>
        <time>2012-04-09T07:08:34Z</time>
      </trkpt>
      <trkpt lat="43.97071" lon="5.09736">
        <ele>335.16</ele>
        <time>2012-04-09T07:08:40Z</time>
      </trkpt>
      <trkpt lat="43.97084" lon="5.09715">
        <ele>334.68</ele>
        <time>2012-04-09T07:08:48Z</time>
      </trkpt>
      <trkpt lat="43.9709" lon="5.09701">
        <ele>333.23</ele>
        <time>2012-04-09T07:08:53Z</time>
      </trkpt>
      <trkpt lat="43.97096" lon="5.09693">
        <ele>332.75</ele>
        <time>2012-04-09T07:08:56Z</time>
      </trkpt>
      <trkpt lat="43.97106" lon="5.09684">
        <ele>332.75</ele>
        <time>2012-04-09T07:09:01Z</time>
      </trkpt>
      <trkpt lat="43.97124" lon="5.09667">
        <ele>331.31</ele>
        <time>2012-04-09T07:09:09Z</time>
      </trkpt>
      <trkpt lat="43.97127" lon="5.09664">
        <ele>331.31</ele>
        <time>2012-04-09T07:09:11Z</time>
      </trkpt>
      <trkpt lat="43.97148" lon="5.09644">
        <ele>330.83</ele>
        <time>2012-04-09T07:09:21Z</time>
      </trkpt>
      <trkpt lat="43.97161" lon="5.09632">
        <ele>330.35</ele>
        <time>2012-04-09T07:09:28Z</time>
      </trkpt>
      <trkpt lat="43.97166" lon="5.0962">
        <ele>330.35</ele>
        <time>2012-04-09T07:09:32Z</time>
      </trkpt>
      <trkpt lat="43.97172" lon="5.09608">
        <ele>329.87</ele>
        <time>2012-04-09T07:09:37Z</time>
      </trkpt>
      <trkpt lat="43.97178" lon="5.09592">
        <ele>328.43</ele>
        <time>2012-04-09T07:09:44Z</time>
      </trkpt>
      <trkpt lat="43.97188" lon="5.09565">
        <ele>326.02</ele>
        <time>2012-04-09T07:09:54Z</time>
      </trkpt>
      <trkpt lat="43.97199" lon="5.09536">
        <ele>323.62</ele>
        <time>2012-04-09T07:10:05Z</time>
      </trkpt>
      <trkpt lat="43.97207" lon="5.09519">
        <ele>322.66</ele>
        <time>2012-04-09T07:10:11Z</time>
      </trkpt>
      <trkpt lat="43.97214" lon="5.0951">
        <ele>321.22</ele>
        <time>2012-04-09T07:10:16Z</time>
      </trkpt>
      <trkpt lat="43.97216" lon="5.09504">
        <ele>320.74</ele>
        <time>2012-04-09T07:10:19Z</time>
      </trkpt>
      <trkpt lat="43.97228" lon="5.09485">
        <ele>317.37</ele>
        <time>2012-04-09T07:10:27Z</time>
      </trkpt>
      <trkpt lat="43.97239" lon="5.09468">
        <ele>314.97</ele>
        <time>2012-04-09T07:10:34Z</time>
      </trkpt>
      <trkpt lat="43.97242" lon="5.09462">
        <ele>313.53</ele>
        <time>2012-04-09T07:10:37Z</time>
      </trkpt>
      <trkpt lat="43.97248" lon="5.09452">
        <ele>312.09</ele>
        <time>2012-04-09T07:10:42Z</time>
      </trkpt>
      <trkpt lat="43.97254" lon="5.09432">
        <ele>311.12</ele>
        <time>2012-04-09T07:10:49Z</time>
      </trkpt>
      <trkpt lat="43.97258" lon="5.09406">
        <ele>308.72</ele>
        <time>2012-04-09T07:10:57Z</time>
      </trkpt>
      <trkpt lat="43.97259" lon="5.09403">
        <ele>308.72</ele>
        <time>2012-04-09T07:10:58Z</time>
      </trkpt>
      <trkpt lat="43.97263" lon="5.09379">
        <ele>306.8</ele>
        <time>2012-04-09T07:11:06Z</time>
      </trkpt>
      <trkpt lat="43.97266" lon="5.09368">
        <ele>306.32</ele>
        <time>2012-04-09T07:11:10Z</time>
      </trkpt>
      <trkpt lat="43.97275" lon="5.09343">
        <ele>304.39</ele>
        <time>2012-04-09T07:11:19Z</time>
      </trkpt>
      <trkpt lat="43.97277" lon="5.09333">
        <ele>304.39</ele>
        <time>2012-04-09T07:11:23Z</time>
      </trkpt>
      <trkpt lat="43.97283" lon="5.09313">
        <ele>302.47</ele>
        <time>2012-04-09T07:11:30Z</time>
      </trkpt>
      <trkpt lat="43.9729" lon="5.09293">
        <ele>301.51</ele>
        <time>2012-04-09T07:11:36Z</time>
      </trkpt>
      <trkpt lat="43.97293" lon="5.09259">
        <ele>299.11</ele>
        <time>2012-04-09T07:11:45Z</time>
      </trkpt>
      <trkpt lat="43.97293" lon="5.09256">
        <ele>298.63</ele>
        <time>2012-04-09T07:11:46Z</time>
      </trkpt>
      <trkpt lat="43.97297" lon="5.0924">
        <ele>297.18</ele>
        <time>2012-04-09T07:11:51Z</time>
      </trkpt>
      <trkpt lat="43.97304" lon="5.09224">
        <ele>296.22</ele>
        <time>2012-04-09T07:11:56Z</time>
      </trkpt>
      <trkpt lat="43.97312" lon="5.09208">
        <ele>294.78</ele>
        <time>2012-04-09T07:12:02Z</time>
      </trkpt>
      <trkpt lat="43.97317" lon="5.0919">
        <ele>292.86</ele>
        <time>2012-04-09T07:12:08Z</time>
      </trkpt>
      <trkpt lat="43.97324" lon="5.09174">
        <ele>289.49</ele>
        <time>2012-04-09T07:12:14Z</time>
      </trkpt>
      <trkpt lat="43.9733" lon="5.09147">
        <ele>287.57</ele>
        <time>2012-04-09T07:12:24Z</time>
      </trkpt>
      <trkpt lat="43.97328" lon="5.09136">
        <ele>286.61</ele>
        <time>2012-04-09T07:12:28Z</time>
      </trkpt>
      <trkpt lat="43.97336" lon="5.09108">
        <ele>284.69</ele>
        <time>2012-04-09T07:12:36Z</time>
      </trkpt>
      <trkpt lat="43.97335" lon="5.091">
        <ele>284.69</ele>
        <time>2012-04-09T07:12:39Z</time>
      </trkpt>
      <trkpt lat="43.97334" lon="5.09087">
        <ele>283.73</ele>
        <time>2012-04-09T07:12:49Z</time>
      </trkpt>
      <trkpt lat="43.97335" lon="5.09085">
        <ele>283.25</ele>
        <time>2012-04-09T07:12:54Z</time>
      </trkpt>
      <trkpt lat="43.97336" lon="5.09066">
        <ele>281.8</ele>
        <time>2012-04-09T07:13:00Z</time>
      </trkpt>
      <trkpt lat="43.97338" lon="5.09044">
        <ele>278.92</ele>
        <time>2012-04-09T07:13:08Z</time>
      </trkpt>
      <trkpt lat="43.97341" lon="5.09025">
        <ele>277</ele>
        <time>2012-04-09T07:13:14Z</time>
      </trkpt>
      <trkpt lat="43.97344" lon="5.09014">
        <ele>276.04</ele>
        <time>2012-04-09T07:13:17Z</time>
      </trkpt>
      <trkpt lat="43.97344" lon="5.08983">
        <ele>274.59</ele>
        <time>2012-04-09T07:13:26Z</time>
      </trkpt>
      <trkpt lat="43.97344" lon="5.08954">
        <ele>273.63</ele>
        <time>2012-04-09T07:13:34Z</time>
      </trkpt>
      <trkpt lat="43.97342" lon="5.08944">
        <ele>274.11</ele>
        <time>2012-04-09T07:13:37Z</time>
      </trkpt>
      <trkpt lat="43.97342" lon="5.08917">
        <ele>271.71</ele>
        <time>2012-04-09T07:13:46Z</time>
      </trkpt>
      <trkpt lat="43.97337" lon="5.08893">
        <ele>270.27</ele>
        <time>2012-04-09T07:13:55Z</time>
      </trkpt>
      <trkpt lat="43.97337" lon="5.08893">
        <ele>270.27</ele>
        <time>2012-04-09T07:13:58Z</time>
      </trkpt>
      <trkpt lat="43.97338" lon="5.08874">
        <ele>268.35</ele>
        <time>2012-04-09T07:14:05Z</time>
      </trkpt>
      <trkpt lat="43.97339" lon="5.08869">
        <ele>266.9</ele>
        <time>2012-04-09T07:14:08Z</time>
      </trkpt>
      <trkpt lat="43.97339" lon="5.08856">
        <ele>265.46</ele>
        <time>2012-04-09T07:14:18Z</time>
      </trkpt>
      <trkpt lat="43.97326" lon="5.08847">
        <ele>265.46</ele>
        <time>2012-04-09T07:14:27Z</time>
      </trkpt>
      <trkpt lat="43.97322" lon="5.08848">
        <ele>264.98</ele>
        <time>2012-04-09T07:14:30Z</time>
      </trkpt>
      <trkpt lat="43.9731" lon="5.08841">
        <ele>264.5</ele>
        <time>2012-04-09T07:14:37Z</time>
      </trkpt>
      <trkpt lat="43.97297" lon="5.08836">
        <ele>264.5</ele>
        <time>2012-04-09T07:14:44Z</time>
      </trkpt>
      <trkpt lat="43.97294" lon="5.08833">
        <ele>263.54</ele>
        <time>2012-04-09T07:14:46Z</time>
      </trkpt>
      <trkpt lat="43.97289" lon="5.08831">
        <ele>263.54</ele>
        <time>2012-04-09T07:14:48Z</time>
      </trkpt>
      <trkpt lat="43.97279" lon="5.0883">
        <ele>263.54</ele>
        <time>2012-04-09T07:14:52Z</time>
      </trkpt>
      <trkpt lat="43.97259" lon="5.08819">
        <ele>262.58</ele>
        <time>2012-04-09T07:15:02Z</time>
      </trkpt>
      <trkpt lat="43.9724" lon="5.0881">
        <ele>262.58</ele>
        <time>2012-04-09T07:15:12Z</time>
      </trkpt>
      <trkpt lat="43.97227" lon="5.08813">
        <ele>261.62</ele>
        <time>2012-04-09T07:15:17Z</time>
      </trkpt>
      <trkpt lat="43.97215" lon="5.08814">
        <ele>260.17</ele>
        <time>2012-04-09T07:15:20Z</time>
      </trkpt>
      <trkpt lat="43.9721" lon="5.08815">
        <ele>259.69</ele>
        <time>2012-04-09T07:15:22Z</time>
      </trkpt>
      <trkpt lat="43.97203" lon="5.08814">
        <ele>258.73</ele>
        <time>2012-04-09T07:15:25Z</time>
      </trkpt>
      <trkpt lat="43.97188" lon="5.08814">
        <ele>258.25</ele>
        <time>2012-04-09T07:15:28Z</time>
      </trkpt>
      <trkpt lat="43.97168" lon="5.08817">
        <ele>254.89</ele>
        <time>2012-04-09T07:15:36Z</time>
      </trkpt>
      <trkpt lat="43.9715" lon="5.08815">
        <ele>254.41</ele>
        <time>2012-04-09T07:15:44Z</time>
      </trkpt>
      <trkpt lat="43.97149" lon="5.08814">
        <ele>254.41</ele>
        <time>2012-04-09T07:15:45Z</time>
      </trkpt>
      <trkpt lat="43.97145" lon="5.08806">
        <ele>254.89</ele>
        <time>2012-04-09T07:15:48Z</time>
      </trkpt>
      <trkpt lat="43.97142" lon="5.08804">
        <ele>255.85</ele>
        <time>2012-04-09T07:15:51Z</time>
      </trkpt>
      <trkpt lat="43.97141" lon="5.08802">
        <ele>256.81</ele>
        <time>2012-04-09T07:15:55Z</time>
      </trkpt>
      <trkpt lat="43.97144" lon="5.08785">
        <ele>257.29</ele>
        <time>2012-04-09T07:16:04Z</time>
      </trkpt>
      <trkpt lat="43.9714" lon="5.08775">
        <ele>257.29</ele>
        <time>2012-04-09T07:16:08Z</time>
      </trkpt>
      <trkpt lat="43.97132" lon="5.08767">
        <ele>256.33</ele>
        <time>2012-04-09T07:16:12Z</time>
      </trkpt>
      <trkpt lat="43.97123" lon="5.0875">
        <ele>253.44</ele>
        <time>2012-04-09T07:16:18Z</time>
      </trkpt>
      <trkpt lat="43.97123" lon="5.08749">
        <ele>253.44</ele>
        <time>2012-04-09T07:16:19Z</time>
      </trkpt>
      <trkpt lat="43.97115" lon="5.08743">
        <ele>251.52</ele>
        <time>2012-04-09T07:16:24Z</time>
      </trkpt>
      <trkpt lat="43.97105" lon="5.08737">
        <ele>251.04</ele>
        <time>2012-04-09T07:16:28Z</time>
      </trkpt>
      <trkpt lat="43.97099" lon="5.08734">
        <ele>250.56</ele>
        <time>2012-04-09T07:16:31Z</time>
      </trkpt>
      <trkpt lat="43.97093" lon="5.08733">
        <ele>249.12</ele>
        <time>2012-04-09T07:16:34Z</time>
      </trkpt>
      <trkpt lat="43.97089" lon="5.08731">
        <ele>249.12</ele>
        <time>2012-04-09T07:16:36Z</time>
      </trkpt>
      <trkpt lat="43.97082" lon="5.08729">
        <ele>248.16</ele>
        <time>2012-04-09T07:16:38Z</time>
      </trkpt>
      <trkpt lat="43.97069" lon="5.08729">
        <ele>248.64</ele>
        <time>2012-04-09T07:16:42Z</time>
      </trkpt>
      <trkpt lat="43.97059" lon="5.08725">
        <ele>250.08</ele>
        <time>2012-04-09T07:16:48Z</time>
      </trkpt>
      <trkpt lat="43.97046" lon="5.08728">
        <ele>253.44</ele>
        <time>2012-04-09T07:16:58Z</time>
      </trkpt>
      <trkpt lat="43.97034" lon="5.08724">
        <ele>255.85</ele>
        <time>2012-04-09T07:17:06Z</time>
      </trkpt>
      <trkpt lat="43.97033" lon="5.08724">
        <ele>256.33</ele>
        <time>2012-04-09T07:17:07Z</time>
      </trkpt>
      <trkpt lat="43.97026" lon="5.08724">
        <ele>258.73</ele>
        <time>2012-04-09T07:17:15Z</time>
      </trkpt>
      <trkpt lat="43.97019" lon="5.08724">
        <ele>259.69</ele>
        <time>2012-04-09T07:17:19Z</time>
      </trkpt>
      <trkpt lat="43.97" lon="5.08744">
        <ele>260.17</ele>
        <time>2012-04-09T07:17:27Z</time>
      </trkpt>
      <trkpt lat="43.9699" lon="5.08765">
        <ele>260.17</ele>
        <time>2012-04-09T07:17:36Z</time>
      </trkpt>
      <trkpt lat="43.96987" lon="5.08769">
        <ele>260.65</ele>
        <time>2012-04-09T07:17:38Z</time>
      </trkpt>
      <trkpt lat="43.96983" lon="5.08773">
        <ele>259.21</ele>
        <time>2012-04-09T07:17:44Z</time>
      </trkpt>
      <trkpt lat="43.96982" lon="5.08771">
        <ele>259.69</ele>
        <time>2012-04-09T07:17:46Z</time>
      </trkpt>
      <trkpt lat="43.9697" lon="5.08758">
        <ele>257.29</ele>
        <time>2012-04-09T07:17:54Z</time>
      </trkpt>
      <trkpt lat="43.96962" lon="5.08757">
        <ele>256.33</ele>
        <time>2012-04-09T07:17:59Z</time>
      </trkpt>
      <trkpt lat="43.96957" lon="5.0875">
        <ele>256.81</ele>
        <time>2012-04-09T07:18:03Z</time>
      </trkpt>
      <trkpt lat="43.96954" lon="5.08747">
        <ele>255.85</ele>
        <time>2012-04-09T07:18:05Z</time>
      </trkpt>
      <trkpt lat="43.96946" lon="5.08746">
        <ele>256.81</ele>
        <time>2012-04-09T07:18:08Z</time>
      </trkpt>
      <trkpt lat="43.96933" lon="5.0875">
        <ele>256.81</ele>
        <time>2012-04-09T07:18:18Z</time>
      </trkpt>
      <trkpt lat="43.96933" lon="5.08749">
        <ele>256.33</ele>
        <time>2012-04-09T07:18:20Z</time>
      </trkpt>
      <trkpt lat="43.96932" lon="5.08746">
        <ele>255.85</ele>
        <time>2012-04-09T07:18:24Z</time>
      </trkpt>
      <trkpt lat="43.96916" lon="5.08749">
        <ele>256.33</ele>
        <time>2012-04-09T07:18:33Z</time>
      </trkpt>
      <trkpt lat="43.96904" lon="5.08752">
        <ele>257.77</ele>
        <time>2012-04-09T07:18:44Z</time>
      </trkpt>
      <trkpt lat="43.96895" lon="5.08754">
        <ele>257.77</ele>
        <time>2012-04-09T07:18:54Z</time>
      </trkpt>
      <trkpt lat="43.96893" lon="5.0875">
        <ele>256.33</ele>
        <time>2012-04-09T07:18:57Z</time>
      </trkpt>
      <trkpt lat="43.96888" lon="5.08745">
        <ele>255.37</ele>
        <time>2012-04-09T07:19:01Z</time>
      </trkpt>
      <trkpt lat="43.96881" lon="5.08743">
        <ele>254.89</ele>
        <time>2012-04-09T07:19:05Z</time>
      </trkpt>
      <trkpt lat="43.96869" lon="5.08735">
        <ele>252.96</ele>
        <time>2012-04-09T07:19:12Z</time>
      </trkpt>
      <trkpt lat="43.9686" lon="5.08726">
        <ele>252.48</ele>
        <time>2012-04-09T07:19:16Z</time>
      </trkpt>
      <trkpt lat="43.9685" lon="5.08705">
        <ele>251.52</ele>
        <time>2012-04-09T07:19:25Z</time>
      </trkpt>
      <trkpt lat="43.96845" lon="5.08698">
        <ele>251.04</ele>
        <time>2012-04-09T07:19:30Z</time>
      </trkpt>
      <trkpt lat="43.96836" lon="5.08685">
        <ele>249.6</ele>
        <time>2012-04-09T07:19:36Z</time>
      </trkpt>
      <trkpt lat="43.96831" lon="5.08678">
        <ele>249.12</ele>
        <time>2012-04-09T07:19:39Z</time>
      </trkpt>
      <trkpt lat="43.9683" lon="5.08662">
        <ele>247.2</ele>
        <time>2012-04-09T07:19:45Z</time>
      </trkpt>
      <trkpt lat="43.96833" lon="5.0865">
        <ele>246.72</ele>
        <time>2012-04-09T07:19:49Z</time>
      </trkpt>
      <trkpt lat="43.96834" lon="5.08633">
        <ele>246.72</ele>
        <time>2012-04-09T07:19:54Z</time>
      </trkpt>
      <trkpt lat="43.96834" lon="5.08622">
        <ele>245.27</ele>
        <time>2012-04-09T07:19:59Z</time>
      </trkpt>
      <trkpt lat="43.96838" lon="5.08609">
        <ele>245.27</ele>
        <time>2012-04-09T07:20:05Z</time>
      </trkpt>
      <trkpt lat="43.96839" lon="5.08603">
        <ele>245.27</ele>
        <time>2012-04-09T07:20:09Z</time>
      </trkpt>
      <trkpt lat="43.96847" lon="5.08568">
        <ele>242.39</ele>
        <time>2012-04-09T07:20:19Z</time>
      </trkpt>
      <trkpt lat="43.96848" lon="5.08562">
        <ele>241.43</ele>
        <time>2012-04-09T07:20:21Z</time>
      </trkpt>
      <trkpt lat="43.96844" lon="5.08541">
        <ele>239.99</ele>
        <time>2012-04-09T07:20:27Z</time>
      </trkpt>
      <trkpt lat="43.96831" lon="5.08535">
        <ele>239.51</ele>
        <time>2012-04-09T07:20:35Z</time>
      </trkpt>
      <trkpt lat="43.96821" lon="5.08527">
        <ele>236.62</ele>
        <time>2012-04-09T07:20:45Z</time>
      </trkpt>
      <trkpt lat="43.96808" lon="5.08523">
        <ele>236.62</ele>
        <time>2012-04-09T07:20:50Z</time>
      </trkpt>
      <trkpt lat="43.96798" lon="5.08512">
        <ele>236.14</ele>
        <time>2012-04-09T07:20:55Z</time>
      </trkpt>
      <trkpt lat="43.96792" lon="5.08507">
        <ele>235.18</ele>
        <time>2012-04-09T07:20:58Z</time>
      </trkpt>
      <trkpt lat="43.96788" lon="5.085">
        <ele>235.18</ele>
        <time>2012-04-09T07:21:02Z</time>
      </trkpt>
      <trkpt lat="43.96777" lon="5.08479">
        <ele>231.33</ele>
        <time>2012-04-09T07:21:13Z</time>
      </trkpt>
      <trkpt lat="43.96766" lon="5.08462">
        <ele>228.93</ele>
        <time>2012-04-09T07:21:23Z</time>
      </trkpt>
      <trkpt lat="43.96765" lon="5.08458">
        <ele>227.49</ele>
        <time>2012-04-09T07:21:25Z</time>
      </trkpt>
      <trkpt lat="43.96762" lon="5.08442">
        <ele>224.12</ele>
        <time>2012-04-09T07:21:31Z</time>
      </trkpt>
      <trkpt lat="43.96759" lon="5.08435">
        <ele>223.16</ele>
        <time>2012-04-09T07:21:33Z</time>
      </trkpt>
      <trkpt lat="43.96756" lon="5.08424">
        <ele>223.16</ele>
        <time>2012-04-09T07:21:36Z</time>
      </trkpt>
      <trkpt lat="43.96748" lon="5.08404">
        <ele>222.2</ele>
        <time>2012-04-09T07:21:42Z</time>
      </trkpt>
      <trkpt lat="43.96748" lon="5.08382">
        <ele>224.12</ele>
        <time>2012-04-09T07:21:50Z</time>
      </trkpt>
      <trkpt lat="43.96747" lon="5.08375">
        <ele>226.53</ele>
        <time>2012-04-09T07:21:56Z</time>
      </trkpt>
      <trkpt lat="43.96748" lon="5.08367">
        <ele>226.53</ele>
        <time>2012-04-09T07:21:59Z</time>
      </trkpt>
      <trkpt lat="43.96749" lon="5.08353">
        <ele>228.45</ele>
        <time>2012-04-09T07:22:04Z</time>
      </trkpt>
      <trkpt lat="43.96746" lon="5.08342">
        <ele>229.41</ele>
        <time>2012-04-09T07:22:08Z</time>
      </trkpt>
      <trkpt lat="43.96744" lon="5.08337">
        <ele>229.89</ele>
        <time>2012-04-09T07:22:10Z</time>
      </trkpt>
      <trkpt lat="43.96738" lon="5.08322">
        <ele>231.33</ele>
        <time>2012-04-09T07:22:17Z</time>
      </trkpt>
      <trkpt lat="43.96731" lon="5.08317">
        <ele>232.3</ele>
        <time>2012-04-09T07:22:21Z</time>
      </trkpt>
      <trkpt lat="43.96728" lon="5.08312">
        <ele>233.26</ele>
        <time>2012-04-09T07:22:24Z</time>
      </trkpt>
      <trkpt lat="43.96726" lon="5.08308">
        <ele>233.74</ele>
        <time>2012-04-09T07:22:26Z</time>
      </trkpt>
      <trkpt lat="43.96715" lon="5.08297">
        <ele>234.7</ele>
        <time>2012-04-09T07:22:34Z</time>
      </trkpt>
      <trkpt lat="43.96694" lon="5.08285">
        <ele>236.62</ele>
        <time>2012-04-09T07:22:44Z</time>
      </trkpt>
      <trkpt lat="43.96683" lon="5.0827">
        <ele>238.06</ele>
        <time>2012-04-09T07:22:53Z</time>
      </trkpt>
      <trkpt lat="43.96678" lon="5.08261">
        <ele>238.06</ele>
        <time>2012-04-09T07:22:57Z</time>
      </trkpt>
      <trkpt lat="43.96671" lon="5.08251">
        <ele>238.06</ele>
        <time>2012-04-09T07:23:02Z</time>
      </trkpt>
      <trkpt lat="43.96668" lon="5.08246">
        <ele>238.06</ele>
        <time>2012-04-09T07:23:04Z</time>
      </trkpt>
      <trkpt lat="43.96658" lon="5.08227">
        <ele>236.62</ele>
        <time>2012-04-09T07:23:12Z</time>
      </trkpt>
      <trkpt lat="43.96653" lon="5.08215">
        <ele>234.7</ele>
        <time>2012-04-09T07:23:17Z</time>
      </trkpt>
      <trkpt lat="43.96649" lon="5.08209">
        <ele>234.7</ele>
        <time>2012-04-09T07:23:20Z</time>
      </trkpt>
      <trkpt lat="43.96642" lon="5.08187">
        <ele>232.78</ele>
        <time>2012-04-09T07:23:27Z</time>
      </trkpt>
      <trkpt lat="43.96638" lon="5.08176">
        <ele>232.3</ele>
        <time>2012-04-09T07:23:31Z</time>
      </trkpt>
      <trkpt lat="43.96637" lon="5.08171">
        <ele>231.81</ele>
        <time>2012-04-09T07:23:33Z</time>
      </trkpt>
      <trkpt lat="43.96622" lon="5.08147">
        <ele>228.45</ele>
        <time>2012-04-09T07:23:43Z</time>
      </trkpt>
      <trkpt lat="43.96621" lon="5.08141">
        <ele>228.45</ele>
        <time>2012-04-09T07:23:45Z</time>
      </trkpt>
      <trkpt lat="43.9661" lon="5.08127">
        <ele>226.05</ele>
        <time>2012-04-09T07:23:51Z</time>
      </trkpt>
      <trkpt lat="43.96596" lon="5.08106">
        <ele>224.61</ele>
        <time>2012-04-09T07:24:00Z</time>
      </trkpt>
      <trkpt lat="43.96594" lon="5.08101">
        <ele>223.64</ele>
        <time>2012-04-09T07:24:02Z</time>
      </trkpt>
      <trkpt lat="43.96592" lon="5.08093">
        <ele>223.64</ele>
        <time>2012-04-09T07:24:05Z</time>
      </trkpt>
      <trkpt lat="43.96588" lon="5.08084">
        <ele>222.68</ele>
        <time>2012-04-09T07:24:09Z</time>
      </trkpt>
      <trkpt lat="43.96572" lon="5.08052">
        <ele>222.68</ele>
        <time>2012-04-09T07:24:19Z</time>
      </trkpt>
      <trkpt lat="43.96566" lon="5.08042">
        <ele>223.64</ele>
        <time>2012-04-09T07:24:24Z</time>
      </trkpt>
      <trkpt lat="43.96564" lon="5.08035">
        <ele>224.12</ele>
        <time>2012-04-09T07:24:27Z</time>
      </trkpt>
      <trkpt lat="43.96558" lon="5.08016">
        <ele>223.64</ele>
        <time>2012-04-09T07:24:37Z</time>
      </trkpt>
      <trkpt lat="43.96558" lon="5.08015">
        <ele>223.16</ele>
        <time>2012-04-09T07:24:38Z</time>
      </trkpt>
      <trkpt lat="43.96559" lon="5.08011">
        <ele>223.16</ele>
        <time>2012-04-09T07:24:40Z</time>
      </trkpt>
      <trkpt lat="43.96565" lon="5.08007">
        <ele>221.72</ele>
        <time>2012-04-09T07:24:45Z</time>
      </trkpt>
      <trkpt lat="43.96569" lon="5.07995">
        <ele>220.76</ele>
        <time>2012-04-09T07:24:50Z</time>
      </trkpt>
      <trkpt lat="43.96569" lon="5.0799">
        <ele>220.28</ele>
        <time>2012-04-09T07:25:00Z</time>
      </trkpt>
      <trkpt lat="43.96569" lon="5.0799">
        <ele>219.32</ele>
        <time>2012-04-09T07:25:07Z</time>
      </trkpt>
      <trkpt lat="43.96569" lon="5.07974">
        <ele>217.88</ele>
        <time>2012-04-09T07:25:13Z</time>
      </trkpt>
      <trkpt lat="43.96568" lon="5.07971">
        <ele>217.4</ele>
        <time>2012-04-09T07:25:14Z</time>
      </trkpt>
      <trkpt lat="43.96571" lon="5.07958">
        <ele>215.95</ele>
        <time>2012-04-09T07:25:18Z</time>
      </trkpt>
      <trkpt lat="43.96572" lon="5.07946">
        <ele>213.55</ele>
        <time>2012-04-09T07:25:24Z</time>
      </trkpt>
      <trkpt lat="43.96573" lon="5.07939">
        <ele>211.63</ele>
        <time>2012-04-09T07:25:27Z</time>
      </trkpt>
      <trkpt lat="43.96575" lon="5.07925">
        <ele>207.78</ele>
        <time>2012-04-09T07:25:31Z</time>
      </trkpt>
      <trkpt lat="43.96576" lon="5.07921">
        <ele>207.3</ele>
        <time>2012-04-09T07:25:32Z</time>
      </trkpt>
      <trkpt lat="43.96579" lon="5.07908">
        <ele>205.38</ele>
        <time>2012-04-09T07:25:36Z</time>
      </trkpt>
      <trkpt lat="43.96574" lon="5.07886">
        <ele>202.98</ele>
        <time>2012-04-09T07:25:45Z</time>
      </trkpt>
      <trkpt lat="43.96571" lon="5.0788">
        <ele>202.01</ele>
        <time>2012-04-09T07:25:49Z</time>
      </trkpt>
      <trkpt lat="43.96577" lon="5.07867">
        <ele>200.57</ele>
        <time>2012-04-09T07:26:01Z</time>
      </trkpt>
      <trkpt lat="43.96579" lon="5.07866">
        <ele>200.09</ele>
        <time>2012-04-09T07:26:03Z</time>
      </trkpt>
      <trkpt lat="43.96584" lon="5.07852">
        <ele>197.69</ele>
        <time>2012-04-09T07:26:16Z</time>
      </trkpt>
      <trkpt lat="43.9659" lon="5.07833">
        <ele>195.28</ele>
        <time>2012-04-09T07:26:23Z</time>
      </trkpt>
      <trkpt lat="43.96599" lon="5.07817">
        <ele>193.36</ele>
        <time>2012-04-09T07:26:29Z</time>
      </trkpt>
      <trkpt lat="43.96601" lon="5.07812">
        <ele>192.88</ele>
        <time>2012-04-09T07:26:31Z</time>
      </trkpt>
      <trkpt lat="43.96613" lon="5.07788">
        <ele>190</ele>
        <time>2012-04-09T07:26:41Z</time>
      </trkpt>
      <trkpt lat="43.96618" lon="5.0778">
        <ele>188.56</ele>
        <time>2012-04-09T07:26:46Z</time>
      </trkpt>
      <trkpt lat="43.96618" lon="5.07779">
        <ele>188.56</ele>
        <time>2012-04-09T07:27:04Z</time>
      </trkpt>
      <trkpt lat="43.96618" lon="5.07779">
        <ele>188.08</ele>
        <time>2012-04-09T07:27:05Z</time>
      </trkpt>
      <trkpt lat="43.96625" lon="5.07763">
        <ele>186.63</ele>
        <time>2012-04-09T07:27:10Z</time>
      </trkpt>
      <trkpt lat="43.96626" lon="5.07759">
        <ele>185.67</ele>
        <time>2012-04-09T07:27:12Z</time>
      </trkpt>
      <trkpt lat="43.9663" lon="5.07752">
        <ele>183.75</ele>
        <time>2012-04-09T07:27:16Z</time>
      </trkpt>
      <trkpt lat="43.96637" lon="5.07737">
        <ele>182.31</ele>
        <time>2012-04-09T07:27:22Z</time>
      </trkpt>
      <trkpt lat="43.96641" lon="5.07732">
        <ele>180.87</ele>
        <time>2012-04-09T07:27:33Z</time>
      </trkpt>
      <trkpt lat="43.96642" lon="5.07731">
        <ele>180.87</ele>
        <time>2012-04-09T07:27:45Z</time>
      </trkpt>
      <trkpt lat="43.96637" lon="5.07731">
        <ele>181.83</ele>
        <time>2012-04-09T07:27:48Z</time>
      </trkpt>
      <trkpt lat="43.96632" lon="5.07732">
        <ele>182.79</ele>
        <time>2012-04-09T07:27:52Z</time>
      </trkpt>
      <trkpt lat="43.96627" lon="5.07734">
        <ele>183.27</ele>
        <time>2012-04-09T07:27:58Z</time>
      </trkpt>
      <trkpt lat="43.96624" lon="5.07739">
        <ele>184.71</ele>
        <time>2012-04-09T07:28:04Z</time>
      </trkpt>
      <trkpt lat="43.9662" lon="5.07742">
        <ele>185.67</ele>
        <time>2012-04-09T07:28:10Z</time>
      </trkpt>
      <trkpt lat="43.96614" lon="5.07752">
        <ele>188.08</ele>
        <time>2012-04-09T07:28:19Z</time>
      </trkpt>
      <trkpt lat="43.96605" lon="5.0777">
        <ele>190</ele>
        <time>2012-04-09T07:28:32Z</time>
      </trkpt>
      <trkpt lat="43.96604" lon="5.07771">
        <ele>190</ele>
        <time>2012-04-09T07:28:33Z</time>
      </trkpt>
      <trkpt lat="43.96599" lon="5.07795">
        <ele>191.92</ele>
        <time>2012-04-09T07:28:47Z</time>
      </trkpt>
      <trkpt lat="43.96589" lon="5.07813">
        <ele>194.32</ele>
        <time>2012-04-09T07:29:00Z</time>
      </trkpt>
      <trkpt lat="43.96585" lon="5.07827">
        <ele>196.73</ele>
        <time>2012-04-09T07:29:11Z</time>
      </trkpt>
      <trkpt lat="43.96585" lon="5.07829">
        <ele>196.73</ele>
        <time>2012-04-09T07:29:12Z</time>
      </trkpt>
      <trkpt lat="43.96582" lon="5.07835">
        <ele>197.69</ele>
        <time>2012-04-09T07:29:16Z</time>
      </trkpt>
      <trkpt lat="43.96579" lon="5.07847">
        <ele>199.13</ele>
        <time>2012-04-09T07:29:24Z</time>
      </trkpt>
      <trkpt lat="43.9657" lon="5.07864">
        <ele>201.05</ele>
        <time>2012-04-09T07:29:37Z</time>
      </trkpt>
      <trkpt lat="43.96566" lon="5.07867">
        <ele>201.05</ele>
        <time>2012-04-09T07:29:43Z</time>
      </trkpt>
      <trkpt lat="43.96565" lon="5.07866">
        <ele>202.49</ele>
        <time>2012-04-09T07:29:49Z</time>
      </trkpt>
      <trkpt lat="43.96562" lon="5.07867">
        <ele>203.94</ele>
        <time>2012-04-09T07:29:53Z</time>
      </trkpt>
      <trkpt lat="43.96555" lon="5.07867">
        <ele>207.3</ele>
        <time>2012-04-09T07:30:04Z</time>
      </trkpt>
      <trkpt lat="43.9655" lon="5.07867">
        <ele>208.26</ele>
        <time>2012-04-09T07:30:11Z</time>
      </trkpt>
      <trkpt lat="43.96541" lon="5.07875">
        <ele>209.22</ele>
        <time>2012-04-09T07:30:20Z</time>
      </trkpt>
      <trkpt lat="43.9654" lon="5.0788">
        <ele>209.22</ele>
        <time>2012-04-09T07:30:24Z</time>
      </trkpt>
      <trkpt lat="43.96537" lon="5.07881">
        <ele>209.22</ele>
        <time>2012-04-09T07:30:27Z</time>
      </trkpt>
      <trkpt lat="43.96537" lon="5.07884">
        <ele>208.74</ele>
        <time>2012-04-09T07:30:29Z</time>
      </trkpt>
      <trkpt lat="43.96535" lon="5.07893">
        <ele>209.22</ele>
        <time>2012-04-09T07:30:37Z</time>
      </trkpt>
      <trkpt lat="43.96533" lon="5.07894">
        <ele>209.22</ele>
        <time>2012-04-09T07:30:39Z</time>
      </trkpt>
      <trkpt lat="43.96526" lon="5.07894">
        <ele>211.63</ele>
        <time>2012-04-09T07:30:51Z</time>
      </trkpt>
      <trkpt lat="43.96525" lon="5.07897">
        <ele>211.63</ele>
        <time>2012-04-09T07:30:54Z</time>
      </trkpt>
      <trkpt lat="43.96521" lon="5.0791">
        <ele>213.07</ele>
        <time>2012-04-09T07:31:02Z</time>
      </trkpt>
      <trkpt lat="43.96517" lon="5.07913">
        <ele>213.07</ele>
        <time>2012-04-09T07:31:05Z</time>
      </trkpt>
      <trkpt lat="43.96514" lon="5.0792">
        <ele>214.99</ele>
        <time>2012-04-09T07:31:15Z</time>
      </trkpt>
      <trkpt lat="43.9651" lon="5.0793">
        <ele>215.95</ele>
        <time>2012-04-09T07:31:23Z</time>
      </trkpt>
      <trkpt lat="43.96504" lon="5.07947">
        <ele>218.36</ele>
        <time>2012-04-09T07:31:35Z</time>
      </trkpt>
      <trkpt lat="43.96503" lon="5.07952">
        <ele>220.28</ele>
        <time>2012-04-09T07:31:40Z</time>
      </trkpt>
      <trkpt lat="43.96498" lon="5.07959">
        <ele>221.24</ele>
        <time>2012-04-09T07:31:48Z</time>
      </trkpt>
      <trkpt lat="43.96493" lon="5.07958">
        <ele>221.72</ele>
        <time>2012-04-09T07:31:53Z</time>
      </trkpt>
      <trkpt lat="43.96477" lon="5.0796">
        <ele>222.68</ele>
        <time>2012-04-09T07:32:02Z</time>
      </trkpt>
      <trkpt lat="43.96465" lon="5.07955">
        <ele>222.68</ele>
        <time>2012-04-09T07:32:13Z</time>
      </trkpt>
      <trkpt lat="43.96454" lon="5.07945">
        <ele>223.64</ele>
        <time>2012-04-09T07:32:20Z</time>
      </trkpt>
      <trkpt lat="43.96445" lon="5.0794">
        <ele>223.64</ele>
        <time>2012-04-09T07:32:24Z</time>
      </trkpt>
      <trkpt lat="43.96435" lon="5.07941">
        <ele>223.16</ele>
        <time>2012-04-09T07:32:29Z</time>
      </trkpt>
      <trkpt lat="43.96424" lon="5.07943">
        <ele>222.68</ele>
        <time>2012-04-09T07:32:36Z</time>
      </trkpt>
      <trkpt lat="43.96414" lon="5.0794">
        <ele>221.72</ele>
        <time>2012-04-09T07:32:41Z</time>
      </trkpt>
      <trkpt lat="43.96411" lon="5.07938">
        <ele>221.24</ele>
        <time>2012-04-09T07:32:43Z</time>
      </trkpt>
      <trkpt lat="43.964" lon="5.07933">
        <ele>219.32</ele>
        <time>2012-04-09T07:32:48Z</time>
      </trkpt>
      <trkpt lat="43.96392" lon="5.07923">
        <ele>216.43</ele>
        <time>2012-04-09T07:32:53Z</time>
      </trkpt>
      <trkpt lat="43.96386" lon="5.07906">
        <ele>214.03</ele>
        <time>2012-04-09T07:33:00Z</time>
      </trkpt>
      <trkpt lat="43.96383" lon="5.07901">
        <ele>212.11</ele>
        <time>2012-04-09T07:33:09Z</time>
      </trkpt>
      <trkpt lat="43.96374" lon="5.07886">
        <ele>210.67</ele>
        <time>2012-04-09T07:33:16Z</time>
      </trkpt>
      <trkpt lat="43.96369" lon="5.07879">
        <ele>210.19</ele>
        <time>2012-04-09T07:33:19Z</time>
      </trkpt>
      <trkpt lat="43.96367" lon="5.07876">
        <ele>209.22</ele>
        <time>2012-04-09T07:33:21Z</time>
      </trkpt>
      <trkpt lat="43.9636" lon="5.07865">
        <ele>208.26</ele>
        <time>2012-04-09T07:33:26Z</time>
      </trkpt>
      <trkpt lat="43.96356" lon="5.07863">
        <ele>207.78</ele>
        <time>2012-04-09T07:33:42Z</time>
      </trkpt>
      <trkpt lat="43.96356" lon="5.07863">
        <ele>208.26</ele>
        <time>2012-04-09T07:33:50Z</time>
      </trkpt>
      <trkpt lat="43.96343" lon="5.07834">
        <ele>206.82</ele>
        <time>2012-04-09T07:33:59Z</time>
      </trkpt>
      <trkpt lat="43.96338" lon="5.07822">
        <ele>206.34</ele>
        <time>2012-04-09T07:34:05Z</time>
      </trkpt>
      <trkpt lat="43.96322" lon="5.07822">
        <ele>205.86</ele>
        <time>2012-04-09T07:34:12Z</time>
      </trkpt>
      <trkpt lat="43.96316" lon="5.07826">
        <ele>205.86</ele>
        <time>2012-04-09T07:34:15Z</time>
      </trkpt>
      <trkpt lat="43.96302" lon="5.07834">
        <ele>204.9</ele>
        <time>2012-04-09T07:34:21Z</time>
      </trkpt>
      <trkpt lat="43.96277" lon="5.0783">
        <ele>205.86</ele>
        <time>2012-04-09T07:34:31Z</time>
      </trkpt>
      <trkpt lat="43.96259" lon="5.07815">
        <ele>206.34</ele>
        <time>2012-04-09T07:34:40Z</time>
      </trkpt>
      <trkpt lat="43.96247" lon="5.07808">
        <ele>206.82</ele>
        <time>2012-04-09T07:34:47Z</time>
      </trkpt>
      <trkpt lat="43.96238" lon="5.07805">
        <ele>206.34</ele>
        <time>2012-04-09T07:34:52Z</time>
      </trkpt>
      <trkpt lat="43.96226" lon="5.078">
        <ele>206.34</ele>
        <time>2012-04-09T07:34:58Z</time>
      </trkpt>
      <trkpt lat="43.96211" lon="5.07795">
        <ele>205.38</ele>
        <time>2012-04-09T07:35:04Z</time>
      </trkpt>
      <trkpt lat="43.96197" lon="5.07772">
        <ele>204.42</ele>
        <time>2012-04-09T07:35:13Z</time>
      </trkpt>
      <trkpt lat="43.96195" lon="5.07767">
        <ele>202.98</ele>
        <time>2012-04-09T07:35:15Z</time>
      </trkpt>
      <trkpt lat="43.96192" lon="5.07755">
        <ele>202.01</ele>
        <time>2012-04-09T07:35:20Z</time>
      </trkpt>
      <trkpt lat="43.96188" lon="5.07745">
        <ele>201.05</ele>
        <time>2012-04-09T07:35:24Z</time>
      </trkpt>
      <trkpt lat="43.96178" lon="5.07724">
        <ele>198.17</ele>
        <time>2012-04-09T07:35:34Z</time>
      </trkpt>
      <trkpt lat="43.96163" lon="5.07704">
        <ele>197.21</ele>
        <time>2012-04-09T07:35:42Z</time>
      </trkpt>
      <trkpt lat="43.96161" lon="5.077">
        <ele>196.25</ele>
        <time>2012-04-09T07:35:43Z</time>
      </trkpt>
      <trkpt lat="43.96155" lon="5.07674">
        <ele>194.8</ele>
        <time>2012-04-09T07:35:54Z</time>
      </trkpt>
      <trkpt lat="43.96153" lon="5.07668">
        <ele>193.36</ele>
        <time>2012-04-09T07:35:59Z</time>
      </trkpt>
      <trkpt lat="43.96153" lon="5.07665">
        <ele>191.92</ele>
        <time>2012-04-09T07:36:06Z</time>
      </trkpt>
      <trkpt lat="43.9615" lon="5.07647">
        <ele>190.96</ele>
        <time>2012-04-09T07:36:19Z</time>
      </trkpt>
      <trkpt lat="43.96149" lon="5.07644">
        <ele>190.48</ele>
        <time>2012-04-09T07:36:20Z</time>
      </trkpt>
      <trkpt lat="43.96145" lon="5.07633">
        <ele>189.52</ele>
        <time>2012-04-09T07:36:24Z</time>
      </trkpt>
      <trkpt lat="43.96143" lon="5.07623">
        <ele>189.04</ele>
        <time>2012-04-09T07:36:28Z</time>
      </trkpt>
      <trkpt lat="43.96133" lon="5.07614">
        <ele>188.08</ele>
        <time>2012-04-09T07:36:41Z</time>
      </trkpt>
      <trkpt lat="43.96131" lon="5.07612">
        <ele>188.08</ele>
        <time>2012-04-09T07:36:43Z</time>
      </trkpt>
      <trkpt lat="43.9613" lon="5.0761">
        <ele>187.59</ele>
        <time>2012-04-09T07:36:48Z</time>
      </trkpt>
      <trkpt lat="43.96121" lon="5.07604">
        <ele>187.11</ele>
        <time>2012-04-09T07:36:57Z</time>
      </trkpt>
      <trkpt lat="43.96126" lon="5.07607">
        <ele>187.59</ele>
        <time>2012-04-09T07:37:09Z</time>
      </trkpt>
      <trkpt lat="43.96131" lon="5.07604">
        <ele>187.11</ele>
        <time>2012-04-09T07:37:17Z</time>
      </trkpt>
      <trkpt lat="43.96132" lon="5.07604">
        <ele>187.59</ele>
        <time>2012-04-09T07:37:20Z</time>
      </trkpt>
      <trkpt lat="43.96135" lon="5.076">
        <ele>187.59</ele>
        <time>2012-04-09T07:37:25Z</time>
      </trkpt>
      <trkpt lat="43.96138" lon="5.07588">
        <ele>187.59</ele>
        <time>2012-04-09T07:37:38Z</time>
      </trkpt>
      <trkpt lat="43.96138" lon="5.07584">
        <ele>187.11</ele>
        <time>2012-04-09T07:37:40Z</time>
      </trkpt>
      <trkpt lat="43.96137" lon="5.07553">
        <ele>185.19</ele>
        <time>2012-04-09T07:37:50Z</time>
      </trkpt>
      <trkpt lat="43.96136" lon="5.07546">
        <ele>184.71</ele>
        <time>2012-04-09T07:37:52Z</time>
      </trkpt>
      <trkpt lat="43.96137" lon="5.07528">
        <ele>183.27</ele>
        <time>2012-04-09T07:37:58Z</time>
      </trkpt>
      <trkpt lat="43.96138" lon="5.07517">
        <ele>183.27</ele>
        <time>2012-04-09T07:38:00Z</time>
      </trkpt>
      <trkpt lat="43.96136" lon="5.0748">
        <ele>181.83</ele>
        <time>2012-04-09T07:38:10Z</time>
      </trkpt>
      <trkpt lat="43.96136" lon="5.07473">
        <ele>181.35</ele>
        <time>2012-04-09T07:38:12Z</time>
      </trkpt>
      <trkpt lat="43.9613" lon="5.0746">
        <ele>180.87</ele>
        <time>2012-04-09T07:38:22Z</time>
      </trkpt>
      <trkpt lat="43.96123" lon="5.07446">
        <ele>179.42</ele>
        <time>2012-04-09T07:38:34Z</time>
      </trkpt>
      <trkpt lat="43.96117" lon="5.07449">
        <ele>179.42</ele>
        <time>2012-04-09T07:38:39Z</time>
      </trkpt>
      <trkpt lat="43.96108" lon="5.07455">
        <ele>178.94</ele>
        <time>2012-04-09T07:38:44Z</time>
      </trkpt>
      <trkpt lat="43.96091" lon="5.07443">
        <ele>177.5</ele>
        <time>2012-04-09T07:38:54Z</time>
      </trkpt>
      <trkpt lat="43.96084" lon="5.07435">
        <ele>178.94</ele>
        <time>2012-04-09T07:39:08Z</time>
      </trkpt>
      <trkpt lat="43.9608" lon="5.07432">
        <ele>172.69</ele>
        <time>2012-04-09T07:39:11Z</time>
      </trkpt>
      <trkpt lat="43.9608" lon="5.07431">
        <ele>184.23</ele>
        <time>2012-04-09T07:39:12Z</time>
      </trkpt>
      <trkpt lat="43.96079" lon="5.0743">
        <ele>176.06</ele>
        <time>2012-04-09T07:39:13Z</time>
      </trkpt>
      <trkpt lat="43.96078" lon="5.0743">
        <ele>175.58</ele>
        <time>2012-04-09T07:39:30Z</time>
      </trkpt>
      <trkpt lat="43.96078" lon="5.07429">
        <ele>175.58</ele>
        <time>2012-04-09T07:39:49Z</time>
      </trkpt>
      <trkpt lat="43.96076" lon="5.07432">
        <ele>175.58</ele>
        <time>2012-04-09T07:40:06Z</time>
      </trkpt>
      <trkpt lat="43.96073" lon="5.07429">
        <ele>174.62</ele>
        <time>2012-04-09T07:40:08Z</time>
      </trkpt>
      <trkpt lat="43.96061" lon="5.07426">
        <ele>174.14</ele>
        <time>2012-04-09T07:40:12Z</time>
      </trkpt>
      <trkpt lat="43.96055" lon="5.07412">
        <ele>170.77</ele>
        <time>2012-04-09T07:40:18Z</time>
      </trkpt>
      <trkpt lat="43.96057" lon="5.07411">
        <ele>173.17</ele>
        <time>2012-04-09T07:40:19Z</time>
      </trkpt>
    </trkseg>
  </trk>
</gpx>